<?xml version='1.0' encoding='UTF-8'?><gpx version="1.1" creator="JPX - https://github.com/jenetics/jpx" xmlns="http://www.topografix.com/GPX/1/1"><trk><trkseg><trkpt lat="45.2635844" lon="10.8022642"><ele>36.0</ele><time>2026-04-23T13:27:44.185Z</time></trkpt><trkpt lat="45.2635333" lon="10.8021835"><ele>36.0</ele><time>2026-04-23T13:29:43.186Z</time></trkpt><trkpt lat="45.2636107" lon="10.8021225"><ele>36.0</ele><time>2026-04-23T13:29:46.185Z</time></trkpt><trkpt lat="45.2636975" lon="10.8021483"><ele>36.0</ele><time>2026-04-23T13:29:49.184Z</time></trkpt><trkpt lat="45.2637342" lon="10.8022479"><ele>36.0</ele><time>2026-04-23T13:29:51.184Z</time></trkpt><trkpt lat="45.2637773" lon="10.8023777"><ele>36.0</ele><time>2026-04-23T13:29:53.185Z</time></trkpt><trkpt lat="45.2638268" lon="10.8025426"><ele>36.0</ele><time>2026-04-23T13:29:55.185Z</time></trkpt><trkpt lat="45.2638582" lon="10.8026421"><ele>36.0</ele><time>2026-04-23T13:29:56.184Z</time></trkpt><trkpt lat="45.26389" lon="10.802748"><ele>36.0</ele><time>2026-04-23T13:29:57.184Z</time></trkpt><trkpt lat="45.2639253" lon="10.8028554"><ele>36.0</ele><time>2026-04-23T13:29:58.185Z</time></trkpt><trkpt lat="45.2639628" lon="10.8029599"><ele>36.0</ele><time>2026-04-23T13:29:59.184Z</time></trkpt><trkpt lat="45.2639951" lon="10.803057"><ele>36.0</ele><time>2026-04-23T13:30:00.185Z</time></trkpt><trkpt lat="45.264023" lon="10.8031459"><ele>36.2</ele><time>2026-04-23T13:30:01.184Z</time></trkpt><trkpt lat="45.2640682" lon="10.8032643"><ele>36.400000000000006</ele><time>2026-04-23T13:30:03.184Z</time></trkpt><trkpt lat="45.2641149" lon="10.803368"><ele>36.6</ele><time>2026-04-23T13:30:05.185Z</time></trkpt><trkpt lat="45.264169" lon="10.8035302"><ele>36.800000000000004</ele><time>2026-04-23T13:30:07.185Z</time></trkpt><trkpt lat="45.2642032" lon="10.8036286"><ele>37.0</ele><time>2026-04-23T13:30:08.185Z</time></trkpt><trkpt lat="45.264236" lon="10.8037341"><ele>37.0</ele><time>2026-04-23T13:30:09.185Z</time></trkpt><trkpt lat="45.264269" lon="10.8038483"><ele>37.0</ele><time>2026-04-23T13:30:10.185Z</time></trkpt><trkpt lat="45.264305" lon="10.803964"><ele>37.0</ele><time>2026-04-23T13:30:11.185Z</time></trkpt><trkpt lat="45.2643473" lon="10.804084"><ele>37.0</ele><time>2026-04-23T13:30:12.185Z</time></trkpt><trkpt lat="45.2643851" lon="10.8042078"><ele>37.0</ele><time>2026-04-23T13:30:13.185Z</time></trkpt><trkpt lat="45.2644231" lon="10.8043318"><ele>37.0</ele><time>2026-04-23T13:30:14.185Z</time></trkpt><trkpt lat="45.2644611" lon="10.8044578"><ele>37.0</ele><time>2026-04-23T13:30:15.185Z</time></trkpt><trkpt lat="45.2644962" lon="10.8045784"><ele>37.0</ele><time>2026-04-23T13:30:16.185Z</time></trkpt><trkpt lat="45.2645305" lon="10.8046999"><ele>37.0</ele><time>2026-04-23T13:30:17.184Z</time></trkpt><trkpt lat="45.2645686" lon="10.80482"><ele>37.0</ele><time>2026-04-23T13:30:18.184Z</time></trkpt><trkpt lat="45.2646071" lon="10.8049462"><ele>37.0</ele><time>2026-04-23T13:30:19.185Z</time></trkpt><trkpt lat="45.2646449" lon="10.8050658"><ele>37.0</ele><time>2026-04-23T13:30:20.185Z</time></trkpt><trkpt lat="45.2646784" lon="10.805176"><ele>37.0</ele><time>2026-04-23T13:30:21.184Z</time></trkpt><trkpt lat="45.2647073" lon="10.805277"><ele>37.0</ele><time>2026-04-23T13:30:22.186Z</time></trkpt><trkpt lat="45.2647354" lon="10.8053675"><ele>37.0</ele><time>2026-04-23T13:30:23.185Z</time></trkpt><trkpt lat="45.2647656" lon="10.8054543"><ele>37.0</ele><time>2026-04-23T13:30:24.185Z</time></trkpt><trkpt lat="45.2647959" lon="10.8055582"><ele>37.0</ele><time>2026-04-23T13:30:25.186Z</time></trkpt><trkpt lat="45.2648332" lon="10.8056736"><ele>37.0</ele><time>2026-04-23T13:30:26.185Z</time></trkpt><trkpt lat="45.2648725" lon="10.8057981"><ele>37.0</ele><time>2026-04-23T13:30:27.184Z</time></trkpt><trkpt lat="45.2649147" lon="10.8059298"><ele>37.0</ele><time>2026-04-23T13:30:28.185Z</time></trkpt><trkpt lat="45.2649559" lon="10.8060623"><ele>37.0</ele><time>2026-04-23T13:30:29.185Z</time></trkpt><trkpt lat="45.2650011" lon="10.8061995"><ele>37.0</ele><time>2026-04-23T13:30:30.185Z</time></trkpt><trkpt lat="45.2650475" lon="10.8063375"><ele>37.0</ele><time>2026-04-23T13:30:31.184Z</time></trkpt><trkpt lat="45.265093" lon="10.806477"><ele>37.0</ele><time>2026-04-23T13:30:32.185Z</time></trkpt><trkpt lat="45.2651358" lon="10.8066187"><ele>37.0</ele><time>2026-04-23T13:30:33.184Z</time></trkpt><trkpt lat="45.2651791" lon="10.8067547"><ele>37.0</ele><time>2026-04-23T13:30:34.185Z</time></trkpt><trkpt lat="45.2652208" lon="10.806881"><ele>36.833333333333336</ele><time>2026-04-23T13:30:35.185Z</time></trkpt><trkpt lat="45.265259" lon="10.8069969"><ele>36.66666666666667</ele><time>2026-04-23T13:30:36.184Z</time></trkpt><trkpt lat="45.265293" lon="10.8070993"><ele>36.5</ele><time>2026-04-23T13:30:37.185Z</time></trkpt><trkpt lat="45.265319" lon="10.807182"><ele>36.333333333333336</ele><time>2026-04-23T13:30:38.185Z</time></trkpt><trkpt lat="45.2653494" lon="10.8072712"><ele>36.166666666666664</ele><time>2026-04-23T13:30:40.185Z</time></trkpt><trkpt lat="45.2654284" lon="10.8073209"><ele>36.0</ele><time>2026-04-23T13:30:46.184Z</time></trkpt><trkpt lat="45.2655552" lon="10.8073105"><ele>36.2</ele><time>2026-04-23T13:30:48.184Z</time></trkpt><trkpt lat="45.265637" lon="10.8072975"><ele>36.400000000000006</ele><time>2026-04-23T13:30:49.184Z</time></trkpt><trkpt lat="45.2657282" lon="10.8072742"><ele>36.6</ele><time>2026-04-23T13:30:50.185Z</time></trkpt><trkpt lat="45.2658239" lon="10.8072464"><ele>36.800000000000004</ele><time>2026-04-23T13:30:51.184Z</time></trkpt><trkpt lat="45.2659281" lon="10.8072183"><ele>37.0</ele><time>2026-04-23T13:30:52.184Z</time></trkpt><trkpt lat="45.2660401" lon="10.8071849"><ele>37.0</ele><time>2026-04-23T13:30:53.184Z</time></trkpt><trkpt lat="45.2661589" lon="10.8071508"><ele>37.0</ele><time>2026-04-23T13:30:54.185Z</time></trkpt><trkpt lat="45.2662807" lon="10.8071174"><ele>37.0</ele><time>2026-04-23T13:30:55.184Z</time></trkpt><trkpt lat="45.2664085" lon="10.8070802"><ele>37.0</ele><time>2026-04-23T13:30:56.186Z</time></trkpt><trkpt lat="45.2665426" lon="10.8070412"><ele>37.0</ele><time>2026-04-23T13:30:57.184Z</time></trkpt><trkpt lat="45.2666832" lon="10.8070016"><ele>37.0</ele><time>2026-04-23T13:30:58.185Z</time></trkpt><trkpt lat="45.2668283" lon="10.8069615"><ele>37.0</ele><time>2026-04-23T13:30:59.184Z</time></trkpt><trkpt lat="45.2669734" lon="10.8069211"><ele>37.0</ele><time>2026-04-23T13:31:00.185Z</time></trkpt><trkpt lat="45.2671217" lon="10.8068779"><ele>37.0</ele><time>2026-04-23T13:31:01.185Z</time></trkpt><trkpt lat="45.2672736" lon="10.8068322"><ele>37.0</ele><time>2026-04-23T13:31:02.185Z</time></trkpt><trkpt lat="45.2674269" lon="10.8067883"><ele>37.0</ele><time>2026-04-23T13:31:03.185Z</time></trkpt><trkpt lat="45.2675828" lon="10.8067438"><ele>36.333333333333336</ele><time>2026-04-23T13:31:04.184Z</time></trkpt><trkpt lat="45.2677413" lon="10.8066979"><ele>35.666666666666664</ele><time>2026-04-23T13:31:05.186Z</time></trkpt><trkpt lat="45.2679023" lon="10.8066524"><ele>35.0</ele><time>2026-04-23T13:31:06.184Z</time></trkpt><trkpt lat="45.2680625" lon="10.8066076"><ele>35.33333333333333</ele><time>2026-04-23T13:31:07.184Z</time></trkpt><trkpt lat="45.2682264" lon="10.8065621"><ele>35.666666666666664</ele><time>2026-04-23T13:31:08.186Z</time></trkpt><trkpt lat="45.2683944" lon="10.8065155"><ele>36.0</ele><time>2026-04-23T13:31:09.185Z</time></trkpt><trkpt lat="45.2685622" lon="10.8064716"><ele>36.0</ele><time>2026-04-23T13:31:10.185Z</time></trkpt><trkpt lat="45.2687337" lon="10.8064252"><ele>36.0</ele><time>2026-04-23T13:31:11.185Z</time></trkpt><trkpt lat="45.2689055" lon="10.8063743"><ele>36.0</ele><time>2026-04-23T13:31:12.184Z</time></trkpt><trkpt lat="45.2690782" lon="10.8063247"><ele>36.0</ele><time>2026-04-23T13:31:13.186Z</time></trkpt><trkpt lat="45.2692549" lon="10.8062746"><ele>36.0</ele><time>2026-04-23T13:31:14.184Z</time></trkpt><trkpt lat="45.2694317" lon="10.8062224"><ele>36.0</ele><time>2026-04-23T13:31:15.185Z</time></trkpt><trkpt lat="45.2696113" lon="10.8061727"><ele>36.333333333333336</ele><time>2026-04-23T13:31:16.185Z</time></trkpt><trkpt lat="45.2697911" lon="10.8061186"><ele>36.66666666666667</ele><time>2026-04-23T13:31:17.186Z</time></trkpt><trkpt lat="45.2699728" lon="10.8060656"><ele>37.0</ele><time>2026-04-23T13:31:18.185Z</time></trkpt><trkpt lat="45.2701581" lon="10.806015"><ele>37.0</ele><time>2026-04-23T13:31:19.184Z</time></trkpt><trkpt lat="45.2703433" lon="10.8059607"><ele>37.0</ele><time>2026-04-23T13:31:20.184Z</time></trkpt><trkpt lat="45.2705276" lon="10.8059082"><ele>37.0</ele><time>2026-04-23T13:31:21.185Z</time></trkpt><trkpt lat="45.2707159" lon="10.8058522"><ele>37.0</ele><time>2026-04-23T13:31:22.184Z</time></trkpt><trkpt lat="45.2709063" lon="10.8057993"><ele>37.0</ele><time>2026-04-23T13:31:23.185Z</time></trkpt><trkpt lat="45.271096" lon="10.8057461"><ele>37.0</ele><time>2026-04-23T13:31:24.185Z</time></trkpt><trkpt lat="45.2712853" lon="10.8056953"><ele>36.66666666666667</ele><time>2026-04-23T13:31:25.184Z</time></trkpt><trkpt lat="45.2714771" lon="10.8056424"><ele>36.333333333333336</ele><time>2026-04-23T13:31:26.185Z</time></trkpt><trkpt lat="45.2716688" lon="10.8055877"><ele>36.0</ele><time>2026-04-23T13:31:27.184Z</time></trkpt><trkpt lat="45.2718567" lon="10.8055341"><ele>36.0</ele><time>2026-04-23T13:31:28.186Z</time></trkpt><trkpt lat="45.272047" lon="10.8054778"><ele>36.0</ele><time>2026-04-23T13:31:29.185Z</time></trkpt><trkpt lat="45.27224" lon="10.8054217"><ele>36.0</ele><time>2026-04-23T13:31:30.185Z</time></trkpt><trkpt lat="45.2724302" lon="10.805368"><ele>36.333333333333336</ele><time>2026-04-23T13:31:31.185Z</time></trkpt><trkpt lat="45.2726204" lon="10.8053111"><ele>36.66666666666667</ele><time>2026-04-23T13:31:32.185Z</time></trkpt><trkpt lat="45.2728099" lon="10.8052543"><ele>37.0</ele><time>2026-04-23T13:31:33.185Z</time></trkpt><trkpt lat="45.2730022" lon="10.8052032"><ele>37.333333333333336</ele><time>2026-04-23T13:31:34.185Z</time></trkpt><trkpt lat="45.2731925" lon="10.8051486"><ele>37.666666666666664</ele><time>2026-04-23T13:31:35.185Z</time></trkpt><trkpt lat="45.2733795" lon="10.805092"><ele>38.0</ele><time>2026-04-23T13:31:36.185Z</time></trkpt><trkpt lat="45.2735746" lon="10.8050365"><ele>38.0</ele><time>2026-04-23T13:31:37.184Z</time></trkpt><trkpt lat="45.273763" lon="10.8049802"><ele>38.0</ele><time>2026-04-23T13:31:38.186Z</time></trkpt><trkpt lat="45.2739528" lon="10.8049227"><ele>38.0</ele><time>2026-04-23T13:31:39.185Z</time></trkpt><trkpt lat="45.2741375" lon="10.8048576"><ele>38.33333333333333</ele><time>2026-04-23T13:31:40.184Z</time></trkpt><trkpt lat="45.2743215" lon="10.8047781"><ele>38.666666666666664</ele><time>2026-04-23T13:31:41.185Z</time></trkpt><trkpt lat="45.2745005" lon="10.8046825"><ele>39.0</ele><time>2026-04-23T13:31:42.185Z</time></trkpt><trkpt lat="45.2746812" lon="10.8045693"><ele>38.666666666666664</ele><time>2026-04-23T13:31:43.184Z</time></trkpt><trkpt lat="45.2748547" lon="10.8044486"><ele>38.33333333333333</ele><time>2026-04-23T13:31:44.184Z</time></trkpt><trkpt lat="45.2750251" lon="10.8043155"><ele>38.0</ele><time>2026-04-23T13:31:45.184Z</time></trkpt><trkpt lat="45.2751886" lon="10.8041679"><ele>38.0</ele><time>2026-04-23T13:31:46.186Z</time></trkpt><trkpt lat="45.2753503" lon="10.8040131"><ele>38.0</ele><time>2026-04-23T13:31:47.185Z</time></trkpt><trkpt lat="45.2755067" lon="10.8038448"><ele>38.0</ele><time>2026-04-23T13:31:48.184Z</time></trkpt><trkpt lat="45.2756626" lon="10.8036796"><ele>38.0</ele><time>2026-04-23T13:31:49.185Z</time></trkpt><trkpt lat="45.2758195" lon="10.8035124"><ele>38.0</ele><time>2026-04-23T13:31:50.184Z</time></trkpt><trkpt lat="45.2759788" lon="10.8033444"><ele>38.0</ele><time>2026-04-23T13:31:51.184Z</time></trkpt><trkpt lat="45.2761433" lon="10.8031741"><ele>38.666666666666664</ele><time>2026-04-23T13:31:52.184Z</time></trkpt><trkpt lat="45.2763086" lon="10.8029995"><ele>39.333333333333336</ele><time>2026-04-23T13:31:53.184Z</time></trkpt><trkpt lat="45.2764821" lon="10.8028531"><ele>40.0</ele><time>2026-04-23T13:31:54.186Z</time></trkpt><trkpt lat="45.2766554" lon="10.8027118"><ele>40.0</ele><time>2026-04-23T13:31:55.184Z</time></trkpt><trkpt lat="45.2768342" lon="10.8025923"><ele>40.0</ele><time>2026-04-23T13:31:56.184Z</time></trkpt><trkpt lat="45.2770227" lon="10.8024804"><ele>40.0</ele><time>2026-04-23T13:31:57.185Z</time></trkpt><trkpt lat="45.2772143" lon="10.8023815"><ele>39.66666666666667</ele><time>2026-04-23T13:31:58.185Z</time></trkpt><trkpt lat="45.2774146" lon="10.8022977"><ele>39.333333333333336</ele><time>2026-04-23T13:31:59.184Z</time></trkpt><trkpt lat="45.2776159" lon="10.8022312"><ele>39.0</ele><time>2026-04-23T13:32:00.184Z</time></trkpt><trkpt lat="45.2778202" lon="10.8021793"><ele>39.0</ele><time>2026-04-23T13:32:01.184Z</time></trkpt><trkpt lat="45.2780256" lon="10.8021451"><ele>39.0</ele><time>2026-04-23T13:32:02.186Z</time></trkpt><trkpt lat="45.2782322" lon="10.8021245"><ele>39.0</ele><time>2026-04-23T13:32:03.184Z</time></trkpt><trkpt lat="45.27844" lon="10.8021148"><ele>38.666666666666664</ele><time>2026-04-23T13:32:04.184Z</time></trkpt><trkpt lat="45.2786472" lon="10.802102"><ele>38.33333333333333</ele><time>2026-04-23T13:32:05.185Z</time></trkpt><trkpt lat="45.2788553" lon="10.8020905"><ele>38.0</ele><time>2026-04-23T13:32:06.185Z</time></trkpt><trkpt lat="45.2790636" lon="10.8020817"><ele>38.666666666666664</ele><time>2026-04-23T13:32:07.185Z</time></trkpt><trkpt lat="45.2792716" lon="10.8020714"><ele>39.333333333333336</ele><time>2026-04-23T13:32:08.184Z</time></trkpt><trkpt lat="45.2794769" lon="10.8020594"><ele>40.0</ele><time>2026-04-23T13:32:09.185Z</time></trkpt><trkpt lat="45.2796863" lon="10.8020491"><ele>40.0</ele><time>2026-04-23T13:32:10.185Z</time></trkpt><trkpt lat="45.2798931" lon="10.8020372"><ele>40.0</ele><time>2026-04-23T13:32:11.185Z</time></trkpt><trkpt lat="45.2801007" lon="10.8020289"><ele>40.0</ele><time>2026-04-23T13:32:12.184Z</time></trkpt><trkpt lat="45.2803064" lon="10.8020196"><ele>40.0</ele><time>2026-04-23T13:32:13.184Z</time></trkpt><trkpt lat="45.2805153" lon="10.8020096"><ele>40.0</ele><time>2026-04-23T13:32:14.185Z</time></trkpt><trkpt lat="45.2807235" lon="10.8019961"><ele>40.0</ele><time>2026-04-23T13:32:15.185Z</time></trkpt><trkpt lat="45.2809304" lon="10.8019822"><ele>40.333333333333336</ele><time>2026-04-23T13:32:16.185Z</time></trkpt><trkpt lat="45.281138" lon="10.8019688"><ele>40.666666666666664</ele><time>2026-04-23T13:32:17.184Z</time></trkpt><trkpt lat="45.2813473" lon="10.8019576"><ele>41.0</ele><time>2026-04-23T13:32:18.185Z</time></trkpt><trkpt lat="45.2815539" lon="10.8019487"><ele>41.0</ele><time>2026-04-23T13:32:19.184Z</time></trkpt><trkpt lat="45.281761" lon="10.8019397"><ele>41.0</ele><time>2026-04-23T13:32:20.184Z</time></trkpt><trkpt lat="45.2819701" lon="10.8019287"><ele>41.0</ele><time>2026-04-23T13:32:21.184Z</time></trkpt><trkpt lat="45.2821804" lon="10.8019176"><ele>41.0</ele><time>2026-04-23T13:32:22.186Z</time></trkpt><trkpt lat="45.2823902" lon="10.8019074"><ele>41.0</ele><time>2026-04-23T13:32:23.184Z</time></trkpt><trkpt lat="45.2826016" lon="10.8018934"><ele>41.0</ele><time>2026-04-23T13:32:24.184Z</time></trkpt><trkpt lat="45.2828112" lon="10.8018814"><ele>41.0</ele><time>2026-04-23T13:32:25.184Z</time></trkpt><trkpt lat="45.283022" lon="10.801869"><ele>41.0</ele><time>2026-04-23T13:32:26.185Z</time></trkpt><trkpt lat="45.2832302" lon="10.8018552"><ele>41.0</ele><time>2026-04-23T13:32:27.185Z</time></trkpt><trkpt lat="45.2834412" lon="10.8018401"><ele>41.0</ele><time>2026-04-23T13:32:28.185Z</time></trkpt><trkpt lat="45.2836508" lon="10.8018259"><ele>41.0</ele><time>2026-04-23T13:32:29.185Z</time></trkpt><trkpt lat="45.2838623" lon="10.8018121"><ele>41.0</ele><time>2026-04-23T13:32:30.184Z</time></trkpt><trkpt lat="45.2840722" lon="10.8018034"><ele>41.33333333333333</ele><time>2026-04-23T13:32:31.184Z</time></trkpt><trkpt lat="45.2842838" lon="10.8017922"><ele>41.666666666666664</ele><time>2026-04-23T13:32:32.184Z</time></trkpt><trkpt lat="45.2844956" lon="10.8017809"><ele>42.0</ele><time>2026-04-23T13:32:33.185Z</time></trkpt><trkpt lat="45.2847069" lon="10.801773"><ele>41.666666666666664</ele><time>2026-04-23T13:32:34.185Z</time></trkpt><trkpt lat="45.2849201" lon="10.8017605"><ele>41.33333333333333</ele><time>2026-04-23T13:32:35.185Z</time></trkpt><trkpt lat="45.2851329" lon="10.8017457"><ele>41.0</ele><time>2026-04-23T13:32:36.185Z</time></trkpt><trkpt lat="45.2853469" lon="10.80173"><ele>41.0</ele><time>2026-04-23T13:32:37.185Z</time></trkpt><trkpt lat="45.2855599" lon="10.8017187"><ele>41.0</ele><time>2026-04-23T13:32:38.185Z</time></trkpt><trkpt lat="45.2857696" lon="10.8017032"><ele>41.0</ele><time>2026-04-23T13:32:39.185Z</time></trkpt><trkpt lat="45.2859816" lon="10.8016899"><ele>41.0</ele><time>2026-04-23T13:32:40.184Z</time></trkpt><trkpt lat="45.2861952" lon="10.8016827"><ele>41.0</ele><time>2026-04-23T13:32:41.184Z</time></trkpt><trkpt lat="45.2864053" lon="10.8016739"><ele>41.0</ele><time>2026-04-23T13:32:42.184Z</time></trkpt><trkpt lat="45.2866151" lon="10.8016585"><ele>41.33333333333333</ele><time>2026-04-23T13:32:43.185Z</time></trkpt><trkpt lat="45.2868304" lon="10.8016471"><ele>41.666666666666664</ele><time>2026-04-23T13:32:44.185Z</time></trkpt><trkpt lat="45.2870438" lon="10.8016365"><ele>42.0</ele><time>2026-04-23T13:32:45.184Z</time></trkpt><trkpt lat="45.2872563" lon="10.8016246"><ele>42.0</ele><time>2026-04-23T13:32:46.185Z</time></trkpt><trkpt lat="45.2874683" lon="10.8016087"><ele>42.0</ele><time>2026-04-23T13:32:47.185Z</time></trkpt><trkpt lat="45.2876822" lon="10.8015956"><ele>42.0</ele><time>2026-04-23T13:32:48.185Z</time></trkpt><trkpt lat="45.2878946" lon="10.8015844"><ele>42.333333333333336</ele><time>2026-04-23T13:32:49.185Z</time></trkpt><trkpt lat="45.2881074" lon="10.8015746"><ele>42.66666666666667</ele><time>2026-04-23T13:32:50.185Z</time></trkpt><trkpt lat="45.2883196" lon="10.8015744"><ele>43.0</ele><time>2026-04-23T13:32:51.185Z</time></trkpt><trkpt lat="45.2885347" lon="10.8015773"><ele>43.0</ele><time>2026-04-23T13:32:52.186Z</time></trkpt><trkpt lat="45.2887486" lon="10.8015965"><ele>43.0</ele><time>2026-04-23T13:32:53.185Z</time></trkpt><trkpt lat="45.2889605" lon="10.8016339"><ele>43.0</ele><time>2026-04-23T13:32:54.185Z</time></trkpt><trkpt lat="45.2891698" lon="10.8016794"><ele>43.333333333333336</ele><time>2026-04-23T13:32:55.185Z</time></trkpt><trkpt lat="45.2893801" lon="10.8017342"><ele>43.666666666666664</ele><time>2026-04-23T13:32:56.185Z</time></trkpt><trkpt lat="45.2895908" lon="10.8017966"><ele>44.0</ele><time>2026-04-23T13:32:57.185Z</time></trkpt><trkpt lat="45.2897998" lon="10.8018726"><ele>43.33333333333333</ele><time>2026-04-23T13:32:58.184Z</time></trkpt><trkpt lat="45.290006" lon="10.8019549"><ele>42.666666666666664</ele><time>2026-04-23T13:32:59.184Z</time></trkpt><trkpt lat="45.2902093" lon="10.8020567"><ele>42.0</ele><time>2026-04-23T13:33:00.184Z</time></trkpt><trkpt lat="45.2903959" lon="10.8021733"><ele>42.0</ele><time>2026-04-23T13:33:01.184Z</time></trkpt><trkpt lat="45.2905694" lon="10.802299"><ele>42.0</ele><time>2026-04-23T13:33:02.184Z</time></trkpt><trkpt lat="45.290727" lon="10.8024333"><ele>42.0</ele><time>2026-04-23T13:33:03.184Z</time></trkpt><trkpt lat="45.2908735" lon="10.8025726"><ele>42.0</ele><time>2026-04-23T13:33:04.185Z</time></trkpt><trkpt lat="45.2910114" lon="10.8027247"><ele>42.0</ele><time>2026-04-23T13:33:05.184Z</time></trkpt><trkpt lat="45.2911369" lon="10.8028809"><ele>42.0</ele><time>2026-04-23T13:33:06.185Z</time></trkpt><trkpt lat="45.2912555" lon="10.8030289"><ele>42.0</ele><time>2026-04-23T13:33:07.185Z</time></trkpt><trkpt lat="45.2913699" lon="10.8031633"><ele>42.0</ele><time>2026-04-23T13:33:08.184Z</time></trkpt><trkpt lat="45.2914738" lon="10.8032782"><ele>42.0</ele><time>2026-04-23T13:33:09.186Z</time></trkpt><trkpt lat="45.2915673" lon="10.8033625"><ele>42.0</ele><time>2026-04-23T13:33:10.185Z</time></trkpt><trkpt lat="45.2916472" lon="10.8034263"><ele>42.0</ele><time>2026-04-23T13:33:11.185Z</time></trkpt><trkpt lat="45.2917113" lon="10.8034696"><ele>42.0</ele><time>2026-04-23T13:33:12.185Z</time></trkpt><trkpt lat="45.291817" lon="10.8035155"><ele>42.0</ele><time>2026-04-23T13:33:14.185Z</time></trkpt><trkpt lat="45.2919047" lon="10.8034792"><ele>42.0</ele><time>2026-04-23T13:33:16.185Z</time></trkpt><trkpt lat="45.2919651" lon="10.8034004"><ele>42.0</ele><time>2026-04-23T13:33:18.185Z</time></trkpt><trkpt lat="45.2919946" lon="10.8033153"><ele>42.0</ele><time>2026-04-23T13:33:22.185Z</time></trkpt><trkpt lat="45.2920089" lon="10.8031657"><ele>42.2</ele><time>2026-04-23T13:33:25.186Z</time></trkpt><trkpt lat="45.2919992" lon="10.8030634"><ele>42.400000000000006</ele><time>2026-04-23T13:33:26.185Z</time></trkpt><trkpt lat="45.2920035" lon="10.8029437"><ele>42.599999999999994</ele><time>2026-04-23T13:33:27.185Z</time></trkpt><trkpt lat="45.2920321" lon="10.8028146"><ele>42.8</ele><time>2026-04-23T13:33:28.186Z</time></trkpt><trkpt lat="45.2920877" lon="10.8026913"><ele>43.0</ele><time>2026-04-23T13:33:29.184Z</time></trkpt><trkpt lat="45.2921606" lon="10.8025614"><ele>43.0</ele><time>2026-04-23T13:33:30.185Z</time></trkpt><trkpt lat="45.2922408" lon="10.8024164"><ele>43.0</ele><time>2026-04-23T13:33:31.185Z</time></trkpt><trkpt lat="45.2923262" lon="10.8022674"><ele>43.0</ele><time>2026-04-23T13:33:32.185Z</time></trkpt><trkpt lat="45.2924214" lon="10.8021113"><ele>43.0</ele><time>2026-04-23T13:33:33.185Z</time></trkpt><trkpt lat="45.2925249" lon="10.8019583"><ele>43.66666666666667</ele><time>2026-04-23T13:33:34.186Z</time></trkpt><trkpt lat="45.292641" lon="10.8018094"><ele>44.333333333333336</ele><time>2026-04-23T13:33:35.184Z</time></trkpt><trkpt lat="45.2927716" lon="10.8016722"><ele>45.0</ele><time>2026-04-23T13:33:36.185Z</time></trkpt><trkpt lat="45.2929138" lon="10.8015498"><ele>45.0</ele><time>2026-04-23T13:33:37.184Z</time></trkpt><trkpt lat="45.2930592" lon="10.8014255"><ele>45.0</ele><time>2026-04-23T13:33:38.185Z</time></trkpt><trkpt lat="45.2932017" lon="10.8012895"><ele>45.0</ele><time>2026-04-23T13:33:39.185Z</time></trkpt><trkpt lat="45.2933392" lon="10.8011361"><ele>44.333333333333336</ele><time>2026-04-23T13:33:40.184Z</time></trkpt><trkpt lat="45.2934766" lon="10.8009726"><ele>43.66666666666667</ele><time>2026-04-23T13:33:41.185Z</time></trkpt><trkpt lat="45.2936132" lon="10.8007962"><ele>43.0</ele><time>2026-04-23T13:33:42.185Z</time></trkpt><trkpt lat="45.2937499" lon="10.8006164"><ele>43.0</ele><time>2026-04-23T13:33:43.185Z</time></trkpt><trkpt lat="45.2938893" lon="10.800437"><ele>43.0</ele><time>2026-04-23T13:33:44.186Z</time></trkpt><trkpt lat="45.2940347" lon="10.8002674"><ele>43.0</ele><time>2026-04-23T13:33:45.185Z</time></trkpt><trkpt lat="45.2941889" lon="10.8001061"><ele>43.0</ele><time>2026-04-23T13:33:46.185Z</time></trkpt><trkpt lat="45.2943504" lon="10.7999478"><ele>43.0</ele><time>2026-04-23T13:33:47.185Z</time></trkpt><trkpt lat="45.2945131" lon="10.7997847"><ele>43.0</ele><time>2026-04-23T13:33:48.184Z</time></trkpt><trkpt lat="45.2946782" lon="10.7996183"><ele>42.66666666666667</ele><time>2026-04-23T13:33:49.185Z</time></trkpt><trkpt lat="45.294844" lon="10.7994485"><ele>42.333333333333336</ele><time>2026-04-23T13:33:50.185Z</time></trkpt><trkpt lat="45.2950116" lon="10.7992834"><ele>42.0</ele><time>2026-04-23T13:33:51.185Z</time></trkpt><trkpt lat="45.2951821" lon="10.7991118"><ele>43.0</ele><time>2026-04-23T13:33:52.185Z</time></trkpt><trkpt lat="45.295353" lon="10.7989396"><ele>44.0</ele><time>2026-04-23T13:33:53.184Z</time></trkpt><trkpt lat="45.2955269" lon="10.798766"><ele>45.0</ele><time>2026-04-23T13:33:54.184Z</time></trkpt><trkpt lat="45.2957005" lon="10.7985921"><ele>45.0</ele><time>2026-04-23T13:33:55.184Z</time></trkpt><trkpt lat="45.2958761" lon="10.7984183"><ele>45.0</ele><time>2026-04-23T13:33:56.184Z</time></trkpt><trkpt lat="45.2960504" lon="10.7982397"><ele>45.0</ele><time>2026-04-23T13:33:57.185Z</time></trkpt><trkpt lat="45.2962272" lon="10.7980596"><ele>45.0</ele><time>2026-04-23T13:33:58.185Z</time></trkpt><trkpt lat="45.296406" lon="10.7978796"><ele>45.0</ele><time>2026-04-23T13:33:59.185Z</time></trkpt><trkpt lat="45.2965836" lon="10.7977003"><ele>45.0</ele><time>2026-04-23T13:34:00.185Z</time></trkpt><trkpt lat="45.2967607" lon="10.7975146"><ele>45.333333333333336</ele><time>2026-04-23T13:34:01.185Z</time></trkpt><trkpt lat="45.2969336" lon="10.7973242"><ele>45.66666666666667</ele><time>2026-04-23T13:34:02.184Z</time></trkpt><trkpt lat="45.2971082" lon="10.7971287"><ele>46.0</ele><time>2026-04-23T13:34:03.185Z</time></trkpt><trkpt lat="45.2972774" lon="10.7969262"><ele>47.0</ele><time>2026-04-23T13:34:04.185Z</time></trkpt><trkpt lat="45.2974479" lon="10.796725"><ele>48.0</ele><time>2026-04-23T13:34:05.185Z</time></trkpt><trkpt lat="45.2976164" lon="10.7965196"><ele>49.0</ele><time>2026-04-23T13:34:06.185Z</time></trkpt><trkpt lat="45.2977803" lon="10.7963177"><ele>49.0</ele><time>2026-04-23T13:34:07.186Z</time></trkpt><trkpt lat="45.297935" lon="10.7961237"><ele>49.0</ele><time>2026-04-23T13:34:08.184Z</time></trkpt><trkpt lat="45.2980891" lon="10.7959279"><ele>49.0</ele><time>2026-04-23T13:34:09.185Z</time></trkpt><trkpt lat="45.2982351" lon="10.7957249"><ele>48.666666666666664</ele><time>2026-04-23T13:34:10.184Z</time></trkpt><trkpt lat="45.2983726" lon="10.7955142"><ele>48.33333333333333</ele><time>2026-04-23T13:34:11.185Z</time></trkpt><trkpt lat="45.2985088" lon="10.7953015"><ele>48.0</ele><time>2026-04-23T13:34:12.185Z</time></trkpt><trkpt lat="45.2986404" lon="10.7950807"><ele>48.0</ele><time>2026-04-23T13:34:13.185Z</time></trkpt><trkpt lat="45.2987701" lon="10.7948586"><ele>48.0</ele><time>2026-04-23T13:34:14.186Z</time></trkpt><trkpt lat="45.2988996" lon="10.7946386"><ele>48.0</ele><time>2026-04-23T13:34:15.185Z</time></trkpt><trkpt lat="45.2990276" lon="10.7944164"><ele>47.666666666666664</ele><time>2026-04-23T13:34:16.185Z</time></trkpt><trkpt lat="45.2991554" lon="10.7941897"><ele>47.33333333333333</ele><time>2026-04-23T13:34:17.185Z</time></trkpt><trkpt lat="45.2992838" lon="10.7939633"><ele>47.0</ele><time>2026-04-23T13:34:18.185Z</time></trkpt><trkpt lat="45.2994118" lon="10.7937382"><ele>47.0</ele><time>2026-04-23T13:34:19.185Z</time></trkpt><trkpt lat="45.299535" lon="10.7935195"><ele>47.0</ele><time>2026-04-23T13:34:20.185Z</time></trkpt><trkpt lat="45.2996556" lon="10.7933103"><ele>47.0</ele><time>2026-04-23T13:34:21.186Z</time></trkpt><trkpt lat="45.2997758" lon="10.7931038"><ele>47.33333333333333</ele><time>2026-04-23T13:34:22.186Z</time></trkpt><trkpt lat="45.2998941" lon="10.7929002"><ele>47.666666666666664</ele><time>2026-04-23T13:34:23.184Z</time></trkpt><trkpt lat="45.3000122" lon="10.792702"><ele>48.0</ele><time>2026-04-23T13:34:24.184Z</time></trkpt><trkpt lat="45.3001324" lon="10.7925073"><ele>48.0</ele><time>2026-04-23T13:34:25.184Z</time></trkpt><trkpt lat="45.3002509" lon="10.792316"><ele>48.0</ele><time>2026-04-23T13:34:26.185Z</time></trkpt><trkpt lat="45.3003707" lon="10.7921253"><ele>48.0</ele><time>2026-04-23T13:34:27.186Z</time></trkpt><trkpt lat="45.3004952" lon="10.7919422"><ele>48.33333333333333</ele><time>2026-04-23T13:34:28.185Z</time></trkpt><trkpt lat="45.3006116" lon="10.7917637"><ele>48.666666666666664</ele><time>2026-04-23T13:34:29.185Z</time></trkpt><trkpt lat="45.3007219" lon="10.7915906"><ele>49.0</ele><time>2026-04-23T13:34:30.186Z</time></trkpt><trkpt lat="45.3008283" lon="10.7914253"><ele>49.0</ele><time>2026-04-23T13:34:31.185Z</time></trkpt><trkpt lat="45.3009297" lon="10.7912719"><ele>49.0</ele><time>2026-04-23T13:34:32.185Z</time></trkpt><trkpt lat="45.3010209" lon="10.7911261"><ele>49.0</ele><time>2026-04-23T13:34:33.185Z</time></trkpt><trkpt lat="45.3011053" lon="10.7909875"><ele>49.0</ele><time>2026-04-23T13:34:34.184Z</time></trkpt><trkpt lat="45.3011852" lon="10.7908623"><ele>49.2</ele><time>2026-04-23T13:34:35.185Z</time></trkpt><trkpt lat="45.301258" lon="10.7907428"><ele>49.400000000000006</ele><time>2026-04-23T13:34:36.185Z</time></trkpt><trkpt lat="45.3013049" lon="10.7906199"><ele>49.6</ele><time>2026-04-23T13:34:37.185Z</time></trkpt><trkpt lat="45.3013404" lon="10.7905"><ele>49.8</ele><time>2026-04-23T13:34:38.185Z</time></trkpt><trkpt lat="45.3013693" lon="10.7903895"><ele>50.0</ele><time>2026-04-23T13:34:39.185Z</time></trkpt><trkpt lat="45.3013965" lon="10.7902904"><ele>50.0</ele><time>2026-04-23T13:34:40.184Z</time></trkpt><trkpt lat="45.3014236" lon="10.7902006"><ele>50.0</ele><time>2026-04-23T13:34:41.184Z</time></trkpt><trkpt lat="45.3014924" lon="10.7900878"><ele>50.0</ele><time>2026-04-23T13:34:43.184Z</time></trkpt><trkpt lat="45.3015707" lon="10.7900844"><ele>50.0</ele><time>2026-04-23T13:34:47.186Z</time></trkpt><trkpt lat="45.301647" lon="10.7901466"><ele>50.0</ele><time>2026-04-23T13:34:49.186Z</time></trkpt><trkpt lat="45.3017365" lon="10.7902616"><ele>50.0</ele><time>2026-04-23T13:34:51.184Z</time></trkpt><trkpt lat="45.3018252" lon="10.7903937"><ele>50.0</ele><time>2026-04-23T13:34:53.185Z</time></trkpt><trkpt lat="45.3018755" lon="10.7904748"><ele>50.0</ele><time>2026-04-23T13:34:54.184Z</time></trkpt><trkpt lat="45.3019296" lon="10.7905649"><ele>50.0</ele><time>2026-04-23T13:34:55.184Z</time></trkpt><trkpt lat="45.3019884" lon="10.7906516"><ele>50.0</ele><time>2026-04-23T13:34:56.184Z</time></trkpt><trkpt lat="45.3020517" lon="10.7907465"><ele>50.0</ele><time>2026-04-23T13:34:57.185Z</time></trkpt><trkpt lat="45.3021158" lon="10.7908483"><ele>50.0</ele><time>2026-04-23T13:34:58.185Z</time></trkpt><trkpt lat="45.3021866" lon="10.7909574"><ele>50.0</ele><time>2026-04-23T13:34:59.185Z</time></trkpt><trkpt lat="45.3022575" lon="10.7910683"><ele>50.0</ele><time>2026-04-23T13:35:00.184Z</time></trkpt><trkpt lat="45.302329" lon="10.7911844"><ele>50.0</ele><time>2026-04-23T13:35:01.185Z</time></trkpt><trkpt lat="45.3024008" lon="10.7912999"><ele>49.75</ele><time>2026-04-23T13:35:02.184Z</time></trkpt><trkpt lat="45.3024747" lon="10.7914202"><ele>49.5</ele><time>2026-04-23T13:35:03.184Z</time></trkpt><trkpt lat="45.3025466" lon="10.7915413"><ele>49.25</ele><time>2026-04-23T13:35:04.185Z</time></trkpt><trkpt lat="45.302623" lon="10.7916601"><ele>49.0</ele><time>2026-04-23T13:35:05.186Z</time></trkpt><trkpt lat="45.3027005" lon="10.7917776"><ele>49.25</ele><time>2026-04-23T13:35:06.185Z</time></trkpt><trkpt lat="45.3027798" lon="10.7919014"><ele>49.5</ele><time>2026-04-23T13:35:07.184Z</time></trkpt><trkpt lat="45.3028577" lon="10.7920266"><ele>49.75</ele><time>2026-04-23T13:35:08.185Z</time></trkpt><trkpt lat="45.3029338" lon="10.7921467"><ele>50.0</ele><time>2026-04-23T13:35:09.184Z</time></trkpt><trkpt lat="45.3030051" lon="10.7922602"><ele>50.00000000000001</ele><time>2026-04-23T13:35:10.185Z</time></trkpt><trkpt lat="45.3030635" lon="10.7923649"><ele>50.0</ele><time>2026-04-23T13:35:11.185Z</time></trkpt><trkpt lat="45.3031153" lon="10.7924498"><ele>50.0</ele><time>2026-04-23T13:35:12.184Z</time></trkpt><trkpt lat="45.3031686" lon="10.792534"><ele>50.0</ele><time>2026-04-23T13:35:13.184Z</time></trkpt><trkpt lat="45.3032285" lon="10.7926289"><ele>50.00000000000001</ele><time>2026-04-23T13:35:14.186Z</time></trkpt><trkpt lat="45.3032938" lon="10.7927357"><ele>50.0</ele><time>2026-04-23T13:35:15.184Z</time></trkpt><trkpt lat="45.3033672" lon="10.7928511"><ele>50.0</ele><time>2026-04-23T13:35:16.184Z</time></trkpt><trkpt lat="45.3034419" lon="10.7929729"><ele>50.0</ele><time>2026-04-23T13:35:17.184Z</time></trkpt><trkpt lat="45.3035183" lon="10.7931031"><ele>50.0</ele><time>2026-04-23T13:35:18.185Z</time></trkpt><trkpt lat="45.3036048" lon="10.7932357"><ele>50.0</ele><time>2026-04-23T13:35:19.186Z</time></trkpt><trkpt lat="45.3036922" lon="10.7933729"><ele>50.0</ele><time>2026-04-23T13:35:20.185Z</time></trkpt><trkpt lat="45.3037794" lon="10.7935189"><ele>50.0</ele><time>2026-04-23T13:35:21.185Z</time></trkpt><trkpt lat="45.3038714" lon="10.7936644"><ele>50.0</ele><time>2026-04-23T13:35:22.185Z</time></trkpt><trkpt lat="45.3039658" lon="10.7938107"><ele>50.0</ele><time>2026-04-23T13:35:23.185Z</time></trkpt><trkpt lat="45.3040549" lon="10.7939528"><ele>50.0</ele><time>2026-04-23T13:35:24.184Z</time></trkpt><trkpt lat="45.3041449" lon="10.7940981"><ele>50.0</ele><time>2026-04-23T13:35:25.185Z</time></trkpt><trkpt lat="45.3042366" lon="10.7942437"><ele>50.0</ele><time>2026-04-23T13:35:26.184Z</time></trkpt><trkpt lat="45.3043265" lon="10.7943887"><ele>50.0</ele><time>2026-04-23T13:35:27.184Z</time></trkpt><trkpt lat="45.3044127" lon="10.7945255"><ele>50.25</ele><time>2026-04-23T13:35:28.185Z</time></trkpt><trkpt lat="45.3044953" lon="10.7946582"><ele>50.5</ele><time>2026-04-23T13:35:29.184Z</time></trkpt><trkpt lat="45.3045741" lon="10.7947859"><ele>50.75</ele><time>2026-04-23T13:35:30.185Z</time></trkpt><trkpt lat="45.3046482" lon="10.7949041"><ele>51.0</ele><time>2026-04-23T13:35:31.184Z</time></trkpt><trkpt lat="45.3047183" lon="10.7950136"><ele>51.0</ele><time>2026-04-23T13:35:32.185Z</time></trkpt><trkpt lat="45.304785" lon="10.7951144"><ele>51.0</ele><time>2026-04-23T13:35:33.184Z</time></trkpt><trkpt lat="45.3048459" lon="10.7952164"><ele>51.0</ele><time>2026-04-23T13:35:34.185Z</time></trkpt><trkpt lat="45.304912" lon="10.7953204"><ele>51.0</ele><time>2026-04-23T13:35:35.184Z</time></trkpt><trkpt lat="45.3049847" lon="10.7954243"><ele>51.0</ele><time>2026-04-23T13:35:36.185Z</time></trkpt><trkpt lat="45.3050581" lon="10.7955367"><ele>51.0</ele><time>2026-04-23T13:35:37.184Z</time></trkpt><trkpt lat="45.3051311" lon="10.7956583"><ele>51.0</ele><time>2026-04-23T13:35:38.185Z</time></trkpt><trkpt lat="45.3052096" lon="10.7957811"><ele>51.0</ele><time>2026-04-23T13:35:39.184Z</time></trkpt><trkpt lat="45.3052886" lon="10.7959027"><ele>51.0</ele><time>2026-04-23T13:35:40.185Z</time></trkpt><trkpt lat="45.3053674" lon="10.7960248"><ele>51.0</ele><time>2026-04-23T13:35:41.184Z</time></trkpt><trkpt lat="45.3054442" lon="10.796148"><ele>51.0</ele><time>2026-04-23T13:35:42.185Z</time></trkpt><trkpt lat="45.3055176" lon="10.7962705"><ele>51.0</ele><time>2026-04-23T13:35:43.184Z</time></trkpt><trkpt lat="45.3055912" lon="10.7963871"><ele>51.0</ele><time>2026-04-23T13:35:44.185Z</time></trkpt><trkpt lat="45.3056593" lon="10.7965013"><ele>51.0</ele><time>2026-04-23T13:35:45.184Z</time></trkpt><trkpt lat="45.3057213" lon="10.7966101"><ele>51.0</ele><time>2026-04-23T13:35:46.185Z</time></trkpt><trkpt lat="45.3057832" lon="10.7967113"><ele>51.0</ele><time>2026-04-23T13:35:47.185Z</time></trkpt><trkpt lat="45.305841" lon="10.7968028"><ele>51.0</ele><time>2026-04-23T13:35:48.185Z</time></trkpt><trkpt lat="45.3059001" lon="10.7968921"><ele>51.0</ele><time>2026-04-23T13:35:49.185Z</time></trkpt><trkpt lat="45.3059528" lon="10.7969784"><ele>51.0</ele><time>2026-04-23T13:35:50.185Z</time></trkpt><trkpt lat="45.306003" lon="10.7970574"><ele>51.0</ele><time>2026-04-23T13:35:51.184Z</time></trkpt><trkpt lat="45.306055" lon="10.7971308"><ele>50.666666666666664</ele><time>2026-04-23T13:35:52.185Z</time></trkpt><trkpt lat="45.3061226" lon="10.7972437"><ele>50.33333333333333</ele><time>2026-04-23T13:35:54.184Z</time></trkpt><trkpt lat="45.3061733" lon="10.7973011"><ele>50.0</ele><time>2026-04-23T13:35:58.184Z</time></trkpt><trkpt lat="45.3062349" lon="10.7972451"><ele>49.666666666666664</ele><time>2026-04-23T13:36:00.185Z</time></trkpt><trkpt lat="45.3062981" lon="10.7971199"><ele>49.33333333333333</ele><time>2026-04-23T13:36:02.184Z</time></trkpt><trkpt lat="45.3063371" lon="10.7970472"><ele>49.0</ele><time>2026-04-23T13:36:03.185Z</time></trkpt><trkpt lat="45.306386" lon="10.7969611"><ele>48.99999999999999</ele><time>2026-04-23T13:36:04.184Z</time></trkpt><trkpt lat="45.3064385" lon="10.7968777"><ele>49.0</ele><time>2026-04-23T13:36:05.185Z</time></trkpt><trkpt lat="45.3064821" lon="10.7968067"><ele>49.0</ele><time>2026-04-23T13:36:06.184Z</time></trkpt><trkpt lat="45.3065542" lon="10.7966968"><ele>49.0</ele><time>2026-04-23T13:36:08.184Z</time></trkpt><trkpt lat="45.3065982" lon="10.7966243"><ele>48.99999999999999</ele><time>2026-04-23T13:36:09.185Z</time></trkpt><trkpt lat="45.3066495" lon="10.7965435"><ele>49.0</ele><time>2026-04-23T13:36:10.184Z</time></trkpt><trkpt lat="45.3067113" lon="10.7964574"><ele>49.400000000000006</ele><time>2026-04-23T13:36:11.186Z</time></trkpt><trkpt lat="45.3067735" lon="10.7963618"><ele>49.8</ele><time>2026-04-23T13:36:12.185Z</time></trkpt><trkpt lat="45.3068398" lon="10.7962593"><ele>50.2</ele><time>2026-04-23T13:36:13.185Z</time></trkpt><trkpt lat="45.3069091" lon="10.7961563"><ele>50.599999999999994</ele><time>2026-04-23T13:36:14.185Z</time></trkpt><trkpt lat="45.3069805" lon="10.7960449"><ele>51.0</ele><time>2026-04-23T13:36:15.186Z</time></trkpt><trkpt lat="45.3070549" lon="10.7959354"><ele>51.0</ele><time>2026-04-23T13:36:16.185Z</time></trkpt><trkpt lat="45.3071344" lon="10.7958239"><ele>51.0</ele><time>2026-04-23T13:36:17.185Z</time></trkpt><trkpt lat="45.3072174" lon="10.7957111"><ele>51.0</ele><time>2026-04-23T13:36:18.185Z</time></trkpt><trkpt lat="45.3072988" lon="10.795594"><ele>51.0</ele><time>2026-04-23T13:36:19.184Z</time></trkpt><trkpt lat="45.3073803" lon="10.795472"><ele>51.0</ele><time>2026-04-23T13:36:20.184Z</time></trkpt><trkpt lat="45.3074642" lon="10.795351"><ele>51.0</ele><time>2026-04-23T13:36:21.184Z</time></trkpt><trkpt lat="45.3075444" lon="10.7952263"><ele>51.0</ele><time>2026-04-23T13:36:22.184Z</time></trkpt><trkpt lat="45.3076263" lon="10.7951018"><ele>51.0</ele><time>2026-04-23T13:36:23.185Z</time></trkpt><trkpt lat="45.3077125" lon="10.794979"><ele>50.8</ele><time>2026-04-23T13:36:24.185Z</time></trkpt><trkpt lat="45.3077901" lon="10.7948721"><ele>50.599999999999994</ele><time>2026-04-23T13:36:25.185Z</time></trkpt><trkpt lat="45.3078576" lon="10.7947804"><ele>50.4</ele><time>2026-04-23T13:36:26.184Z</time></trkpt><trkpt lat="45.3079219" lon="10.7946882"><ele>50.2</ele><time>2026-04-23T13:36:27.185Z</time></trkpt><trkpt lat="45.3079911" lon="10.7945842"><ele>50.0</ele><time>2026-04-23T13:36:28.184Z</time></trkpt><trkpt lat="45.3080667" lon="10.7944731"><ele>49.75</ele><time>2026-04-23T13:36:29.184Z</time></trkpt><trkpt lat="45.3081502" lon="10.7943542"><ele>49.5</ele><time>2026-04-23T13:36:30.185Z</time></trkpt><trkpt lat="45.3082396" lon="10.794228"><ele>49.25</ele><time>2026-04-23T13:36:31.184Z</time></trkpt><trkpt lat="45.3083341" lon="10.7940922"><ele>49.0</ele><time>2026-04-23T13:36:32.184Z</time></trkpt><trkpt lat="45.3084326" lon="10.7939494"><ele>49.0</ele><time>2026-04-23T13:36:33.184Z</time></trkpt><trkpt lat="45.3085367" lon="10.7937976"><ele>49.0</ele><time>2026-04-23T13:36:34.185Z</time></trkpt><trkpt lat="45.3086448" lon="10.7936474"><ele>49.0</ele><time>2026-04-23T13:36:35.185Z</time></trkpt><trkpt lat="45.3087535" lon="10.7934868"><ele>49.0</ele><time>2026-04-23T13:36:36.185Z</time></trkpt><trkpt lat="45.3088639" lon="10.7933202"><ele>49.0</ele><time>2026-04-23T13:36:37.185Z</time></trkpt><trkpt lat="45.3089798" lon="10.7931457"><ele>49.0</ele><time>2026-04-23T13:36:38.184Z</time></trkpt><trkpt lat="45.309096" lon="10.7929702"><ele>49.33333333333333</ele><time>2026-04-23T13:36:39.186Z</time></trkpt><trkpt lat="45.3092138" lon="10.7927917"><ele>49.66666666666667</ele><time>2026-04-23T13:36:40.185Z</time></trkpt><trkpt lat="45.3093343" lon="10.7926093"><ele>50.0</ele><time>2026-04-23T13:36:41.184Z</time></trkpt><trkpt lat="45.3094537" lon="10.7924194"><ele>50.333333333333336</ele><time>2026-04-23T13:36:42.184Z</time></trkpt><trkpt lat="45.3095747" lon="10.7922267"><ele>50.66666666666667</ele><time>2026-04-23T13:36:43.184Z</time></trkpt><trkpt lat="45.3097046" lon="10.7920344"><ele>51.0</ele><time>2026-04-23T13:36:44.184Z</time></trkpt><trkpt lat="45.309834" lon="10.7918371"><ele>51.0</ele><time>2026-04-23T13:36:45.185Z</time></trkpt><trkpt lat="45.3099643" lon="10.7916378"><ele>51.0</ele><time>2026-04-23T13:36:46.185Z</time></trkpt><trkpt lat="45.3100982" lon="10.7914355"><ele>51.0</ele><time>2026-04-23T13:36:47.185Z</time></trkpt><trkpt lat="45.3102351" lon="10.7912328"><ele>51.0</ele><time>2026-04-23T13:36:48.186Z</time></trkpt><trkpt lat="45.3103725" lon="10.7910264"><ele>51.0</ele><time>2026-04-23T13:36:49.185Z</time></trkpt><trkpt lat="45.3105107" lon="10.790818"><ele>51.0</ele><time>2026-04-23T13:36:50.185Z</time></trkpt><trkpt lat="45.3106516" lon="10.7906104"><ele>51.66666666666667</ele><time>2026-04-23T13:36:51.184Z</time></trkpt><trkpt lat="45.3107905" lon="10.7903986"><ele>52.333333333333336</ele><time>2026-04-23T13:36:52.184Z</time></trkpt><trkpt lat="45.3109292" lon="10.790191"><ele>53.0</ele><time>2026-04-23T13:36:53.185Z</time></trkpt><trkpt lat="45.3110691" lon="10.7899919"><ele>53.0</ele><time>2026-04-23T13:36:54.184Z</time></trkpt><trkpt lat="45.3112083" lon="10.7897957"><ele>53.0</ele><time>2026-04-23T13:36:55.185Z</time></trkpt><trkpt lat="45.3113471" lon="10.7895957"><ele>53.0</ele><time>2026-04-23T13:36:56.185Z</time></trkpt><trkpt lat="45.3114823" lon="10.7893887"><ele>52.66666666666667</ele><time>2026-04-23T13:36:57.184Z</time></trkpt><trkpt lat="45.3116186" lon="10.7891832"><ele>52.33333333333333</ele><time>2026-04-23T13:36:58.186Z</time></trkpt><trkpt lat="45.311759" lon="10.7889832"><ele>52.0</ele><time>2026-04-23T13:36:59.185Z</time></trkpt><trkpt lat="45.3118966" lon="10.78878"><ele>52.0</ele><time>2026-04-23T13:37:00.185Z</time></trkpt><trkpt lat="45.3120367" lon="10.7885782"><ele>52.0</ele><time>2026-04-23T13:37:01.184Z</time></trkpt><trkpt lat="45.3121783" lon="10.7883787"><ele>52.0</ele><time>2026-04-23T13:37:02.185Z</time></trkpt><trkpt lat="45.3123202" lon="10.7881768"><ele>52.33333333333333</ele><time>2026-04-23T13:37:03.185Z</time></trkpt><trkpt lat="45.3124643" lon="10.7879719"><ele>52.66666666666667</ele><time>2026-04-23T13:37:04.185Z</time></trkpt><trkpt lat="45.312606" lon="10.7877696"><ele>53.0</ele><time>2026-04-23T13:37:05.184Z</time></trkpt><trkpt lat="45.3127428" lon="10.7875694"><ele>53.0</ele><time>2026-04-23T13:37:06.184Z</time></trkpt><trkpt lat="45.3128774" lon="10.7873775"><ele>53.0</ele><time>2026-04-23T13:37:07.185Z</time></trkpt><trkpt lat="45.3129933" lon="10.787207"><ele>53.0</ele><time>2026-04-23T13:37:08.184Z</time></trkpt><trkpt lat="45.3130924" lon="10.7870568"><ele>52.8</ele><time>2026-04-23T13:37:09.185Z</time></trkpt><trkpt lat="45.313184" lon="10.7869262"><ele>52.599999999999994</ele><time>2026-04-23T13:37:10.185Z</time></trkpt><trkpt lat="45.3132666" lon="10.7868051"><ele>52.400000000000006</ele><time>2026-04-23T13:37:11.185Z</time></trkpt><trkpt lat="45.3133349" lon="10.7866946"><ele>52.2</ele><time>2026-04-23T13:37:12.185Z</time></trkpt><trkpt lat="45.3133974" lon="10.7866005"><ele>52.0</ele><time>2026-04-23T13:37:13.185Z</time></trkpt><trkpt lat="45.3134496" lon="10.7865151"><ele>52.49999999999999</ele><time>2026-04-23T13:37:14.184Z</time></trkpt><trkpt lat="45.3134969" lon="10.7864346"><ele>53.0</ele><time>2026-04-23T13:37:15.185Z</time></trkpt><trkpt lat="45.3135464" lon="10.7863565"><ele>53.5</ele><time>2026-04-23T13:37:16.185Z</time></trkpt><trkpt lat="45.3136006" lon="10.7862853"><ele>54.0</ele><time>2026-04-23T13:37:17.184Z</time></trkpt><trkpt lat="45.3136662" lon="10.7862106"><ele>54.49999999999999</ele><time>2026-04-23T13:37:18.185Z</time></trkpt><trkpt lat="45.3137339" lon="10.7861136"><ele>55.0</ele><time>2026-04-23T13:37:19.185Z</time></trkpt><trkpt lat="45.3138073" lon="10.7860017"><ele>55.0</ele><time>2026-04-23T13:37:20.185Z</time></trkpt><trkpt lat="45.3138885" lon="10.7858808"><ele>55.0</ele><time>2026-04-23T13:37:21.186Z</time></trkpt><trkpt lat="45.313976" lon="10.7857441"><ele>55.0</ele><time>2026-04-23T13:37:22.185Z</time></trkpt><trkpt lat="45.3140691" lon="10.7856005"><ele>55.0</ele><time>2026-04-23T13:37:23.185Z</time></trkpt><trkpt lat="45.3141637" lon="10.7854431"><ele>55.0</ele><time>2026-04-23T13:37:24.186Z</time></trkpt><trkpt lat="45.3142654" lon="10.7852825"><ele>55.0</ele><time>2026-04-23T13:37:25.185Z</time></trkpt><trkpt lat="45.3143734" lon="10.7851136"><ele>55.0</ele><time>2026-04-23T13:37:26.185Z</time></trkpt><trkpt lat="45.3144875" lon="10.7849383"><ele>55.0</ele><time>2026-04-23T13:37:27.186Z</time></trkpt><trkpt lat="45.314606" lon="10.7847596"><ele>55.0</ele><time>2026-04-23T13:37:28.184Z</time></trkpt><trkpt lat="45.3147264" lon="10.784576"><ele>55.0</ele><time>2026-04-23T13:37:29.186Z</time></trkpt><trkpt lat="45.3148497" lon="10.7843953"><ele>55.33333333333333</ele><time>2026-04-23T13:37:30.185Z</time></trkpt><trkpt lat="45.3149723" lon="10.7842059"><ele>55.66666666666667</ele><time>2026-04-23T13:37:31.184Z</time></trkpt><trkpt lat="45.3150917" lon="10.7840216"><ele>56.0</ele><time>2026-04-23T13:37:32.185Z</time></trkpt><trkpt lat="45.3152051" lon="10.7838469"><ele>56.0</ele><time>2026-04-23T13:37:33.184Z</time></trkpt><trkpt lat="45.3153087" lon="10.783687"><ele>56.0</ele><time>2026-04-23T13:37:34.184Z</time></trkpt><trkpt lat="45.3153995" lon="10.7835523"><ele>56.0</ele><time>2026-04-23T13:37:35.185Z</time></trkpt><trkpt lat="45.3154764" lon="10.7834385"><ele>56.0</ele><time>2026-04-23T13:37:36.185Z</time></trkpt><trkpt lat="45.3155389" lon="10.7833449"><ele>55.833333333333336</ele><time>2026-04-23T13:37:37.184Z</time></trkpt><trkpt lat="45.3155895" lon="10.783264"><ele>55.66666666666667</ele><time>2026-04-23T13:37:38.184Z</time></trkpt><trkpt lat="45.3156651" lon="10.783163"><ele>55.5</ele><time>2026-04-23T13:37:40.185Z</time></trkpt><trkpt lat="45.3157333" lon="10.7831592"><ele>55.33333333333333</ele><time>2026-04-23T13:37:45.184Z</time></trkpt><trkpt lat="45.3157946" lon="10.7832417"><ele>55.166666666666664</ele><time>2026-04-23T13:37:47.185Z</time></trkpt><trkpt lat="45.315836" lon="10.7833133"><ele>55.0</ele><time>2026-04-23T13:37:48.184Z</time></trkpt><trkpt lat="45.3158881" lon="10.7833974"><ele>55.0</ele><time>2026-04-23T13:37:49.186Z</time></trkpt><trkpt lat="45.3159449" lon="10.7834906"><ele>55.0</ele><time>2026-04-23T13:37:50.185Z</time></trkpt><trkpt lat="45.316009" lon="10.7835908"><ele>55.0</ele><time>2026-04-23T13:37:51.184Z</time></trkpt><trkpt lat="45.31608" lon="10.7837042"><ele>55.0</ele><time>2026-04-23T13:37:52.184Z</time></trkpt><trkpt lat="45.3161572" lon="10.78383"><ele>55.0</ele><time>2026-04-23T13:37:53.185Z</time></trkpt><trkpt lat="45.3162398" lon="10.7839606"><ele>55.0</ele><time>2026-04-23T13:37:54.184Z</time></trkpt><trkpt lat="45.316329" lon="10.7841004"><ele>55.0</ele><time>2026-04-23T13:37:55.185Z</time></trkpt><trkpt lat="45.3164202" lon="10.7842492"><ele>55.0</ele><time>2026-04-23T13:37:56.185Z</time></trkpt><trkpt lat="45.3165165" lon="10.7844056"><ele>55.0</ele><time>2026-04-23T13:37:57.185Z</time></trkpt><trkpt lat="45.3166084" lon="10.7845553"><ele>55.25</ele><time>2026-04-23T13:37:58.185Z</time></trkpt><trkpt lat="45.3166992" lon="10.7847022"><ele>55.5</ele><time>2026-04-23T13:37:59.186Z</time></trkpt><trkpt lat="45.3167873" lon="10.7848412"><ele>55.75</ele><time>2026-04-23T13:38:00.185Z</time></trkpt><trkpt lat="45.3168714" lon="10.7849786"><ele>56.0</ele><time>2026-04-23T13:38:01.184Z</time></trkpt><trkpt lat="45.3169579" lon="10.785122"><ele>56.0</ele><time>2026-04-23T13:38:02.185Z</time></trkpt><trkpt lat="45.3170411" lon="10.7852703"><ele>56.0</ele><time>2026-04-23T13:38:03.184Z</time></trkpt><trkpt lat="45.3171274" lon="10.7854055"><ele>56.0</ele><time>2026-04-23T13:38:04.185Z</time></trkpt><trkpt lat="45.3172153" lon="10.7855331"><ele>56.0</ele><time>2026-04-23T13:38:05.184Z</time></trkpt><trkpt lat="45.3172994" lon="10.7856726"><ele>56.0</ele><time>2026-04-23T13:38:06.186Z</time></trkpt><trkpt lat="45.3173865" lon="10.7858194"><ele>56.0</ele><time>2026-04-23T13:38:07.186Z</time></trkpt><trkpt lat="45.3174802" lon="10.7859701"><ele>56.0</ele><time>2026-04-23T13:38:08.186Z</time></trkpt><trkpt lat="45.3175772" lon="10.7861293"><ele>56.0</ele><time>2026-04-23T13:38:09.184Z</time></trkpt><trkpt lat="45.3176778" lon="10.7862952"><ele>55.66666666666667</ele><time>2026-04-23T13:38:10.185Z</time></trkpt><trkpt lat="45.3177799" lon="10.7864578"><ele>55.33333333333333</ele><time>2026-04-23T13:38:11.185Z</time></trkpt><trkpt lat="45.3178843" lon="10.7866253"><ele>55.0</ele><time>2026-04-23T13:38:12.185Z</time></trkpt><trkpt lat="45.3179873" lon="10.7867955"><ele>55.0</ele><time>2026-04-23T13:38:13.185Z</time></trkpt><trkpt lat="45.3180936" lon="10.7869678"><ele>55.0</ele><time>2026-04-23T13:38:14.185Z</time></trkpt><trkpt lat="45.318204" lon="10.7871452"><ele>55.0</ele><time>2026-04-23T13:38:15.185Z</time></trkpt><trkpt lat="45.3183177" lon="10.7873232"><ele>55.0</ele><time>2026-04-23T13:38:16.185Z</time></trkpt><trkpt lat="45.3184305" lon="10.7875051"><ele>55.0</ele><time>2026-04-23T13:38:17.185Z</time></trkpt><trkpt lat="45.3185416" lon="10.7876907"><ele>55.0</ele><time>2026-04-23T13:38:18.185Z</time></trkpt><trkpt lat="45.3186589" lon="10.7878805"><ele>55.0</ele><time>2026-04-23T13:38:19.185Z</time></trkpt><trkpt lat="45.3187779" lon="10.7880749"><ele>55.0</ele><time>2026-04-23T13:38:20.185Z</time></trkpt><trkpt lat="45.3188981" lon="10.7882698"><ele>55.0</ele><time>2026-04-23T13:38:21.184Z</time></trkpt><trkpt lat="45.3190235" lon="10.7884697"><ele>55.33333333333333</ele><time>2026-04-23T13:38:22.185Z</time></trkpt><trkpt lat="45.3191527" lon="10.7886726"><ele>55.66666666666667</ele><time>2026-04-23T13:38:23.184Z</time></trkpt><trkpt lat="45.3192782" lon="10.7888731"><ele>56.0</ele><time>2026-04-23T13:38:24.184Z</time></trkpt><trkpt lat="45.3194066" lon="10.7890778"><ele>56.0</ele><time>2026-04-23T13:38:25.186Z</time></trkpt><trkpt lat="45.3195356" lon="10.7892853"><ele>56.0</ele><time>2026-04-23T13:38:26.185Z</time></trkpt><trkpt lat="45.3196654" lon="10.7894966"><ele>56.0</ele><time>2026-04-23T13:38:27.184Z</time></trkpt><trkpt lat="45.3197964" lon="10.7897121"><ele>55.333333333333336</ele><time>2026-04-23T13:38:28.184Z</time></trkpt><trkpt lat="45.3199271" lon="10.7899255"><ele>54.66666666666667</ele><time>2026-04-23T13:38:29.184Z</time></trkpt><trkpt lat="45.3200568" lon="10.7901383"><ele>54.0</ele><time>2026-04-23T13:38:30.185Z</time></trkpt><trkpt lat="45.3201843" lon="10.7903469"><ele>54.0</ele><time>2026-04-23T13:38:31.185Z</time></trkpt><trkpt lat="45.3203139" lon="10.7905541"><ele>54.0</ele><time>2026-04-23T13:38:32.186Z</time></trkpt><trkpt lat="45.3204438" lon="10.7907595"><ele>54.0</ele><time>2026-04-23T13:38:33.184Z</time></trkpt><trkpt lat="45.3205755" lon="10.7909688"><ele>54.0</ele><time>2026-04-23T13:38:34.184Z</time></trkpt><trkpt lat="45.3207068" lon="10.791171"><ele>54.0</ele><time>2026-04-23T13:38:35.185Z</time></trkpt><trkpt lat="45.3208386" lon="10.7913787"><ele>54.0</ele><time>2026-04-23T13:38:36.184Z</time></trkpt><trkpt lat="45.3209678" lon="10.7915847"><ele>54.0</ele><time>2026-04-23T13:38:37.185Z</time></trkpt><trkpt lat="45.3210933" lon="10.7917888"><ele>54.0</ele><time>2026-04-23T13:38:38.185Z</time></trkpt><trkpt lat="45.3212147" lon="10.7919878"><ele>54.0</ele><time>2026-04-23T13:38:39.184Z</time></trkpt><trkpt lat="45.3213317" lon="10.7921706"><ele>54.33333333333333</ele><time>2026-04-23T13:38:40.185Z</time></trkpt><trkpt lat="45.321438" lon="10.792344"><ele>54.666666666666664</ele><time>2026-04-23T13:38:41.185Z</time></trkpt><trkpt lat="45.3215377" lon="10.7925071"><ele>55.0</ele><time>2026-04-23T13:38:42.184Z</time></trkpt><trkpt lat="45.3216289" lon="10.7926576"><ele>55.0</ele><time>2026-04-23T13:38:43.184Z</time></trkpt><trkpt lat="45.3217092" lon="10.7927961"><ele>55.0</ele><time>2026-04-23T13:38:44.185Z</time></trkpt><trkpt lat="45.3217843" lon="10.7929123"><ele>55.0</ele><time>2026-04-23T13:38:45.185Z</time></trkpt><trkpt lat="45.3218514" lon="10.7930173"><ele>55.0</ele><time>2026-04-23T13:38:46.185Z</time></trkpt><trkpt lat="45.3219093" lon="10.7931081"><ele>55.0</ele><time>2026-04-23T13:38:47.185Z</time></trkpt><trkpt lat="45.3219491" lon="10.7932013"><ele>54.99999999999999</ele><time>2026-04-23T13:38:48.184Z</time></trkpt><trkpt lat="45.3219721" lon="10.7933019"><ele>55.0</ele><time>2026-04-23T13:38:49.184Z</time></trkpt><trkpt lat="45.3219841" lon="10.793409"><ele>55.0</ele><time>2026-04-23T13:38:50.184Z</time></trkpt><trkpt lat="45.3220055" lon="10.793514"><ele>55.0</ele><time>2026-04-23T13:38:51.184Z</time></trkpt><trkpt lat="45.3220489" lon="10.7935995"><ele>55.0</ele><time>2026-04-23T13:38:52.185Z</time></trkpt><trkpt lat="45.3221053" lon="10.7936609"><ele>54.99999999999999</ele><time>2026-04-23T13:38:53.185Z</time></trkpt><trkpt lat="45.3221736" lon="10.7936881"><ele>55.0</ele><time>2026-04-23T13:38:54.185Z</time></trkpt><trkpt lat="45.3222457" lon="10.7936707"><ele>55.0</ele><time>2026-04-23T13:38:55.185Z</time></trkpt><trkpt lat="45.322309" lon="10.7936109"><ele>55.0</ele><time>2026-04-23T13:38:56.184Z</time></trkpt><trkpt lat="45.3223648" lon="10.7935236"><ele>55.0</ele><time>2026-04-23T13:38:57.185Z</time></trkpt><trkpt lat="45.3224301" lon="10.7934331"><ele>55.0</ele><time>2026-04-23T13:38:58.186Z</time></trkpt><trkpt lat="45.322518" lon="10.793372"><ele>55.0</ele><time>2026-04-23T13:38:59.186Z</time></trkpt><trkpt lat="45.3226164" lon="10.7933327"><ele>55.0</ele><time>2026-04-23T13:39:00.185Z</time></trkpt><trkpt lat="45.3227228" lon="10.7932753"><ele>55.0</ele><time>2026-04-23T13:39:01.184Z</time></trkpt><trkpt lat="45.3228385" lon="10.7932107"><ele>55.0</ele><time>2026-04-23T13:39:02.184Z</time></trkpt><trkpt lat="45.3229611" lon="10.7931423"><ele>55.0</ele><time>2026-04-23T13:39:03.185Z</time></trkpt><trkpt lat="45.3230932" lon="10.7930654"><ele>55.33333333333333</ele><time>2026-04-23T13:39:04.186Z</time></trkpt><trkpt lat="45.3232335" lon="10.7929838"><ele>55.66666666666667</ele><time>2026-04-23T13:39:05.185Z</time></trkpt><trkpt lat="45.3233788" lon="10.7929013"><ele>56.0</ele><time>2026-04-23T13:39:06.185Z</time></trkpt><trkpt lat="45.3235258" lon="10.7928163"><ele>56.0</ele><time>2026-04-23T13:39:07.185Z</time></trkpt><trkpt lat="45.3236764" lon="10.7927306"><ele>56.0</ele><time>2026-04-23T13:39:08.184Z</time></trkpt><trkpt lat="45.3238279" lon="10.7926442"><ele>56.0</ele><time>2026-04-23T13:39:09.185Z</time></trkpt><trkpt lat="45.3239807" lon="10.7925584"><ele>56.333333333333336</ele><time>2026-04-23T13:39:10.185Z</time></trkpt><trkpt lat="45.3241285" lon="10.7924731"><ele>56.66666666666667</ele><time>2026-04-23T13:39:11.185Z</time></trkpt><trkpt lat="45.3242725" lon="10.7923911"><ele>57.0</ele><time>2026-04-23T13:39:12.186Z</time></trkpt><trkpt lat="45.3244182" lon="10.7923115"><ele>57.0</ele><time>2026-04-23T13:39:13.184Z</time></trkpt><trkpt lat="45.3245536" lon="10.7922334"><ele>57.0</ele><time>2026-04-23T13:39:14.185Z</time></trkpt><trkpt lat="45.3246765" lon="10.7921607"><ele>57.0</ele><time>2026-04-23T13:39:15.185Z</time></trkpt><trkpt lat="45.3247877" lon="10.7920964"><ele>57.0</ele><time>2026-04-23T13:39:16.185Z</time></trkpt><trkpt lat="45.3248845" lon="10.7920392"><ele>57.2</ele><time>2026-04-23T13:39:17.185Z</time></trkpt><trkpt lat="45.3249744" lon="10.7919946"><ele>57.400000000000006</ele><time>2026-04-23T13:39:18.185Z</time></trkpt><trkpt lat="45.3250619" lon="10.7919473"><ele>57.599999999999994</ele><time>2026-04-23T13:39:19.185Z</time></trkpt><trkpt lat="45.3251572" lon="10.79189"><ele>57.8</ele><time>2026-04-23T13:39:20.185Z</time></trkpt><trkpt lat="45.3252622" lon="10.7918305"><ele>58.0</ele><time>2026-04-23T13:39:21.185Z</time></trkpt><trkpt lat="45.3253701" lon="10.7917711"><ele>58.0</ele><time>2026-04-23T13:39:22.184Z</time></trkpt><trkpt lat="45.3254665" lon="10.7917152"><ele>58.0</ele><time>2026-04-23T13:39:23.185Z</time></trkpt><trkpt lat="45.3255597" lon="10.7916665"><ele>58.0</ele><time>2026-04-23T13:39:24.184Z</time></trkpt><trkpt lat="45.3256487" lon="10.7916181"><ele>58.0</ele><time>2026-04-23T13:39:25.184Z</time></trkpt><trkpt lat="45.3257318" lon="10.7915728"><ele>58.0</ele><time>2026-04-23T13:39:26.185Z</time></trkpt><trkpt lat="45.3258195" lon="10.7915254"><ele>58.25</ele><time>2026-04-23T13:39:27.184Z</time></trkpt><trkpt lat="45.3259136" lon="10.7914732"><ele>58.5</ele><time>2026-04-23T13:39:28.184Z</time></trkpt><trkpt lat="45.3260176" lon="10.7914152"><ele>58.75</ele><time>2026-04-23T13:39:29.185Z</time></trkpt><trkpt lat="45.3261265" lon="10.7913527"><ele>59.0</ele><time>2026-04-23T13:39:30.184Z</time></trkpt><trkpt lat="45.3262377" lon="10.7912899"><ele>59.0</ele><time>2026-04-23T13:39:31.184Z</time></trkpt><trkpt lat="45.3263518" lon="10.7912248"><ele>59.0</ele><time>2026-04-23T13:39:32.184Z</time></trkpt><trkpt lat="45.3264701" lon="10.7911596"><ele>59.0</ele><time>2026-04-23T13:39:33.184Z</time></trkpt><trkpt lat="45.326591" lon="10.7910927"><ele>59.0</ele><time>2026-04-23T13:39:34.185Z</time></trkpt><trkpt lat="45.3267066" lon="10.7910271"><ele>59.400000000000006</ele><time>2026-04-23T13:39:35.184Z</time></trkpt><trkpt lat="45.3268153" lon="10.7909632"><ele>59.800000000000004</ele><time>2026-04-23T13:39:36.184Z</time></trkpt><trkpt lat="45.3269184" lon="10.7909032"><ele>60.199999999999996</ele><time>2026-04-23T13:39:37.184Z</time></trkpt><trkpt lat="45.3270071" lon="10.7908574"><ele>60.599999999999994</ele><time>2026-04-23T13:39:38.185Z</time></trkpt><trkpt lat="45.3270756" lon="10.7908164"><ele>61.0</ele><time>2026-04-23T13:39:39.184Z</time></trkpt><trkpt lat="45.3271392" lon="10.7907768"><ele>60.99999999999999</ele><time>2026-04-23T13:39:40.184Z</time></trkpt><trkpt lat="45.3271991" lon="10.7907414"><ele>61.0</ele><time>2026-04-23T13:39:41.185Z</time></trkpt><trkpt lat="45.3272647" lon="10.7907042"><ele>61.0</ele><time>2026-04-23T13:39:42.185Z</time></trkpt><trkpt lat="45.3273425" lon="10.7906643"><ele>61.0</ele><time>2026-04-23T13:39:43.184Z</time></trkpt><trkpt lat="45.3274321" lon="10.7906139"><ele>60.99999999999999</ele><time>2026-04-23T13:39:44.184Z</time></trkpt><trkpt lat="45.3275294" lon="10.7905616"><ele>61.0</ele><time>2026-04-23T13:39:45.185Z</time></trkpt><trkpt lat="45.3276306" lon="10.7905009"><ele>61.199999999999996</ele><time>2026-04-23T13:39:46.185Z</time></trkpt><trkpt lat="45.3277293" lon="10.7904467"><ele>61.39999999999999</ele><time>2026-04-23T13:39:47.185Z</time></trkpt><trkpt lat="45.3278299" lon="10.7903909"><ele>61.6</ele><time>2026-04-23T13:39:48.185Z</time></trkpt><trkpt lat="45.3279344" lon="10.7903312"><ele>61.8</ele><time>2026-04-23T13:39:49.185Z</time></trkpt><trkpt lat="45.3280355" lon="10.7902785"><ele>62.0</ele><time>2026-04-23T13:39:50.184Z</time></trkpt><trkpt lat="45.3281298" lon="10.7902272"><ele>61.8</ele><time>2026-04-23T13:39:51.184Z</time></trkpt><trkpt lat="45.3282168" lon="10.7901774"><ele>61.6</ele><time>2026-04-23T13:39:52.184Z</time></trkpt><trkpt lat="45.3282984" lon="10.790132"><ele>61.39999999999999</ele><time>2026-04-23T13:39:53.185Z</time></trkpt><trkpt lat="45.3283782" lon="10.7900856"><ele>61.199999999999996</ele><time>2026-04-23T13:39:54.185Z</time></trkpt><trkpt lat="45.3284643" lon="10.7900332"><ele>61.0</ele><time>2026-04-23T13:39:55.185Z</time></trkpt><trkpt lat="45.3285601" lon="10.7899792"><ele>61.0</ele><time>2026-04-23T13:39:56.184Z</time></trkpt><trkpt lat="45.3286604" lon="10.7899196"><ele>60.99999999999999</ele><time>2026-04-23T13:39:57.185Z</time></trkpt><trkpt lat="45.3287632" lon="10.7898566"><ele>60.99999999999999</ele><time>2026-04-23T13:39:58.185Z</time></trkpt><trkpt lat="45.328865" lon="10.789796"><ele>61.0</ele><time>2026-04-23T13:39:59.186Z</time></trkpt><trkpt lat="45.3289629" lon="10.789739"><ele>61.0</ele><time>2026-04-23T13:40:00.184Z</time></trkpt><trkpt lat="45.3290611" lon="10.7896878"><ele>61.199999999999996</ele><time>2026-04-23T13:40:01.185Z</time></trkpt><trkpt lat="45.3291559" lon="10.7896397"><ele>61.39999999999999</ele><time>2026-04-23T13:40:02.184Z</time></trkpt><trkpt lat="45.32925" lon="10.7896006"><ele>61.6</ele><time>2026-04-23T13:40:03.185Z</time></trkpt><trkpt lat="45.329349" lon="10.7895696"><ele>61.8</ele><time>2026-04-23T13:40:04.184Z</time></trkpt><trkpt lat="45.3294432" lon="10.7895453"><ele>62.0</ele><time>2026-04-23T13:40:05.186Z</time></trkpt><trkpt lat="45.3295215" lon="10.7895344"><ele>62.0</ele><time>2026-04-23T13:40:06.185Z</time></trkpt><trkpt lat="45.3296183" lon="10.7895332"><ele>62.0</ele><time>2026-04-23T13:40:08.185Z</time></trkpt><trkpt lat="45.3296826" lon="10.78956"><ele>62.0</ele><time>2026-04-23T13:40:11.185Z</time></trkpt><trkpt lat="45.3297656" lon="10.7895578"><ele>62.0</ele><time>2026-04-23T13:40:16.183Z</time></trkpt><trkpt lat="45.3298236" lon="10.7894425"><ele>62.0</ele><time>2026-04-23T13:40:18.184Z</time></trkpt><trkpt lat="45.329877" lon="10.7892844"><ele>62.333333333333336</ele><time>2026-04-23T13:40:20.184Z</time></trkpt><trkpt lat="45.329906" lon="10.7891934"><ele>62.66666666666667</ele><time>2026-04-23T13:40:21.183Z</time></trkpt><trkpt lat="45.3299315" lon="10.7890948"><ele>63.0</ele><time>2026-04-23T13:40:22.184Z</time></trkpt><trkpt lat="45.3299642" lon="10.7889791"><ele>63.33333333333333</ele><time>2026-04-23T13:40:23.183Z</time></trkpt><trkpt lat="45.3299992" lon="10.7888548"><ele>63.666666666666664</ele><time>2026-04-23T13:40:24.184Z</time></trkpt><trkpt lat="45.3300403" lon="10.7887244"><ele>64.0</ele><time>2026-04-23T13:40:25.184Z</time></trkpt><trkpt lat="45.3300846" lon="10.7885858"><ele>64.0</ele><time>2026-04-23T13:40:26.183Z</time></trkpt><trkpt lat="45.3301298" lon="10.7884409"><ele>64.0</ele><time>2026-04-23T13:40:27.183Z</time></trkpt><trkpt lat="45.3301777" lon="10.7882895"><ele>64.0</ele><time>2026-04-23T13:40:28.184Z</time></trkpt><trkpt lat="45.3302217" lon="10.788139"><ele>64.0</ele><time>2026-04-23T13:40:29.183Z</time></trkpt><trkpt lat="45.3302736" lon="10.7879912"><ele>64.0</ele><time>2026-04-23T13:40:30.183Z</time></trkpt><trkpt lat="45.330321" lon="10.7878399"><ele>64.0</ele><time>2026-04-23T13:40:31.183Z</time></trkpt><trkpt lat="45.3303657" lon="10.7876779"><ele>64.0</ele><time>2026-04-23T13:40:32.184Z</time></trkpt><trkpt lat="45.3304147" lon="10.7875156"><ele>64.0</ele><time>2026-04-23T13:40:33.183Z</time></trkpt><trkpt lat="45.3304641" lon="10.7873472"><ele>64.0</ele><time>2026-04-23T13:40:34.184Z</time></trkpt><trkpt lat="45.3305115" lon="10.787188"><ele>64.0</ele><time>2026-04-23T13:40:35.184Z</time></trkpt><trkpt lat="45.330555" lon="10.7870411"><ele>64.0</ele><time>2026-04-23T13:40:36.183Z</time></trkpt><trkpt lat="45.3305923" lon="10.7869031"><ele>64.0</ele><time>2026-04-23T13:40:37.183Z</time></trkpt><trkpt lat="45.3306262" lon="10.7867736"><ele>64.0</ele><time>2026-04-23T13:40:38.184Z</time></trkpt><trkpt lat="45.3306572" lon="10.7866492"><ele>63.99999999999999</ele><time>2026-04-23T13:40:39.183Z</time></trkpt><trkpt lat="45.3306849" lon="10.7865351"><ele>64.0</ele><time>2026-04-23T13:40:40.184Z</time></trkpt><trkpt lat="45.3307111" lon="10.7864377"><ele>64.0</ele><time>2026-04-23T13:40:41.184Z</time></trkpt><trkpt lat="45.3307334" lon="10.7863405"><ele>64.0</ele><time>2026-04-23T13:40:42.184Z</time></trkpt><trkpt lat="45.3307582" lon="10.7862323"><ele>63.99999999999999</ele><time>2026-04-23T13:40:43.184Z</time></trkpt><trkpt lat="45.330786" lon="10.7860997"><ele>64.0</ele><time>2026-04-23T13:40:44.183Z</time></trkpt><trkpt lat="45.3308181" lon="10.7859579"><ele>64.2</ele><time>2026-04-23T13:40:45.184Z</time></trkpt><trkpt lat="45.3308496" lon="10.785806"><ele>64.4</ele><time>2026-04-23T13:40:46.183Z</time></trkpt><trkpt lat="45.3308809" lon="10.7856526"><ele>64.6</ele><time>2026-04-23T13:40:47.184Z</time></trkpt><trkpt lat="45.3309104" lon="10.7855179"><ele>64.8</ele><time>2026-04-23T13:40:48.183Z</time></trkpt><trkpt lat="45.3309335" lon="10.7854002"><ele>65.0</ele><time>2026-04-23T13:40:49.183Z</time></trkpt><trkpt lat="45.3309529" lon="10.7852988"><ele>65.0</ele><time>2026-04-23T13:40:50.183Z</time></trkpt><trkpt lat="45.3309714" lon="10.7852046"><ele>65.0</ele><time>2026-04-23T13:40:51.183Z</time></trkpt><trkpt lat="45.3309903" lon="10.7851053"><ele>65.0</ele><time>2026-04-23T13:40:52.183Z</time></trkpt><trkpt lat="45.3310132" lon="10.7849848"><ele>65.0</ele><time>2026-04-23T13:40:53.184Z</time></trkpt><trkpt lat="45.3310398" lon="10.7848536"><ele>65.0</ele><time>2026-04-23T13:40:54.183Z</time></trkpt><trkpt lat="45.33107" lon="10.7847104"><ele>65.0</ele><time>2026-04-23T13:40:55.183Z</time></trkpt><trkpt lat="45.3311029" lon="10.7845549"><ele>64.5</ele><time>2026-04-23T13:40:56.183Z</time></trkpt><trkpt lat="45.3311387" lon="10.7843914"><ele>64.0</ele><time>2026-04-23T13:40:57.183Z</time></trkpt><trkpt lat="45.3311741" lon="10.7842173"><ele>63.5</ele><time>2026-04-23T13:40:58.184Z</time></trkpt><trkpt lat="45.3312096" lon="10.7840334"><ele>63.0</ele><time>2026-04-23T13:40:59.184Z</time></trkpt><trkpt lat="45.3312468" lon="10.7838432"><ele>63.0</ele><time>2026-04-23T13:41:00.184Z</time></trkpt><trkpt lat="45.3312873" lon="10.7836434"><ele>63.0</ele><time>2026-04-23T13:41:01.185Z</time></trkpt><trkpt lat="45.3313285" lon="10.7834326"><ele>63.0</ele><time>2026-04-23T13:41:02.184Z</time></trkpt><trkpt lat="45.3313735" lon="10.7832191"><ele>63.0</ele><time>2026-04-23T13:41:03.184Z</time></trkpt><trkpt lat="45.3314178" lon="10.7829984"><ele>63.0</ele><time>2026-04-23T13:41:04.184Z</time></trkpt><trkpt lat="45.3314639" lon="10.7827717"><ele>63.0</ele><time>2026-04-23T13:41:05.184Z</time></trkpt><trkpt lat="45.3315102" lon="10.7825368"><ele>63.0</ele><time>2026-04-23T13:41:06.184Z</time></trkpt><trkpt lat="45.3315585" lon="10.7822969"><ele>63.0</ele><time>2026-04-23T13:41:07.184Z</time></trkpt><trkpt lat="45.3316072" lon="10.7820608"><ele>63.0</ele><time>2026-04-23T13:41:08.183Z</time></trkpt><trkpt lat="45.3316561" lon="10.7818202"><ele>63.0</ele><time>2026-04-23T13:41:09.184Z</time></trkpt><trkpt lat="45.3317052" lon="10.7815796"><ele>63.0</ele><time>2026-04-23T13:41:10.184Z</time></trkpt><trkpt lat="45.331754" lon="10.7813376"><ele>63.0</ele><time>2026-04-23T13:41:11.183Z</time></trkpt><trkpt lat="45.3318049" lon="10.7810934"><ele>63.0</ele><time>2026-04-23T13:41:12.185Z</time></trkpt><trkpt lat="45.3318549" lon="10.7808474"><ele>63.0</ele><time>2026-04-23T13:41:13.185Z</time></trkpt><trkpt lat="45.331906" lon="10.7806019"><ele>63.0</ele><time>2026-04-23T13:41:14.183Z</time></trkpt><trkpt lat="45.3319558" lon="10.7803527"><ele>63.33333333333333</ele><time>2026-04-23T13:41:15.183Z</time></trkpt><trkpt lat="45.3320081" lon="10.7801054"><ele>63.666666666666664</ele><time>2026-04-23T13:41:16.184Z</time></trkpt><trkpt lat="45.3320576" lon="10.7798531"><ele>64.0</ele><time>2026-04-23T13:41:17.185Z</time></trkpt><trkpt lat="45.3321098" lon="10.7795994"><ele>64.0</ele><time>2026-04-23T13:41:18.183Z</time></trkpt><trkpt lat="45.3321601" lon="10.779347"><ele>64.0</ele><time>2026-04-23T13:41:19.184Z</time></trkpt><trkpt lat="45.332212" lon="10.779092"><ele>64.0</ele><time>2026-04-23T13:41:20.183Z</time></trkpt><trkpt lat="45.3322629" lon="10.778835"><ele>63.666666666666664</ele><time>2026-04-23T13:41:21.183Z</time></trkpt><trkpt lat="45.3323138" lon="10.7785766"><ele>63.33333333333333</ele><time>2026-04-23T13:41:22.183Z</time></trkpt><trkpt lat="45.3323663" lon="10.7783154"><ele>63.0</ele><time>2026-04-23T13:41:23.184Z</time></trkpt><trkpt lat="45.3324207" lon="10.7780517"><ele>63.0</ele><time>2026-04-23T13:41:24.183Z</time></trkpt><trkpt lat="45.3324768" lon="10.7777873"><ele>63.0</ele><time>2026-04-23T13:41:25.184Z</time></trkpt><trkpt lat="45.3325302" lon="10.7775213"><ele>63.0</ele><time>2026-04-23T13:41:26.184Z</time></trkpt><trkpt lat="45.3325852" lon="10.7772549"><ele>63.0</ele><time>2026-04-23T13:41:27.183Z</time></trkpt><trkpt lat="45.3326389" lon="10.7769911"><ele>63.0</ele><time>2026-04-23T13:41:28.184Z</time></trkpt><trkpt lat="45.3326928" lon="10.7767315"><ele>63.0</ele><time>2026-04-23T13:41:29.184Z</time></trkpt><trkpt lat="45.3327471" lon="10.7764718"><ele>63.0</ele><time>2026-04-23T13:41:30.184Z</time></trkpt><trkpt lat="45.3327998" lon="10.7762138"><ele>63.0</ele><time>2026-04-23T13:41:31.184Z</time></trkpt><trkpt lat="45.3328523" lon="10.7759599"><ele>63.0</ele><time>2026-04-23T13:41:32.183Z</time></trkpt><trkpt lat="45.332906" lon="10.7757059"><ele>63.66666666666667</ele><time>2026-04-23T13:41:33.184Z</time></trkpt><trkpt lat="45.3329567" lon="10.7754539"><ele>64.33333333333334</ele><time>2026-04-23T13:41:34.184Z</time></trkpt><trkpt lat="45.3330075" lon="10.7752026"><ele>65.0</ele><time>2026-04-23T13:41:35.185Z</time></trkpt><trkpt lat="45.333058" lon="10.7749522"><ele>65.0</ele><time>2026-04-23T13:41:36.184Z</time></trkpt><trkpt lat="45.3331063" lon="10.774701"><ele>65.0</ele><time>2026-04-23T13:41:37.183Z</time></trkpt><trkpt lat="45.3331551" lon="10.7744487"><ele>65.0</ele><time>2026-04-23T13:41:38.183Z</time></trkpt><trkpt lat="45.3332072" lon="10.7741902"><ele>65.0</ele><time>2026-04-23T13:41:39.183Z</time></trkpt><trkpt lat="45.3332596" lon="10.7739278"><ele>65.0</ele><time>2026-04-23T13:41:40.184Z</time></trkpt><trkpt lat="45.3333151" lon="10.7736624"><ele>65.0</ele><time>2026-04-23T13:41:41.184Z</time></trkpt><trkpt lat="45.3333712" lon="10.7733947"><ele>65.0</ele><time>2026-04-23T13:41:42.183Z</time></trkpt><trkpt lat="45.333427" lon="10.7731222"><ele>65.0</ele><time>2026-04-23T13:41:43.184Z</time></trkpt><trkpt lat="45.3334822" lon="10.7728454"><ele>65.0</ele><time>2026-04-23T13:41:44.184Z</time></trkpt><trkpt lat="45.3335389" lon="10.7725672"><ele>64.66666666666667</ele><time>2026-04-23T13:41:45.184Z</time></trkpt><trkpt lat="45.3335969" lon="10.7722837"><ele>64.33333333333333</ele><time>2026-04-23T13:41:46.183Z</time></trkpt><trkpt lat="45.3336552" lon="10.771999"><ele>64.0</ele><time>2026-04-23T13:41:47.184Z</time></trkpt><trkpt lat="45.3337148" lon="10.7717121"><ele>64.66666666666666</ele><time>2026-04-23T13:41:48.184Z</time></trkpt><trkpt lat="45.3337745" lon="10.7714239"><ele>65.33333333333333</ele><time>2026-04-23T13:41:49.183Z</time></trkpt><trkpt lat="45.3338331" lon="10.7711396"><ele>66.0</ele><time>2026-04-23T13:41:50.183Z</time></trkpt><trkpt lat="45.3338899" lon="10.7708629"><ele>66.33333333333333</ele><time>2026-04-23T13:41:51.184Z</time></trkpt><trkpt lat="45.3339444" lon="10.7705881"><ele>66.66666666666666</ele><time>2026-04-23T13:41:52.184Z</time></trkpt><trkpt lat="45.3339978" lon="10.77032"><ele>67.0</ele><time>2026-04-23T13:41:53.183Z</time></trkpt><trkpt lat="45.3340594" lon="10.7700546"><ele>67.0</ele><time>2026-04-23T13:41:54.183Z</time></trkpt><trkpt lat="45.33413" lon="10.7697965"><ele>67.0</ele><time>2026-04-23T13:41:55.183Z</time></trkpt><trkpt lat="45.3342137" lon="10.7695431"><ele>67.0</ele><time>2026-04-23T13:41:56.183Z</time></trkpt><trkpt lat="45.3343075" lon="10.7692976"><ele>67.33333333333333</ele><time>2026-04-23T13:41:57.184Z</time></trkpt><trkpt lat="45.3344073" lon="10.7690558"><ele>67.66666666666667</ele><time>2026-04-23T13:41:58.183Z</time></trkpt><trkpt lat="45.3345092" lon="10.7688164"><ele>68.0</ele><time>2026-04-23T13:41:59.185Z</time></trkpt><trkpt lat="45.334614" lon="10.7685743"><ele>68.0</ele><time>2026-04-23T13:42:00.184Z</time></trkpt><trkpt lat="45.3347159" lon="10.7683313"><ele>68.0</ele><time>2026-04-23T13:42:01.185Z</time></trkpt><trkpt lat="45.3348163" lon="10.7680929"><ele>68.0</ele><time>2026-04-23T13:42:02.183Z</time></trkpt><trkpt lat="45.3349135" lon="10.7678623"><ele>68.33333333333334</ele><time>2026-04-23T13:42:03.183Z</time></trkpt><trkpt lat="45.3350098" lon="10.7676346"><ele>68.66666666666667</ele><time>2026-04-23T13:42:04.183Z</time></trkpt><trkpt lat="45.3351088" lon="10.7674088"><ele>69.0</ele><time>2026-04-23T13:42:05.184Z</time></trkpt><trkpt lat="45.3352129" lon="10.7671899"><ele>69.0</ele><time>2026-04-23T13:42:06.183Z</time></trkpt><trkpt lat="45.3353237" lon="10.7669758"><ele>69.0</ele><time>2026-04-23T13:42:07.184Z</time></trkpt><trkpt lat="45.3354358" lon="10.7667643"><ele>69.0</ele><time>2026-04-23T13:42:08.184Z</time></trkpt><trkpt lat="45.335556" lon="10.7665606"><ele>69.66666666666667</ele><time>2026-04-23T13:42:09.183Z</time></trkpt><trkpt lat="45.3356823" lon="10.7663623"><ele>70.33333333333334</ele><time>2026-04-23T13:42:10.183Z</time></trkpt><trkpt lat="45.3358133" lon="10.7661677"><ele>71.0</ele><time>2026-04-23T13:42:11.184Z</time></trkpt><trkpt lat="45.3359493" lon="10.7659776"><ele>71.0</ele><time>2026-04-23T13:42:12.184Z</time></trkpt><trkpt lat="45.3360885" lon="10.7657868"><ele>71.0</ele><time>2026-04-23T13:42:13.184Z</time></trkpt><trkpt lat="45.3362353" lon="10.765594"><ele>71.0</ele><time>2026-04-23T13:42:14.185Z</time></trkpt><trkpt lat="45.3363849" lon="10.7654003"><ele>71.0</ele><time>2026-04-23T13:42:15.184Z</time></trkpt><trkpt lat="45.3365369" lon="10.7652012"><ele>71.0</ele><time>2026-04-23T13:42:16.183Z</time></trkpt><trkpt lat="45.336692" lon="10.765003"><ele>71.0</ele><time>2026-04-23T13:42:17.183Z</time></trkpt><trkpt lat="45.3368515" lon="10.7648044"><ele>71.0</ele><time>2026-04-23T13:42:18.183Z</time></trkpt><trkpt lat="45.3370092" lon="10.764598"><ele>71.0</ele><time>2026-04-23T13:42:19.184Z</time></trkpt><trkpt lat="45.3371694" lon="10.7643942"><ele>71.0</ele><time>2026-04-23T13:42:20.183Z</time></trkpt><trkpt lat="45.3373308" lon="10.764187"><ele>71.33333333333334</ele><time>2026-04-23T13:42:21.184Z</time></trkpt><trkpt lat="45.3374926" lon="10.7639797"><ele>71.66666666666667</ele><time>2026-04-23T13:42:22.183Z</time></trkpt><trkpt lat="45.3376542" lon="10.7637685"><ele>72.0</ele><time>2026-04-23T13:42:23.184Z</time></trkpt><trkpt lat="45.3378175" lon="10.7635589"><ele>72.33333333333333</ele><time>2026-04-23T13:42:24.183Z</time></trkpt><trkpt lat="45.3379795" lon="10.7633479"><ele>72.66666666666666</ele><time>2026-04-23T13:42:25.184Z</time></trkpt><trkpt lat="45.3381416" lon="10.7631386"><ele>73.0</ele><time>2026-04-23T13:42:26.183Z</time></trkpt><trkpt lat="45.3383046" lon="10.7629306"><ele>73.0</ele><time>2026-04-23T13:42:27.183Z</time></trkpt><trkpt lat="45.3384675" lon="10.7627243"><ele>73.0</ele><time>2026-04-23T13:42:28.183Z</time></trkpt><trkpt lat="45.3386284" lon="10.7625159"><ele>73.0</ele><time>2026-04-23T13:42:29.184Z</time></trkpt><trkpt lat="45.3387905" lon="10.7623089"><ele>72.33333333333333</ele><time>2026-04-23T13:42:30.184Z</time></trkpt><trkpt lat="45.3389516" lon="10.7621026"><ele>71.66666666666667</ele><time>2026-04-23T13:42:31.184Z</time></trkpt><trkpt lat="45.3391137" lon="10.7618982"><ele>71.0</ele><time>2026-04-23T13:42:32.183Z</time></trkpt><trkpt lat="45.339275" lon="10.7616919"><ele>71.0</ele><time>2026-04-23T13:42:33.184Z</time></trkpt><trkpt lat="45.3394358" lon="10.7614848"><ele>71.0</ele><time>2026-04-23T13:42:34.185Z</time></trkpt><trkpt lat="45.3395948" lon="10.7612745"><ele>71.0</ele><time>2026-04-23T13:42:35.185Z</time></trkpt><trkpt lat="45.3397539" lon="10.7610682"><ele>71.33333333333334</ele><time>2026-04-23T13:42:36.184Z</time></trkpt><trkpt lat="45.3399158" lon="10.7608661"><ele>71.66666666666667</ele><time>2026-04-23T13:42:37.183Z</time></trkpt><trkpt lat="45.3400744" lon="10.7606632"><ele>72.0</ele><time>2026-04-23T13:42:38.184Z</time></trkpt><trkpt lat="45.340233" lon="10.760463"><ele>72.0</ele><time>2026-04-23T13:42:39.183Z</time></trkpt><trkpt lat="45.3403907" lon="10.7602591"><ele>72.0</ele><time>2026-04-23T13:42:40.183Z</time></trkpt><trkpt lat="45.3405479" lon="10.7600583"><ele>72.0</ele><time>2026-04-23T13:42:41.185Z</time></trkpt><trkpt lat="45.3407048" lon="10.7598573"><ele>72.33333333333333</ele><time>2026-04-23T13:42:42.183Z</time></trkpt><trkpt lat="45.3408602" lon="10.7596583"><ele>72.66666666666666</ele><time>2026-04-23T13:42:43.183Z</time></trkpt><trkpt lat="45.3410146" lon="10.7594597"><ele>73.0</ele><time>2026-04-23T13:42:44.184Z</time></trkpt><trkpt lat="45.3411693" lon="10.7592617"><ele>73.0</ele><time>2026-04-23T13:42:45.184Z</time></trkpt><trkpt lat="45.3413221" lon="10.7590615"><ele>73.0</ele><time>2026-04-23T13:42:46.183Z</time></trkpt><trkpt lat="45.3414725" lon="10.7588621"><ele>73.0</ele><time>2026-04-23T13:42:47.184Z</time></trkpt><trkpt lat="45.3416246" lon="10.7586649"><ele>73.66666666666666</ele><time>2026-04-23T13:42:48.184Z</time></trkpt><trkpt lat="45.3417766" lon="10.7584687"><ele>74.33333333333333</ele><time>2026-04-23T13:42:49.184Z</time></trkpt><trkpt lat="45.341928" lon="10.7582739"><ele>75.0</ele><time>2026-04-23T13:42:50.183Z</time></trkpt><trkpt lat="45.3420765" lon="10.7580805"><ele>75.0</ele><time>2026-04-23T13:42:51.184Z</time></trkpt><trkpt lat="45.3422287" lon="10.7578879"><ele>75.0</ele><time>2026-04-23T13:42:52.183Z</time></trkpt><trkpt lat="45.3423785" lon="10.7576924"><ele>75.0</ele><time>2026-04-23T13:42:53.183Z</time></trkpt><trkpt lat="45.3425298" lon="10.7574987"><ele>75.33333333333333</ele><time>2026-04-23T13:42:54.185Z</time></trkpt><trkpt lat="45.3426757" lon="10.7573047"><ele>75.66666666666666</ele><time>2026-04-23T13:42:55.184Z</time></trkpt><trkpt lat="45.3428165" lon="10.7571223"><ele>76.0</ele><time>2026-04-23T13:42:56.183Z</time></trkpt><trkpt lat="45.3429553" lon="10.7569441"><ele>76.33333333333333</ele><time>2026-04-23T13:42:57.184Z</time></trkpt><trkpt lat="45.3430909" lon="10.7567706"><ele>76.66666666666667</ele><time>2026-04-23T13:42:58.184Z</time></trkpt><trkpt lat="45.3432239" lon="10.7566014"><ele>77.0</ele><time>2026-04-23T13:42:59.183Z</time></trkpt><trkpt lat="45.343353" lon="10.7564305"><ele>77.0</ele><time>2026-04-23T13:43:00.183Z</time></trkpt><trkpt lat="45.3434799" lon="10.7562647"><ele>77.0</ele><time>2026-04-23T13:43:01.184Z</time></trkpt><trkpt lat="45.3436079" lon="10.7560994"><ele>77.0</ele><time>2026-04-23T13:43:02.183Z</time></trkpt><trkpt lat="45.3437382" lon="10.755935"><ele>77.33333333333334</ele><time>2026-04-23T13:43:03.183Z</time></trkpt><trkpt lat="45.3438677" lon="10.7557679"><ele>77.66666666666667</ele><time>2026-04-23T13:43:04.183Z</time></trkpt><trkpt lat="45.3439997" lon="10.7555992"><ele>78.0</ele><time>2026-04-23T13:43:05.184Z</time></trkpt><trkpt lat="45.3441328" lon="10.7554297"><ele>77.33333333333333</ele><time>2026-04-23T13:43:06.184Z</time></trkpt><trkpt lat="45.3442678" lon="10.7552566"><ele>76.66666666666666</ele><time>2026-04-23T13:43:07.183Z</time></trkpt><trkpt lat="45.3444076" lon="10.7550806"><ele>76.0</ele><time>2026-04-23T13:43:08.183Z</time></trkpt><trkpt lat="45.3445518" lon="10.7549064"><ele>76.0</ele><time>2026-04-23T13:43:09.184Z</time></trkpt><trkpt lat="45.3446999" lon="10.7547309"><ele>76.0</ele><time>2026-04-23T13:43:10.184Z</time></trkpt><trkpt lat="45.3448535" lon="10.75456"><ele>76.0</ele><time>2026-04-23T13:43:11.184Z</time></trkpt><trkpt lat="45.3450097" lon="10.7543877"><ele>76.33333333333333</ele><time>2026-04-23T13:43:12.183Z</time></trkpt><trkpt lat="45.3451703" lon="10.7542155"><ele>76.66666666666667</ele><time>2026-04-23T13:43:13.183Z</time></trkpt><trkpt lat="45.3453301" lon="10.7540407"><ele>77.0</ele><time>2026-04-23T13:43:14.184Z</time></trkpt><trkpt lat="45.3454936" lon="10.7538673"><ele>77.0</ele><time>2026-04-23T13:43:15.184Z</time></trkpt><trkpt lat="45.3456591" lon="10.7536923"><ele>77.0</ele><time>2026-04-23T13:43:16.183Z</time></trkpt><trkpt lat="45.3458232" lon="10.7535138"><ele>77.0</ele><time>2026-04-23T13:43:17.184Z</time></trkpt><trkpt lat="45.3459917" lon="10.753335"><ele>77.0</ele><time>2026-04-23T13:43:18.184Z</time></trkpt><trkpt lat="45.3461625" lon="10.7531567"><ele>77.0</ele><time>2026-04-23T13:43:19.183Z</time></trkpt><trkpt lat="45.3463318" lon="10.7529781"><ele>77.0</ele><time>2026-04-23T13:43:20.184Z</time></trkpt><trkpt lat="45.3464926" lon="10.7527924"><ele>77.0</ele><time>2026-04-23T13:43:21.184Z</time></trkpt><trkpt lat="45.3466446" lon="10.7525996"><ele>77.0</ele><time>2026-04-23T13:43:22.183Z</time></trkpt><trkpt lat="45.346787" lon="10.7523918"><ele>77.0</ele><time>2026-04-23T13:43:23.184Z</time></trkpt><trkpt lat="45.3469233" lon="10.7521778"><ele>77.0</ele><time>2026-04-23T13:43:24.184Z</time></trkpt><trkpt lat="45.3470549" lon="10.7519599"><ele>77.0</ele><time>2026-04-23T13:43:25.185Z</time></trkpt><trkpt lat="45.3471814" lon="10.7517332"><ele>77.0</ele><time>2026-04-23T13:43:26.185Z</time></trkpt><trkpt lat="45.3473068" lon="10.7515024"><ele>77.66666666666667</ele><time>2026-04-23T13:43:27.185Z</time></trkpt><trkpt lat="45.347435" lon="10.7512736"><ele>78.33333333333333</ele><time>2026-04-23T13:43:28.183Z</time></trkpt><trkpt lat="45.3475639" lon="10.751054"><ele>79.0</ele><time>2026-04-23T13:43:29.184Z</time></trkpt><trkpt lat="45.3476875" lon="10.7508305"><ele>79.33333333333333</ele><time>2026-04-23T13:43:30.184Z</time></trkpt><trkpt lat="45.3478099" lon="10.7506144"><ele>79.66666666666667</ele><time>2026-04-23T13:43:31.183Z</time></trkpt><trkpt lat="45.3479319" lon="10.7504003"><ele>80.0</ele><time>2026-04-23T13:43:32.184Z</time></trkpt><trkpt lat="45.3480518" lon="10.7501975"><ele>80.33333333333334</ele><time>2026-04-23T13:43:33.184Z</time></trkpt><trkpt lat="45.3481694" lon="10.7500103"><ele>80.66666666666667</ele><time>2026-04-23T13:43:34.185Z</time></trkpt><trkpt lat="45.348278" lon="10.7498295"><ele>81.0</ele><time>2026-04-23T13:43:35.183Z</time></trkpt><trkpt lat="45.3483802" lon="10.7496579"><ele>81.0</ele><time>2026-04-23T13:43:36.184Z</time></trkpt><trkpt lat="45.3484719" lon="10.7494936"><ele>81.0</ele><time>2026-04-23T13:43:37.184Z</time></trkpt><trkpt lat="45.3485542" lon="10.7493378"><ele>81.0</ele><time>2026-04-23T13:43:38.184Z</time></trkpt><trkpt lat="45.34863" lon="10.7491991"><ele>81.0</ele><time>2026-04-23T13:43:39.184Z</time></trkpt><trkpt lat="45.3486979" lon="10.7490781"><ele>81.0</ele><time>2026-04-23T13:43:40.184Z</time></trkpt><trkpt lat="45.348755" lon="10.7489739"><ele>81.0</ele><time>2026-04-23T13:43:41.183Z</time></trkpt><trkpt lat="45.3488024" lon="10.7488851"><ele>81.0</ele><time>2026-04-23T13:43:42.184Z</time></trkpt><trkpt lat="45.3488377" lon="10.7488074"><ele>81.0</ele><time>2026-04-23T13:43:43.184Z</time></trkpt><trkpt lat="45.3488319" lon="10.748639"><ele>81.0</ele><time>2026-04-23T13:43:45.185Z</time></trkpt><trkpt lat="45.3487889" lon="10.7485699"><ele>81.0</ele><time>2026-04-23T13:43:46.185Z</time></trkpt><trkpt lat="45.3487174" lon="10.7485128"><ele>81.0</ele><time>2026-04-23T13:43:47.183Z</time></trkpt><trkpt lat="45.3486359" lon="10.7484516"><ele>81.0</ele><time>2026-04-23T13:43:48.184Z</time></trkpt><trkpt lat="45.3485512" lon="10.7483815"><ele>81.0</ele><time>2026-04-23T13:43:49.183Z</time></trkpt><trkpt lat="45.3484576" lon="10.748302"><ele>81.0</ele><time>2026-04-23T13:43:50.183Z</time></trkpt><trkpt lat="45.3483567" lon="10.7482214"><ele>81.0</ele><time>2026-04-23T13:43:51.183Z</time></trkpt><trkpt lat="45.3482552" lon="10.7481446"><ele>81.0</ele><time>2026-04-23T13:43:52.184Z</time></trkpt><trkpt lat="45.3481549" lon="10.7480683"><ele>81.0</ele><time>2026-04-23T13:43:53.184Z</time></trkpt><trkpt lat="45.3480617" lon="10.747985"><ele>81.0</ele><time>2026-04-23T13:43:54.183Z</time></trkpt><trkpt lat="45.3479836" lon="10.7478863"><ele>81.0</ele><time>2026-04-23T13:43:55.184Z</time></trkpt><trkpt lat="45.3479271" lon="10.7477648"><ele>81.0</ele><time>2026-04-23T13:43:56.184Z</time></trkpt><trkpt lat="45.3478972" lon="10.7476292"><ele>81.0</ele><time>2026-04-23T13:43:57.183Z</time></trkpt><trkpt lat="45.347897" lon="10.7474854"><ele>81.0</ele><time>2026-04-23T13:43:58.184Z</time></trkpt><trkpt lat="45.3479308" lon="10.7473547"><ele>81.0</ele><time>2026-04-23T13:43:59.184Z</time></trkpt><trkpt lat="45.3479938" lon="10.7472473"><ele>81.0</ele><time>2026-04-23T13:44:00.184Z</time></trkpt><trkpt lat="45.3480791" lon="10.7471771"><ele>81.0</ele><time>2026-04-23T13:44:01.184Z</time></trkpt><trkpt lat="45.3481815" lon="10.747151"><ele>81.0</ele><time>2026-04-23T13:44:02.184Z</time></trkpt><trkpt lat="45.3482861" lon="10.7471758"><ele>81.0</ele><time>2026-04-23T13:44:03.183Z</time></trkpt><trkpt lat="45.3483882" lon="10.7472448"><ele>81.0</ele><time>2026-04-23T13:44:04.184Z</time></trkpt><trkpt lat="45.3484971" lon="10.7473257"><ele>81.0</ele><time>2026-04-23T13:44:05.184Z</time></trkpt><trkpt lat="45.3486167" lon="10.7474122"><ele>81.0</ele><time>2026-04-23T13:44:06.185Z</time></trkpt><trkpt lat="45.348741" lon="10.7475047"><ele>81.0</ele><time>2026-04-23T13:44:07.184Z</time></trkpt><trkpt lat="45.348871" lon="10.747602"><ele>81.0</ele><time>2026-04-23T13:44:08.184Z</time></trkpt><trkpt lat="45.3490106" lon="10.7476945"><ele>81.0</ele><time>2026-04-23T13:44:09.184Z</time></trkpt><trkpt lat="45.3491602" lon="10.747788"><ele>81.33333333333333</ele><time>2026-04-23T13:44:10.184Z</time></trkpt><trkpt lat="45.3493142" lon="10.7478794"><ele>81.66666666666666</ele><time>2026-04-23T13:44:11.185Z</time></trkpt><trkpt lat="45.3494749" lon="10.747967"><ele>82.0</ele><time>2026-04-23T13:44:12.184Z</time></trkpt><trkpt lat="45.3496521" lon="10.7480403"><ele>82.0</ele><time>2026-04-23T13:44:13.183Z</time></trkpt><trkpt lat="45.3498319" lon="10.7481115"><ele>82.0</ele><time>2026-04-23T13:44:14.184Z</time></trkpt><trkpt lat="45.3500179" lon="10.748177"><ele>82.0</ele><time>2026-04-23T13:44:15.183Z</time></trkpt><trkpt lat="45.3502079" lon="10.7482385"><ele>82.0</ele><time>2026-04-23T13:44:16.184Z</time></trkpt><trkpt lat="45.3504046" lon="10.748286"><ele>82.0</ele><time>2026-04-23T13:44:17.184Z</time></trkpt><trkpt lat="45.3506062" lon="10.7483179"><ele>82.0</ele><time>2026-04-23T13:44:18.184Z</time></trkpt><trkpt lat="45.3508114" lon="10.7483332"><ele>82.0</ele><time>2026-04-23T13:44:19.183Z</time></trkpt><trkpt lat="45.3510173" lon="10.7483375"><ele>82.0</ele><time>2026-04-23T13:44:20.183Z</time></trkpt><trkpt lat="45.3512275" lon="10.7483356"><ele>82.0</ele><time>2026-04-23T13:44:21.184Z</time></trkpt><trkpt lat="45.3514388" lon="10.7483261"><ele>81.66666666666666</ele><time>2026-04-23T13:44:22.183Z</time></trkpt><trkpt lat="45.3516532" lon="10.7483132"><ele>81.33333333333333</ele><time>2026-04-23T13:44:23.183Z</time></trkpt><trkpt lat="45.3518684" lon="10.7482909"><ele>81.0</ele><time>2026-04-23T13:44:24.183Z</time></trkpt><trkpt lat="45.3520854" lon="10.748269"><ele>81.33333333333333</ele><time>2026-04-23T13:44:25.184Z</time></trkpt><trkpt lat="45.3523015" lon="10.7482496"><ele>81.66666666666666</ele><time>2026-04-23T13:44:26.183Z</time></trkpt><trkpt lat="45.3525163" lon="10.7482298"><ele>82.0</ele><time>2026-04-23T13:44:27.183Z</time></trkpt><trkpt lat="45.3527305" lon="10.7482101"><ele>82.0</ele><time>2026-04-23T13:44:28.183Z</time></trkpt><trkpt lat="45.3529445" lon="10.7481894"><ele>82.0</ele><time>2026-04-23T13:44:29.183Z</time></trkpt><trkpt lat="45.3531582" lon="10.7481705"><ele>82.0</ele><time>2026-04-23T13:44:30.185Z</time></trkpt><trkpt lat="45.3533739" lon="10.7481458"><ele>83.0</ele><time>2026-04-23T13:44:31.183Z</time></trkpt><trkpt lat="45.3535901" lon="10.7481269"><ele>84.0</ele><time>2026-04-23T13:44:32.183Z</time></trkpt><trkpt lat="45.3538049" lon="10.7481079"><ele>85.0</ele><time>2026-04-23T13:44:33.184Z</time></trkpt><trkpt lat="45.3540214" lon="10.7480883"><ele>85.33333333333333</ele><time>2026-04-23T13:44:34.183Z</time></trkpt><trkpt lat="45.3542382" lon="10.7480713"><ele>85.66666666666667</ele><time>2026-04-23T13:44:35.184Z</time></trkpt><trkpt lat="45.3544569" lon="10.748055"><ele>86.0</ele><time>2026-04-23T13:44:36.185Z</time></trkpt><trkpt lat="45.3546742" lon="10.7480367"><ele>86.0</ele><time>2026-04-23T13:44:37.184Z</time></trkpt><trkpt lat="45.3548894" lon="10.7480188"><ele>86.0</ele><time>2026-04-23T13:44:38.184Z</time></trkpt><trkpt lat="45.355106" lon="10.7479994"><ele>86.0</ele><time>2026-04-23T13:44:39.184Z</time></trkpt><trkpt lat="45.3553222" lon="10.7479763"><ele>86.66666666666667</ele><time>2026-04-23T13:44:40.183Z</time></trkpt><trkpt lat="45.3555377" lon="10.7479522"><ele>87.33333333333333</ele><time>2026-04-23T13:44:41.183Z</time></trkpt><trkpt lat="45.3557552" lon="10.7479305"><ele>88.0</ele><time>2026-04-23T13:44:42.184Z</time></trkpt><trkpt lat="45.3559738" lon="10.7479111"><ele>88.0</ele><time>2026-04-23T13:44:43.184Z</time></trkpt><trkpt lat="45.3561937" lon="10.7478885"><ele>88.0</ele><time>2026-04-23T13:44:44.184Z</time></trkpt><trkpt lat="45.3564148" lon="10.7478675"><ele>88.0</ele><time>2026-04-23T13:44:45.184Z</time></trkpt><trkpt lat="45.3566387" lon="10.7478447"><ele>87.66666666666666</ele><time>2026-04-23T13:44:46.183Z</time></trkpt><trkpt lat="45.3568619" lon="10.7478199"><ele>87.33333333333333</ele><time>2026-04-23T13:44:47.184Z</time></trkpt><trkpt lat="45.3570855" lon="10.7477909"><ele>87.0</ele><time>2026-04-23T13:44:48.183Z</time></trkpt><trkpt lat="45.3573078" lon="10.7477506"><ele>87.5</ele><time>2026-04-23T13:44:49.184Z</time></trkpt><trkpt lat="45.3575296" lon="10.747695"><ele>88.0</ele><time>2026-04-23T13:44:50.184Z</time></trkpt><trkpt lat="45.3577517" lon="10.7476247"><ele>88.0</ele><time>2026-04-23T13:44:51.184Z</time></trkpt><trkpt lat="45.3579717" lon="10.7475417"><ele>88.0</ele><time>2026-04-23T13:44:52.184Z</time></trkpt><trkpt lat="45.3581944" lon="10.7474497"><ele>88.0</ele><time>2026-04-23T13:44:53.185Z</time></trkpt><trkpt lat="45.3584135" lon="10.7473431"><ele>88.0</ele><time>2026-04-23T13:44:54.185Z</time></trkpt><trkpt lat="45.358629" lon="10.7472223"><ele>88.0</ele><time>2026-04-23T13:44:55.184Z</time></trkpt><trkpt lat="45.3588412" lon="10.7470891"><ele>88.0</ele><time>2026-04-23T13:44:56.184Z</time></trkpt><trkpt lat="45.3590482" lon="10.7469445"><ele>87.5</ele><time>2026-04-23T13:44:57.185Z</time></trkpt><trkpt lat="45.3592508" lon="10.746788"><ele>87.0</ele><time>2026-04-23T13:44:58.184Z</time></trkpt><trkpt lat="45.3594437" lon="10.7466208"><ele>87.0</ele><time>2026-04-23T13:44:59.184Z</time></trkpt><trkpt lat="45.3596315" lon="10.746441"><ele>87.0</ele><time>2026-04-23T13:45:00.183Z</time></trkpt><trkpt lat="45.3598123" lon="10.7462506"><ele>87.33333333333333</ele><time>2026-04-23T13:45:01.185Z</time></trkpt><trkpt lat="45.3599867" lon="10.7460543"><ele>87.66666666666666</ele><time>2026-04-23T13:45:02.184Z</time></trkpt><trkpt lat="45.3601596" lon="10.7458613"><ele>88.0</ele><time>2026-04-23T13:45:03.184Z</time></trkpt><trkpt lat="45.3603314" lon="10.7456705"><ele>88.33333333333333</ele><time>2026-04-23T13:45:04.184Z</time></trkpt><trkpt lat="45.3604994" lon="10.745479"><ele>88.66666666666667</ele><time>2026-04-23T13:45:05.184Z</time></trkpt><trkpt lat="45.360667" lon="10.7452837"><ele>89.0</ele><time>2026-04-23T13:45:06.184Z</time></trkpt><trkpt lat="45.3608332" lon="10.7450884"><ele>89.33333333333334</ele><time>2026-04-23T13:45:07.184Z</time></trkpt><trkpt lat="45.3609992" lon="10.744895"><ele>89.66666666666667</ele><time>2026-04-23T13:45:08.183Z</time></trkpt><trkpt lat="45.3611643" lon="10.7447017"><ele>90.0</ele><time>2026-04-23T13:45:09.183Z</time></trkpt><trkpt lat="45.3613285" lon="10.74451"><ele>90.33333333333333</ele><time>2026-04-23T13:45:10.183Z</time></trkpt><trkpt lat="45.3614922" lon="10.7443182"><ele>90.66666666666666</ele><time>2026-04-23T13:45:11.184Z</time></trkpt><trkpt lat="45.3616576" lon="10.7441285"><ele>91.0</ele><time>2026-04-23T13:45:12.184Z</time></trkpt><trkpt lat="45.3618205" lon="10.7439404"><ele>91.0</ele><time>2026-04-23T13:45:13.184Z</time></trkpt><trkpt lat="45.3619811" lon="10.7437503"><ele>91.0</ele><time>2026-04-23T13:45:14.184Z</time></trkpt><trkpt lat="45.362142" lon="10.7435589"><ele>91.0</ele><time>2026-04-23T13:45:15.185Z</time></trkpt><trkpt lat="45.3623044" lon="10.7433735"><ele>91.33333333333333</ele><time>2026-04-23T13:45:16.185Z</time></trkpt><trkpt lat="45.3624624" lon="10.7431895"><ele>91.66666666666667</ele><time>2026-04-23T13:45:17.184Z</time></trkpt><trkpt lat="45.3626234" lon="10.7430087"><ele>92.0</ele><time>2026-04-23T13:45:18.183Z</time></trkpt><trkpt lat="45.3627842" lon="10.7428247"><ele>92.0</ele><time>2026-04-23T13:45:19.184Z</time></trkpt><trkpt lat="45.3629445" lon="10.7426397"><ele>92.0</ele><time>2026-04-23T13:45:20.184Z</time></trkpt><trkpt lat="45.363105" lon="10.7424511"><ele>92.0</ele><time>2026-04-23T13:45:21.184Z</time></trkpt><trkpt lat="45.3632669" lon="10.7422614"><ele>92.0</ele><time>2026-04-23T13:45:22.183Z</time></trkpt><trkpt lat="45.3634302" lon="10.7420741"><ele>92.0</ele><time>2026-04-23T13:45:23.183Z</time></trkpt><trkpt lat="45.363593" lon="10.7418851"><ele>92.0</ele><time>2026-04-23T13:45:24.183Z</time></trkpt><trkpt lat="45.3637546" lon="10.7416967"><ele>93.0</ele><time>2026-04-23T13:45:25.183Z</time></trkpt><trkpt lat="45.3639158" lon="10.7415069"><ele>94.0</ele><time>2026-04-23T13:45:26.183Z</time></trkpt><trkpt lat="45.3640765" lon="10.7413195"><ele>95.0</ele><time>2026-04-23T13:45:27.183Z</time></trkpt><trkpt lat="45.3642409" lon="10.7411269"><ele>95.33333333333334</ele><time>2026-04-23T13:45:28.184Z</time></trkpt><trkpt lat="45.3644026" lon="10.740934"><ele>95.66666666666667</ele><time>2026-04-23T13:45:29.185Z</time></trkpt><trkpt lat="45.364562" lon="10.7407363"><ele>96.0</ele><time>2026-04-23T13:45:30.184Z</time></trkpt><trkpt lat="45.3647112" lon="10.740532"><ele>96.33333333333334</ele><time>2026-04-23T13:45:31.184Z</time></trkpt><trkpt lat="45.3648623" lon="10.7403199"><ele>96.66666666666667</ele><time>2026-04-23T13:45:32.184Z</time></trkpt><trkpt lat="45.3650068" lon="10.7401034"><ele>97.0</ele><time>2026-04-23T13:45:33.184Z</time></trkpt><trkpt lat="45.3651498" lon="10.7398773"><ele>97.0</ele><time>2026-04-23T13:45:34.184Z</time></trkpt><trkpt lat="45.3652875" lon="10.7396437"><ele>97.0</ele><time>2026-04-23T13:45:35.184Z</time></trkpt><trkpt lat="45.365422" lon="10.7394094"><ele>97.0</ele><time>2026-04-23T13:45:36.184Z</time></trkpt><trkpt lat="45.3655526" lon="10.7391668"><ele>97.66666666666667</ele><time>2026-04-23T13:45:37.185Z</time></trkpt><trkpt lat="45.3656823" lon="10.738923"><ele>98.33333333333334</ele><time>2026-04-23T13:45:38.183Z</time></trkpt><trkpt lat="45.3658117" lon="10.7386809"><ele>99.0</ele><time>2026-04-23T13:45:39.183Z</time></trkpt><trkpt lat="45.3659433" lon="10.7384397"><ele>99.33333333333334</ele><time>2026-04-23T13:45:40.183Z</time></trkpt><trkpt lat="45.3660723" lon="10.738199"><ele>99.66666666666667</ele><time>2026-04-23T13:45:41.183Z</time></trkpt><trkpt lat="45.3662003" lon="10.737957"><ele>100.0</ele><time>2026-04-23T13:45:42.183Z</time></trkpt><trkpt lat="45.3663302" lon="10.7377152"><ele>100.33333333333334</ele><time>2026-04-23T13:45:43.184Z</time></trkpt><trkpt lat="45.3664566" lon="10.7374729"><ele>100.66666666666666</ele><time>2026-04-23T13:45:44.185Z</time></trkpt><trkpt lat="45.3665862" lon="10.7372307"><ele>101.0</ele><time>2026-04-23T13:45:45.184Z</time></trkpt><trkpt lat="45.3667119" lon="10.7369893"><ele>101.0</ele><time>2026-04-23T13:45:46.184Z</time></trkpt><trkpt lat="45.3668384" lon="10.7367493"><ele>101.0</ele><time>2026-04-23T13:45:47.184Z</time></trkpt><trkpt lat="45.3669658" lon="10.7365099"><ele>101.0</ele><time>2026-04-23T13:45:48.183Z</time></trkpt><trkpt lat="45.3670935" lon="10.7362699"><ele>101.33333333333333</ele><time>2026-04-23T13:45:49.185Z</time></trkpt><trkpt lat="45.3672203" lon="10.7360309"><ele>101.66666666666666</ele><time>2026-04-23T13:45:50.184Z</time></trkpt><trkpt lat="45.3673487" lon="10.7357911"><ele>102.0</ele><time>2026-04-23T13:45:51.183Z</time></trkpt><trkpt lat="45.3674769" lon="10.7355497"><ele>102.0</ele><time>2026-04-23T13:45:52.183Z</time></trkpt><trkpt lat="45.3676064" lon="10.7353071"><ele>102.0</ele><time>2026-04-23T13:45:53.183Z</time></trkpt><trkpt lat="45.367734" lon="10.7350643"><ele>102.0</ele><time>2026-04-23T13:45:54.184Z</time></trkpt><trkpt lat="45.367861" lon="10.7348233"><ele>102.33333333333334</ele><time>2026-04-23T13:45:55.184Z</time></trkpt><trkpt lat="45.367984" lon="10.7345879"><ele>102.66666666666667</ele><time>2026-04-23T13:45:56.183Z</time></trkpt><trkpt lat="45.3681055" lon="10.7343592"><ele>103.0</ele><time>2026-04-23T13:45:57.184Z</time></trkpt><trkpt lat="45.3682283" lon="10.7341344"><ele>103.66666666666667</ele><time>2026-04-23T13:45:58.185Z</time></trkpt><trkpt lat="45.3683566" lon="10.7339158"><ele>104.33333333333334</ele><time>2026-04-23T13:45:59.183Z</time></trkpt><trkpt lat="45.3684917" lon="10.7337115"><ele>105.0</ele><time>2026-04-23T13:46:00.184Z</time></trkpt><trkpt lat="45.368632" lon="10.7335197"><ele>105.0</ele><time>2026-04-23T13:46:01.183Z</time></trkpt><trkpt lat="45.3687771" lon="10.7333442"><ele>105.0</ele><time>2026-04-23T13:46:02.184Z</time></trkpt><trkpt lat="45.3689296" lon="10.7331871"><ele>105.0</ele><time>2026-04-23T13:46:03.184Z</time></trkpt><trkpt lat="45.3690854" lon="10.7330469"><ele>105.66666666666666</ele><time>2026-04-23T13:46:04.184Z</time></trkpt><trkpt lat="45.3692491" lon="10.7329231"><ele>106.33333333333333</ele><time>2026-04-23T13:46:05.184Z</time></trkpt><trkpt lat="45.3694174" lon="10.7328154"><ele>107.0</ele><time>2026-04-23T13:46:06.183Z</time></trkpt><trkpt lat="45.3695913" lon="10.7327256"><ele>106.66666666666666</ele><time>2026-04-23T13:46:07.183Z</time></trkpt><trkpt lat="45.3697703" lon="10.7326578"><ele>106.33333333333334</ele><time>2026-04-23T13:46:08.184Z</time></trkpt><trkpt lat="45.3699522" lon="10.7326036"><ele>106.0</ele><time>2026-04-23T13:46:09.185Z</time></trkpt><trkpt lat="45.3701363" lon="10.7325692"><ele>106.0</ele><time>2026-04-23T13:46:10.183Z</time></trkpt><trkpt lat="45.3703239" lon="10.7325526"><ele>106.0</ele><time>2026-04-23T13:46:11.183Z</time></trkpt><trkpt lat="45.3705138" lon="10.7325505"><ele>106.0</ele><time>2026-04-23T13:46:12.184Z</time></trkpt><trkpt lat="45.3707075" lon="10.7325585"><ele>107.0</ele><time>2026-04-23T13:46:13.185Z</time></trkpt><trkpt lat="45.3708956" lon="10.7325767"><ele>108.0</ele><time>2026-04-23T13:46:14.183Z</time></trkpt><trkpt lat="45.3710671" lon="10.7325954"><ele>109.0</ele><time>2026-04-23T13:46:15.184Z</time></trkpt><trkpt lat="45.3712136" lon="10.7326091"><ele>109.0</ele><time>2026-04-23T13:46:16.185Z</time></trkpt><trkpt lat="45.3713399" lon="10.7326218"><ele>109.0</ele><time>2026-04-23T13:46:17.183Z</time></trkpt><trkpt lat="45.3714523" lon="10.7326269"><ele>109.0</ele><time>2026-04-23T13:46:18.184Z</time></trkpt><trkpt lat="45.3715409" lon="10.7326263"><ele>109.0</ele><time>2026-04-23T13:46:19.184Z</time></trkpt><trkpt lat="45.3716167" lon="10.732633"><ele>109.0</ele><time>2026-04-23T13:46:20.184Z</time></trkpt><trkpt lat="45.3716841" lon="10.7326723"><ele>109.50000000000001</ele><time>2026-04-23T13:46:21.184Z</time></trkpt><trkpt lat="45.3717499" lon="10.7327316"><ele>110.0</ele><time>2026-04-23T13:46:22.184Z</time></trkpt><trkpt lat="45.3718242" lon="10.7327851"><ele>110.5</ele><time>2026-04-23T13:46:23.184Z</time></trkpt><trkpt lat="45.3719069" lon="10.7328266"><ele>111.0</ele><time>2026-04-23T13:46:24.184Z</time></trkpt><trkpt lat="45.3719972" lon="10.7328725"><ele>111.50000000000001</ele><time>2026-04-23T13:46:25.183Z</time></trkpt><trkpt lat="45.3720984" lon="10.7329077"><ele>112.0</ele><time>2026-04-23T13:46:26.183Z</time></trkpt><trkpt lat="45.3722098" lon="10.7329075"><ele>112.0</ele><time>2026-04-23T13:46:27.183Z</time></trkpt><trkpt lat="45.3723281" lon="10.7329142"><ele>112.0</ele><time>2026-04-23T13:46:28.185Z</time></trkpt><trkpt lat="45.3724499" lon="10.7329352"><ele>112.0</ele><time>2026-04-23T13:46:29.184Z</time></trkpt><trkpt lat="45.3725803" lon="10.732969"><ele>112.0</ele><time>2026-04-23T13:46:30.184Z</time></trkpt><trkpt lat="45.372715" lon="10.7330108"><ele>112.0</ele><time>2026-04-23T13:46:31.183Z</time></trkpt><trkpt lat="45.3728519" lon="10.7330692"><ele>112.0</ele><time>2026-04-23T13:46:32.184Z</time></trkpt><trkpt lat="45.3729875" lon="10.7331377"><ele>112.0</ele><time>2026-04-23T13:46:33.184Z</time></trkpt><trkpt lat="45.373127" lon="10.733218"><ele>112.0</ele><time>2026-04-23T13:46:34.183Z</time></trkpt><trkpt lat="45.3732672" lon="10.7333153"><ele>111.66666666666667</ele><time>2026-04-23T13:46:35.184Z</time></trkpt><trkpt lat="45.3734102" lon="10.7334182"><ele>111.33333333333334</ele><time>2026-04-23T13:46:36.184Z</time></trkpt><trkpt lat="45.3735574" lon="10.7335267"><ele>111.0</ele><time>2026-04-23T13:46:37.185Z</time></trkpt><trkpt lat="45.373708" lon="10.7336325"><ele>111.66666666666666</ele><time>2026-04-23T13:46:38.183Z</time></trkpt><trkpt lat="45.3738659" lon="10.7337243"><ele>112.33333333333333</ele><time>2026-04-23T13:46:39.183Z</time></trkpt><trkpt lat="45.3740366" lon="10.7338083"><ele>113.0</ele><time>2026-04-23T13:46:40.184Z</time></trkpt><trkpt lat="45.3742162" lon="10.7338853"><ele>113.0</ele><time>2026-04-23T13:46:41.184Z</time></trkpt><trkpt lat="45.3744073" lon="10.7339618"><ele>113.0</ele><time>2026-04-23T13:46:42.184Z</time></trkpt><trkpt lat="45.3746095" lon="10.7340433"><ele>113.0</ele><time>2026-04-23T13:46:43.184Z</time></trkpt><trkpt lat="45.3748188" lon="10.7341336"><ele>113.0</ele><time>2026-04-23T13:46:44.184Z</time></trkpt><trkpt lat="45.3750304" lon="10.7342446"><ele>113.0</ele><time>2026-04-23T13:46:45.184Z</time></trkpt><trkpt lat="45.3752436" lon="10.734365"><ele>113.0</ele><time>2026-04-23T13:46:46.184Z</time></trkpt><trkpt lat="45.3754571" lon="10.7344863"><ele>113.0</ele><time>2026-04-23T13:46:47.184Z</time></trkpt><trkpt lat="45.3756729" lon="10.7346026"><ele>113.5</ele><time>2026-04-23T13:46:48.184Z</time></trkpt><trkpt lat="45.3758909" lon="10.7347127"><ele>114.0</ele><time>2026-04-23T13:46:49.184Z</time></trkpt><trkpt lat="45.3761118" lon="10.7348127"><ele>114.0</ele><time>2026-04-23T13:46:50.184Z</time></trkpt><trkpt lat="45.3763377" lon="10.7348902"><ele>114.0</ele><time>2026-04-23T13:46:51.184Z</time></trkpt><trkpt lat="45.3765681" lon="10.7349633"><ele>115.0</ele><time>2026-04-23T13:46:52.183Z</time></trkpt><trkpt lat="45.3767988" lon="10.7350396"><ele>116.0</ele><time>2026-04-23T13:46:53.183Z</time></trkpt><trkpt lat="45.377028" lon="10.7351144"><ele>117.0</ele><time>2026-04-23T13:46:54.183Z</time></trkpt><trkpt lat="45.3772581" lon="10.7351806"><ele>118.0</ele><time>2026-04-23T13:46:55.184Z</time></trkpt><trkpt lat="45.3774885" lon="10.735234"><ele>118.0</ele><time>2026-04-23T13:46:56.183Z</time></trkpt><trkpt lat="45.3777196" lon="10.7352723"><ele>118.0</ele><time>2026-04-23T13:46:57.183Z</time></trkpt><trkpt lat="45.3779513" lon="10.7352998"><ele>119.0</ele><time>2026-04-23T13:46:58.183Z</time></trkpt><trkpt lat="45.3781847" lon="10.7353195"><ele>120.0</ele><time>2026-04-23T13:46:59.184Z</time></trkpt><trkpt lat="45.3784181" lon="10.7353384"><ele>120.0</ele><time>2026-04-23T13:47:00.184Z</time></trkpt><trkpt lat="45.3786521" lon="10.735355"><ele>120.0</ele><time>2026-04-23T13:47:01.183Z</time></trkpt><trkpt lat="45.3788819" lon="10.735374"><ele>121.33333333333334</ele><time>2026-04-23T13:47:02.184Z</time></trkpt><trkpt lat="45.3791064" lon="10.7353901"><ele>122.66666666666667</ele><time>2026-04-23T13:47:03.183Z</time></trkpt><trkpt lat="45.3793241" lon="10.735405"><ele>124.0</ele><time>2026-04-23T13:47:04.184Z</time></trkpt><trkpt lat="45.3795378" lon="10.7354202"><ele>124.33333333333334</ele><time>2026-04-23T13:47:05.184Z</time></trkpt><trkpt lat="45.3797499" lon="10.7354373"><ele>124.66666666666666</ele><time>2026-04-23T13:47:06.184Z</time></trkpt><trkpt lat="45.3799607" lon="10.7354531"><ele>125.0</ele><time>2026-04-23T13:47:07.183Z</time></trkpt><trkpt lat="45.3801721" lon="10.7354672"><ele>125.0</ele><time>2026-04-23T13:47:08.183Z</time></trkpt><trkpt lat="45.3803823" lon="10.7354821"><ele>125.0</ele><time>2026-04-23T13:47:09.184Z</time></trkpt><trkpt lat="45.3805845" lon="10.7354956"><ele>125.0</ele><time>2026-04-23T13:47:10.183Z</time></trkpt><trkpt lat="45.3807745" lon="10.7355105"><ele>125.0</ele><time>2026-04-23T13:47:11.184Z</time></trkpt><trkpt lat="45.3809549" lon="10.7355267"><ele>125.0</ele><time>2026-04-23T13:47:12.183Z</time></trkpt><trkpt lat="45.3811298" lon="10.7355463"><ele>125.0</ele><time>2026-04-23T13:47:13.183Z</time></trkpt><trkpt lat="45.3812989" lon="10.7355734"><ele>125.66666666666666</ele><time>2026-04-23T13:47:14.184Z</time></trkpt><trkpt lat="45.3814686" lon="10.7356085"><ele>126.33333333333334</ele><time>2026-04-23T13:47:15.184Z</time></trkpt><trkpt lat="45.3816358" lon="10.735645"><ele>127.0</ele><time>2026-04-23T13:47:16.183Z</time></trkpt><trkpt lat="45.3818033" lon="10.735683"><ele>127.0</ele><time>2026-04-23T13:47:17.184Z</time></trkpt><trkpt lat="45.3819667" lon="10.7357262"><ele>127.0</ele><time>2026-04-23T13:47:18.183Z</time></trkpt><trkpt lat="45.382126" lon="10.7357656"><ele>127.0</ele><time>2026-04-23T13:47:19.184Z</time></trkpt><trkpt lat="45.3822819" lon="10.7358044"><ele>127.66666666666667</ele><time>2026-04-23T13:47:20.184Z</time></trkpt><trkpt lat="45.3824345" lon="10.7358402"><ele>128.33333333333334</ele><time>2026-04-23T13:47:21.183Z</time></trkpt><trkpt lat="45.3825876" lon="10.7358769"><ele>129.0</ele><time>2026-04-23T13:47:22.184Z</time></trkpt><trkpt lat="45.3827429" lon="10.7358976"><ele>129.0</ele><time>2026-04-23T13:47:23.184Z</time></trkpt><trkpt lat="45.3828969" lon="10.7359016"><ele>129.0</ele><time>2026-04-23T13:47:24.183Z</time></trkpt><trkpt lat="45.3830396" lon="10.735899"><ele>129.0</ele><time>2026-04-23T13:47:25.183Z</time></trkpt><trkpt lat="45.3831772" lon="10.7358962"><ele>129.0</ele><time>2026-04-23T13:47:26.184Z</time></trkpt><trkpt lat="45.3833097" lon="10.7358994"><ele>129.75</ele><time>2026-04-23T13:47:27.184Z</time></trkpt><trkpt lat="45.3834413" lon="10.7358978"><ele>130.5</ele><time>2026-04-23T13:47:28.185Z</time></trkpt><trkpt lat="45.3835726" lon="10.735903"><ele>131.25</ele><time>2026-04-23T13:47:29.183Z</time></trkpt><trkpt lat="45.3837037" lon="10.7359151"><ele>132.0</ele><time>2026-04-23T13:47:30.184Z</time></trkpt><trkpt lat="45.3838325" lon="10.7359322"><ele>132.25</ele><time>2026-04-23T13:47:31.183Z</time></trkpt><trkpt lat="45.3839618" lon="10.7359498"><ele>132.5</ele><time>2026-04-23T13:47:32.184Z</time></trkpt><trkpt lat="45.3840897" lon="10.7359686"><ele>132.75</ele><time>2026-04-23T13:47:33.185Z</time></trkpt><trkpt lat="45.3842173" lon="10.7359888"><ele>133.0</ele><time>2026-04-23T13:47:34.184Z</time></trkpt><trkpt lat="45.3843384" lon="10.7360116"><ele>133.0</ele><time>2026-04-23T13:47:35.183Z</time></trkpt><trkpt lat="45.3844584" lon="10.736034"><ele>133.0</ele><time>2026-04-23T13:47:36.184Z</time></trkpt><trkpt lat="45.3845702" lon="10.7360578"><ele>133.0</ele><time>2026-04-23T13:47:37.183Z</time></trkpt><trkpt lat="45.384682" lon="10.7360812"><ele>133.0</ele><time>2026-04-23T13:47:38.184Z</time></trkpt><trkpt lat="45.384795" lon="10.7361078"><ele>136.25</ele><time>2026-04-23T13:47:39.184Z</time></trkpt><trkpt lat="45.3849099" lon="10.7361357"><ele>139.5</ele><time>2026-04-23T13:47:40.184Z</time></trkpt><trkpt lat="45.3850282" lon="10.7361654"><ele>142.75</ele><time>2026-04-23T13:47:41.184Z</time></trkpt><trkpt lat="45.3851505" lon="10.7361932"><ele>146.0</ele><time>2026-04-23T13:47:42.184Z</time></trkpt><trkpt lat="45.385278" lon="10.7362225"><ele>146.0</ele><time>2026-04-23T13:47:43.184Z</time></trkpt><trkpt lat="45.3854084" lon="10.7362644"><ele>146.0</ele><time>2026-04-23T13:47:44.184Z</time></trkpt><trkpt lat="45.3855442" lon="10.7363173"><ele>146.0</ele><time>2026-04-23T13:47:45.184Z</time></trkpt><trkpt lat="45.3856867" lon="10.7363755"><ele>146.0</ele><time>2026-04-23T13:47:46.183Z</time></trkpt><trkpt lat="45.3858299" lon="10.7364384"><ele>143.33333333333331</ele><time>2026-04-23T13:47:47.184Z</time></trkpt><trkpt lat="45.3859793" lon="10.7364914"><ele>140.66666666666666</ele><time>2026-04-23T13:47:48.184Z</time></trkpt><trkpt lat="45.3861332" lon="10.7365451"><ele>138.0</ele><time>2026-04-23T13:47:49.183Z</time></trkpt><trkpt lat="45.3862893" lon="10.736606"><ele>137.33333333333334</ele><time>2026-04-23T13:47:50.183Z</time></trkpt><trkpt lat="45.3864498" lon="10.7366642"><ele>136.66666666666669</ele><time>2026-04-23T13:47:51.184Z</time></trkpt><trkpt lat="45.386615" lon="10.7367271"><ele>136.0</ele><time>2026-04-23T13:47:52.184Z</time></trkpt><trkpt lat="45.386782" lon="10.7367886"><ele>136.0</ele><time>2026-04-23T13:47:53.183Z</time></trkpt><trkpt lat="45.3869473" lon="10.7368502"><ele>136.0</ele><time>2026-04-23T13:47:54.184Z</time></trkpt><trkpt lat="45.3871063" lon="10.7369089"><ele>136.0</ele><time>2026-04-23T13:47:55.184Z</time></trkpt><trkpt lat="45.3872599" lon="10.7369647"><ele>136.0</ele><time>2026-04-23T13:47:56.184Z</time></trkpt><trkpt lat="45.3874108" lon="10.7370242"><ele>136.0</ele><time>2026-04-23T13:47:57.184Z</time></trkpt><trkpt lat="45.3875572" lon="10.7370932"><ele>136.0</ele><time>2026-04-23T13:47:58.184Z</time></trkpt><trkpt lat="45.387704" lon="10.7371784"><ele>136.0</ele><time>2026-04-23T13:47:59.183Z</time></trkpt><trkpt lat="45.3878488" lon="10.7372747"><ele>136.0</ele><time>2026-04-23T13:48:00.185Z</time></trkpt><trkpt lat="45.3879956" lon="10.7373855"><ele>136.0</ele><time>2026-04-23T13:48:01.184Z</time></trkpt><trkpt lat="45.388141" lon="10.7374981"><ele>131.0</ele><time>2026-04-23T13:48:02.183Z</time></trkpt><trkpt lat="45.3882851" lon="10.7376291"><ele>126.0</ele><time>2026-04-23T13:48:03.183Z</time></trkpt><trkpt lat="45.3884267" lon="10.7377687"><ele>121.0</ele><time>2026-04-23T13:48:04.183Z</time></trkpt><trkpt lat="45.3885712" lon="10.73792"><ele>120.0</ele><time>2026-04-23T13:48:05.183Z</time></trkpt><trkpt lat="45.3887248" lon="10.7380791"><ele>119.0</ele><time>2026-04-23T13:48:06.185Z</time></trkpt><trkpt lat="45.3888864" lon="10.7382425"><ele>118.0</ele><time>2026-04-23T13:48:07.184Z</time></trkpt><trkpt lat="45.3890573" lon="10.7384202"><ele>116.0</ele><time>2026-04-23T13:48:08.184Z</time></trkpt><trkpt lat="45.3892271" lon="10.7385968"><ele>114.0</ele><time>2026-04-23T13:48:09.184Z</time></trkpt><trkpt lat="45.3893948" lon="10.7387694"><ele>112.0</ele><time>2026-04-23T13:48:10.183Z</time></trkpt><trkpt lat="45.3895557" lon="10.7389366"><ele>111.66666666666667</ele><time>2026-04-23T13:48:11.183Z</time></trkpt><trkpt lat="45.3897134" lon="10.739105"><ele>111.33333333333334</ele><time>2026-04-23T13:48:12.184Z</time></trkpt><trkpt lat="45.3898731" lon="10.739271"><ele>111.0</ele><time>2026-04-23T13:48:13.185Z</time></trkpt><trkpt lat="45.3900325" lon="10.7394356"><ele>110.66666666666666</ele><time>2026-04-23T13:48:14.184Z</time></trkpt><trkpt lat="45.390192" lon="10.739595"><ele>110.33333333333333</ele><time>2026-04-23T13:48:15.183Z</time></trkpt><trkpt lat="45.3903537" lon="10.7397246"><ele>110.0</ele><time>2026-04-23T13:48:16.183Z</time></trkpt><trkpt lat="45.3905227" lon="10.7398222"><ele>109.33333333333333</ele><time>2026-04-23T13:48:17.183Z</time></trkpt><trkpt lat="45.3906961" lon="10.7398914"><ele>108.66666666666666</ele><time>2026-04-23T13:48:18.183Z</time></trkpt><trkpt lat="45.3908766" lon="10.7399493"><ele>108.0</ele><time>2026-04-23T13:48:19.183Z</time></trkpt><trkpt lat="45.3910622" lon="10.740004"><ele>108.0</ele><time>2026-04-23T13:48:20.184Z</time></trkpt><trkpt lat="45.3912524" lon="10.7400525"><ele>108.0</ele><time>2026-04-23T13:48:21.183Z</time></trkpt><trkpt lat="45.3914476" lon="10.7401015"><ele>108.0</ele><time>2026-04-23T13:48:22.184Z</time></trkpt><trkpt lat="45.3916452" lon="10.7401556"><ele>107.66666666666666</ele><time>2026-04-23T13:48:23.184Z</time></trkpt><trkpt lat="45.3918431" lon="10.7402239"><ele>107.33333333333333</ele><time>2026-04-23T13:48:24.184Z</time></trkpt><trkpt lat="45.3920421" lon="10.7402997"><ele>107.0</ele><time>2026-04-23T13:48:25.184Z</time></trkpt><trkpt lat="45.3922392" lon="10.7403774"><ele>106.0</ele><time>2026-04-23T13:48:26.183Z</time></trkpt><trkpt lat="45.39243" lon="10.7404558"><ele>105.0</ele><time>2026-04-23T13:48:27.183Z</time></trkpt><trkpt lat="45.3926202" lon="10.7405318"><ele>104.0</ele><time>2026-04-23T13:48:28.184Z</time></trkpt><trkpt lat="45.3928089" lon="10.7406067"><ele>104.0</ele><time>2026-04-23T13:48:29.185Z</time></trkpt><trkpt lat="45.392993" lon="10.7406916"><ele>104.0</ele><time>2026-04-23T13:48:30.184Z</time></trkpt><trkpt lat="45.3931663" lon="10.740805"><ele>104.0</ele><time>2026-04-23T13:48:31.183Z</time></trkpt><trkpt lat="45.3933302" lon="10.7409406"><ele>103.66666666666666</ele><time>2026-04-23T13:48:32.184Z</time></trkpt><trkpt lat="45.3934894" lon="10.741097"><ele>103.33333333333334</ele><time>2026-04-23T13:48:33.183Z</time></trkpt><trkpt lat="45.3936428" lon="10.74127"><ele>103.0</ele><time>2026-04-23T13:48:34.183Z</time></trkpt><trkpt lat="45.3937959" lon="10.7414539"><ele>103.0</ele><time>2026-04-23T13:48:35.184Z</time></trkpt><trkpt lat="45.3939498" lon="10.7416426"><ele>103.0</ele><time>2026-04-23T13:48:36.185Z</time></trkpt><trkpt lat="45.394104" lon="10.7418372"><ele>103.0</ele><time>2026-04-23T13:48:37.184Z</time></trkpt><trkpt lat="45.3942523" lon="10.7420366"><ele>103.0</ele><time>2026-04-23T13:48:38.184Z</time></trkpt><trkpt lat="45.3943888" lon="10.7422405"><ele>103.0</ele><time>2026-04-23T13:48:39.184Z</time></trkpt><trkpt lat="45.3945173" lon="10.7424492"><ele>103.0</ele><time>2026-04-23T13:48:40.183Z</time></trkpt><trkpt lat="45.3946444" lon="10.7426563"><ele>102.33333333333334</ele><time>2026-04-23T13:48:41.184Z</time></trkpt><trkpt lat="45.3947763" lon="10.7428503"><ele>101.66666666666666</ele><time>2026-04-23T13:48:42.184Z</time></trkpt><trkpt lat="45.3949245" lon="10.7430178"><ele>101.0</ele><time>2026-04-23T13:48:43.184Z</time></trkpt><trkpt lat="45.39509" lon="10.7431523"><ele>101.0</ele><time>2026-04-23T13:48:44.184Z</time></trkpt><trkpt lat="45.3952698" lon="10.7432562"><ele>101.0</ele><time>2026-04-23T13:48:45.183Z</time></trkpt><trkpt lat="45.3954625" lon="10.7433481"><ele>101.0</ele><time>2026-04-23T13:48:46.185Z</time></trkpt><trkpt lat="45.3956621" lon="10.7434476"><ele>99.0</ele><time>2026-04-23T13:48:47.183Z</time></trkpt><trkpt lat="45.3958656" lon="10.7435548"><ele>97.0</ele><time>2026-04-23T13:48:48.184Z</time></trkpt><trkpt lat="45.3960769" lon="10.7436625"><ele>95.0</ele><time>2026-04-23T13:48:49.183Z</time></trkpt><trkpt lat="45.3962887" lon="10.7437711"><ele>96.0</ele><time>2026-04-23T13:48:50.184Z</time></trkpt><trkpt lat="45.3965002" lon="10.7438814"><ele>97.0</ele><time>2026-04-23T13:48:51.184Z</time></trkpt><trkpt lat="45.3967076" lon="10.7439876"><ele>98.0</ele><time>2026-04-23T13:48:52.184Z</time></trkpt><trkpt lat="45.3969146" lon="10.7440964"><ele>98.0</ele><time>2026-04-23T13:48:53.185Z</time></trkpt><trkpt lat="45.3971197" lon="10.7442056"><ele>98.0</ele><time>2026-04-23T13:48:54.184Z</time></trkpt><trkpt lat="45.3973222" lon="10.7443114"><ele>98.0</ele><time>2026-04-23T13:48:55.184Z</time></trkpt><trkpt lat="45.3975198" lon="10.7444129"><ele>97.66666666666666</ele><time>2026-04-23T13:48:56.184Z</time></trkpt><trkpt lat="45.3977173" lon="10.7445093"><ele>97.33333333333334</ele><time>2026-04-23T13:48:57.184Z</time></trkpt><trkpt lat="45.397915" lon="10.7446065"><ele>97.0</ele><time>2026-04-23T13:48:58.183Z</time></trkpt><trkpt lat="45.3981128" lon="10.7446965"><ele>97.0</ele><time>2026-04-23T13:48:59.183Z</time></trkpt><trkpt lat="45.3983158" lon="10.7447707"><ele>97.0</ele><time>2026-04-23T13:49:00.183Z</time></trkpt><trkpt lat="45.3985229" lon="10.7448277"><ele>97.0</ele><time>2026-04-23T13:49:01.183Z</time></trkpt><trkpt lat="45.3987337" lon="10.7448671"><ele>97.0</ele><time>2026-04-23T13:49:02.185Z</time></trkpt><trkpt lat="45.3989475" lon="10.7448966"><ele>97.0</ele><time>2026-04-23T13:49:03.184Z</time></trkpt><trkpt lat="45.3991502" lon="10.7449207"><ele>97.0</ele><time>2026-04-23T13:49:04.184Z</time></trkpt><trkpt lat="45.399343" lon="10.7449415"><ele>97.0</ele><time>2026-04-23T13:49:05.184Z</time></trkpt><trkpt lat="45.3995345" lon="10.7449377"><ele>97.0</ele><time>2026-04-23T13:49:06.183Z</time></trkpt><trkpt lat="45.3997254" lon="10.7449078"><ele>97.0</ele><time>2026-04-23T13:49:07.184Z</time></trkpt><trkpt lat="45.3999098" lon="10.7448579"><ele>96.33333333333334</ele><time>2026-04-23T13:49:08.184Z</time></trkpt><trkpt lat="45.400089" lon="10.7448001"><ele>95.66666666666667</ele><time>2026-04-23T13:49:09.184Z</time></trkpt><trkpt lat="45.4002708" lon="10.744765"><ele>95.0</ele><time>2026-04-23T13:49:10.185Z</time></trkpt><trkpt lat="45.4004572" lon="10.7447555"><ele>95.0</ele><time>2026-04-23T13:49:11.183Z</time></trkpt><trkpt lat="45.4006476" lon="10.7447581"><ele>95.0</ele><time>2026-04-23T13:49:12.183Z</time></trkpt><trkpt lat="45.4008429" lon="10.7447751"><ele>95.0</ele><time>2026-04-23T13:49:13.183Z</time></trkpt><trkpt lat="45.4010408" lon="10.7447975"><ele>95.0</ele><time>2026-04-23T13:49:14.184Z</time></trkpt><trkpt lat="45.4012388" lon="10.7448176"><ele>95.0</ele><time>2026-04-23T13:49:15.183Z</time></trkpt><trkpt lat="45.4014372" lon="10.7448437"><ele>95.0</ele><time>2026-04-23T13:49:16.184Z</time></trkpt><trkpt lat="45.4016332" lon="10.7448949"><ele>94.66666666666667</ele><time>2026-04-23T13:49:17.184Z</time></trkpt><trkpt lat="45.4018262" lon="10.7449689"><ele>94.33333333333333</ele><time>2026-04-23T13:49:18.184Z</time></trkpt><trkpt lat="45.4020135" lon="10.7450432"><ele>94.0</ele><time>2026-04-23T13:49:19.185Z</time></trkpt><trkpt lat="45.4021901" lon="10.74514"><ele>94.0</ele><time>2026-04-23T13:49:20.184Z</time></trkpt><trkpt lat="45.4023478" lon="10.7452784"><ele>94.0</ele><time>2026-04-23T13:49:21.183Z</time></trkpt><trkpt lat="45.4024991" lon="10.7454408"><ele>94.0</ele><time>2026-04-23T13:49:22.183Z</time></trkpt><trkpt lat="45.4026608" lon="10.7456059"><ele>94.0</ele><time>2026-04-23T13:49:23.184Z</time></trkpt><trkpt lat="45.4028287" lon="10.745781"><ele>94.0</ele><time>2026-04-23T13:49:24.184Z</time></trkpt><trkpt lat="45.4029972" lon="10.7459588"><ele>94.0</ele><time>2026-04-23T13:49:25.184Z</time></trkpt><trkpt lat="45.4031573" lon="10.7461326"><ele>94.0</ele><time>2026-04-23T13:49:26.183Z</time></trkpt><trkpt lat="45.4033139" lon="10.7462982"><ele>94.0</ele><time>2026-04-23T13:49:27.183Z</time></trkpt><trkpt lat="45.4034635" lon="10.7464563"><ele>94.0</ele><time>2026-04-23T13:49:28.185Z</time></trkpt><trkpt lat="45.4036128" lon="10.746607"><ele>94.0</ele><time>2026-04-23T13:49:29.184Z</time></trkpt><trkpt lat="45.4037681" lon="10.7467332"><ele>94.0</ele><time>2026-04-23T13:49:30.183Z</time></trkpt><trkpt lat="45.4039355" lon="10.7468296"><ele>94.0</ele><time>2026-04-23T13:49:31.185Z</time></trkpt><trkpt lat="45.4041105" lon="10.7468984"><ele>94.33333333333333</ele><time>2026-04-23T13:49:32.184Z</time></trkpt><trkpt lat="45.4042915" lon="10.7469585"><ele>94.66666666666667</ele><time>2026-04-23T13:49:33.183Z</time></trkpt><trkpt lat="45.4044792" lon="10.7470193"><ele>95.0</ele><time>2026-04-23T13:49:34.183Z</time></trkpt><trkpt lat="45.4046688" lon="10.7470898"><ele>96.0</ele><time>2026-04-23T13:49:35.183Z</time></trkpt><trkpt lat="45.4048625" lon="10.7471576"><ele>97.0</ele><time>2026-04-23T13:49:36.183Z</time></trkpt><trkpt lat="45.4050607" lon="10.747222"><ele>98.0</ele><time>2026-04-23T13:49:37.184Z</time></trkpt><trkpt lat="45.4052622" lon="10.7472912"><ele>98.0</ele><time>2026-04-23T13:49:38.183Z</time></trkpt><trkpt lat="45.4054641" lon="10.747361"><ele>98.0</ele><time>2026-04-23T13:49:39.184Z</time></trkpt><trkpt lat="45.4056645" lon="10.7474272"><ele>98.0</ele><time>2026-04-23T13:49:40.183Z</time></trkpt><trkpt lat="45.4058583" lon="10.7474946"><ele>97.33333333333333</ele><time>2026-04-23T13:49:41.184Z</time></trkpt><trkpt lat="45.4060464" lon="10.7475612"><ele>96.66666666666666</ele><time>2026-04-23T13:49:42.184Z</time></trkpt><trkpt lat="45.4062301" lon="10.747626"><ele>96.0</ele><time>2026-04-23T13:49:43.184Z</time></trkpt><trkpt lat="45.4064061" lon="10.7476894"><ele>96.33333333333334</ele><time>2026-04-23T13:49:44.183Z</time></trkpt><trkpt lat="45.4065732" lon="10.7477475"><ele>96.66666666666667</ele><time>2026-04-23T13:49:45.184Z</time></trkpt><trkpt lat="45.4067276" lon="10.7478017"><ele>97.0</ele><time>2026-04-23T13:49:46.184Z</time></trkpt><trkpt lat="45.4068628" lon="10.7478427"><ele>97.0</ele><time>2026-04-23T13:49:47.184Z</time></trkpt><trkpt lat="45.406978" lon="10.7478751"><ele>97.0</ele><time>2026-04-23T13:49:48.184Z</time></trkpt><trkpt lat="45.407077" lon="10.7479053"><ele>97.0</ele><time>2026-04-23T13:49:49.185Z</time></trkpt><trkpt lat="45.4071614" lon="10.7479375"><ele>97.0</ele><time>2026-04-23T13:49:50.183Z</time></trkpt><trkpt lat="45.4072351" lon="10.7479763"><ele>97.0</ele><time>2026-04-23T13:49:51.184Z</time></trkpt><trkpt lat="45.4073043" lon="10.7480332"><ele>96.8</ele><time>2026-04-23T13:49:52.184Z</time></trkpt><trkpt lat="45.4073755" lon="10.748108"><ele>96.6</ele><time>2026-04-23T13:49:53.184Z</time></trkpt><trkpt lat="45.4074578" lon="10.7481568"><ele>96.39999999999999</ele><time>2026-04-23T13:49:54.183Z</time></trkpt><trkpt lat="45.4075452" lon="10.7481622"><ele>96.19999999999999</ele><time>2026-04-23T13:49:55.183Z</time></trkpt><trkpt lat="45.4076357" lon="10.7481242"><ele>96.0</ele><time>2026-04-23T13:49:56.184Z</time></trkpt><trkpt lat="45.4077332" lon="10.7480786"><ele>96.0</ele><time>2026-04-23T13:49:57.185Z</time></trkpt><trkpt lat="45.4078408" lon="10.7480644"><ele>96.0</ele><time>2026-04-23T13:49:58.183Z</time></trkpt><trkpt lat="45.4079603" lon="10.7480677"><ele>96.0</ele><time>2026-04-23T13:49:59.183Z</time></trkpt><trkpt lat="45.4080917" lon="10.7480765"><ele>96.0</ele><time>2026-04-23T13:50:00.183Z</time></trkpt><trkpt lat="45.4082271" lon="10.7480871"><ele>96.0</ele><time>2026-04-23T13:50:01.184Z</time></trkpt><trkpt lat="45.4083717" lon="10.7480999"><ele>96.0</ele><time>2026-04-23T13:50:02.183Z</time></trkpt><trkpt lat="45.4085277" lon="10.7481092"><ele>96.0</ele><time>2026-04-23T13:50:03.184Z</time></trkpt><trkpt lat="45.4086894" lon="10.7481228"><ele>96.0</ele><time>2026-04-23T13:50:04.184Z</time></trkpt><trkpt lat="45.4088617" lon="10.7481313"><ele>96.0</ele><time>2026-04-23T13:50:05.184Z</time></trkpt><trkpt lat="45.4090341" lon="10.7481338"><ele>96.0</ele><time>2026-04-23T13:50:06.184Z</time></trkpt><trkpt lat="45.4092007" lon="10.7481413"><ele>96.0</ele><time>2026-04-23T13:50:07.183Z</time></trkpt><trkpt lat="45.409366" lon="10.7481496"><ele>96.0</ele><time>2026-04-23T13:50:08.183Z</time></trkpt><trkpt lat="45.40953" lon="10.7481497"><ele>96.0</ele><time>2026-04-23T13:50:09.183Z</time></trkpt><trkpt lat="45.4096923" lon="10.7481524"><ele>96.66666666666666</ele><time>2026-04-23T13:50:10.184Z</time></trkpt><trkpt lat="45.4098517" lon="10.7481685"><ele>97.33333333333333</ele><time>2026-04-23T13:50:11.183Z</time></trkpt><trkpt lat="45.4100106" lon="10.7481864"><ele>98.0</ele><time>2026-04-23T13:50:12.184Z</time></trkpt><trkpt lat="45.4101739" lon="10.7482016"><ele>98.0</ele><time>2026-04-23T13:50:13.184Z</time></trkpt><trkpt lat="45.410338" lon="10.7482193"><ele>98.0</ele><time>2026-04-23T13:50:14.184Z</time></trkpt><trkpt lat="45.4105006" lon="10.7482335"><ele>98.0</ele><time>2026-04-23T13:50:15.184Z</time></trkpt><trkpt lat="45.4106601" lon="10.7482468"><ele>98.66666666666666</ele><time>2026-04-23T13:50:16.183Z</time></trkpt><trkpt lat="45.4108146" lon="10.7482636"><ele>99.33333333333334</ele><time>2026-04-23T13:50:17.185Z</time></trkpt><trkpt lat="45.41097" lon="10.7482811"><ele>100.0</ele><time>2026-04-23T13:50:18.185Z</time></trkpt><trkpt lat="45.4111257" lon="10.7482959"><ele>100.0</ele><time>2026-04-23T13:50:19.183Z</time></trkpt><trkpt lat="45.4112806" lon="10.748314"><ele>100.0</ele><time>2026-04-23T13:50:20.184Z</time></trkpt><trkpt lat="45.411433" lon="10.7483313"><ele>100.0</ele><time>2026-04-23T13:50:21.184Z</time></trkpt><trkpt lat="45.4115883" lon="10.7483502"><ele>100.66666666666667</ele><time>2026-04-23T13:50:22.183Z</time></trkpt><trkpt lat="45.4117448" lon="10.7483692"><ele>101.33333333333334</ele><time>2026-04-23T13:50:23.183Z</time></trkpt><trkpt lat="45.4119006" lon="10.7483904"><ele>102.0</ele><time>2026-04-23T13:50:24.184Z</time></trkpt><trkpt lat="45.4120552" lon="10.74841"><ele>101.66666666666666</ele><time>2026-04-23T13:50:25.184Z</time></trkpt><trkpt lat="45.4122082" lon="10.7484282"><ele>101.33333333333333</ele><time>2026-04-23T13:50:26.184Z</time></trkpt><trkpt lat="45.4123606" lon="10.7484504"><ele>101.0</ele><time>2026-04-23T13:50:27.184Z</time></trkpt><trkpt lat="45.4125117" lon="10.7484735"><ele>101.0</ele><time>2026-04-23T13:50:28.184Z</time></trkpt><trkpt lat="45.4126592" lon="10.74849"><ele>101.0</ele><time>2026-04-23T13:50:29.185Z</time></trkpt><trkpt lat="45.4128092" lon="10.7485128"><ele>101.0</ele><time>2026-04-23T13:50:30.184Z</time></trkpt><trkpt lat="45.4129599" lon="10.7485345"><ele>102.66666666666666</ele><time>2026-04-23T13:50:31.183Z</time></trkpt><trkpt lat="45.413111" lon="10.7485654"><ele>104.33333333333334</ele><time>2026-04-23T13:50:32.184Z</time></trkpt><trkpt lat="45.4132637" lon="10.7485965"><ele>106.0</ele><time>2026-04-23T13:50:33.184Z</time></trkpt><trkpt lat="45.4134197" lon="10.7486405"><ele>106.0</ele><time>2026-04-23T13:50:34.184Z</time></trkpt><trkpt lat="45.4135788" lon="10.7486889"><ele>106.0</ele><time>2026-04-23T13:50:35.184Z</time></trkpt><trkpt lat="45.4137415" lon="10.7487462"><ele>106.0</ele><time>2026-04-23T13:50:36.183Z</time></trkpt><trkpt lat="45.4139053" lon="10.7488152"><ele>105.0</ele><time>2026-04-23T13:50:37.183Z</time></trkpt><trkpt lat="45.4140713" lon="10.7488878"><ele>104.0</ele><time>2026-04-23T13:50:38.184Z</time></trkpt><trkpt lat="45.414239" lon="10.7489654"><ele>103.0</ele><time>2026-04-23T13:50:39.183Z</time></trkpt><trkpt lat="45.4144094" lon="10.749024"><ele>103.0</ele><time>2026-04-23T13:50:40.183Z</time></trkpt><trkpt lat="45.4145829" lon="10.7490682"><ele>103.0</ele><time>2026-04-23T13:50:41.183Z</time></trkpt><trkpt lat="45.4147564" lon="10.7491076"><ele>103.0</ele><time>2026-04-23T13:50:42.184Z</time></trkpt><trkpt lat="45.4149282" lon="10.7491478"><ele>102.66666666666667</ele><time>2026-04-23T13:50:43.183Z</time></trkpt><trkpt lat="45.4150968" lon="10.7491957"><ele>102.33333333333334</ele><time>2026-04-23T13:50:44.184Z</time></trkpt><trkpt lat="45.4152632" lon="10.7492573"><ele>102.0</ele><time>2026-04-23T13:50:45.184Z</time></trkpt><trkpt lat="45.4154286" lon="10.749326"><ele>102.33333333333334</ele><time>2026-04-23T13:50:46.183Z</time></trkpt><trkpt lat="45.415597" lon="10.7493986"><ele>102.66666666666667</ele><time>2026-04-23T13:50:47.184Z</time></trkpt><trkpt lat="45.4157628" lon="10.7494687"><ele>103.0</ele><time>2026-04-23T13:50:48.183Z</time></trkpt><trkpt lat="45.4159291" lon="10.7495399"><ele>103.0</ele><time>2026-04-23T13:50:49.184Z</time></trkpt><trkpt lat="45.4160916" lon="10.7496006"><ele>103.0</ele><time>2026-04-23T13:50:50.184Z</time></trkpt><trkpt lat="45.4162495" lon="10.7496408"><ele>103.0</ele><time>2026-04-23T13:50:51.185Z</time></trkpt><trkpt lat="45.4164015" lon="10.7496617"><ele>102.5</ele><time>2026-04-23T13:50:52.183Z</time></trkpt><trkpt lat="45.416544" lon="10.7496728"><ele>102.0</ele><time>2026-04-23T13:50:53.184Z</time></trkpt><trkpt lat="45.4166647" lon="10.7496773"><ele>101.5</ele><time>2026-04-23T13:50:54.183Z</time></trkpt><trkpt lat="45.4167751" lon="10.7496768"><ele>101.0</ele><time>2026-04-23T13:50:55.184Z</time></trkpt><trkpt lat="45.4168782" lon="10.7496753"><ele>101.0</ele><time>2026-04-23T13:50:56.183Z</time></trkpt><trkpt lat="45.4169745" lon="10.749674"><ele>101.0</ele><time>2026-04-23T13:50:57.185Z</time></trkpt><trkpt lat="45.4170737" lon="10.7496775"><ele>101.0</ele><time>2026-04-23T13:50:58.183Z</time></trkpt><trkpt lat="45.4171762" lon="10.7496846"><ele>101.0</ele><time>2026-04-23T13:50:59.184Z</time></trkpt><trkpt lat="45.4172834" lon="10.7496991"><ele>101.0</ele><time>2026-04-23T13:51:00.184Z</time></trkpt><trkpt lat="45.4173954" lon="10.7497176"><ele>101.0</ele><time>2026-04-23T13:51:01.185Z</time></trkpt><trkpt lat="45.4175128" lon="10.7497417"><ele>101.0</ele><time>2026-04-23T13:51:02.185Z</time></trkpt><trkpt lat="45.4176376" lon="10.7497727"><ele>101.0</ele><time>2026-04-23T13:51:03.184Z</time></trkpt><trkpt lat="45.4177689" lon="10.7498084"><ele>101.0</ele><time>2026-04-23T13:51:04.184Z</time></trkpt><trkpt lat="45.4179032" lon="10.7498487"><ele>101.5</ele><time>2026-04-23T13:51:05.184Z</time></trkpt><trkpt lat="45.4180344" lon="10.7498917"><ele>102.0</ele><time>2026-04-23T13:51:06.184Z</time></trkpt><trkpt lat="45.4181614" lon="10.7499339"><ele>102.5</ele><time>2026-04-23T13:51:07.184Z</time></trkpt><trkpt lat="45.4182891" lon="10.7499744"><ele>103.0</ele><time>2026-04-23T13:51:08.183Z</time></trkpt><trkpt lat="45.4184197" lon="10.7500139"><ele>103.0</ele><time>2026-04-23T13:51:09.184Z</time></trkpt><trkpt lat="45.4185486" lon="10.7500551"><ele>103.0</ele><time>2026-04-23T13:51:10.183Z</time></trkpt><trkpt lat="45.4186771" lon="10.7500935"><ele>103.0</ele><time>2026-04-23T13:51:11.183Z</time></trkpt><trkpt lat="45.4188044" lon="10.7501323"><ele>103.0</ele><time>2026-04-23T13:51:12.183Z</time></trkpt><trkpt lat="45.4189339" lon="10.7501744"><ele>102.5</ele><time>2026-04-23T13:51:13.184Z</time></trkpt><trkpt lat="45.4190672" lon="10.7502177"><ele>102.0</ele><time>2026-04-23T13:51:14.183Z</time></trkpt><trkpt lat="45.419205" lon="10.750261"><ele>101.5</ele><time>2026-04-23T13:51:15.183Z</time></trkpt><trkpt lat="45.419346" lon="10.7503036"><ele>101.0</ele><time>2026-04-23T13:51:16.183Z</time></trkpt><trkpt lat="45.4194895" lon="10.7503462"><ele>101.0</ele><time>2026-04-23T13:51:17.183Z</time></trkpt><trkpt lat="45.4196345" lon="10.7503909"><ele>101.0</ele><time>2026-04-23T13:51:18.184Z</time></trkpt><trkpt lat="45.4197752" lon="10.7504364"><ele>101.0</ele><time>2026-04-23T13:51:19.183Z</time></trkpt><trkpt lat="45.4199172" lon="10.7504815"><ele>101.0</ele><time>2026-04-23T13:51:20.184Z</time></trkpt><trkpt lat="45.4200597" lon="10.7505367"><ele>101.33333333333333</ele><time>2026-04-23T13:51:21.183Z</time></trkpt><trkpt lat="45.4202023" lon="10.7506018"><ele>101.66666666666666</ele><time>2026-04-23T13:51:22.184Z</time></trkpt><trkpt lat="45.4203466" lon="10.7506727"><ele>102.0</ele><time>2026-04-23T13:51:23.183Z</time></trkpt><trkpt lat="45.4204911" lon="10.7507531"><ele>102.0</ele><time>2026-04-23T13:51:24.184Z</time></trkpt><trkpt lat="45.420636" lon="10.7508433"><ele>102.0</ele><time>2026-04-23T13:51:25.184Z</time></trkpt><trkpt lat="45.4207833" lon="10.7509319"><ele>102.0</ele><time>2026-04-23T13:51:26.185Z</time></trkpt><trkpt lat="45.420926" lon="10.7510241"><ele>102.0</ele><time>2026-04-23T13:51:27.184Z</time></trkpt><trkpt lat="45.4210643" lon="10.7511171"><ele>102.0</ele><time>2026-04-23T13:51:28.183Z</time></trkpt><trkpt lat="45.4212005" lon="10.7512137"><ele>102.0</ele><time>2026-04-23T13:51:29.184Z</time></trkpt><trkpt lat="45.4213361" lon="10.7513135"><ele>102.0</ele><time>2026-04-23T13:51:30.183Z</time></trkpt><trkpt lat="45.4214695" lon="10.7514143"><ele>102.0</ele><time>2026-04-23T13:51:31.183Z</time></trkpt><trkpt lat="45.4216041" lon="10.751515"><ele>102.0</ele><time>2026-04-23T13:51:32.184Z</time></trkpt><trkpt lat="45.4217396" lon="10.7516134"><ele>102.0</ele><time>2026-04-23T13:51:33.184Z</time></trkpt><trkpt lat="45.4218759" lon="10.7517154"><ele>102.0</ele><time>2026-04-23T13:51:34.184Z</time></trkpt><trkpt lat="45.4220162" lon="10.7518206"><ele>102.0</ele><time>2026-04-23T13:51:35.183Z</time></trkpt><trkpt lat="45.4221557" lon="10.7519266"><ele>102.25</ele><time>2026-04-23T13:51:36.184Z</time></trkpt><trkpt lat="45.4222914" lon="10.7520323"><ele>102.5</ele><time>2026-04-23T13:51:37.184Z</time></trkpt><trkpt lat="45.4224216" lon="10.7521386"><ele>102.75</ele><time>2026-04-23T13:51:38.184Z</time></trkpt><trkpt lat="45.4225449" lon="10.7522464"><ele>103.0</ele><time>2026-04-23T13:51:39.183Z</time></trkpt><trkpt lat="45.4226658" lon="10.7523578"><ele>103.0</ele><time>2026-04-23T13:51:40.183Z</time></trkpt><trkpt lat="45.4227873" lon="10.7524738"><ele>103.0</ele><time>2026-04-23T13:51:41.185Z</time></trkpt><trkpt lat="45.4229122" lon="10.7525895"><ele>103.0</ele><time>2026-04-23T13:51:42.184Z</time></trkpt><trkpt lat="45.4230372" lon="10.7527096"><ele>103.0</ele><time>2026-04-23T13:51:43.184Z</time></trkpt><trkpt lat="45.4231645" lon="10.752832"><ele>102.66666666666667</ele><time>2026-04-23T13:51:44.184Z</time></trkpt><trkpt lat="45.4232935" lon="10.7529574"><ele>102.33333333333334</ele><time>2026-04-23T13:51:45.184Z</time></trkpt><trkpt lat="45.4234237" lon="10.7530798"><ele>102.0</ele><time>2026-04-23T13:51:46.183Z</time></trkpt><trkpt lat="45.4235521" lon="10.753198"><ele>102.0</ele><time>2026-04-23T13:51:47.184Z</time></trkpt><trkpt lat="45.4236756" lon="10.7533098"><ele>102.0</ele><time>2026-04-23T13:51:48.184Z</time></trkpt><trkpt lat="45.4237943" lon="10.7534179"><ele>102.0</ele><time>2026-04-23T13:51:49.184Z</time></trkpt><trkpt lat="45.4239018" lon="10.7535206"><ele>102.0</ele><time>2026-04-23T13:51:50.184Z</time></trkpt><trkpt lat="45.424002" lon="10.7536169"><ele>102.0</ele><time>2026-04-23T13:51:51.184Z</time></trkpt><trkpt lat="45.4240932" lon="10.7537051"><ele>102.0</ele><time>2026-04-23T13:51:52.184Z</time></trkpt><trkpt lat="45.4241777" lon="10.7537833"><ele>102.0</ele><time>2026-04-23T13:51:53.184Z</time></trkpt><trkpt lat="45.4242498" lon="10.7538495"><ele>102.0</ele><time>2026-04-23T13:51:54.184Z</time></trkpt><trkpt lat="45.4243155" lon="10.7539129"><ele>102.0</ele><time>2026-04-23T13:51:55.184Z</time></trkpt><trkpt lat="45.424377" lon="10.7539723"><ele>102.0</ele><time>2026-04-23T13:51:56.185Z</time></trkpt><trkpt lat="45.424432" lon="10.7540291"><ele>102.0</ele><time>2026-04-23T13:51:57.183Z</time></trkpt><trkpt lat="45.4245052" lon="10.7541577"><ele>102.0</ele><time>2026-04-23T13:51:59.184Z</time></trkpt><trkpt lat="45.4245387" lon="10.7543282"><ele>102.0</ele><time>2026-04-23T13:52:01.184Z</time></trkpt><trkpt lat="45.4245562" lon="10.7544213"><ele>102.0</ele><time>2026-04-23T13:52:02.184Z</time></trkpt><trkpt lat="45.4246006" lon="10.7545008"><ele>102.0</ele><time>2026-04-23T13:52:03.183Z</time></trkpt><trkpt lat="45.4246589" lon="10.7545609"><ele>101.5</ele><time>2026-04-23T13:52:04.185Z</time></trkpt><trkpt lat="45.4247214" lon="10.7546132"><ele>101.0</ele><time>2026-04-23T13:52:05.183Z</time></trkpt><trkpt lat="45.424782" lon="10.7546813"><ele>100.5</ele><time>2026-04-23T13:52:06.183Z</time></trkpt><trkpt lat="45.4248375" lon="10.7547724"><ele>100.0</ele><time>2026-04-23T13:52:07.184Z</time></trkpt><trkpt lat="45.424894" lon="10.7548709"><ele>99.5</ele><time>2026-04-23T13:52:08.184Z</time></trkpt><trkpt lat="45.4249549" lon="10.7549702"><ele>99.0</ele><time>2026-04-23T13:52:09.184Z</time></trkpt><trkpt lat="45.425021" lon="10.7550693"><ele>99.0</ele><time>2026-04-23T13:52:10.183Z</time></trkpt><trkpt lat="45.4250906" lon="10.7551628"><ele>99.0</ele><time>2026-04-23T13:52:11.185Z</time></trkpt><trkpt lat="45.4251623" lon="10.7552504"><ele>99.0</ele><time>2026-04-23T13:52:12.183Z</time></trkpt><trkpt lat="45.4252318" lon="10.7553272"><ele>99.0</ele><time>2026-04-23T13:52:13.183Z</time></trkpt><trkpt lat="45.4252986" lon="10.7553939"><ele>99.0</ele><time>2026-04-23T13:52:14.183Z</time></trkpt><trkpt lat="45.425366" lon="10.7554542"><ele>99.0</ele><time>2026-04-23T13:52:15.184Z</time></trkpt><trkpt lat="45.4254367" lon="10.7555126"><ele>99.5</ele><time>2026-04-23T13:52:16.183Z</time></trkpt><trkpt lat="45.4255108" lon="10.7555691"><ele>100.0</ele><time>2026-04-23T13:52:17.184Z</time></trkpt><trkpt lat="45.4255791" lon="10.7556181"><ele>100.5</ele><time>2026-04-23T13:52:18.183Z</time></trkpt><trkpt lat="45.4256471" lon="10.7556693"><ele>101.0</ele><time>2026-04-23T13:52:19.185Z</time></trkpt><trkpt lat="45.4257185" lon="10.7557245"><ele>101.5</ele><time>2026-04-23T13:52:20.184Z</time></trkpt><trkpt lat="45.4257947" lon="10.755779"><ele>102.0</ele><time>2026-04-23T13:52:21.184Z</time></trkpt><trkpt lat="45.4258707" lon="10.755832"><ele>102.0</ele><time>2026-04-23T13:52:22.183Z</time></trkpt><trkpt lat="45.4259445" lon="10.7558875"><ele>102.0</ele><time>2026-04-23T13:52:23.183Z</time></trkpt><trkpt lat="45.4260175" lon="10.7559473"><ele>102.0</ele><time>2026-04-23T13:52:24.184Z</time></trkpt><trkpt lat="45.4260918" lon="10.7560029"><ele>102.0</ele><time>2026-04-23T13:52:25.185Z</time></trkpt><trkpt lat="45.4261759" lon="10.7560625"><ele>102.0</ele><time>2026-04-23T13:52:26.185Z</time></trkpt><trkpt lat="45.4262663" lon="10.7561291"><ele>102.0</ele><time>2026-04-23T13:52:27.184Z</time></trkpt><trkpt lat="45.4263599" lon="10.7561961"><ele>101.8</ele><time>2026-04-23T13:52:28.185Z</time></trkpt><trkpt lat="45.4264613" lon="10.7562692"><ele>101.6</ele><time>2026-04-23T13:52:29.184Z</time></trkpt><trkpt lat="45.4265602" lon="10.7563443"><ele>101.39999999999999</ele><time>2026-04-23T13:52:30.184Z</time></trkpt><trkpt lat="45.4266578" lon="10.7564166"><ele>101.19999999999999</ele><time>2026-04-23T13:52:31.185Z</time></trkpt><trkpt lat="45.4267568" lon="10.7564887"><ele>101.0</ele><time>2026-04-23T13:52:32.184Z</time></trkpt><trkpt lat="45.4268585" lon="10.7565607"><ele>101.0</ele><time>2026-04-23T13:52:33.184Z</time></trkpt><trkpt lat="45.4269674" lon="10.7566387"><ele>101.0</ele><time>2026-04-23T13:52:34.184Z</time></trkpt><trkpt lat="45.4270766" lon="10.7567224"><ele>101.0</ele><time>2026-04-23T13:52:35.183Z</time></trkpt><trkpt lat="45.4271915" lon="10.7568113"><ele>101.0</ele><time>2026-04-23T13:52:36.183Z</time></trkpt><trkpt lat="45.4273099" lon="10.7568954"><ele>101.0</ele><time>2026-04-23T13:52:37.183Z</time></trkpt><trkpt lat="45.4274231" lon="10.7569769"><ele>101.0</ele><time>2026-04-23T13:52:38.183Z</time></trkpt><trkpt lat="45.4275368" lon="10.7570551"><ele>101.0</ele><time>2026-04-23T13:52:39.184Z</time></trkpt><trkpt lat="45.4276458" lon="10.7571277"><ele>101.0</ele><time>2026-04-23T13:52:40.183Z</time></trkpt><trkpt lat="45.427754" lon="10.7571918"><ele>101.0</ele><time>2026-04-23T13:52:41.183Z</time></trkpt><trkpt lat="45.4278591" lon="10.7572463"><ele>101.0</ele><time>2026-04-23T13:52:42.184Z</time></trkpt><trkpt lat="45.4279654" lon="10.7572952"><ele>101.0</ele><time>2026-04-23T13:52:43.184Z</time></trkpt><trkpt lat="45.4280669" lon="10.7573359"><ele>101.0</ele><time>2026-04-23T13:52:44.183Z</time></trkpt><trkpt lat="45.4281474" lon="10.7573637"><ele>101.0</ele><time>2026-04-23T13:52:45.183Z</time></trkpt><trkpt lat="45.4282162" lon="10.7573893"><ele>101.16666666666666</ele><time>2026-04-23T13:52:46.184Z</time></trkpt><trkpt lat="45.4282828" lon="10.757408"><ele>101.33333333333333</ele><time>2026-04-23T13:52:47.184Z</time></trkpt><trkpt lat="45.4284114" lon="10.7574481"><ele>101.5</ele><time>2026-04-23T13:52:49.184Z</time></trkpt><trkpt lat="45.4284774" lon="10.7574912"><ele>101.66666666666666</ele><time>2026-04-23T13:52:50.184Z</time></trkpt><trkpt lat="45.4285365" lon="10.7575494"><ele>101.83333333333333</ele><time>2026-04-23T13:52:51.183Z</time></trkpt><trkpt lat="45.4285939" lon="10.7576154"><ele>102.0</ele><time>2026-04-23T13:52:52.184Z</time></trkpt><trkpt lat="45.42866" lon="10.7576568"><ele>102.0</ele><time>2026-04-23T13:52:53.183Z</time></trkpt><trkpt lat="45.4287284" lon="10.757669"><ele>102.0</ele><time>2026-04-23T13:52:54.184Z</time></trkpt><trkpt lat="45.4287938" lon="10.7576481"><ele>102.0</ele><time>2026-04-23T13:52:55.183Z</time></trkpt><trkpt lat="45.4288505" lon="10.7575994"><ele>102.0</ele><time>2026-04-23T13:52:56.184Z</time></trkpt><trkpt lat="45.4289151" lon="10.7575501"><ele>102.0</ele><time>2026-04-23T13:52:57.184Z</time></trkpt><trkpt lat="45.4289884" lon="10.7575168"><ele>102.0</ele><time>2026-04-23T13:52:58.184Z</time></trkpt><trkpt lat="45.4290571" lon="10.7575064"><ele>102.0</ele><time>2026-04-23T13:52:59.183Z</time></trkpt><trkpt lat="45.4291827" lon="10.7575031"><ele>102.5</ele><time>2026-04-23T13:53:01.184Z</time></trkpt><trkpt lat="45.4292497" lon="10.7575154"><ele>103.0</ele><time>2026-04-23T13:53:02.184Z</time></trkpt><trkpt lat="45.4293196" lon="10.7575373"><ele>103.5</ele><time>2026-04-23T13:53:03.183Z</time></trkpt><trkpt lat="45.4293909" lon="10.7575576"><ele>104.0</ele><time>2026-04-23T13:53:04.183Z</time></trkpt><trkpt lat="45.4294675" lon="10.757579"><ele>104.5</ele><time>2026-04-23T13:53:05.183Z</time></trkpt><trkpt lat="45.4295518" lon="10.757604"><ele>105.0</ele><time>2026-04-23T13:53:06.183Z</time></trkpt><trkpt lat="45.4296346" lon="10.7576295"><ele>104.6</ele><time>2026-04-23T13:53:07.184Z</time></trkpt><trkpt lat="45.4297139" lon="10.7576614"><ele>104.2</ele><time>2026-04-23T13:53:08.184Z</time></trkpt><trkpt lat="45.4297967" lon="10.7576925"><ele>103.80000000000001</ele><time>2026-04-23T13:53:09.184Z</time></trkpt><trkpt lat="45.4298863" lon="10.7577281"><ele>103.4</ele><time>2026-04-23T13:53:10.184Z</time></trkpt><trkpt lat="45.4299781" lon="10.7577741"><ele>103.0</ele><time>2026-04-23T13:53:11.183Z</time></trkpt><trkpt lat="45.4300703" lon="10.7578162"><ele>102.80000000000001</ele><time>2026-04-23T13:53:12.184Z</time></trkpt><trkpt lat="45.4301671" lon="10.7578554"><ele>102.6</ele><time>2026-04-23T13:53:13.183Z</time></trkpt><trkpt lat="45.4302665" lon="10.757891"><ele>102.4</ele><time>2026-04-23T13:53:14.183Z</time></trkpt><trkpt lat="45.4303687" lon="10.7579219"><ele>102.19999999999999</ele><time>2026-04-23T13:53:15.183Z</time></trkpt><trkpt lat="45.4304734" lon="10.7579507"><ele>102.0</ele><time>2026-04-23T13:53:16.184Z</time></trkpt><trkpt lat="45.4305746" lon="10.757979"><ele>102.39999999999999</ele><time>2026-04-23T13:53:17.184Z</time></trkpt><trkpt lat="45.4306737" lon="10.7580118"><ele>102.8</ele><time>2026-04-23T13:53:18.183Z</time></trkpt><trkpt lat="45.4307719" lon="10.7580384"><ele>103.2</ele><time>2026-04-23T13:53:19.183Z</time></trkpt><trkpt lat="45.4308695" lon="10.7580652"><ele>103.6</ele><time>2026-04-23T13:53:20.183Z</time></trkpt><trkpt lat="45.4309784" lon="10.7581019"><ele>104.0</ele><time>2026-04-23T13:53:21.184Z</time></trkpt><trkpt lat="45.4310844" lon="10.7581372"><ele>104.0</ele><time>2026-04-23T13:53:22.184Z</time></trkpt><trkpt lat="45.4311958" lon="10.7581702"><ele>104.0</ele><time>2026-04-23T13:53:23.184Z</time></trkpt><trkpt lat="45.4313101" lon="10.7582102"><ele>104.0</ele><time>2026-04-23T13:53:24.184Z</time></trkpt><trkpt lat="45.4314221" lon="10.7582563"><ele>104.0</ele><time>2026-04-23T13:53:25.185Z</time></trkpt><trkpt lat="45.4315306" lon="10.758315"><ele>103.80000000000001</ele><time>2026-04-23T13:53:26.184Z</time></trkpt><trkpt lat="45.4316268" lon="10.7583791"><ele>103.60000000000001</ele><time>2026-04-23T13:53:27.183Z</time></trkpt><trkpt lat="45.4317213" lon="10.7584401"><ele>103.4</ele><time>2026-04-23T13:53:28.185Z</time></trkpt><trkpt lat="45.431813" lon="10.7584987"><ele>103.2</ele><time>2026-04-23T13:53:29.185Z</time></trkpt><trkpt lat="45.4318999" lon="10.7585547"><ele>103.0</ele><time>2026-04-23T13:53:30.183Z</time></trkpt><trkpt lat="45.4319865" lon="10.7586072"><ele>103.0</ele><time>2026-04-23T13:53:31.183Z</time></trkpt><trkpt lat="45.4320746" lon="10.7586569"><ele>103.0</ele><time>2026-04-23T13:53:32.184Z</time></trkpt><trkpt lat="45.4321638" lon="10.7587138"><ele>103.0</ele><time>2026-04-23T13:53:33.184Z</time></trkpt><trkpt lat="45.4322554" lon="10.7587789"><ele>103.0</ele><time>2026-04-23T13:53:34.183Z</time></trkpt><trkpt lat="45.4323439" lon="10.7588477"><ele>103.0</ele><time>2026-04-23T13:53:35.184Z</time></trkpt><trkpt lat="45.4324235" lon="10.75891"><ele>103.00000000000001</ele><time>2026-04-23T13:53:36.184Z</time></trkpt><trkpt lat="45.4324933" lon="10.7589706"><ele>103.0</ele><time>2026-04-23T13:53:37.183Z</time></trkpt><trkpt lat="45.4325928" lon="10.758985"><ele>103.0</ele><time>2026-04-23T13:53:39.185Z</time></trkpt><trkpt lat="45.4326555" lon="10.7588823"><ele>103.0</ele><time>2026-04-23T13:53:41.184Z</time></trkpt><trkpt lat="45.4326897" lon="10.7588058"><ele>103.00000000000001</ele><time>2026-04-23T13:53:42.184Z</time></trkpt><trkpt lat="45.4327235" lon="10.7587292"><ele>103.0</ele><time>2026-04-23T13:53:43.183Z</time></trkpt><trkpt lat="45.4328042" lon="10.7586446"><ele>103.0</ele><time>2026-04-23T13:53:45.184Z</time></trkpt><trkpt lat="45.4329273" lon="10.7586049"><ele>103.0</ele><time>2026-04-23T13:53:47.184Z</time></trkpt><trkpt lat="45.4330016" lon="10.7585851"><ele>103.0</ele><time>2026-04-23T13:53:48.183Z</time></trkpt><trkpt lat="45.4330814" lon="10.7585723"><ele>103.0</ele><time>2026-04-23T13:53:49.184Z</time></trkpt><trkpt lat="45.4331665" lon="10.7585631"><ele>103.0</ele><time>2026-04-23T13:53:50.183Z</time></trkpt><trkpt lat="45.4332546" lon="10.758556"><ele>103.2</ele><time>2026-04-23T13:53:51.184Z</time></trkpt><trkpt lat="45.4333428" lon="10.7585488"><ele>103.4</ele><time>2026-04-23T13:53:52.184Z</time></trkpt><trkpt lat="45.4334338" lon="10.7585432"><ele>103.60000000000001</ele><time>2026-04-23T13:53:53.184Z</time></trkpt><trkpt lat="45.4335247" lon="10.7585378"><ele>103.80000000000001</ele><time>2026-04-23T13:53:54.184Z</time></trkpt><trkpt lat="45.4336154" lon="10.7585293"><ele>104.0</ele><time>2026-04-23T13:53:55.184Z</time></trkpt><trkpt lat="45.433705" lon="10.7585204"><ele>104.0</ele><time>2026-04-23T13:53:56.184Z</time></trkpt><trkpt lat="45.4337965" lon="10.7585104"><ele>104.0</ele><time>2026-04-23T13:53:57.184Z</time></trkpt><trkpt lat="45.433889" lon="10.7585041"><ele>104.0</ele><time>2026-04-23T13:53:58.183Z</time></trkpt><trkpt lat="45.4339817" lon="10.7584979"><ele>104.0</ele><time>2026-04-23T13:53:59.184Z</time></trkpt><trkpt lat="45.434076" lon="10.7585003"><ele>104.0</ele><time>2026-04-23T13:54:00.183Z</time></trkpt><trkpt lat="45.4341709" lon="10.7585009"><ele>103.83333333333333</ele><time>2026-04-23T13:54:01.184Z</time></trkpt><trkpt lat="45.4342662" lon="10.7585017"><ele>103.66666666666666</ele><time>2026-04-23T13:54:02.184Z</time></trkpt><trkpt lat="45.4343596" lon="10.7585024"><ele>103.5</ele><time>2026-04-23T13:54:03.184Z</time></trkpt><trkpt lat="45.4344457" lon="10.7585031"><ele>103.33333333333334</ele><time>2026-04-23T13:54:04.184Z</time></trkpt><trkpt lat="45.434531" lon="10.7585039"><ele>103.16666666666667</ele><time>2026-04-23T13:54:05.184Z</time></trkpt><trkpt lat="45.4346165" lon="10.7585033"><ele>103.0</ele><time>2026-04-23T13:54:06.184Z</time></trkpt><trkpt lat="45.4347018" lon="10.7585005"><ele>103.00000000000001</ele><time>2026-04-23T13:54:07.184Z</time></trkpt><trkpt lat="45.4347861" lon="10.7585033"><ele>103.0</ele><time>2026-04-23T13:54:08.184Z</time></trkpt><trkpt lat="45.4348613" lon="10.7585116"><ele>103.0</ele><time>2026-04-23T13:54:09.183Z</time></trkpt><trkpt lat="45.4349269" lon="10.7585206"><ele>103.0</ele><time>2026-04-23T13:54:10.183Z</time></trkpt><trkpt lat="45.4350091" lon="10.7585218"><ele>103.00000000000001</ele><time>2026-04-23T13:54:12.184Z</time></trkpt><trkpt lat="45.4350746" lon="10.7584346"><ele>103.0</ele><time>2026-04-23T13:54:18.185Z</time></trkpt><trkpt lat="45.4350758" lon="10.7582682"><ele>102.99999999999999</ele><time>2026-04-23T13:54:20.185Z</time></trkpt><trkpt lat="45.435077" lon="10.758173"><ele>103.0</ele><time>2026-04-23T13:54:21.184Z</time></trkpt><trkpt lat="45.4350769" lon="10.7580646"><ele>103.0</ele><time>2026-04-23T13:54:22.184Z</time></trkpt><trkpt lat="45.4350829" lon="10.7579693"><ele>103.0</ele><time>2026-04-23T13:54:23.184Z</time></trkpt><trkpt lat="45.4351013" lon="10.7578821"><ele>103.0</ele><time>2026-04-23T13:54:24.183Z</time></trkpt><trkpt lat="45.4351397" lon="10.7578067"><ele>102.99999999999999</ele><time>2026-04-23T13:54:25.184Z</time></trkpt><trkpt lat="45.4351847" lon="10.7577374"><ele>103.0</ele><time>2026-04-23T13:54:26.183Z</time></trkpt><trkpt lat="45.4352363" lon="10.757671"><ele>103.16666666666667</ele><time>2026-04-23T13:54:27.184Z</time></trkpt><trkpt lat="45.4352783" lon="10.7575979"><ele>103.33333333333334</ele><time>2026-04-23T13:54:28.184Z</time></trkpt><trkpt lat="45.4353439" lon="10.757495"><ele>103.5</ele><time>2026-04-23T13:54:30.183Z</time></trkpt><trkpt lat="45.4354104" lon="10.7574807"><ele>103.66666666666666</ele><time>2026-04-23T13:54:35.185Z</time></trkpt><trkpt lat="45.435497" lon="10.7575426"><ele>103.83333333333333</ele><time>2026-04-23T13:54:37.184Z</time></trkpt><trkpt lat="45.4355944" lon="10.7576196"><ele>104.0</ele><time>2026-04-23T13:54:39.183Z</time></trkpt><trkpt lat="45.4356684" lon="10.7576794"><ele>103.4</ele><time>2026-04-23T13:54:41.183Z</time></trkpt><trkpt lat="45.4357389" lon="10.757657"><ele>102.80000000000001</ele><time>2026-04-23T13:54:43.183Z</time></trkpt><trkpt lat="45.4358307" lon="10.7575551"><ele>102.19999999999999</ele><time>2026-04-23T13:54:45.184Z</time></trkpt><trkpt lat="45.4358934" lon="10.7574849"><ele>101.6</ele><time>2026-04-23T13:54:46.183Z</time></trkpt><trkpt lat="45.4359666" lon="10.7574118"><ele>101.0</ele><time>2026-04-23T13:54:47.183Z</time></trkpt><trkpt lat="45.4360436" lon="10.757334"><ele>101.0</ele><time>2026-04-23T13:54:48.183Z</time></trkpt><trkpt lat="45.4361289" lon="10.7572493"><ele>101.0</ele><time>2026-04-23T13:54:49.184Z</time></trkpt><trkpt lat="45.4362083" lon="10.7571728"><ele>101.0</ele><time>2026-04-23T13:54:50.184Z</time></trkpt><trkpt lat="45.4362794" lon="10.7571054"><ele>101.0</ele><time>2026-04-23T13:54:51.183Z</time></trkpt><trkpt lat="45.4363379" lon="10.7570417"><ele>101.0</ele><time>2026-04-23T13:54:52.184Z</time></trkpt><trkpt lat="45.4364329" lon="10.7569477"><ele>101.16666666666666</ele><time>2026-04-23T13:54:54.184Z</time></trkpt><trkpt lat="45.4364923" lon="10.7568843"><ele>101.33333333333333</ele><time>2026-04-23T13:54:55.183Z</time></trkpt><trkpt lat="45.4365581" lon="10.7568193"><ele>101.5</ele><time>2026-04-23T13:54:56.184Z</time></trkpt><trkpt lat="45.4366258" lon="10.7567568"><ele>101.66666666666666</ele><time>2026-04-23T13:54:57.184Z</time></trkpt><trkpt lat="45.4366871" lon="10.7567085"><ele>101.83333333333333</ele><time>2026-04-23T13:54:58.183Z</time></trkpt><trkpt lat="45.4367665" lon="10.7566664"><ele>102.0</ele><time>2026-04-23T13:55:00.184Z</time></trkpt><trkpt lat="45.4368319" lon="10.7567099"><ele>102.0</ele><time>2026-04-23T13:55:05.184Z</time></trkpt><trkpt lat="45.4368909" lon="10.7568238"><ele>102.0</ele><time>2026-04-23T13:55:07.185Z</time></trkpt><trkpt lat="45.4369527" lon="10.7569488"><ele>102.0</ele><time>2026-04-23T13:55:09.184Z</time></trkpt><trkpt lat="45.4370243" lon="10.7569689"><ele>102.0</ele><time>2026-04-23T13:55:11.183Z</time></trkpt><trkpt lat="45.4371137" lon="10.7569339"><ele>102.0</ele><time>2026-04-23T13:55:13.185Z</time></trkpt><trkpt lat="45.4372321" lon="10.7569231"><ele>102.0</ele><time>2026-04-23T13:55:15.184Z</time></trkpt><trkpt lat="45.4373051" lon="10.7569127"><ele>102.0</ele><time>2026-04-23T13:55:16.184Z</time></trkpt><trkpt lat="45.4373788" lon="10.7568915"><ele>102.0</ele><time>2026-04-23T13:55:17.184Z</time></trkpt><trkpt lat="45.4374536" lon="10.7568645"><ele>102.0</ele><time>2026-04-23T13:55:18.183Z</time></trkpt><trkpt lat="45.4375258" lon="10.756846"><ele>102.0</ele><time>2026-04-23T13:55:19.184Z</time></trkpt><trkpt lat="45.4376006" lon="10.756841"><ele>102.0</ele><time>2026-04-23T13:55:20.183Z</time></trkpt><trkpt lat="45.4376776" lon="10.7568398"><ele>102.0</ele><time>2026-04-23T13:55:21.184Z</time></trkpt><trkpt lat="45.4377541" lon="10.7568318"><ele>102.0</ele><time>2026-04-23T13:55:22.183Z</time></trkpt><trkpt lat="45.4378288" lon="10.7568255"><ele>102.0</ele><time>2026-04-23T13:55:23.184Z</time></trkpt><trkpt lat="45.4378937" lon="10.756821"><ele>102.0</ele><time>2026-04-23T13:55:24.185Z</time></trkpt><trkpt lat="45.4380049" lon="10.7568206"><ele>102.0</ele><time>2026-04-23T13:55:26.184Z</time></trkpt><trkpt lat="45.4380752" lon="10.7568354"><ele>102.0</ele><time>2026-04-23T13:55:28.184Z</time></trkpt><trkpt lat="45.4381436" lon="10.7568233"><ele>102.0</ele><time>2026-04-23T13:55:37.183Z</time></trkpt><trkpt lat="45.4382132" lon="10.7567527"><ele>102.0</ele><time>2026-04-23T13:55:43.184Z</time></trkpt><trkpt lat="45.4382074" lon="10.7565682"><ele>102.0</ele><time>2026-04-23T13:55:45.183Z</time></trkpt><trkpt lat="45.438199" lon="10.7564389"><ele>102.0</ele><time>2026-04-23T13:55:46.183Z</time></trkpt><trkpt lat="45.4381933" lon="10.7562812"><ele>102.0</ele><time>2026-04-23T13:55:47.183Z</time></trkpt><trkpt lat="45.4381848" lon="10.7561021"><ele>102.25</ele><time>2026-04-23T13:55:48.184Z</time></trkpt><trkpt lat="45.4381759" lon="10.7559061"><ele>102.5</ele><time>2026-04-23T13:55:49.184Z</time></trkpt><trkpt lat="45.4381663" lon="10.7556923"><ele>102.75</ele><time>2026-04-23T13:55:50.184Z</time></trkpt><trkpt lat="45.4381554" lon="10.7554691"><ele>103.0</ele><time>2026-04-23T13:55:51.184Z</time></trkpt><trkpt lat="45.4381439" lon="10.755238"><ele>103.0</ele><time>2026-04-23T13:55:52.183Z</time></trkpt><trkpt lat="45.4381327" lon="10.7549988"><ele>103.0</ele><time>2026-04-23T13:55:53.184Z</time></trkpt><trkpt lat="45.4381186" lon="10.7547517"><ele>103.0</ele><time>2026-04-23T13:55:54.184Z</time></trkpt><trkpt lat="45.438108" lon="10.7545183"><ele>103.0</ele><time>2026-04-23T13:55:55.184Z</time></trkpt><trkpt lat="45.4381011" lon="10.7542972"><ele>103.0</ele><time>2026-04-23T13:55:56.183Z</time></trkpt><trkpt lat="45.4380946" lon="10.7540912"><ele>103.0</ele><time>2026-04-23T13:55:57.183Z</time></trkpt><trkpt lat="45.4380884" lon="10.7538968"><ele>103.0</ele><time>2026-04-23T13:55:58.185Z</time></trkpt><trkpt lat="45.4380851" lon="10.7537163"><ele>103.0</ele><time>2026-04-23T13:55:59.185Z</time></trkpt><trkpt lat="45.438083" lon="10.7535466"><ele>103.0</ele><time>2026-04-23T13:56:00.184Z</time></trkpt><trkpt lat="45.4380838" lon="10.7533863"><ele>103.0</ele><time>2026-04-23T13:56:01.183Z</time></trkpt><trkpt lat="45.4380789" lon="10.7532348"><ele>103.0</ele><time>2026-04-23T13:56:02.184Z</time></trkpt><trkpt lat="45.4380746" lon="10.7530925"><ele>103.0</ele><time>2026-04-23T13:56:03.184Z</time></trkpt><trkpt lat="45.4380761" lon="10.7529589"><ele>102.66666666666667</ele><time>2026-04-23T13:56:04.183Z</time></trkpt><trkpt lat="45.4380774" lon="10.7528312"><ele>102.33333333333334</ele><time>2026-04-23T13:56:05.184Z</time></trkpt><trkpt lat="45.4380823" lon="10.7527118"><ele>102.0</ele><time>2026-04-23T13:56:06.185Z</time></trkpt><trkpt lat="45.4380877" lon="10.7525984"><ele>101.66666666666666</ele><time>2026-04-23T13:56:07.184Z</time></trkpt><trkpt lat="45.4380981" lon="10.752498"><ele>101.33333333333333</ele><time>2026-04-23T13:56:08.184Z</time></trkpt><trkpt lat="45.4381201" lon="10.7523976"><ele>101.0</ele><time>2026-04-23T13:56:09.184Z</time></trkpt><trkpt lat="45.4381553" lon="10.7523007"><ele>100.99999999999999</ele><time>2026-04-23T13:56:10.184Z</time></trkpt><trkpt lat="45.4381941" lon="10.7522022"><ele>101.0</ele><time>2026-04-23T13:56:11.183Z</time></trkpt><trkpt lat="45.4382131" lon="10.7520981"><ele>101.0</ele><time>2026-04-23T13:56:12.184Z</time></trkpt><trkpt lat="45.4382109" lon="10.7519924"><ele>101.0</ele><time>2026-04-23T13:56:13.184Z</time></trkpt><trkpt lat="45.4381921" lon="10.7518876"><ele>100.99999999999999</ele><time>2026-04-23T13:56:14.184Z</time></trkpt><trkpt lat="45.4381596" lon="10.7517803"><ele>101.0</ele><time>2026-04-23T13:56:15.183Z</time></trkpt><trkpt lat="45.4381212" lon="10.7516699"><ele>101.0</ele><time>2026-04-23T13:56:16.184Z</time></trkpt><trkpt lat="45.4380972" lon="10.7515451"><ele>101.0</ele><time>2026-04-23T13:56:17.184Z</time></trkpt><trkpt lat="45.4380827" lon="10.7514155"><ele>101.0</ele><time>2026-04-23T13:56:18.183Z</time></trkpt><trkpt lat="45.4380688" lon="10.7512804"><ele>101.0</ele><time>2026-04-23T13:56:19.183Z</time></trkpt><trkpt lat="45.4380602" lon="10.7511361"><ele>101.0</ele><time>2026-04-23T13:56:20.184Z</time></trkpt><trkpt lat="45.4380532" lon="10.7509796"><ele>100.75</ele><time>2026-04-23T13:56:21.184Z</time></trkpt><trkpt lat="45.4380501" lon="10.7508128"><ele>100.5</ele><time>2026-04-23T13:56:22.183Z</time></trkpt><trkpt lat="45.4380487" lon="10.7506449"><ele>100.25</ele><time>2026-04-23T13:56:23.184Z</time></trkpt><trkpt lat="45.4380454" lon="10.7504682"><ele>100.0</ele><time>2026-04-23T13:56:24.183Z</time></trkpt><trkpt lat="45.4380448" lon="10.7502871"><ele>100.5</ele><time>2026-04-23T13:56:25.184Z</time></trkpt><trkpt lat="45.4380419" lon="10.7501015"><ele>101.0</ele><time>2026-04-23T13:56:26.184Z</time></trkpt><trkpt lat="45.4380387" lon="10.7499157"><ele>101.5</ele><time>2026-04-23T13:56:27.184Z</time></trkpt><trkpt lat="45.4380392" lon="10.749739"><ele>102.0</ele><time>2026-04-23T13:56:28.185Z</time></trkpt><trkpt lat="45.4380354" lon="10.7495709"><ele>102.0</ele><time>2026-04-23T13:56:29.185Z</time></trkpt><trkpt lat="45.438033" lon="10.7494165"><ele>102.0</ele><time>2026-04-23T13:56:30.184Z</time></trkpt><trkpt lat="45.4380305" lon="10.7492633"><ele>102.0</ele><time>2026-04-23T13:56:31.184Z</time></trkpt><trkpt lat="45.4380252" lon="10.7491106"><ele>102.0</ele><time>2026-04-23T13:56:32.184Z</time></trkpt><trkpt lat="45.4380216" lon="10.7489586"><ele>102.0</ele><time>2026-04-23T13:56:33.184Z</time></trkpt><trkpt lat="45.4380215" lon="10.7488014"><ele>102.0</ele><time>2026-04-23T13:56:34.183Z</time></trkpt><trkpt lat="45.4380199" lon="10.7486451"><ele>102.0</ele><time>2026-04-23T13:56:35.183Z</time></trkpt><trkpt lat="45.4380191" lon="10.7484819"><ele>102.0</ele><time>2026-04-23T13:56:36.183Z</time></trkpt><trkpt lat="45.4380175" lon="10.748319"><ele>102.0</ele><time>2026-04-23T13:56:37.183Z</time></trkpt><trkpt lat="45.4380162" lon="10.7481583"><ele>102.0</ele><time>2026-04-23T13:56:38.184Z</time></trkpt><trkpt lat="45.4380115" lon="10.7479945"><ele>102.0</ele><time>2026-04-23T13:56:39.184Z</time></trkpt><trkpt lat="45.4380089" lon="10.7478412"><ele>102.0</ele><time>2026-04-23T13:56:40.183Z</time></trkpt><trkpt lat="45.4380054" lon="10.7476912"><ele>102.0</ele><time>2026-04-23T13:56:41.184Z</time></trkpt><trkpt lat="45.4380037" lon="10.7475397"><ele>102.0</ele><time>2026-04-23T13:56:42.184Z</time></trkpt><trkpt lat="45.438003" lon="10.7473866"><ele>102.0</ele><time>2026-04-23T13:56:43.183Z</time></trkpt><trkpt lat="45.4380001" lon="10.7472358"><ele>102.0</ele><time>2026-04-23T13:56:44.183Z</time></trkpt><trkpt lat="45.4379993" lon="10.7470917"><ele>102.0</ele><time>2026-04-23T13:56:45.183Z</time></trkpt><trkpt lat="45.4379964" lon="10.7469437"><ele>102.0</ele><time>2026-04-23T13:56:46.184Z</time></trkpt><trkpt lat="45.437992" lon="10.7467885"><ele>102.0</ele><time>2026-04-23T13:56:47.184Z</time></trkpt><trkpt lat="45.4379895" lon="10.7466211"><ele>103.0</ele><time>2026-04-23T13:56:48.183Z</time></trkpt><trkpt lat="45.4379861" lon="10.7464466"><ele>104.0</ele><time>2026-04-23T13:56:49.184Z</time></trkpt><trkpt lat="45.4379866" lon="10.7462667"><ele>105.0</ele><time>2026-04-23T13:56:50.184Z</time></trkpt><trkpt lat="45.4379848" lon="10.7460824"><ele>106.0</ele><time>2026-04-23T13:56:51.184Z</time></trkpt><trkpt lat="45.4379819" lon="10.745896"><ele>106.0</ele><time>2026-04-23T13:56:52.183Z</time></trkpt><trkpt lat="45.4379795" lon="10.7457064"><ele>106.0</ele><time>2026-04-23T13:56:53.184Z</time></trkpt><trkpt lat="45.4379784" lon="10.7455227"><ele>106.0</ele><time>2026-04-23T13:56:54.183Z</time></trkpt><trkpt lat="45.4379742" lon="10.7453425"><ele>106.0</ele><time>2026-04-23T13:56:55.184Z</time></trkpt><trkpt lat="45.4379724" lon="10.7451704"><ele>106.0</ele><time>2026-04-23T13:56:56.183Z</time></trkpt><trkpt lat="45.4379713" lon="10.7450054"><ele>106.0</ele><time>2026-04-23T13:56:57.184Z</time></trkpt><trkpt lat="45.4379694" lon="10.7448428"><ele>106.0</ele><time>2026-04-23T13:56:58.183Z</time></trkpt><trkpt lat="45.4379683" lon="10.7446805"><ele>106.0</ele><time>2026-04-23T13:56:59.183Z</time></trkpt><trkpt lat="45.4379674" lon="10.744518"><ele>106.0</ele><time>2026-04-23T13:57:00.184Z</time></trkpt><trkpt lat="45.4379657" lon="10.7443588"><ele>106.0</ele><time>2026-04-23T13:57:01.183Z</time></trkpt><trkpt lat="45.4379668" lon="10.7442063"><ele>106.0</ele><time>2026-04-23T13:57:02.183Z</time></trkpt><trkpt lat="45.437982" lon="10.7440628"><ele>106.0</ele><time>2026-04-23T13:57:03.183Z</time></trkpt><trkpt lat="45.4380113" lon="10.743929"><ele>106.0</ele><time>2026-04-23T13:57:04.183Z</time></trkpt><trkpt lat="45.4380558" lon="10.7438027"><ele>106.0</ele><time>2026-04-23T13:57:05.183Z</time></trkpt><trkpt lat="45.4381164" lon="10.7436839"><ele>106.0</ele><time>2026-04-23T13:57:06.183Z</time></trkpt><trkpt lat="45.4381931" lon="10.7435782"><ele>106.0</ele><time>2026-04-23T13:57:07.184Z</time></trkpt><trkpt lat="45.4382901" lon="10.7435046"><ele>106.0</ele><time>2026-04-23T13:57:08.184Z</time></trkpt><trkpt lat="45.4383974" lon="10.7434654"><ele>106.0</ele><time>2026-04-23T13:57:09.184Z</time></trkpt><trkpt lat="45.4385141" lon="10.7434581"><ele>105.5</ele><time>2026-04-23T13:57:10.183Z</time></trkpt><trkpt lat="45.4386366" lon="10.7434862"><ele>105.0</ele><time>2026-04-23T13:57:11.184Z</time></trkpt><trkpt lat="45.4387694" lon="10.7435269"><ele>104.5</ele><time>2026-04-23T13:57:12.184Z</time></trkpt><trkpt lat="45.438916" lon="10.7435783"><ele>104.0</ele><time>2026-04-23T13:57:13.183Z</time></trkpt><trkpt lat="45.4390746" lon="10.7436371"><ele>103.66666666666666</ele><time>2026-04-23T13:57:14.184Z</time></trkpt><trkpt lat="45.4392422" lon="10.7436989"><ele>103.33333333333334</ele><time>2026-04-23T13:57:15.184Z</time></trkpt><trkpt lat="45.4394138" lon="10.7437616"><ele>103.0</ele><time>2026-04-23T13:57:16.183Z</time></trkpt><trkpt lat="45.4395943" lon="10.7438262"><ele>102.66666666666667</ele><time>2026-04-23T13:57:17.184Z</time></trkpt><trkpt lat="45.4397857" lon="10.7438949"><ele>102.33333333333334</ele><time>2026-04-23T13:57:18.183Z</time></trkpt><trkpt lat="45.4399856" lon="10.7439669"><ele>102.0</ele><time>2026-04-23T13:57:19.185Z</time></trkpt><trkpt lat="45.4401913" lon="10.744043"><ele>102.0</ele><time>2026-04-23T13:57:20.183Z</time></trkpt><trkpt lat="45.4404044" lon="10.7441234"><ele>102.0</ele><time>2026-04-23T13:57:21.183Z</time></trkpt><trkpt lat="45.4406235" lon="10.7442082"><ele>102.0</ele><time>2026-04-23T13:57:22.184Z</time></trkpt><trkpt lat="45.4408487" lon="10.7442912"><ele>104.0</ele><time>2026-04-23T13:57:23.184Z</time></trkpt><trkpt lat="45.4410747" lon="10.7443827"><ele>106.0</ele><time>2026-04-23T13:57:24.184Z</time></trkpt><trkpt lat="45.4413015" lon="10.7444804"><ele>106.0</ele><time>2026-04-23T13:57:25.184Z</time></trkpt><trkpt lat="45.4415278" lon="10.7445865"><ele>106.0</ele><time>2026-04-23T13:57:26.183Z</time></trkpt><trkpt lat="45.4417568" lon="10.7446942"><ele>106.0</ele><time>2026-04-23T13:57:27.184Z</time></trkpt><trkpt lat="45.4419821" lon="10.7448031"><ele>106.0</ele><time>2026-04-23T13:57:28.183Z</time></trkpt><trkpt lat="45.4422063" lon="10.7449136"><ele>105.5</ele><time>2026-04-23T13:57:29.183Z</time></trkpt><trkpt lat="45.4424265" lon="10.7450226"><ele>105.0</ele><time>2026-04-23T13:57:30.183Z</time></trkpt><trkpt lat="45.4426414" lon="10.7451277"><ele>105.66666666666666</ele><time>2026-04-23T13:57:31.185Z</time></trkpt><trkpt lat="45.4428521" lon="10.7452304"><ele>106.33333333333333</ele><time>2026-04-23T13:57:32.185Z</time></trkpt><trkpt lat="45.4430595" lon="10.7453298"><ele>107.0</ele><time>2026-04-23T13:57:33.184Z</time></trkpt><trkpt lat="45.4432645" lon="10.7454338"><ele>107.0</ele><time>2026-04-23T13:57:34.184Z</time></trkpt><trkpt lat="45.4434696" lon="10.7455381"><ele>107.0</ele><time>2026-04-23T13:57:35.184Z</time></trkpt><trkpt lat="45.4436769" lon="10.7456388"><ele>107.0</ele><time>2026-04-23T13:57:36.183Z</time></trkpt><trkpt lat="45.4438867" lon="10.745743"><ele>106.66666666666666</ele><time>2026-04-23T13:57:37.184Z</time></trkpt><trkpt lat="45.4440979" lon="10.7458478"><ele>106.33333333333334</ele><time>2026-04-23T13:57:38.184Z</time></trkpt><trkpt lat="45.4443098" lon="10.7459532"><ele>106.0</ele><time>2026-04-23T13:57:39.184Z</time></trkpt><trkpt lat="45.4445237" lon="10.7460597"><ele>106.0</ele><time>2026-04-23T13:57:40.184Z</time></trkpt><trkpt lat="45.4447361" lon="10.7461637"><ele>106.0</ele><time>2026-04-23T13:57:41.183Z</time></trkpt><trkpt lat="45.4449483" lon="10.7462687"><ele>106.0</ele><time>2026-04-23T13:57:42.184Z</time></trkpt><trkpt lat="45.4451624" lon="10.7463708"><ele>106.0</ele><time>2026-04-23T13:57:43.184Z</time></trkpt><trkpt lat="45.4453762" lon="10.7464712"><ele>106.0</ele><time>2026-04-23T13:57:44.183Z</time></trkpt><trkpt lat="45.4455927" lon="10.7465759"><ele>106.0</ele><time>2026-04-23T13:57:45.183Z</time></trkpt><trkpt lat="45.4458098" lon="10.7466821"><ele>106.0</ele><time>2026-04-23T13:57:46.184Z</time></trkpt><trkpt lat="45.4460287" lon="10.7467927"><ele>105.0</ele><time>2026-04-23T13:57:47.183Z</time></trkpt><trkpt lat="45.4462477" lon="10.7469043"><ele>104.0</ele><time>2026-04-23T13:57:48.184Z</time></trkpt><trkpt lat="45.4464672" lon="10.7470167"><ele>103.5</ele><time>2026-04-23T13:57:49.184Z</time></trkpt><trkpt lat="45.4466875" lon="10.747124"><ele>103.0</ele><time>2026-04-23T13:57:50.184Z</time></trkpt><trkpt lat="45.4469102" lon="10.7472307"><ele>103.5</ele><time>2026-04-23T13:57:51.184Z</time></trkpt><trkpt lat="45.4471325" lon="10.7473362"><ele>104.0</ele><time>2026-04-23T13:57:52.183Z</time></trkpt><trkpt lat="45.4473535" lon="10.7474405"><ele>104.0</ele><time>2026-04-23T13:57:53.184Z</time></trkpt><trkpt lat="45.447571" lon="10.7475431"><ele>104.0</ele><time>2026-04-23T13:57:54.184Z</time></trkpt><trkpt lat="45.4477857" lon="10.7476507"><ele>103.0</ele><time>2026-04-23T13:57:55.185Z</time></trkpt><trkpt lat="45.447999" lon="10.7477561"><ele>102.0</ele><time>2026-04-23T13:57:56.183Z</time></trkpt><trkpt lat="45.4482107" lon="10.7478622"><ele>102.0</ele><time>2026-04-23T13:57:57.183Z</time></trkpt><trkpt lat="45.4484234" lon="10.7479675"><ele>102.0</ele><time>2026-04-23T13:57:58.183Z</time></trkpt><trkpt lat="45.4486347" lon="10.7480716"><ele>102.0</ele><time>2026-04-23T13:57:59.183Z</time></trkpt><trkpt lat="45.4488402" lon="10.7481749"><ele>102.0</ele><time>2026-04-23T13:58:00.183Z</time></trkpt><trkpt lat="45.4490442" lon="10.7482715"><ele>102.0</ele><time>2026-04-23T13:58:01.184Z</time></trkpt><trkpt lat="45.4492443" lon="10.7483703"><ele>102.0</ele><time>2026-04-23T13:58:02.183Z</time></trkpt><trkpt lat="45.4494444" lon="10.7484692"><ele>102.33333333333334</ele><time>2026-04-23T13:58:03.184Z</time></trkpt><trkpt lat="45.4496462" lon="10.7485699"><ele>102.66666666666667</ele><time>2026-04-23T13:58:04.183Z</time></trkpt><trkpt lat="45.4498547" lon="10.7486672"><ele>103.0</ele><time>2026-04-23T13:58:05.183Z</time></trkpt><trkpt lat="45.4500697" lon="10.7487608"><ele>103.0</ele><time>2026-04-23T13:58:06.184Z</time></trkpt><trkpt lat="45.4502898" lon="10.7488577"><ele>103.0</ele><time>2026-04-23T13:58:07.183Z</time></trkpt><trkpt lat="45.4505161" lon="10.7489568"><ele>103.0</ele><time>2026-04-23T13:58:08.183Z</time></trkpt><trkpt lat="45.4507501" lon="10.7490634"><ele>103.0</ele><time>2026-04-23T13:58:09.183Z</time></trkpt><trkpt lat="45.4509893" lon="10.7491786"><ele>103.0</ele><time>2026-04-23T13:58:10.184Z</time></trkpt><trkpt lat="45.451233" lon="10.7492985"><ele>103.0</ele><time>2026-04-23T13:58:11.183Z</time></trkpt><trkpt lat="45.4514778" lon="10.7494205"><ele>103.0</ele><time>2026-04-23T13:58:12.184Z</time></trkpt><trkpt lat="45.451721" lon="10.7495488"><ele>103.0</ele><time>2026-04-23T13:58:13.184Z</time></trkpt><trkpt lat="45.4519593" lon="10.7496824"><ele>102.5</ele><time>2026-04-23T13:58:14.184Z</time></trkpt><trkpt lat="45.4521945" lon="10.7498206"><ele>102.0</ele><time>2026-04-23T13:58:15.184Z</time></trkpt><trkpt lat="45.4524275" lon="10.7499623"><ele>102.0</ele><time>2026-04-23T13:58:16.184Z</time></trkpt><trkpt lat="45.4526541" lon="10.7501037"><ele>102.0</ele><time>2026-04-23T13:58:17.184Z</time></trkpt><trkpt lat="45.4528788" lon="10.7502486"><ele>102.0</ele><time>2026-04-23T13:58:18.184Z</time></trkpt><trkpt lat="45.4531005" lon="10.750396"><ele>102.0</ele><time>2026-04-23T13:58:19.183Z</time></trkpt><trkpt lat="45.4533189" lon="10.7505495"><ele>102.0</ele><time>2026-04-23T13:58:20.183Z</time></trkpt><trkpt lat="45.4535335" lon="10.7507082"><ele>102.0</ele><time>2026-04-23T13:58:21.184Z</time></trkpt><trkpt lat="45.4537473" lon="10.7508688"><ele>102.0</ele><time>2026-04-23T13:58:22.183Z</time></trkpt><trkpt lat="45.4539599" lon="10.7510342"><ele>102.0</ele><time>2026-04-23T13:58:23.185Z</time></trkpt><trkpt lat="45.4541724" lon="10.7512021"><ele>102.0</ele><time>2026-04-23T13:58:24.183Z</time></trkpt><trkpt lat="45.4543839" lon="10.7513703"><ele>102.0</ele><time>2026-04-23T13:58:25.183Z</time></trkpt><trkpt lat="45.4545937" lon="10.751536"><ele>102.5</ele><time>2026-04-23T13:58:26.183Z</time></trkpt><trkpt lat="45.4548048" lon="10.7517"><ele>103.0</ele><time>2026-04-23T13:58:27.184Z</time></trkpt><trkpt lat="45.4550167" lon="10.751863"><ele>103.5</ele><time>2026-04-23T13:58:28.183Z</time></trkpt><trkpt lat="45.4552301" lon="10.7520296"><ele>104.0</ele><time>2026-04-23T13:58:29.184Z</time></trkpt><trkpt lat="45.4554474" lon="10.7521917"><ele>104.5</ele><time>2026-04-23T13:58:30.183Z</time></trkpt><trkpt lat="45.4556698" lon="10.7523551"><ele>105.0</ele><time>2026-04-23T13:58:31.184Z</time></trkpt><trkpt lat="45.4558952" lon="10.7525264"><ele>105.0</ele><time>2026-04-23T13:58:32.183Z</time></trkpt><trkpt lat="45.4561227" lon="10.7527016"><ele>105.0</ele><time>2026-04-23T13:58:33.184Z</time></trkpt><trkpt lat="45.4563436" lon="10.7528677"><ele>104.5</ele><time>2026-04-23T13:58:34.185Z</time></trkpt><trkpt lat="45.4565617" lon="10.753035"><ele>104.0</ele><time>2026-04-23T13:58:35.184Z</time></trkpt><trkpt lat="45.4567749" lon="10.7532039"><ele>104.0</ele><time>2026-04-23T13:58:36.184Z</time></trkpt><trkpt lat="45.456987" lon="10.7533754"><ele>104.0</ele><time>2026-04-23T13:58:37.183Z</time></trkpt><trkpt lat="45.4571985" lon="10.7535522"><ele>105.5</ele><time>2026-04-23T13:58:38.185Z</time></trkpt><trkpt lat="45.4574089" lon="10.7537263"><ele>107.0</ele><time>2026-04-23T13:58:39.183Z</time></trkpt><trkpt lat="45.4576206" lon="10.7539052"><ele>107.0</ele><time>2026-04-23T13:58:40.184Z</time></trkpt><trkpt lat="45.4578315" lon="10.7540879"><ele>107.0</ele><time>2026-04-23T13:58:41.184Z</time></trkpt><trkpt lat="45.4580431" lon="10.7542668"><ele>106.5</ele><time>2026-04-23T13:58:42.183Z</time></trkpt><trkpt lat="45.4582532" lon="10.7544445"><ele>106.0</ele><time>2026-04-23T13:58:43.184Z</time></trkpt><trkpt lat="45.4584635" lon="10.7546136"><ele>106.0</ele><time>2026-04-23T13:58:44.184Z</time></trkpt><trkpt lat="45.4586723" lon="10.7547803"><ele>106.0</ele><time>2026-04-23T13:58:45.184Z</time></trkpt><trkpt lat="45.4588759" lon="10.7549449"><ele>106.66666666666667</ele><time>2026-04-23T13:58:46.183Z</time></trkpt><trkpt lat="45.4590746" lon="10.7551036"><ele>107.33333333333334</ele><time>2026-04-23T13:58:47.183Z</time></trkpt><trkpt lat="45.4592678" lon="10.7552574"><ele>108.0</ele><time>2026-04-23T13:58:48.183Z</time></trkpt><trkpt lat="45.4594582" lon="10.7554074"><ele>109.33333333333334</ele><time>2026-04-23T13:58:49.183Z</time></trkpt><trkpt lat="45.4596477" lon="10.7555584"><ele>110.66666666666667</ele><time>2026-04-23T13:58:50.183Z</time></trkpt><trkpt lat="45.4598382" lon="10.7557115"><ele>112.0</ele><time>2026-04-23T13:58:51.183Z</time></trkpt><trkpt lat="45.4600286" lon="10.7558652"><ele>112.0</ele><time>2026-04-23T13:58:52.183Z</time></trkpt><trkpt lat="45.4602213" lon="10.7560167"><ele>112.0</ele><time>2026-04-23T13:58:53.184Z</time></trkpt><trkpt lat="45.4604135" lon="10.7561687"><ele>112.0</ele><time>2026-04-23T13:58:54.183Z</time></trkpt><trkpt lat="45.4606074" lon="10.7563232"><ele>112.0</ele><time>2026-04-23T13:58:55.184Z</time></trkpt><trkpt lat="45.4608035" lon="10.7564795"><ele>112.0</ele><time>2026-04-23T13:58:56.183Z</time></trkpt><trkpt lat="45.4609999" lon="10.7566375"><ele>112.0</ele><time>2026-04-23T13:58:57.183Z</time></trkpt><trkpt lat="45.4611964" lon="10.7567936"><ele>112.0</ele><time>2026-04-23T13:58:58.184Z</time></trkpt><trkpt lat="45.461395" lon="10.7569499"><ele>112.0</ele><time>2026-04-23T13:58:59.183Z</time></trkpt><trkpt lat="45.4615967" lon="10.7571062"><ele>112.0</ele><time>2026-04-23T13:59:00.185Z</time></trkpt><trkpt lat="45.4617954" lon="10.7572653"><ele>112.0</ele><time>2026-04-23T13:59:01.184Z</time></trkpt><trkpt lat="45.4619969" lon="10.7574269"><ele>112.0</ele><time>2026-04-23T13:59:02.184Z</time></trkpt><trkpt lat="45.4621992" lon="10.7575887"><ele>113.5</ele><time>2026-04-23T13:59:03.184Z</time></trkpt><trkpt lat="45.4624023" lon="10.7577526"><ele>115.0</ele><time>2026-04-23T13:59:04.184Z</time></trkpt><trkpt lat="45.4626055" lon="10.7579133"><ele>115.0</ele><time>2026-04-23T13:59:05.185Z</time></trkpt><trkpt lat="45.462809" lon="10.7580745"><ele>115.0</ele><time>2026-04-23T13:59:06.183Z</time></trkpt><trkpt lat="45.463014" lon="10.7582367"><ele>115.0</ele><time>2026-04-23T13:59:07.184Z</time></trkpt><trkpt lat="45.4632188" lon="10.7583988"><ele>115.0</ele><time>2026-04-23T13:59:08.184Z</time></trkpt><trkpt lat="45.4634248" lon="10.7585641"><ele>115.0</ele><time>2026-04-23T13:59:09.183Z</time></trkpt><trkpt lat="45.46363" lon="10.7587266"><ele>115.0</ele><time>2026-04-23T13:59:10.184Z</time></trkpt><trkpt lat="45.4638366" lon="10.7588905"><ele>116.0</ele><time>2026-04-23T13:59:11.184Z</time></trkpt><trkpt lat="45.4640441" lon="10.7590492"><ele>117.0</ele><time>2026-04-23T13:59:12.184Z</time></trkpt><trkpt lat="45.4642507" lon="10.7592099"><ele>117.0</ele><time>2026-04-23T13:59:13.184Z</time></trkpt><trkpt lat="45.4644585" lon="10.7593668"><ele>117.0</ele><time>2026-04-23T13:59:14.184Z</time></trkpt><trkpt lat="45.4646724" lon="10.7595098"><ele>117.5</ele><time>2026-04-23T13:59:15.183Z</time></trkpt><trkpt lat="45.4648902" lon="10.7596438"><ele>118.0</ele><time>2026-04-23T13:59:16.184Z</time></trkpt><trkpt lat="45.4651129" lon="10.7597716"><ele>118.0</ele><time>2026-04-23T13:59:17.184Z</time></trkpt><trkpt lat="45.4653463" lon="10.759884"><ele>118.0</ele><time>2026-04-23T13:59:18.184Z</time></trkpt><trkpt lat="45.4655874" lon="10.7599892"><ele>120.0</ele><time>2026-04-23T13:59:19.184Z</time></trkpt><trkpt lat="45.465837" lon="10.7600933"><ele>122.0</ele><time>2026-04-23T13:59:20.183Z</time></trkpt><trkpt lat="45.4660924" lon="10.760194"><ele>122.5</ele><time>2026-04-23T13:59:21.185Z</time></trkpt><trkpt lat="45.4663525" lon="10.7602958"><ele>123.0</ele><time>2026-04-23T13:59:22.183Z</time></trkpt><trkpt lat="45.4666176" lon="10.7603796"><ele>123.0</ele><time>2026-04-23T13:59:23.183Z</time></trkpt><trkpt lat="45.4668832" lon="10.7604626"><ele>123.0</ele><time>2026-04-23T13:59:24.184Z</time></trkpt><trkpt lat="45.4671491" lon="10.7605362"><ele>121.0</ele><time>2026-04-23T13:59:25.184Z</time></trkpt><trkpt lat="45.4674169" lon="10.7606009"><ele>119.0</ele><time>2026-04-23T13:59:26.184Z</time></trkpt><trkpt lat="45.4676854" lon="10.7606672"><ele>116.5</ele><time>2026-04-23T13:59:27.183Z</time></trkpt><trkpt lat="45.4679509" lon="10.7607379"><ele>114.0</ele><time>2026-04-23T13:59:28.184Z</time></trkpt><trkpt lat="45.4682165" lon="10.7608113"><ele>114.0</ele><time>2026-04-23T13:59:29.184Z</time></trkpt><trkpt lat="45.4684815" lon="10.7608833"><ele>114.0</ele><time>2026-04-23T13:59:30.184Z</time></trkpt><trkpt lat="45.4687461" lon="10.7609522"><ele>114.5</ele><time>2026-04-23T13:59:31.183Z</time></trkpt><trkpt lat="45.4690129" lon="10.7610214"><ele>115.0</ele><time>2026-04-23T13:59:32.183Z</time></trkpt><trkpt lat="45.4692788" lon="10.7610885"><ele>114.0</ele><time>2026-04-23T13:59:33.184Z</time></trkpt><trkpt lat="45.4695418" lon="10.7611565"><ele>113.0</ele><time>2026-04-23T13:59:34.184Z</time></trkpt><trkpt lat="45.4698044" lon="10.7612253"><ele>112.5</ele><time>2026-04-23T13:59:35.184Z</time></trkpt><trkpt lat="45.4700685" lon="10.7612933"><ele>112.0</ele><time>2026-04-23T13:59:36.184Z</time></trkpt><trkpt lat="45.4703321" lon="10.7613588"><ele>114.0</ele><time>2026-04-23T13:59:37.184Z</time></trkpt><trkpt lat="45.470596" lon="10.7614284"><ele>116.0</ele><time>2026-04-23T13:59:38.184Z</time></trkpt><trkpt lat="45.4708596" lon="10.7615047"><ele>116.0</ele><time>2026-04-23T13:59:39.184Z</time></trkpt><trkpt lat="45.4711222" lon="10.7615889"><ele>116.0</ele><time>2026-04-23T13:59:40.184Z</time></trkpt><trkpt lat="45.4713831" lon="10.7616781"><ele>117.0</ele><time>2026-04-23T13:59:41.183Z</time></trkpt><trkpt lat="45.4716446" lon="10.7617719"><ele>118.0</ele><time>2026-04-23T13:59:42.183Z</time></trkpt><trkpt lat="45.4719087" lon="10.7618679"><ele>119.5</ele><time>2026-04-23T13:59:43.184Z</time></trkpt><trkpt lat="45.4721684" lon="10.7619679"><ele>121.0</ele><time>2026-04-23T13:59:44.183Z</time></trkpt><trkpt lat="45.4724346" lon="10.7620561"><ele>121.0</ele><time>2026-04-23T13:59:45.184Z</time></trkpt><trkpt lat="45.4726979" lon="10.762147"><ele>121.0</ele><time>2026-04-23T13:59:46.184Z</time></trkpt><trkpt lat="45.4729609" lon="10.7622406"><ele>121.0</ele><time>2026-04-23T13:59:47.183Z</time></trkpt><trkpt lat="45.4732216" lon="10.7623371"><ele>121.0</ele><time>2026-04-23T13:59:48.184Z</time></trkpt><trkpt lat="45.4734835" lon="10.7624374"><ele>121.0</ele><time>2026-04-23T13:59:49.184Z</time></trkpt><trkpt lat="45.4737446" lon="10.7625414"><ele>121.0</ele><time>2026-04-23T13:59:50.183Z</time></trkpt><trkpt lat="45.4740061" lon="10.7626442"><ele>123.5</ele><time>2026-04-23T13:59:51.183Z</time></trkpt><trkpt lat="45.474269" lon="10.7627465"><ele>126.0</ele><time>2026-04-23T13:59:52.183Z</time></trkpt><trkpt lat="45.4745329" lon="10.7628496"><ele>125.0</ele><time>2026-04-23T13:59:53.184Z</time></trkpt><trkpt lat="45.4747958" lon="10.7629466"><ele>124.0</ele><time>2026-04-23T13:59:54.184Z</time></trkpt><trkpt lat="45.4750607" lon="10.7630473"><ele>124.0</ele><time>2026-04-23T13:59:55.183Z</time></trkpt><trkpt lat="45.475324" lon="10.7631443"><ele>124.0</ele><time>2026-04-23T13:59:56.183Z</time></trkpt><trkpt lat="45.475588" lon="10.7632448"><ele>123.5</ele><time>2026-04-23T13:59:57.184Z</time></trkpt><trkpt lat="45.4758513" lon="10.7633397"><ele>123.0</ele><time>2026-04-23T13:59:58.184Z</time></trkpt><trkpt lat="45.4761145" lon="10.7634367"><ele>121.0</ele><time>2026-04-23T13:59:59.183Z</time></trkpt><trkpt lat="45.4763765" lon="10.7635347"><ele>119.0</ele><time>2026-04-23T14:00:00.183Z</time></trkpt><trkpt lat="45.476639" lon="10.7636247"><ele>119.0</ele><time>2026-04-23T14:00:01.183Z</time></trkpt><trkpt lat="45.4769012" lon="10.7637074"><ele>119.0</ele><time>2026-04-23T14:00:02.184Z</time></trkpt><trkpt lat="45.477159" lon="10.7637833"><ele>119.0</ele><time>2026-04-23T14:00:03.184Z</time></trkpt><trkpt lat="45.4774129" lon="10.7638514"><ele>119.0</ele><time>2026-04-23T14:00:04.184Z</time></trkpt><trkpt lat="45.4776648" lon="10.7639186"><ele>119.0</ele><time>2026-04-23T14:00:05.182Z</time></trkpt><trkpt lat="45.4779116" lon="10.7639825"><ele>119.0</ele><time>2026-04-23T14:00:06.182Z</time></trkpt><trkpt lat="45.4781562" lon="10.7640466"><ele>117.5</ele><time>2026-04-23T14:00:07.183Z</time></trkpt><trkpt lat="45.4783986" lon="10.7641106"><ele>116.0</ele><time>2026-04-23T14:00:08.182Z</time></trkpt><trkpt lat="45.4786405" lon="10.7641754"><ele>116.5</ele><time>2026-04-23T14:00:09.183Z</time></trkpt><trkpt lat="45.4788756" lon="10.7642437"><ele>117.0</ele><time>2026-04-23T14:00:10.183Z</time></trkpt><trkpt lat="45.4791149" lon="10.764303"><ele>117.0</ele><time>2026-04-23T14:00:11.183Z</time></trkpt><trkpt lat="45.4793553" lon="10.7643566"><ele>117.0</ele><time>2026-04-23T14:00:12.183Z</time></trkpt><trkpt lat="45.4795976" lon="10.7644126"><ele>119.0</ele><time>2026-04-23T14:00:13.182Z</time></trkpt><trkpt lat="45.4798396" lon="10.7644658"><ele>121.0</ele><time>2026-04-23T14:00:14.183Z</time></trkpt><trkpt lat="45.4800821" lon="10.7645219"><ele>121.0</ele><time>2026-04-23T14:00:15.184Z</time></trkpt><trkpt lat="45.4803265" lon="10.7645816"><ele>121.0</ele><time>2026-04-23T14:00:16.183Z</time></trkpt><trkpt lat="45.4805745" lon="10.7646453"><ele>119.5</ele><time>2026-04-23T14:00:17.184Z</time></trkpt><trkpt lat="45.4808243" lon="10.7647108"><ele>118.0</ele><time>2026-04-23T14:00:18.182Z</time></trkpt><trkpt lat="45.4810746" lon="10.7647764"><ele>120.0</ele><time>2026-04-23T14:00:19.182Z</time></trkpt><trkpt lat="45.4813236" lon="10.7648465"><ele>122.0</ele><time>2026-04-23T14:00:20.183Z</time></trkpt><trkpt lat="45.4815745" lon="10.7649123"><ele>122.0</ele><time>2026-04-23T14:00:21.182Z</time></trkpt><trkpt lat="45.4818245" lon="10.7649771"><ele>122.0</ele><time>2026-04-23T14:00:22.183Z</time></trkpt><trkpt lat="45.4820772" lon="10.7650398"><ele>121.0</ele><time>2026-04-23T14:00:23.183Z</time></trkpt><trkpt lat="45.4823301" lon="10.7651016"><ele>120.0</ele><time>2026-04-23T14:00:24.183Z</time></trkpt><trkpt lat="45.4825835" lon="10.7651701"><ele>120.0</ele><time>2026-04-23T14:00:25.182Z</time></trkpt><trkpt lat="45.4828354" lon="10.7652377"><ele>120.0</ele><time>2026-04-23T14:00:26.183Z</time></trkpt><trkpt lat="45.4830895" lon="10.7653046"><ele>121.0</ele><time>2026-04-23T14:00:27.182Z</time></trkpt><trkpt lat="45.4833431" lon="10.765371"><ele>122.0</ele><time>2026-04-23T14:00:28.183Z</time></trkpt><trkpt lat="45.4835981" lon="10.7654372"><ele>122.0</ele><time>2026-04-23T14:00:29.182Z</time></trkpt><trkpt lat="45.4838539" lon="10.7655031"><ele>122.0</ele><time>2026-04-23T14:00:30.183Z</time></trkpt><trkpt lat="45.4841105" lon="10.7655698"><ele>122.0</ele><time>2026-04-23T14:00:31.183Z</time></trkpt><trkpt lat="45.4843677" lon="10.7656397"><ele>122.0</ele><time>2026-04-23T14:00:32.182Z</time></trkpt><trkpt lat="45.4846227" lon="10.7657093"><ele>122.0</ele><time>2026-04-23T14:00:33.183Z</time></trkpt><trkpt lat="45.4848797" lon="10.7657803"><ele>122.0</ele><time>2026-04-23T14:00:34.182Z</time></trkpt><trkpt lat="45.4851374" lon="10.7658472"><ele>122.0</ele><time>2026-04-23T14:00:35.183Z</time></trkpt><trkpt lat="45.4853962" lon="10.7659119"><ele>122.0</ele><time>2026-04-23T14:00:36.182Z</time></trkpt><trkpt lat="45.4856553" lon="10.7659743"><ele>124.0</ele><time>2026-04-23T14:00:37.183Z</time></trkpt><trkpt lat="45.4859131" lon="10.7660411"><ele>126.0</ele><time>2026-04-23T14:00:38.184Z</time></trkpt><trkpt lat="45.4861724" lon="10.7661086"><ele>128.0</ele><time>2026-04-23T14:00:39.184Z</time></trkpt><trkpt lat="45.4864379" lon="10.7661772"><ele>130.0</ele><time>2026-04-23T14:00:40.182Z</time></trkpt><trkpt lat="45.4867107" lon="10.7662473"><ele>130.0</ele><time>2026-04-23T14:00:41.182Z</time></trkpt><trkpt lat="45.48699" lon="10.7663225"><ele>130.0</ele><time>2026-04-23T14:00:42.182Z</time></trkpt><trkpt lat="45.4872759" lon="10.7664004"><ele>130.5</ele><time>2026-04-23T14:00:43.182Z</time></trkpt><trkpt lat="45.4875689" lon="10.7664842"><ele>131.0</ele><time>2026-04-23T14:00:44.182Z</time></trkpt><trkpt lat="45.4878653" lon="10.7665578"><ele>129.0</ele><time>2026-04-23T14:00:45.182Z</time></trkpt><trkpt lat="45.4881661" lon="10.7666342"><ele>127.0</ele><time>2026-04-23T14:00:46.182Z</time></trkpt><trkpt lat="45.4884654" lon="10.7667133"><ele>127.5</ele><time>2026-04-23T14:00:47.183Z</time></trkpt><trkpt lat="45.4887674" lon="10.7667995"><ele>128.0</ele><time>2026-04-23T14:00:48.183Z</time></trkpt><trkpt lat="45.4890666" lon="10.7668875"><ele>130.0</ele><time>2026-04-23T14:00:49.183Z</time></trkpt><trkpt lat="45.4893582" lon="10.7669787"><ele>132.0</ele><time>2026-04-23T14:00:50.183Z</time></trkpt><trkpt lat="45.4896401" lon="10.7670628"><ele>132.0</ele><time>2026-04-23T14:00:51.182Z</time></trkpt><trkpt lat="45.4899171" lon="10.7671436"><ele>132.0</ele><time>2026-04-23T14:00:52.183Z</time></trkpt><trkpt lat="45.4901918" lon="10.7672199"><ele>131.5</ele><time>2026-04-23T14:00:53.183Z</time></trkpt><trkpt lat="45.4904623" lon="10.767289"><ele>131.0</ele><time>2026-04-23T14:00:54.183Z</time></trkpt><trkpt lat="45.4907314" lon="10.7673614"><ele>131.0</ele><time>2026-04-23T14:00:55.184Z</time></trkpt><trkpt lat="45.4909982" lon="10.7674332"><ele>131.0</ele><time>2026-04-23T14:00:56.183Z</time></trkpt><trkpt lat="45.4912666" lon="10.7675021"><ele>128.5</ele><time>2026-04-23T14:00:57.183Z</time></trkpt><trkpt lat="45.4915314" lon="10.7675726"><ele>126.0</ele><time>2026-04-23T14:00:58.183Z</time></trkpt><trkpt lat="45.4917946" lon="10.7676425"><ele>126.5</ele><time>2026-04-23T14:00:59.183Z</time></trkpt><trkpt lat="45.492056" lon="10.7677112"><ele>127.0</ele><time>2026-04-23T14:01:00.182Z</time></trkpt><trkpt lat="45.4923142" lon="10.7677808"><ele>127.0</ele><time>2026-04-23T14:01:01.183Z</time></trkpt><trkpt lat="45.4925716" lon="10.7678515"><ele>127.0</ele><time>2026-04-23T14:01:02.182Z</time></trkpt><trkpt lat="45.4928303" lon="10.7679208"><ele>126.5</ele><time>2026-04-23T14:01:03.184Z</time></trkpt><trkpt lat="45.4930867" lon="10.7679906"><ele>126.0</ele><time>2026-04-23T14:01:04.183Z</time></trkpt><trkpt lat="45.4933407" lon="10.7680595"><ele>126.0</ele><time>2026-04-23T14:01:05.184Z</time></trkpt><trkpt lat="45.4935945" lon="10.7681284"><ele>126.0</ele><time>2026-04-23T14:01:06.183Z</time></trkpt><trkpt lat="45.4938478" lon="10.7681958"><ele>126.5</ele><time>2026-04-23T14:01:07.183Z</time></trkpt><trkpt lat="45.4941006" lon="10.7682645"><ele>127.0</ele><time>2026-04-23T14:01:08.182Z</time></trkpt><trkpt lat="45.4943544" lon="10.7683268"><ele>128.0</ele><time>2026-04-23T14:01:09.184Z</time></trkpt><trkpt lat="45.4946071" lon="10.768381"><ele>129.0</ele><time>2026-04-23T14:01:10.182Z</time></trkpt><trkpt lat="45.4948604" lon="10.7684264"><ele>129.0</ele><time>2026-04-23T14:01:11.184Z</time></trkpt><trkpt lat="45.4951145" lon="10.7684596"><ele>129.0</ele><time>2026-04-23T14:01:12.183Z</time></trkpt><trkpt lat="45.4953684" lon="10.7684846"><ele>128.0</ele><time>2026-04-23T14:01:13.182Z</time></trkpt><trkpt lat="45.4956211" lon="10.7685018"><ele>127.0</ele><time>2026-04-23T14:01:14.183Z</time></trkpt><trkpt lat="45.4958752" lon="10.7685099"><ele>127.0</ele><time>2026-04-23T14:01:15.182Z</time></trkpt><trkpt lat="45.4961277" lon="10.7685057"><ele>127.0</ele><time>2026-04-23T14:01:16.182Z</time></trkpt><trkpt lat="45.4963798" lon="10.7684949"><ele>128.0</ele><time>2026-04-23T14:01:17.182Z</time></trkpt><trkpt lat="45.4966325" lon="10.7684839"><ele>129.0</ele><time>2026-04-23T14:01:18.182Z</time></trkpt><trkpt lat="45.4968855" lon="10.7684746"><ele>128.0</ele><time>2026-04-23T14:01:19.183Z</time></trkpt><trkpt lat="45.4971405" lon="10.7684645"><ele>127.0</ele><time>2026-04-23T14:01:20.183Z</time></trkpt><trkpt lat="45.4973943" lon="10.7684573"><ele>127.0</ele><time>2026-04-23T14:01:21.183Z</time></trkpt><trkpt lat="45.4976504" lon="10.7684475"><ele>127.0</ele><time>2026-04-23T14:01:22.182Z</time></trkpt><trkpt lat="45.4979067" lon="10.7684379"><ele>129.0</ele><time>2026-04-23T14:01:23.182Z</time></trkpt><trkpt lat="45.4981613" lon="10.7684292"><ele>131.0</ele><time>2026-04-23T14:01:24.183Z</time></trkpt><trkpt lat="45.4984143" lon="10.7684189"><ele>131.0</ele><time>2026-04-23T14:01:25.183Z</time></trkpt><trkpt lat="45.4986676" lon="10.7684096"><ele>131.0</ele><time>2026-04-23T14:01:26.182Z</time></trkpt><trkpt lat="45.4989242" lon="10.7684032"><ele>130.0</ele><time>2026-04-23T14:01:27.183Z</time></trkpt><trkpt lat="45.4991791" lon="10.768394"><ele>129.0</ele><time>2026-04-23T14:01:28.183Z</time></trkpt><trkpt lat="45.4994354" lon="10.7683842"><ele>130.5</ele><time>2026-04-23T14:01:29.182Z</time></trkpt><trkpt lat="45.4996908" lon="10.7683776"><ele>132.0</ele><time>2026-04-23T14:01:30.184Z</time></trkpt><trkpt lat="45.499947" lon="10.7683667"><ele>132.0</ele><time>2026-04-23T14:01:31.183Z</time></trkpt><trkpt lat="45.5002025" lon="10.7683586"><ele>132.0</ele><time>2026-04-23T14:01:32.183Z</time></trkpt><trkpt lat="45.5004592" lon="10.7683505"><ele>132.5</ele><time>2026-04-23T14:01:33.182Z</time></trkpt><trkpt lat="45.5007148" lon="10.7683445"><ele>133.0</ele><time>2026-04-23T14:01:34.183Z</time></trkpt><trkpt lat="45.500971" lon="10.7683393"><ele>133.0</ele><time>2026-04-23T14:01:35.183Z</time></trkpt><trkpt lat="45.5012275" lon="10.7683298"><ele>133.0</ele><time>2026-04-23T14:01:36.184Z</time></trkpt><trkpt lat="45.5014835" lon="10.768318"><ele>133.0</ele><time>2026-04-23T14:01:37.183Z</time></trkpt><trkpt lat="45.5017395" lon="10.7683111"><ele>133.0</ele><time>2026-04-23T14:01:38.182Z</time></trkpt><trkpt lat="45.5019946" lon="10.768303"><ele>135.5</ele><time>2026-04-23T14:01:39.183Z</time></trkpt><trkpt lat="45.5022481" lon="10.7682939"><ele>138.0</ele><time>2026-04-23T14:01:40.182Z</time></trkpt><trkpt lat="45.5025013" lon="10.7682825"><ele>138.0</ele><time>2026-04-23T14:01:41.183Z</time></trkpt><trkpt lat="45.5027528" lon="10.7682742"><ele>138.0</ele><time>2026-04-23T14:01:42.183Z</time></trkpt><trkpt lat="45.5030072" lon="10.768268"><ele>139.5</ele><time>2026-04-23T14:01:43.182Z</time></trkpt><trkpt lat="45.5032627" lon="10.7682581"><ele>141.0</ele><time>2026-04-23T14:01:44.183Z</time></trkpt><trkpt lat="45.5035197" lon="10.76825"><ele>142.0</ele><time>2026-04-23T14:01:45.183Z</time></trkpt><trkpt lat="45.5037772" lon="10.7682383"><ele>143.0</ele><time>2026-04-23T14:01:46.182Z</time></trkpt><trkpt lat="45.504036" lon="10.768227"><ele>143.0</ele><time>2026-04-23T14:01:47.182Z</time></trkpt><trkpt lat="45.5042956" lon="10.7682198"><ele>143.0</ele><time>2026-04-23T14:01:48.182Z</time></trkpt><trkpt lat="45.5045568" lon="10.7682132"><ele>141.0</ele><time>2026-04-23T14:01:49.183Z</time></trkpt><trkpt lat="45.5048191" lon="10.7682085"><ele>139.0</ele><time>2026-04-23T14:01:50.183Z</time></trkpt><trkpt lat="45.5050856" lon="10.7682018"><ele>139.0</ele><time>2026-04-23T14:01:51.183Z</time></trkpt><trkpt lat="45.5053434" lon="10.7681889"><ele>139.0</ele><time>2026-04-23T14:01:52.183Z</time></trkpt><trkpt lat="45.5056078" lon="10.7681783"><ele>137.0</ele><time>2026-04-23T14:01:53.183Z</time></trkpt><trkpt lat="45.5058709" lon="10.7681683"><ele>135.0</ele><time>2026-04-23T14:01:54.183Z</time></trkpt><trkpt lat="45.5061346" lon="10.7681585"><ele>135.0</ele><time>2026-04-23T14:01:55.183Z</time></trkpt><trkpt lat="45.5063968" lon="10.7681489"><ele>135.0</ele><time>2026-04-23T14:01:56.183Z</time></trkpt><trkpt lat="45.5066624" lon="10.7681343"><ele>135.0</ele><time>2026-04-23T14:01:57.183Z</time></trkpt><trkpt lat="45.5069262" lon="10.7681188"><ele>135.0</ele><time>2026-04-23T14:01:58.182Z</time></trkpt><trkpt lat="45.5071913" lon="10.7680993"><ele>135.0</ele><time>2026-04-23T14:01:59.182Z</time></trkpt><trkpt lat="45.5074525" lon="10.7680792"><ele>135.0</ele><time>2026-04-23T14:02:00.182Z</time></trkpt><trkpt lat="45.5077111" lon="10.7680629"><ele>135.5</ele><time>2026-04-23T14:02:01.183Z</time></trkpt><trkpt lat="45.507969" lon="10.7680531"><ele>136.0</ele><time>2026-04-23T14:02:02.183Z</time></trkpt><trkpt lat="45.5082293" lon="10.7680618"><ele>136.0</ele><time>2026-04-23T14:02:03.182Z</time></trkpt><trkpt lat="45.5084926" lon="10.7680837"><ele>136.0</ele><time>2026-04-23T14:02:04.182Z</time></trkpt><trkpt lat="45.5087602" lon="10.7681146"><ele>136.0</ele><time>2026-04-23T14:02:05.183Z</time></trkpt><trkpt lat="45.5090326" lon="10.7681559"><ele>136.0</ele><time>2026-04-23T14:02:06.182Z</time></trkpt><trkpt lat="45.5093088" lon="10.7682028"><ele>137.5</ele><time>2026-04-23T14:02:07.182Z</time></trkpt><trkpt lat="45.5095856" lon="10.7682524"><ele>139.0</ele><time>2026-04-23T14:02:08.183Z</time></trkpt><trkpt lat="45.5098573" lon="10.7683058"><ele>139.0</ele><time>2026-04-23T14:02:09.182Z</time></trkpt><trkpt lat="45.5101227" lon="10.7683647"><ele>139.0</ele><time>2026-04-23T14:02:10.183Z</time></trkpt><trkpt lat="45.5103813" lon="10.7684224"><ele>141.0</ele><time>2026-04-23T14:02:11.182Z</time></trkpt><trkpt lat="45.5106387" lon="10.7684749"><ele>143.0</ele><time>2026-04-23T14:02:12.183Z</time></trkpt><trkpt lat="45.5108942" lon="10.7685195"><ele>146.0</ele><time>2026-04-23T14:02:13.182Z</time></trkpt><trkpt lat="45.5111471" lon="10.7685607"><ele>149.0</ele><time>2026-04-23T14:02:14.183Z</time></trkpt><trkpt lat="45.511399" lon="10.7686042"><ele>153.5</ele><time>2026-04-23T14:02:15.184Z</time></trkpt><trkpt lat="45.5116468" lon="10.7686442"><ele>158.0</ele><time>2026-04-23T14:02:16.183Z</time></trkpt><trkpt lat="45.5118955" lon="10.7686858"><ele>157.5</ele><time>2026-04-23T14:02:17.183Z</time></trkpt><trkpt lat="45.5121411" lon="10.7687244"><ele>157.0</ele><time>2026-04-23T14:02:18.184Z</time></trkpt><trkpt lat="45.5123885" lon="10.7687652"><ele>157.0</ele><time>2026-04-23T14:02:19.184Z</time></trkpt><trkpt lat="45.5126394" lon="10.7688086"><ele>157.0</ele><time>2026-04-23T14:02:20.182Z</time></trkpt><trkpt lat="45.5128887" lon="10.7688535"><ele>155.5</ele><time>2026-04-23T14:02:21.183Z</time></trkpt><trkpt lat="45.5131404" lon="10.7688928"><ele>154.0</ele><time>2026-04-23T14:02:22.182Z</time></trkpt><trkpt lat="45.513394" lon="10.7689358"><ele>154.0</ele><time>2026-04-23T14:02:23.182Z</time></trkpt><trkpt lat="45.5136457" lon="10.7689771"><ele>154.0</ele><time>2026-04-23T14:02:24.183Z</time></trkpt><trkpt lat="45.5138968" lon="10.7690182"><ele>154.5</ele><time>2026-04-23T14:02:25.183Z</time></trkpt><trkpt lat="45.5141484" lon="10.7690572"><ele>155.0</ele><time>2026-04-23T14:02:26.183Z</time></trkpt><trkpt lat="45.5144014" lon="10.7691"><ele>154.5</ele><time>2026-04-23T14:02:27.183Z</time></trkpt><trkpt lat="45.5146483" lon="10.7691455"><ele>154.0</ele><time>2026-04-23T14:02:28.184Z</time></trkpt><trkpt lat="45.5148916" lon="10.7691756"><ele>154.0</ele><time>2026-04-23T14:02:29.182Z</time></trkpt><trkpt lat="45.5151409" lon="10.7692067"><ele>154.0</ele><time>2026-04-23T14:02:30.182Z</time></trkpt><trkpt lat="45.5153871" lon="10.7692373"><ele>153.5</ele><time>2026-04-23T14:02:31.182Z</time></trkpt><trkpt lat="45.5156316" lon="10.769273"><ele>153.0</ele><time>2026-04-23T14:02:32.182Z</time></trkpt><trkpt lat="45.5158764" lon="10.7693128"><ele>153.0</ele><time>2026-04-23T14:02:33.182Z</time></trkpt><trkpt lat="45.5161124" lon="10.7693549"><ele>153.0</ele><time>2026-04-23T14:02:34.183Z</time></trkpt><trkpt lat="45.5163437" lon="10.7693949"><ele>156.5</ele><time>2026-04-23T14:02:35.182Z</time></trkpt><trkpt lat="45.5165782" lon="10.7694336"><ele>160.0</ele><time>2026-04-23T14:02:36.183Z</time></trkpt><trkpt lat="45.5168172" lon="10.7694727"><ele>160.0</ele><time>2026-04-23T14:02:37.182Z</time></trkpt><trkpt lat="45.517058" lon="10.7695142"><ele>160.0</ele><time>2026-04-23T14:02:38.184Z</time></trkpt><trkpt lat="45.5173016" lon="10.769556"><ele>160.5</ele><time>2026-04-23T14:02:39.183Z</time></trkpt><trkpt lat="45.5175467" lon="10.7695996"><ele>161.0</ele><time>2026-04-23T14:02:40.183Z</time></trkpt><trkpt lat="45.517793" lon="10.7696526"><ele>161.0</ele><time>2026-04-23T14:02:41.183Z</time></trkpt><trkpt lat="45.51804" lon="10.7697198"><ele>161.0</ele><time>2026-04-23T14:02:42.183Z</time></trkpt><trkpt lat="45.5182896" lon="10.7697955"><ele>161.0</ele><time>2026-04-23T14:02:43.184Z</time></trkpt><trkpt lat="45.5185371" lon="10.7698781"><ele>161.0</ele><time>2026-04-23T14:02:44.182Z</time></trkpt><trkpt lat="45.5187835" lon="10.7699698"><ele>161.0</ele><time>2026-04-23T14:02:45.182Z</time></trkpt><trkpt lat="45.519031" lon="10.7700737"><ele>161.0</ele><time>2026-04-23T14:02:46.182Z</time></trkpt><trkpt lat="45.5192777" lon="10.7701846"><ele>162.0</ele><time>2026-04-23T14:02:47.183Z</time></trkpt><trkpt lat="45.5195228" lon="10.7702971"><ele>163.0</ele><time>2026-04-23T14:02:48.184Z</time></trkpt><trkpt lat="45.5197691" lon="10.7704106"><ele>165.0</ele><time>2026-04-23T14:02:49.183Z</time></trkpt><trkpt lat="45.5200148" lon="10.7705216"><ele>167.0</ele><time>2026-04-23T14:02:50.183Z</time></trkpt><trkpt lat="45.5202596" lon="10.7706355"><ele>165.5</ele><time>2026-04-23T14:02:51.183Z</time></trkpt><trkpt lat="45.5205051" lon="10.7707492"><ele>164.0</ele><time>2026-04-23T14:02:52.183Z</time></trkpt><trkpt lat="45.52075" lon="10.770862"><ele>164.0</ele><time>2026-04-23T14:02:53.182Z</time></trkpt><trkpt lat="45.5209963" lon="10.7709769"><ele>164.0</ele><time>2026-04-23T14:02:54.182Z</time></trkpt><trkpt lat="45.5212392" lon="10.7711002"><ele>164.0</ele><time>2026-04-23T14:02:55.182Z</time></trkpt><trkpt lat="45.5214833" lon="10.7712276"><ele>164.0</ele><time>2026-04-23T14:02:56.183Z</time></trkpt><trkpt lat="45.52173" lon="10.7713507"><ele>164.0</ele><time>2026-04-23T14:02:57.183Z</time></trkpt><trkpt lat="45.5219755" lon="10.7714661"><ele>164.0</ele><time>2026-04-23T14:02:58.183Z</time></trkpt><trkpt lat="45.5222213" lon="10.7715815"><ele>162.0</ele><time>2026-04-23T14:02:59.182Z</time></trkpt><trkpt lat="45.5224719" lon="10.7716966"><ele>160.0</ele><time>2026-04-23T14:03:00.183Z</time></trkpt><trkpt lat="45.5227168" lon="10.771814"><ele>159.0</ele><time>2026-04-23T14:03:01.183Z</time></trkpt><trkpt lat="45.5229656" lon="10.7719278"><ele>158.0</ele><time>2026-04-23T14:03:02.183Z</time></trkpt><trkpt lat="45.5232145" lon="10.77204"><ele>158.0</ele><time>2026-04-23T14:03:03.183Z</time></trkpt><trkpt lat="45.5234648" lon="10.7721524"><ele>158.0</ele><time>2026-04-23T14:03:04.183Z</time></trkpt><trkpt lat="45.5237142" lon="10.7722648"><ele>157.5</ele><time>2026-04-23T14:03:05.183Z</time></trkpt><trkpt lat="45.5239636" lon="10.7723802"><ele>157.0</ele><time>2026-04-23T14:03:06.183Z</time></trkpt><trkpt lat="45.524212" lon="10.7724978"><ele>157.0</ele><time>2026-04-23T14:03:07.182Z</time></trkpt><trkpt lat="45.5244591" lon="10.7726126"><ele>157.0</ele><time>2026-04-23T14:03:08.183Z</time></trkpt><trkpt lat="45.5247038" lon="10.7727251"><ele>156.0</ele><time>2026-04-23T14:03:09.183Z</time></trkpt><trkpt lat="45.524949" lon="10.7728374"><ele>155.0</ele><time>2026-04-23T14:03:10.184Z</time></trkpt><trkpt lat="45.5251947" lon="10.7729478"><ele>155.0</ele><time>2026-04-23T14:03:11.183Z</time></trkpt><trkpt lat="45.5254412" lon="10.7730599"><ele>155.0</ele><time>2026-04-23T14:03:12.182Z</time></trkpt><trkpt lat="45.5256885" lon="10.7731757"><ele>155.0</ele><time>2026-04-23T14:03:13.183Z</time></trkpt><trkpt lat="45.5259368" lon="10.7732866"><ele>155.0</ele><time>2026-04-23T14:03:14.182Z</time></trkpt><trkpt lat="45.5261831" lon="10.7734013"><ele>156.0</ele><time>2026-04-23T14:03:15.182Z</time></trkpt><trkpt lat="45.5264282" lon="10.7735172"><ele>157.0</ele><time>2026-04-23T14:03:16.182Z</time></trkpt><trkpt lat="45.526673" lon="10.7736318"><ele>157.5</ele><time>2026-04-23T14:03:17.182Z</time></trkpt><trkpt lat="45.5269175" lon="10.7737435"><ele>158.0</ele><time>2026-04-23T14:03:18.182Z</time></trkpt><trkpt lat="45.527161" lon="10.7738544"><ele>158.5</ele><time>2026-04-23T14:03:19.183Z</time></trkpt><trkpt lat="45.5274025" lon="10.7739644"><ele>159.0</ele><time>2026-04-23T14:03:20.183Z</time></trkpt><trkpt lat="45.527647" lon="10.7740743"><ele>159.0</ele><time>2026-04-23T14:03:21.182Z</time></trkpt><trkpt lat="45.5278867" lon="10.7741842"><ele>159.0</ele><time>2026-04-23T14:03:22.183Z</time></trkpt><trkpt lat="45.5281247" lon="10.7742903"><ele>158.5</ele><time>2026-04-23T14:03:23.183Z</time></trkpt><trkpt lat="45.5283647" lon="10.774398"><ele>158.0</ele><time>2026-04-23T14:03:24.182Z</time></trkpt><trkpt lat="45.528605" lon="10.7745076"><ele>159.0</ele><time>2026-04-23T14:03:25.183Z</time></trkpt><trkpt lat="45.5288423" lon="10.7746202"><ele>160.0</ele><time>2026-04-23T14:03:26.182Z</time></trkpt><trkpt lat="45.5290798" lon="10.77473"><ele>160.0</ele><time>2026-04-23T14:03:27.184Z</time></trkpt><trkpt lat="45.5293175" lon="10.7748359"><ele>160.0</ele><time>2026-04-23T14:03:28.182Z</time></trkpt><trkpt lat="45.529554" lon="10.7749413"><ele>160.0</ele><time>2026-04-23T14:03:29.183Z</time></trkpt><trkpt lat="45.5297927" lon="10.7750494"><ele>160.0</ele><time>2026-04-23T14:03:30.183Z</time></trkpt><trkpt lat="45.530029" lon="10.7751587"><ele>160.5</ele><time>2026-04-23T14:03:31.183Z</time></trkpt><trkpt lat="45.5302653" lon="10.7752663"><ele>161.0</ele><time>2026-04-23T14:03:32.183Z</time></trkpt><trkpt lat="45.530502" lon="10.7753723"><ele>161.0</ele><time>2026-04-23T14:03:33.183Z</time></trkpt><trkpt lat="45.5307388" lon="10.7754808"><ele>161.0</ele><time>2026-04-23T14:03:34.182Z</time></trkpt><trkpt lat="45.5309731" lon="10.77559"><ele>161.0</ele><time>2026-04-23T14:03:35.183Z</time></trkpt><trkpt lat="45.531204" lon="10.775698"><ele>161.0</ele><time>2026-04-23T14:03:36.183Z</time></trkpt><trkpt lat="45.5314353" lon="10.7758029"><ele>161.0</ele><time>2026-04-23T14:03:37.183Z</time></trkpt><trkpt lat="45.5316683" lon="10.7759001"><ele>161.0</ele><time>2026-04-23T14:03:38.183Z</time></trkpt><trkpt lat="45.5318982" lon="10.7759965"><ele>163.0</ele><time>2026-04-23T14:03:39.184Z</time></trkpt><trkpt lat="45.5321323" lon="10.776092"><ele>165.0</ele><time>2026-04-23T14:03:40.183Z</time></trkpt><trkpt lat="45.5323639" lon="10.7761843"><ele>165.0</ele><time>2026-04-23T14:03:41.183Z</time></trkpt><trkpt lat="45.5325958" lon="10.7762733"><ele>165.0</ele><time>2026-04-23T14:03:42.183Z</time></trkpt><trkpt lat="45.5328292" lon="10.776356"><ele>165.5</ele><time>2026-04-23T14:03:43.183Z</time></trkpt><trkpt lat="45.5330631" lon="10.7764285"><ele>166.0</ele><time>2026-04-23T14:03:44.182Z</time></trkpt><trkpt lat="45.5332968" lon="10.7764876"><ele>166.0</ele><time>2026-04-23T14:03:45.183Z</time></trkpt><trkpt lat="45.533533" lon="10.7765233"><ele>166.0</ele><time>2026-04-23T14:03:46.182Z</time></trkpt><trkpt lat="45.5337715" lon="10.7765383"><ele>166.5</ele><time>2026-04-23T14:03:47.182Z</time></trkpt><trkpt lat="45.5340119" lon="10.7765347"><ele>167.0</ele><time>2026-04-23T14:03:48.183Z</time></trkpt><trkpt lat="45.5342508" lon="10.7765405"><ele>167.0</ele><time>2026-04-23T14:03:49.182Z</time></trkpt><trkpt lat="45.5344863" lon="10.7765597"><ele>167.0</ele><time>2026-04-23T14:03:50.184Z</time></trkpt><trkpt lat="45.5347207" lon="10.7765834"><ele>168.5</ele><time>2026-04-23T14:03:51.182Z</time></trkpt><trkpt lat="45.5349592" lon="10.7766086"><ele>170.0</ele><time>2026-04-23T14:03:52.182Z</time></trkpt><trkpt lat="45.5352005" lon="10.7766402"><ele>171.0</ele><time>2026-04-23T14:03:53.183Z</time></trkpt><trkpt lat="45.5354455" lon="10.776683"><ele>172.0</ele><time>2026-04-23T14:03:54.182Z</time></trkpt><trkpt lat="45.5356909" lon="10.7767341"><ele>172.0</ele><time>2026-04-23T14:03:55.182Z</time></trkpt><trkpt lat="45.5359397" lon="10.7768018"><ele>172.0</ele><time>2026-04-23T14:03:56.183Z</time></trkpt><trkpt lat="45.5361888" lon="10.7768834"><ele>171.0</ele><time>2026-04-23T14:03:57.182Z</time></trkpt><trkpt lat="45.5364371" lon="10.7769671"><ele>170.0</ele><time>2026-04-23T14:03:58.183Z</time></trkpt><trkpt lat="45.5366836" lon="10.7770589"><ele>170.0</ele><time>2026-04-23T14:03:59.184Z</time></trkpt><trkpt lat="45.5369259" lon="10.7771618"><ele>170.0</ele><time>2026-04-23T14:04:00.182Z</time></trkpt><trkpt lat="45.5371651" lon="10.7772764"><ele>173.0</ele><time>2026-04-23T14:04:01.182Z</time></trkpt><trkpt lat="45.5374021" lon="10.7773998"><ele>176.0</ele><time>2026-04-23T14:04:02.182Z</time></trkpt><trkpt lat="45.5376366" lon="10.7775238"><ele>176.0</ele><time>2026-04-23T14:04:03.184Z</time></trkpt><trkpt lat="45.5378681" lon="10.7776516"><ele>176.0</ele><time>2026-04-23T14:04:04.184Z</time></trkpt><trkpt lat="45.5381024" lon="10.7777781"><ele>177.5</ele><time>2026-04-23T14:04:05.182Z</time></trkpt><trkpt lat="45.5383381" lon="10.7779028"><ele>179.0</ele><time>2026-04-23T14:04:06.182Z</time></trkpt><trkpt lat="45.5385709" lon="10.7780273"><ele>185.0</ele><time>2026-04-23T14:04:07.184Z</time></trkpt><trkpt lat="45.5388032" lon="10.7781517"><ele>191.0</ele><time>2026-04-23T14:04:08.183Z</time></trkpt><trkpt lat="45.5390378" lon="10.7782612"><ele>191.0</ele><time>2026-04-23T14:04:09.183Z</time></trkpt><trkpt lat="45.5392759" lon="10.7783636"><ele>191.0</ele><time>2026-04-23T14:04:10.182Z</time></trkpt><trkpt lat="45.5395173" lon="10.7784624"><ele>189.5</ele><time>2026-04-23T14:04:11.183Z</time></trkpt><trkpt lat="45.5397622" lon="10.7785481"><ele>188.0</ele><time>2026-04-23T14:04:12.183Z</time></trkpt><trkpt lat="45.5400117" lon="10.7786257"><ele>188.0</ele><time>2026-04-23T14:04:13.182Z</time></trkpt><trkpt lat="45.5402617" lon="10.7786911"><ele>188.0</ele><time>2026-04-23T14:04:14.183Z</time></trkpt><trkpt lat="45.5405113" lon="10.7787522"><ele>187.0</ele><time>2026-04-23T14:04:15.183Z</time></trkpt><trkpt lat="45.5407619" lon="10.7788164"><ele>186.0</ele><time>2026-04-23T14:04:16.182Z</time></trkpt><trkpt lat="45.5410113" lon="10.7788823"><ele>187.5</ele><time>2026-04-23T14:04:17.183Z</time></trkpt><trkpt lat="45.5412612" lon="10.7789446"><ele>189.0</ele><time>2026-04-23T14:04:18.183Z</time></trkpt><trkpt lat="45.5415094" lon="10.7790144"><ele>189.0</ele><time>2026-04-23T14:04:19.183Z</time></trkpt><trkpt lat="45.5417603" lon="10.7790884"><ele>189.0</ele><time>2026-04-23T14:04:20.183Z</time></trkpt><trkpt lat="45.5420143" lon="10.7791709"><ele>189.5</ele><time>2026-04-23T14:04:21.183Z</time></trkpt><trkpt lat="45.5422713" lon="10.7792743"><ele>190.0</ele><time>2026-04-23T14:04:22.183Z</time></trkpt><trkpt lat="45.5425254" lon="10.779383"><ele>190.0</ele><time>2026-04-23T14:04:23.183Z</time></trkpt><trkpt lat="45.5427746" lon="10.7794938"><ele>190.0</ele><time>2026-04-23T14:04:24.183Z</time></trkpt><trkpt lat="45.5430229" lon="10.7796032"><ele>190.0</ele><time>2026-04-23T14:04:25.183Z</time></trkpt><trkpt lat="45.543268" lon="10.779713"><ele>190.0</ele><time>2026-04-23T14:04:26.183Z</time></trkpt><trkpt lat="45.5435145" lon="10.7798181"><ele>191.0</ele><time>2026-04-23T14:04:27.184Z</time></trkpt><trkpt lat="45.5437566" lon="10.7799248"><ele>192.0</ele><time>2026-04-23T14:04:28.183Z</time></trkpt><trkpt lat="45.5439992" lon="10.7800286"><ele>192.0</ele><time>2026-04-23T14:04:29.182Z</time></trkpt><trkpt lat="45.5442414" lon="10.7801235"><ele>192.0</ele><time>2026-04-23T14:04:30.184Z</time></trkpt><trkpt lat="45.544484" lon="10.780205"><ele>194.5</ele><time>2026-04-23T14:04:31.183Z</time></trkpt><trkpt lat="45.5447284" lon="10.7802781"><ele>197.0</ele><time>2026-04-23T14:04:32.183Z</time></trkpt><trkpt lat="45.5449737" lon="10.7803423"><ele>197.0</ele><time>2026-04-23T14:04:33.182Z</time></trkpt><trkpt lat="45.5452208" lon="10.7803975"><ele>197.0</ele><time>2026-04-23T14:04:34.182Z</time></trkpt><trkpt lat="45.545465" lon="10.7804423"><ele>194.0</ele><time>2026-04-23T14:04:35.183Z</time></trkpt><trkpt lat="45.5457025" lon="10.7804852"><ele>191.0</ele><time>2026-04-23T14:04:36.182Z</time></trkpt><trkpt lat="45.5459352" lon="10.7805329"><ele>191.0</ele><time>2026-04-23T14:04:37.183Z</time></trkpt><trkpt lat="45.5461645" lon="10.780582"><ele>191.0</ele><time>2026-04-23T14:04:38.183Z</time></trkpt><trkpt lat="45.5463962" lon="10.7806353"><ele>188.5</ele><time>2026-04-23T14:04:39.182Z</time></trkpt><trkpt lat="45.5466284" lon="10.7807001"><ele>186.0</ele><time>2026-04-23T14:04:40.184Z</time></trkpt><trkpt lat="45.5468609" lon="10.7807736"><ele>186.0</ele><time>2026-04-23T14:04:41.183Z</time></trkpt><trkpt lat="45.5470895" lon="10.7808569"><ele>186.0</ele><time>2026-04-23T14:04:42.182Z</time></trkpt><trkpt lat="45.5473138" lon="10.7809417"><ele>185.0</ele><time>2026-04-23T14:04:43.182Z</time></trkpt><trkpt lat="45.5475343" lon="10.7810289"><ele>184.0</ele><time>2026-04-23T14:04:44.183Z</time></trkpt><trkpt lat="45.547745" lon="10.7811238"><ele>186.0</ele><time>2026-04-23T14:04:45.182Z</time></trkpt><trkpt lat="45.5479465" lon="10.7812215"><ele>188.0</ele><time>2026-04-23T14:04:46.183Z</time></trkpt><trkpt lat="45.5481407" lon="10.7813165"><ele>190.0</ele><time>2026-04-23T14:04:47.182Z</time></trkpt><trkpt lat="45.5483281" lon="10.7814051"><ele>190.0</ele><time>2026-04-23T14:04:48.182Z</time></trkpt><trkpt lat="45.5485063" lon="10.7814785"><ele>190.0</ele><time>2026-04-23T14:04:49.183Z</time></trkpt><trkpt lat="45.5486784" lon="10.7815413"><ele>190.0</ele><time>2026-04-23T14:04:50.182Z</time></trkpt><trkpt lat="45.5488451" lon="10.7816054"><ele>189.75</ele><time>2026-04-23T14:04:51.183Z</time></trkpt><trkpt lat="45.5490013" lon="10.7816677"><ele>189.5</ele><time>2026-04-23T14:04:52.183Z</time></trkpt><trkpt lat="45.5491432" lon="10.7817261"><ele>189.25</ele><time>2026-04-23T14:04:53.182Z</time></trkpt><trkpt lat="45.5492676" lon="10.7817822"><ele>189.0</ele><time>2026-04-23T14:04:54.183Z</time></trkpt><trkpt lat="45.5493761" lon="10.781838"><ele>188.33333333333334</ele><time>2026-04-23T14:04:55.184Z</time></trkpt><trkpt lat="45.5494656" lon="10.7818986"><ele>187.66666666666666</ele><time>2026-04-23T14:04:56.184Z</time></trkpt><trkpt lat="45.5495363" lon="10.7819651"><ele>187.0</ele><time>2026-04-23T14:04:57.182Z</time></trkpt><trkpt lat="45.5495907" lon="10.7820371"><ele>186.33333333333331</ele><time>2026-04-23T14:04:58.183Z</time></trkpt><trkpt lat="45.5496479" lon="10.7821243"><ele>185.66666666666666</ele><time>2026-04-23T14:04:59.183Z</time></trkpt><trkpt lat="45.5497039" lon="10.7822458"><ele>185.0</ele><time>2026-04-23T14:05:00.183Z</time></trkpt><trkpt lat="45.5497558" lon="10.7823903"><ele>184.25</ele><time>2026-04-23T14:05:01.183Z</time></trkpt><trkpt lat="45.549822" lon="10.7825396"><ele>183.5</ele><time>2026-04-23T14:05:02.182Z</time></trkpt><trkpt lat="45.5499061" lon="10.7826799"><ele>182.75</ele><time>2026-04-23T14:05:03.183Z</time></trkpt><trkpt lat="45.5499977" lon="10.7828067"><ele>182.0</ele><time>2026-04-23T14:05:04.183Z</time></trkpt><trkpt lat="45.5501056" lon="10.7829128"><ele>181.5</ele><time>2026-04-23T14:05:05.182Z</time></trkpt><trkpt lat="45.5502289" lon="10.7829962"><ele>181.0</ele><time>2026-04-23T14:05:06.183Z</time></trkpt><trkpt lat="45.5503615" lon="10.783062"><ele>180.5</ele><time>2026-04-23T14:05:07.182Z</time></trkpt><trkpt lat="45.5504912" lon="10.7830998"><ele>180.0</ele><time>2026-04-23T14:05:08.182Z</time></trkpt><trkpt lat="45.5506008" lon="10.7831457"><ele>181.75</ele><time>2026-04-23T14:05:09.182Z</time></trkpt><trkpt lat="45.5506925" lon="10.7832289"><ele>183.5</ele><time>2026-04-23T14:05:10.183Z</time></trkpt><trkpt lat="45.550771" lon="10.7833389"><ele>185.25</ele><time>2026-04-23T14:05:11.182Z</time></trkpt><trkpt lat="45.550829" lon="10.7834765"><ele>187.0</ele><time>2026-04-23T14:05:12.183Z</time></trkpt><trkpt lat="45.5508806" lon="10.7836354"><ele>187.25</ele><time>2026-04-23T14:05:13.183Z</time></trkpt><trkpt lat="45.5509358" lon="10.7838095"><ele>187.5</ele><time>2026-04-23T14:05:14.182Z</time></trkpt><trkpt lat="45.5509912" lon="10.7839978"><ele>187.75</ele><time>2026-04-23T14:05:15.182Z</time></trkpt><trkpt lat="45.5510493" lon="10.7841941"><ele>188.0</ele><time>2026-04-23T14:05:16.184Z</time></trkpt><trkpt lat="45.5511015" lon="10.7843737"><ele>187.5</ele><time>2026-04-23T14:05:17.182Z</time></trkpt><trkpt lat="45.5511487" lon="10.7845427"><ele>187.0</ele><time>2026-04-23T14:05:18.183Z</time></trkpt><trkpt lat="45.5511933" lon="10.7847011"><ele>186.5</ele><time>2026-04-23T14:05:19.182Z</time></trkpt><trkpt lat="45.5512367" lon="10.78485"><ele>186.0</ele><time>2026-04-23T14:05:20.183Z</time></trkpt><trkpt lat="45.5512751" lon="10.7849925"><ele>186.33333333333334</ele><time>2026-04-23T14:05:21.183Z</time></trkpt><trkpt lat="45.551304" lon="10.785123"><ele>186.66666666666666</ele><time>2026-04-23T14:05:22.183Z</time></trkpt><trkpt lat="45.5513241" lon="10.7852449"><ele>187.0</ele><time>2026-04-23T14:05:23.183Z</time></trkpt><trkpt lat="45.5513313" lon="10.7853583"><ele>187.33333333333331</ele><time>2026-04-23T14:05:24.182Z</time></trkpt><trkpt lat="45.5513228" lon="10.7854594"><ele>187.66666666666666</ele><time>2026-04-23T14:05:25.183Z</time></trkpt><trkpt lat="45.5512777" lon="10.7855951"><ele>188.0</ele><time>2026-04-23T14:05:27.184Z</time></trkpt><trkpt lat="45.5511799" lon="10.7857153"><ele>188.0</ele><time>2026-04-23T14:05:29.182Z</time></trkpt><trkpt lat="45.5510951" lon="10.7857788"><ele>188.0</ele><time>2026-04-23T14:05:30.183Z</time></trkpt><trkpt lat="45.5510017" lon="10.7858466"><ele>188.0</ele><time>2026-04-23T14:05:31.182Z</time></trkpt><trkpt lat="45.5509275" lon="10.7859391"><ele>188.0</ele><time>2026-04-23T14:05:32.183Z</time></trkpt><trkpt lat="45.5508759" lon="10.7860543"><ele>188.0</ele><time>2026-04-23T14:05:33.183Z</time></trkpt><trkpt lat="45.5508513" lon="10.7861917"><ele>188.4</ele><time>2026-04-23T14:05:34.183Z</time></trkpt><trkpt lat="45.5508544" lon="10.7863332"><ele>188.8</ele><time>2026-04-23T14:05:35.183Z</time></trkpt><trkpt lat="45.5508869" lon="10.7864714"><ele>189.2</ele><time>2026-04-23T14:05:36.182Z</time></trkpt><trkpt lat="45.5509439" lon="10.7865906"><ele>189.6</ele><time>2026-04-23T14:05:37.182Z</time></trkpt><trkpt lat="45.5510202" lon="10.7866836"><ele>190.0</ele><time>2026-04-23T14:05:38.183Z</time></trkpt><trkpt lat="45.5511094" lon="10.7867532"><ele>189.83333333333334</ele><time>2026-04-23T14:05:39.182Z</time></trkpt><trkpt lat="45.5512106" lon="10.78679"><ele>189.66666666666669</ele><time>2026-04-23T14:05:40.183Z</time></trkpt><trkpt lat="45.5513068" lon="10.7868097"><ele>189.5</ele><time>2026-04-23T14:05:41.183Z</time></trkpt><trkpt lat="45.5513903" lon="10.7868452"><ele>189.33333333333334</ele><time>2026-04-23T14:05:42.183Z</time></trkpt><trkpt lat="45.5514572" lon="10.7869076"><ele>189.16666666666666</ele><time>2026-04-23T14:05:43.182Z</time></trkpt><trkpt lat="45.5514991" lon="10.7870035"><ele>189.0</ele><time>2026-04-23T14:05:44.182Z</time></trkpt><trkpt lat="45.5515224" lon="10.7871251"><ele>189.0</ele><time>2026-04-23T14:05:45.183Z</time></trkpt><trkpt lat="45.5515433" lon="10.7872598"><ele>189.0</ele><time>2026-04-23T14:05:46.182Z</time></trkpt><trkpt lat="45.551567" lon="10.7874073"><ele>189.0</ele><time>2026-04-23T14:05:47.182Z</time></trkpt><trkpt lat="45.5515928" lon="10.7875644"><ele>189.0</ele><time>2026-04-23T14:05:48.183Z</time></trkpt><trkpt lat="45.5516145" lon="10.7877277"><ele>189.0</ele><time>2026-04-23T14:05:49.182Z</time></trkpt><trkpt lat="45.5516385" lon="10.7878992"><ele>190.0</ele><time>2026-04-23T14:05:50.183Z</time></trkpt><trkpt lat="45.5516666" lon="10.788079"><ele>191.0</ele><time>2026-04-23T14:05:51.183Z</time></trkpt><trkpt lat="45.5516884" lon="10.7882713"><ele>192.0</ele><time>2026-04-23T14:05:52.183Z</time></trkpt><trkpt lat="45.5516996" lon="10.7884678"><ele>193.0</ele><time>2026-04-23T14:05:53.182Z</time></trkpt><trkpt lat="45.5516999" lon="10.7886732"><ele>193.33333333333331</ele><time>2026-04-23T14:05:54.183Z</time></trkpt><trkpt lat="45.5516893" lon="10.7888879"><ele>193.66666666666669</ele><time>2026-04-23T14:05:55.184Z</time></trkpt><trkpt lat="45.551664" lon="10.7891106"><ele>194.0</ele><time>2026-04-23T14:05:56.183Z</time></trkpt><trkpt lat="45.5516265" lon="10.7893386"><ele>195.0</ele><time>2026-04-23T14:05:57.182Z</time></trkpt><trkpt lat="45.5515784" lon="10.789563"><ele>196.0</ele><time>2026-04-23T14:05:58.183Z</time></trkpt><trkpt lat="45.5515236" lon="10.7897727"><ele>197.0</ele><time>2026-04-23T14:05:59.182Z</time></trkpt><trkpt lat="45.5514678" lon="10.7899723"><ele>197.0</ele><time>2026-04-23T14:06:00.183Z</time></trkpt><trkpt lat="45.551414" lon="10.7901562"><ele>197.0</ele><time>2026-04-23T14:06:01.183Z</time></trkpt><trkpt lat="45.551365" lon="10.7903253"><ele>197.0</ele><time>2026-04-23T14:06:02.184Z</time></trkpt><trkpt lat="45.5513179" lon="10.7904806"><ele>197.0</ele><time>2026-04-23T14:06:03.183Z</time></trkpt><trkpt lat="45.5512728" lon="10.7906276"><ele>196.83333333333334</ele><time>2026-04-23T14:06:04.183Z</time></trkpt><trkpt lat="45.5512383" lon="10.790757"><ele>196.66666666666669</ele><time>2026-04-23T14:06:05.182Z</time></trkpt><trkpt lat="45.5512116" lon="10.7908754"><ele>196.5</ele><time>2026-04-23T14:06:06.183Z</time></trkpt><trkpt lat="45.5511919" lon="10.7909875"><ele>196.33333333333331</ele><time>2026-04-23T14:06:07.182Z</time></trkpt><trkpt lat="45.5511728" lon="10.7910873"><ele>196.16666666666666</ele><time>2026-04-23T14:06:08.182Z</time></trkpt><trkpt lat="45.5511491" lon="10.79118"><ele>196.0</ele><time>2026-04-23T14:06:09.182Z</time></trkpt><trkpt lat="45.5511125" lon="10.7912633"><ele>195.16666666666666</ele><time>2026-04-23T14:06:10.182Z</time></trkpt><trkpt lat="45.5510648" lon="10.7913438"><ele>194.33333333333331</ele><time>2026-04-23T14:06:11.183Z</time></trkpt><trkpt lat="45.5510331" lon="10.7914401"><ele>193.5</ele><time>2026-04-23T14:06:12.183Z</time></trkpt><trkpt lat="45.5510267" lon="10.7915499"><ele>192.66666666666666</ele><time>2026-04-23T14:06:13.183Z</time></trkpt><trkpt lat="45.5510359" lon="10.7916762"><ele>191.83333333333331</ele><time>2026-04-23T14:06:14.183Z</time></trkpt><trkpt lat="45.5510378" lon="10.7918167"><ele>191.0</ele><time>2026-04-23T14:06:15.184Z</time></trkpt><trkpt lat="45.5510281" lon="10.7919687"><ele>190.8</ele><time>2026-04-23T14:06:16.182Z</time></trkpt><trkpt lat="45.5510239" lon="10.7921307"><ele>190.60000000000002</ele><time>2026-04-23T14:06:17.183Z</time></trkpt><trkpt lat="45.5510211" lon="10.7922952"><ele>190.4</ele><time>2026-04-23T14:06:18.182Z</time></trkpt><trkpt lat="45.5510168" lon="10.7924571"><ele>190.2</ele><time>2026-04-23T14:06:19.183Z</time></trkpt><trkpt lat="45.5510111" lon="10.7926077"><ele>190.0</ele><time>2026-04-23T14:06:20.183Z</time></trkpt><trkpt lat="45.551007" lon="10.7927613"><ele>189.75</ele><time>2026-04-23T14:06:21.183Z</time></trkpt><trkpt lat="45.5510055" lon="10.7929212"><ele>189.5</ele><time>2026-04-23T14:06:22.183Z</time></trkpt><trkpt lat="45.5510012" lon="10.7930885"><ele>189.25</ele><time>2026-04-23T14:06:23.184Z</time></trkpt><trkpt lat="45.5509953" lon="10.7932627"><ele>189.0</ele><time>2026-04-23T14:06:24.184Z</time></trkpt><trkpt lat="45.5509903" lon="10.7934448"><ele>188.5</ele><time>2026-04-23T14:06:25.182Z</time></trkpt><trkpt lat="45.5509844" lon="10.7936325"><ele>188.0</ele><time>2026-04-23T14:06:26.183Z</time></trkpt><trkpt lat="45.5509747" lon="10.7938238"><ele>187.5</ele><time>2026-04-23T14:06:27.182Z</time></trkpt><trkpt lat="45.5509623" lon="10.7940177"><ele>187.0</ele><time>2026-04-23T14:06:28.183Z</time></trkpt><trkpt lat="45.5509507" lon="10.7942174"><ele>186.75</ele><time>2026-04-23T14:06:29.183Z</time></trkpt><trkpt lat="45.5509415" lon="10.7944118"><ele>186.5</ele><time>2026-04-23T14:06:30.182Z</time></trkpt><trkpt lat="45.5509313" lon="10.7946005"><ele>186.25</ele><time>2026-04-23T14:06:31.182Z</time></trkpt><trkpt lat="45.5509194" lon="10.7947848"><ele>186.0</ele><time>2026-04-23T14:06:32.183Z</time></trkpt><trkpt lat="45.5509083" lon="10.7949719"><ele>186.0</ele><time>2026-04-23T14:06:33.183Z</time></trkpt><trkpt lat="45.5508981" lon="10.7951632"><ele>186.0</ele><time>2026-04-23T14:06:34.182Z</time></trkpt><trkpt lat="45.5508947" lon="10.7953612"><ele>186.0</ele><time>2026-04-23T14:06:35.183Z</time></trkpt><trkpt lat="45.5508924" lon="10.795562"><ele>186.0</ele><time>2026-04-23T14:06:36.183Z</time></trkpt><trkpt lat="45.5508918" lon="10.7957687"><ele>186.0</ele><time>2026-04-23T14:06:37.183Z</time></trkpt><trkpt lat="45.5508897" lon="10.79598"><ele>186.0</ele><time>2026-04-23T14:06:38.183Z</time></trkpt><trkpt lat="45.5508873" lon="10.7961931"><ele>186.0</ele><time>2026-04-23T14:06:39.183Z</time></trkpt><trkpt lat="45.5508837" lon="10.7964009"><ele>186.0</ele><time>2026-04-23T14:06:40.183Z</time></trkpt><trkpt lat="45.5508767" lon="10.7966019"><ele>186.0</ele><time>2026-04-23T14:06:41.183Z</time></trkpt><trkpt lat="45.5508696" lon="10.7968011"><ele>186.0</ele><time>2026-04-23T14:06:42.182Z</time></trkpt><trkpt lat="45.5508593" lon="10.7969898"><ele>186.0</ele><time>2026-04-23T14:06:43.183Z</time></trkpt><trkpt lat="45.5508511" lon="10.7971768"><ele>186.0</ele><time>2026-04-23T14:06:44.183Z</time></trkpt><trkpt lat="45.5508409" lon="10.7973654"><ele>186.0</ele><time>2026-04-23T14:06:45.183Z</time></trkpt><trkpt lat="45.5508301" lon="10.797558"><ele>186.0</ele><time>2026-04-23T14:06:46.182Z</time></trkpt><trkpt lat="45.550821" lon="10.7977543"><ele>186.0</ele><time>2026-04-23T14:06:47.182Z</time></trkpt><trkpt lat="45.5508118" lon="10.7979525"><ele>186.0</ele><time>2026-04-23T14:06:48.182Z</time></trkpt><trkpt lat="45.5508001" lon="10.7981518"><ele>186.0</ele><time>2026-04-23T14:06:49.183Z</time></trkpt><trkpt lat="45.5507882" lon="10.7983459"><ele>186.0</ele><time>2026-04-23T14:06:50.183Z</time></trkpt><trkpt lat="45.5507741" lon="10.7985361"><ele>186.0</ele><time>2026-04-23T14:06:51.182Z</time></trkpt><trkpt lat="45.5507647" lon="10.7987257"><ele>186.0</ele><time>2026-04-23T14:06:52.182Z</time></trkpt><trkpt lat="45.5507584" lon="10.7989145"><ele>185.75</ele><time>2026-04-23T14:06:53.183Z</time></trkpt><trkpt lat="45.5507566" lon="10.7991042"><ele>185.5</ele><time>2026-04-23T14:06:54.183Z</time></trkpt><trkpt lat="45.5507585" lon="10.7992973"><ele>185.25</ele><time>2026-04-23T14:06:55.184Z</time></trkpt><trkpt lat="45.5507634" lon="10.7994897"><ele>185.0</ele><time>2026-04-23T14:06:56.184Z</time></trkpt><trkpt lat="45.5507672" lon="10.7996843"><ele>184.75</ele><time>2026-04-23T14:06:57.183Z</time></trkpt><trkpt lat="45.5507709" lon="10.7998839"><ele>184.5</ele><time>2026-04-23T14:06:58.184Z</time></trkpt><trkpt lat="45.55078" lon="10.8000836"><ele>184.25</ele><time>2026-04-23T14:06:59.182Z</time></trkpt><trkpt lat="45.5507942" lon="10.8002814"><ele>184.0</ele><time>2026-04-23T14:07:00.182Z</time></trkpt><trkpt lat="45.5508073" lon="10.8004723"><ele>183.0</ele><time>2026-04-23T14:07:01.183Z</time></trkpt><trkpt lat="45.5508213" lon="10.8006517"><ele>182.0</ele><time>2026-04-23T14:07:02.183Z</time></trkpt><trkpt lat="45.5508374" lon="10.8008251"><ele>181.0</ele><time>2026-04-23T14:07:03.183Z</time></trkpt><trkpt lat="45.5508583" lon="10.8010048"><ele>180.0</ele><time>2026-04-23T14:07:04.183Z</time></trkpt><trkpt lat="45.5508749" lon="10.8011962"><ele>179.25</ele><time>2026-04-23T14:07:05.184Z</time></trkpt><trkpt lat="45.5508818" lon="10.8013952"><ele>178.5</ele><time>2026-04-23T14:07:06.183Z</time></trkpt><trkpt lat="45.5508757" lon="10.8016009"><ele>177.75</ele><time>2026-04-23T14:07:07.184Z</time></trkpt><trkpt lat="45.5508619" lon="10.8018154"><ele>177.0</ele><time>2026-04-23T14:07:08.182Z</time></trkpt><trkpt lat="45.5508428" lon="10.8020271"><ele>177.0</ele><time>2026-04-23T14:07:09.182Z</time></trkpt><trkpt lat="45.5508243" lon="10.802232"><ele>177.0</ele><time>2026-04-23T14:07:10.183Z</time></trkpt><trkpt lat="45.5508065" lon="10.8024256"><ele>177.0</ele><time>2026-04-23T14:07:11.182Z</time></trkpt><trkpt lat="45.5507818" lon="10.8026042"><ele>177.0</ele><time>2026-04-23T14:07:12.182Z</time></trkpt><trkpt lat="45.5507489" lon="10.8027662"><ele>176.2</ele><time>2026-04-23T14:07:13.183Z</time></trkpt><trkpt lat="45.5507092" lon="10.8029071"><ele>175.39999999999998</ele><time>2026-04-23T14:07:14.182Z</time></trkpt><trkpt lat="45.5506619" lon="10.8030379"><ele>174.60000000000002</ele><time>2026-04-23T14:07:15.183Z</time></trkpt><trkpt lat="45.5506109" lon="10.8031597"><ele>173.8</ele><time>2026-04-23T14:07:16.183Z</time></trkpt><trkpt lat="45.5505527" lon="10.803271"><ele>173.0</ele><time>2026-04-23T14:07:17.182Z</time></trkpt><trkpt lat="45.5504886" lon="10.803376"><ele>173.0</ele><time>2026-04-23T14:07:18.182Z</time></trkpt><trkpt lat="45.55043" lon="10.8034767"><ele>173.0</ele><time>2026-04-23T14:07:19.183Z</time></trkpt><trkpt lat="45.550388" lon="10.803567"><ele>173.0</ele><time>2026-04-23T14:07:20.182Z</time></trkpt><trkpt lat="45.5503705" lon="10.8037222"><ele>173.0</ele><time>2026-04-23T14:07:22.182Z</time></trkpt><trkpt lat="45.5504413" lon="10.8038461"><ele>173.0</ele><time>2026-04-23T14:07:24.183Z</time></trkpt><trkpt lat="45.5505019" lon="10.8039009"><ele>172.60000000000002</ele><time>2026-04-23T14:07:25.183Z</time></trkpt><trkpt lat="45.5505795" lon="10.8039505"><ele>172.20000000000002</ele><time>2026-04-23T14:07:26.183Z</time></trkpt><trkpt lat="45.5506689" lon="10.8039855"><ele>171.8</ele><time>2026-04-23T14:07:27.182Z</time></trkpt><trkpt lat="45.5507729" lon="10.8040076"><ele>171.4</ele><time>2026-04-23T14:07:28.183Z</time></trkpt><trkpt lat="45.5508913" lon="10.8040105"><ele>171.0</ele><time>2026-04-23T14:07:29.182Z</time></trkpt><trkpt lat="45.5510251" lon="10.8039966"><ele>171.0</ele><time>2026-04-23T14:07:30.182Z</time></trkpt><trkpt lat="45.5511674" lon="10.803981"><ele>171.0</ele><time>2026-04-23T14:07:31.183Z</time></trkpt><trkpt lat="45.5513226" lon="10.8039677"><ele>171.0</ele><time>2026-04-23T14:07:32.184Z</time></trkpt><trkpt lat="45.5514901" lon="10.8039589"><ele>171.66666666666666</ele><time>2026-04-23T14:07:33.182Z</time></trkpt><trkpt lat="45.5516646" lon="10.803948"><ele>172.33333333333331</ele><time>2026-04-23T14:07:34.182Z</time></trkpt><trkpt lat="45.5518448" lon="10.8039367"><ele>173.0</ele><time>2026-04-23T14:07:35.183Z</time></trkpt><trkpt lat="45.5520317" lon="10.8039207"><ele>172.66666666666666</ele><time>2026-04-23T14:07:36.184Z</time></trkpt><trkpt lat="45.5522246" lon="10.8039043"><ele>172.33333333333334</ele><time>2026-04-23T14:07:37.182Z</time></trkpt><trkpt lat="45.5524216" lon="10.8038799"><ele>172.0</ele><time>2026-04-23T14:07:38.182Z</time></trkpt><trkpt lat="45.552618" lon="10.8038484"><ele>172.0</ele><time>2026-04-23T14:07:39.182Z</time></trkpt><trkpt lat="45.5528174" lon="10.8038065"><ele>172.0</ele><time>2026-04-23T14:07:40.183Z</time></trkpt><trkpt lat="45.5530217" lon="10.8037625"><ele>172.0</ele><time>2026-04-23T14:07:41.182Z</time></trkpt><trkpt lat="45.553225" lon="10.803724"><ele>173.0</ele><time>2026-04-23T14:07:42.183Z</time></trkpt><trkpt lat="45.5534218" lon="10.8036944"><ele>174.0</ele><time>2026-04-23T14:07:43.183Z</time></trkpt><trkpt lat="45.5536131" lon="10.8036543"><ele>175.0</ele><time>2026-04-23T14:07:44.182Z</time></trkpt><trkpt lat="45.5538073" lon="10.8036242"><ele>175.0</ele><time>2026-04-23T14:07:45.183Z</time></trkpt><trkpt lat="45.5540021" lon="10.8036119"><ele>175.0</ele><time>2026-04-23T14:07:46.183Z</time></trkpt><trkpt lat="45.5541996" lon="10.8036144"><ele>175.0</ele><time>2026-04-23T14:07:47.182Z</time></trkpt><trkpt lat="45.5543954" lon="10.8036237"><ele>176.0</ele><time>2026-04-23T14:07:48.183Z</time></trkpt><trkpt lat="45.5545918" lon="10.8036445"><ele>177.0</ele><time>2026-04-23T14:07:49.182Z</time></trkpt><trkpt lat="45.5547819" lon="10.803657"><ele>178.0</ele><time>2026-04-23T14:07:50.184Z</time></trkpt><trkpt lat="45.5549675" lon="10.803642"><ele>178.0</ele><time>2026-04-23T14:07:51.182Z</time></trkpt><trkpt lat="45.5551477" lon="10.8035927"><ele>178.0</ele><time>2026-04-23T14:07:52.182Z</time></trkpt><trkpt lat="45.5553198" lon="10.8035115"><ele>178.0</ele><time>2026-04-23T14:07:53.182Z</time></trkpt><trkpt lat="45.55548" lon="10.803401"><ele>178.0</ele><time>2026-04-23T14:07:54.184Z</time></trkpt><trkpt lat="45.5556309" lon="10.8032745"><ele>178.0</ele><time>2026-04-23T14:07:55.182Z</time></trkpt><trkpt lat="45.5557742" lon="10.8031548"><ele>178.0</ele><time>2026-04-23T14:07:56.183Z</time></trkpt><trkpt lat="45.5559103" lon="10.803036"><ele>178.0</ele><time>2026-04-23T14:07:57.183Z</time></trkpt><trkpt lat="45.5560441" lon="10.8029169"><ele>178.0</ele><time>2026-04-23T14:07:58.183Z</time></trkpt><trkpt lat="45.5561798" lon="10.8027964"><ele>178.0</ele><time>2026-04-23T14:07:59.182Z</time></trkpt><trkpt lat="45.556316" lon="10.80267"><ele>178.66666666666669</ele><time>2026-04-23T14:08:00.183Z</time></trkpt><trkpt lat="45.5564548" lon="10.8025423"><ele>179.33333333333334</ele><time>2026-04-23T14:08:01.183Z</time></trkpt><trkpt lat="45.5565936" lon="10.8024128"><ele>180.0</ele><time>2026-04-23T14:08:02.183Z</time></trkpt><trkpt lat="45.5567371" lon="10.8022808"><ele>180.0</ele><time>2026-04-23T14:08:03.183Z</time></trkpt><trkpt lat="45.556884" lon="10.8021493"><ele>180.0</ele><time>2026-04-23T14:08:04.182Z</time></trkpt><trkpt lat="45.5570296" lon="10.8020141"><ele>180.0</ele><time>2026-04-23T14:08:05.183Z</time></trkpt><trkpt lat="45.5571765" lon="10.8018729"><ele>181.0</ele><time>2026-04-23T14:08:06.183Z</time></trkpt><trkpt lat="45.5573233" lon="10.8017309"><ele>182.0</ele><time>2026-04-23T14:08:07.182Z</time></trkpt><trkpt lat="45.5574709" lon="10.8015958"><ele>183.0</ele><time>2026-04-23T14:08:08.182Z</time></trkpt><trkpt lat="45.5576156" lon="10.8014781"><ele>183.0</ele><time>2026-04-23T14:08:09.182Z</time></trkpt><trkpt lat="45.5577582" lon="10.8013684"><ele>183.0</ele><time>2026-04-23T14:08:10.182Z</time></trkpt><trkpt lat="45.5579061" lon="10.8012596"><ele>183.0</ele><time>2026-04-23T14:08:11.182Z</time></trkpt><trkpt lat="45.5580553" lon="10.8011439"><ele>183.66666666666666</ele><time>2026-04-23T14:08:12.184Z</time></trkpt><trkpt lat="45.5582084" lon="10.8010239"><ele>184.33333333333331</ele><time>2026-04-23T14:08:13.182Z</time></trkpt><trkpt lat="45.5583623" lon="10.8008949"><ele>185.0</ele><time>2026-04-23T14:08:14.183Z</time></trkpt><trkpt lat="45.5585074" lon="10.8007415"><ele>185.0</ele><time>2026-04-23T14:08:15.184Z</time></trkpt><trkpt lat="45.5586452" lon="10.8005717"><ele>185.0</ele><time>2026-04-23T14:08:16.183Z</time></trkpt><trkpt lat="45.5587801" lon="10.8004064"><ele>185.0</ele><time>2026-04-23T14:08:17.183Z</time></trkpt><trkpt lat="45.5589101" lon="10.8002546"><ele>185.0</ele><time>2026-04-23T14:08:18.183Z</time></trkpt><trkpt lat="45.5590351" lon="10.8001436"><ele>185.0</ele><time>2026-04-23T14:08:19.183Z</time></trkpt><trkpt lat="45.559182" lon="10.8000298"><ele>185.0</ele><time>2026-04-23T14:08:20.183Z</time></trkpt><trkpt lat="45.5593388" lon="10.7999483"><ele>185.0</ele><time>2026-04-23T14:08:21.183Z</time></trkpt><trkpt lat="45.5595025" lon="10.7999036"><ele>185.0</ele><time>2026-04-23T14:08:22.183Z</time></trkpt><trkpt lat="45.5596705" lon="10.7998915"><ele>185.0</ele><time>2026-04-23T14:08:23.182Z</time></trkpt><trkpt lat="45.5598458" lon="10.7999002"><ele>185.0</ele><time>2026-04-23T14:08:24.182Z</time></trkpt><trkpt lat="45.5600272" lon="10.7999185"><ele>185.0</ele><time>2026-04-23T14:08:25.183Z</time></trkpt><trkpt lat="45.560214" lon="10.7999421"><ele>185.0</ele><time>2026-04-23T14:08:26.182Z</time></trkpt><trkpt lat="45.5604055" lon="10.7999618"><ele>185.0</ele><time>2026-04-23T14:08:27.184Z</time></trkpt><trkpt lat="45.5606034" lon="10.7999846"><ele>185.0</ele><time>2026-04-23T14:08:28.184Z</time></trkpt><trkpt lat="45.5608052" lon="10.8000075"><ele>185.0</ele><time>2026-04-23T14:08:29.183Z</time></trkpt><trkpt lat="45.5610092" lon="10.8000308"><ele>185.33333333333331</ele><time>2026-04-23T14:08:30.184Z</time></trkpt><trkpt lat="45.5612186" lon="10.8000527"><ele>185.66666666666666</ele><time>2026-04-23T14:08:31.183Z</time></trkpt><trkpt lat="45.5614329" lon="10.8000781"><ele>186.0</ele><time>2026-04-23T14:08:32.182Z</time></trkpt><trkpt lat="45.5616514" lon="10.8001066"><ele>186.0</ele><time>2026-04-23T14:08:33.183Z</time></trkpt><trkpt lat="45.5618782" lon="10.8001386"><ele>186.0</ele><time>2026-04-23T14:08:34.183Z</time></trkpt><trkpt lat="45.5621131" lon="10.800174"><ele>187.0</ele><time>2026-04-23T14:08:35.182Z</time></trkpt><trkpt lat="45.5623595" lon="10.8002233"><ele>188.0</ele><time>2026-04-23T14:08:36.182Z</time></trkpt><trkpt lat="45.5626119" lon="10.8002889"><ele>188.0</ele><time>2026-04-23T14:08:37.183Z</time></trkpt><trkpt lat="45.562853" lon="10.8003598"><ele>188.0</ele><time>2026-04-23T14:08:38.182Z</time></trkpt><trkpt lat="45.5630732" lon="10.8004423"><ele>189.0</ele><time>2026-04-23T14:08:39.182Z</time></trkpt><trkpt lat="45.5632762" lon="10.8005476"><ele>190.0</ele><time>2026-04-23T14:08:40.182Z</time></trkpt><trkpt lat="45.5634671" lon="10.8006748"><ele>191.0</ele><time>2026-04-23T14:08:41.182Z</time></trkpt><trkpt lat="45.563645" lon="10.8008144"><ele>191.0</ele><time>2026-04-23T14:08:42.184Z</time></trkpt><trkpt lat="45.563816" lon="10.8009607"><ele>191.0</ele><time>2026-04-23T14:08:43.183Z</time></trkpt><trkpt lat="45.5639872" lon="10.8011035"><ele>191.0</ele><time>2026-04-23T14:08:44.184Z</time></trkpt><trkpt lat="45.5641603" lon="10.8012468"><ele>191.0</ele><time>2026-04-23T14:08:45.182Z</time></trkpt><trkpt lat="45.5643347" lon="10.8013917"><ele>191.0</ele><time>2026-04-23T14:08:46.183Z</time></trkpt><trkpt lat="45.5645132" lon="10.8015294"><ele>191.0</ele><time>2026-04-23T14:08:47.182Z</time></trkpt><trkpt lat="45.5647016" lon="10.8016427"><ele>191.0</ele><time>2026-04-23T14:08:48.183Z</time></trkpt><trkpt lat="45.5648949" lon="10.8017371"><ele>191.0</ele><time>2026-04-23T14:08:49.182Z</time></trkpt><trkpt lat="45.5650957" lon="10.8018108"><ele>191.0</ele><time>2026-04-23T14:08:50.183Z</time></trkpt><trkpt lat="45.5653019" lon="10.8018701"><ele>191.0</ele><time>2026-04-23T14:08:51.182Z</time></trkpt><trkpt lat="45.5655119" lon="10.8019218"><ele>191.0</ele><time>2026-04-23T14:08:52.182Z</time></trkpt><trkpt lat="45.5657253" lon="10.8019713"><ele>191.0</ele><time>2026-04-23T14:08:53.182Z</time></trkpt><trkpt lat="45.5659393" lon="10.8020276"><ele>191.0</ele><time>2026-04-23T14:08:54.183Z</time></trkpt><trkpt lat="45.5661557" lon="10.8020853"><ele>191.0</ele><time>2026-04-23T14:08:55.183Z</time></trkpt><trkpt lat="45.5663722" lon="10.8021413"><ele>191.0</ele><time>2026-04-23T14:08:56.182Z</time></trkpt><trkpt lat="45.5665846" lon="10.802192"><ele>190.66666666666666</ele><time>2026-04-23T14:08:57.183Z</time></trkpt><trkpt lat="45.5667947" lon="10.8022314"><ele>190.33333333333334</ele><time>2026-04-23T14:08:58.183Z</time></trkpt><trkpt lat="45.5670027" lon="10.8022536"><ele>190.0</ele><time>2026-04-23T14:08:59.182Z</time></trkpt><trkpt lat="45.5672073" lon="10.8022655"><ele>190.66666666666669</ele><time>2026-04-23T14:09:00.183Z</time></trkpt><trkpt lat="45.5674147" lon="10.8022652"><ele>191.33333333333334</ele><time>2026-04-23T14:09:01.183Z</time></trkpt><trkpt lat="45.5676216" lon="10.8022524"><ele>192.0</ele><time>2026-04-23T14:09:02.182Z</time></trkpt><trkpt lat="45.5678296" lon="10.8022331"><ele>191.66666666666666</ele><time>2026-04-23T14:09:03.183Z</time></trkpt><trkpt lat="45.5680369" lon="10.802208"><ele>191.33333333333331</ele><time>2026-04-23T14:09:04.183Z</time></trkpt><trkpt lat="45.5682394" lon="10.8021804"><ele>191.0</ele><time>2026-04-23T14:09:05.182Z</time></trkpt><trkpt lat="45.5684395" lon="10.8021545"><ele>191.0</ele><time>2026-04-23T14:09:06.182Z</time></trkpt><trkpt lat="45.5686394" lon="10.8021378"><ele>191.0</ele><time>2026-04-23T14:09:07.182Z</time></trkpt><trkpt lat="45.5688371" lon="10.8021377"><ele>191.0</ele><time>2026-04-23T14:09:08.182Z</time></trkpt><trkpt lat="45.5690335" lon="10.8021595"><ele>191.33333333333331</ele><time>2026-04-23T14:09:09.183Z</time></trkpt><trkpt lat="45.5692281" lon="10.8022025"><ele>191.66666666666666</ele><time>2026-04-23T14:09:10.182Z</time></trkpt><trkpt lat="45.5694204" lon="10.8022637"><ele>192.0</ele><time>2026-04-23T14:09:11.182Z</time></trkpt><trkpt lat="45.5696121" lon="10.8023391"><ele>192.0</ele><time>2026-04-23T14:09:12.182Z</time></trkpt><trkpt lat="45.5698045" lon="10.8024214"><ele>192.0</ele><time>2026-04-23T14:09:13.183Z</time></trkpt><trkpt lat="45.5699999" lon="10.8024982"><ele>192.0</ele><time>2026-04-23T14:09:14.183Z</time></trkpt><trkpt lat="45.5701965" lon="10.8025698"><ele>192.0</ele><time>2026-04-23T14:09:15.183Z</time></trkpt><trkpt lat="45.5703941" lon="10.8026436"><ele>192.0</ele><time>2026-04-23T14:09:16.183Z</time></trkpt><trkpt lat="45.5705881" lon="10.8027178"><ele>192.0</ele><time>2026-04-23T14:09:17.182Z</time></trkpt><trkpt lat="45.570782" lon="10.8027951"><ele>192.0</ele><time>2026-04-23T14:09:18.183Z</time></trkpt><trkpt lat="45.5709783" lon="10.8028745"><ele>192.0</ele><time>2026-04-23T14:09:19.182Z</time></trkpt><trkpt lat="45.5711738" lon="10.8029575"><ele>192.0</ele><time>2026-04-23T14:09:20.182Z</time></trkpt><trkpt lat="45.5713713" lon="10.8030441"><ele>192.66666666666669</ele><time>2026-04-23T14:09:21.183Z</time></trkpt><trkpt lat="45.5715661" lon="10.8031316"><ele>193.33333333333334</ele><time>2026-04-23T14:09:22.183Z</time></trkpt><trkpt lat="45.5717642" lon="10.8032202"><ele>194.0</ele><time>2026-04-23T14:09:23.184Z</time></trkpt><trkpt lat="45.5719622" lon="10.8033112"><ele>194.66666666666669</ele><time>2026-04-23T14:09:24.182Z</time></trkpt><trkpt lat="45.5721564" lon="10.8034013"><ele>195.33333333333331</ele><time>2026-04-23T14:09:25.183Z</time></trkpt><trkpt lat="45.5723473" lon="10.8034883"><ele>196.0</ele><time>2026-04-23T14:09:26.183Z</time></trkpt><trkpt lat="45.572537" lon="10.8035736"><ele>195.0</ele><time>2026-04-23T14:09:27.183Z</time></trkpt><trkpt lat="45.5727275" lon="10.8036601"><ele>194.0</ele><time>2026-04-23T14:09:28.183Z</time></trkpt><trkpt lat="45.5729148" lon="10.8037489"><ele>193.0</ele><time>2026-04-23T14:09:29.183Z</time></trkpt><trkpt lat="45.5731003" lon="10.8038359"><ele>193.0</ele><time>2026-04-23T14:09:30.182Z</time></trkpt><trkpt lat="45.5732724" lon="10.803916"><ele>193.0</ele><time>2026-04-23T14:09:31.183Z</time></trkpt><trkpt lat="45.5734235" lon="10.8039798"><ele>193.0</ele><time>2026-04-23T14:09:32.183Z</time></trkpt><trkpt lat="45.5735567" lon="10.8040249"><ele>192.99999999999997</ele><time>2026-04-23T14:09:33.182Z</time></trkpt><trkpt lat="45.5736734" lon="10.8040545"><ele>193.0</ele><time>2026-04-23T14:09:34.183Z</time></trkpt><trkpt lat="45.5737684" lon="10.8040744"><ele>193.0</ele><time>2026-04-23T14:09:35.183Z</time></trkpt><trkpt lat="45.5738477" lon="10.8040826"><ele>193.0</ele><time>2026-04-23T14:09:36.183Z</time></trkpt><trkpt lat="45.5739147" lon="10.804092"><ele>192.99999999999997</ele><time>2026-04-23T14:09:37.183Z</time></trkpt><trkpt lat="45.5739813" lon="10.8041186"><ele>193.0</ele><time>2026-04-23T14:09:38.182Z</time></trkpt><trkpt lat="45.5740545" lon="10.8041602"><ele>193.2</ele><time>2026-04-23T14:09:39.182Z</time></trkpt><trkpt lat="45.5741389" lon="10.8041888"><ele>193.4</ele><time>2026-04-23T14:09:40.183Z</time></trkpt><trkpt lat="45.5742333" lon="10.8041745"><ele>193.6</ele><time>2026-04-23T14:09:41.182Z</time></trkpt><trkpt lat="45.5743377" lon="10.8041524"><ele>193.79999999999998</ele><time>2026-04-23T14:09:42.184Z</time></trkpt><trkpt lat="45.5744588" lon="10.8041369"><ele>194.0</ele><time>2026-04-23T14:09:43.182Z</time></trkpt><trkpt lat="45.5745872" lon="10.8041102"><ele>193.25</ele><time>2026-04-23T14:09:44.182Z</time></trkpt><trkpt lat="45.5747229" lon="10.8040588"><ele>192.5</ele><time>2026-04-23T14:09:45.182Z</time></trkpt><trkpt lat="45.5748715" lon="10.8040016"><ele>191.75</ele><time>2026-04-23T14:09:46.182Z</time></trkpt><trkpt lat="45.575022" lon="10.8039601"><ele>191.0</ele><time>2026-04-23T14:09:47.183Z</time></trkpt><trkpt lat="45.5751809" lon="10.8039305"><ele>191.0</ele><time>2026-04-23T14:09:48.183Z</time></trkpt><trkpt lat="45.5753463" lon="10.8039277"><ele>191.0</ele><time>2026-04-23T14:09:49.182Z</time></trkpt><trkpt lat="45.5755176" lon="10.8039546"><ele>191.0</ele><time>2026-04-23T14:09:50.182Z</time></trkpt><trkpt lat="45.5756908" lon="10.804013"><ele>190.0</ele><time>2026-04-23T14:09:51.183Z</time></trkpt><trkpt lat="45.5758624" lon="10.8041055"><ele>189.0</ele><time>2026-04-23T14:09:52.183Z</time></trkpt><trkpt lat="45.5760282" lon="10.8042277"><ele>188.0</ele><time>2026-04-23T14:09:53.183Z</time></trkpt><trkpt lat="45.5761897" lon="10.8043746"><ele>188.0</ele><time>2026-04-23T14:09:54.184Z</time></trkpt><trkpt lat="45.5763511" lon="10.8045372"><ele>188.0</ele><time>2026-04-23T14:09:55.183Z</time></trkpt><trkpt lat="45.5765147" lon="10.8047091"><ele>188.0</ele><time>2026-04-23T14:09:56.184Z</time></trkpt><trkpt lat="45.5766771" lon="10.804884"><ele>188.0</ele><time>2026-04-23T14:09:57.183Z</time></trkpt><trkpt lat="45.5768469" lon="10.8050657"><ele>188.0</ele><time>2026-04-23T14:09:58.183Z</time></trkpt><trkpt lat="45.5770245" lon="10.8052545"><ele>188.0</ele><time>2026-04-23T14:09:59.183Z</time></trkpt><trkpt lat="45.5772077" lon="10.8054511"><ele>186.5</ele><time>2026-04-23T14:10:00.183Z</time></trkpt><trkpt lat="45.5773947" lon="10.8056519"><ele>185.0</ele><time>2026-04-23T14:10:01.183Z</time></trkpt><trkpt lat="45.5775844" lon="10.8058582"><ele>184.5</ele><time>2026-04-23T14:10:02.182Z</time></trkpt><trkpt lat="45.5777744" lon="10.806061"><ele>184.0</ele><time>2026-04-23T14:10:03.184Z</time></trkpt><trkpt lat="45.5779688" lon="10.8062653"><ele>183.5</ele><time>2026-04-23T14:10:04.182Z</time></trkpt><trkpt lat="45.5781671" lon="10.8064731"><ele>183.0</ele><time>2026-04-23T14:10:05.182Z</time></trkpt><trkpt lat="45.5783676" lon="10.806675"><ele>183.5</ele><time>2026-04-23T14:10:06.183Z</time></trkpt><trkpt lat="45.5785691" lon="10.806865"><ele>184.0</ele><time>2026-04-23T14:10:07.183Z</time></trkpt><trkpt lat="45.5787743" lon="10.8070356"><ele>184.0</ele><time>2026-04-23T14:10:08.182Z</time></trkpt><trkpt lat="45.5789846" lon="10.8071849"><ele>184.0</ele><time>2026-04-23T14:10:09.184Z</time></trkpt><trkpt lat="45.5792008" lon="10.8073199"><ele>184.0</ele><time>2026-04-23T14:10:10.183Z</time></trkpt><trkpt lat="45.5794176" lon="10.8074444"><ele>184.0</ele><time>2026-04-23T14:10:11.183Z</time></trkpt><trkpt lat="45.5796352" lon="10.8075634"><ele>184.0</ele><time>2026-04-23T14:10:12.183Z</time></trkpt><trkpt lat="45.5798465" lon="10.8076691"><ele>184.0</ele><time>2026-04-23T14:10:13.182Z</time></trkpt><trkpt lat="45.5800511" lon="10.8077643"><ele>184.0</ele><time>2026-04-23T14:10:14.184Z</time></trkpt><trkpt lat="45.5802539" lon="10.8078413"><ele>184.66666666666669</ele><time>2026-04-23T14:10:15.183Z</time></trkpt><trkpt lat="45.5804542" lon="10.8079014"><ele>185.33333333333334</ele><time>2026-04-23T14:10:16.182Z</time></trkpt><trkpt lat="45.5806534" lon="10.8079572"><ele>186.0</ele><time>2026-04-23T14:10:17.183Z</time></trkpt><trkpt lat="45.5808446" lon="10.8080132"><ele>186.0</ele><time>2026-04-23T14:10:18.183Z</time></trkpt><trkpt lat="45.5810273" lon="10.8080616"><ele>186.0</ele><time>2026-04-23T14:10:19.182Z</time></trkpt><trkpt lat="45.5812028" lon="10.8081101"><ele>186.0</ele><time>2026-04-23T14:10:20.184Z</time></trkpt><trkpt lat="45.5813773" lon="10.8081596"><ele>185.66666666666666</ele><time>2026-04-23T14:10:21.182Z</time></trkpt><trkpt lat="45.5815489" lon="10.80821"><ele>185.33333333333331</ele><time>2026-04-23T14:10:22.184Z</time></trkpt><trkpt lat="45.5817195" lon="10.8082577"><ele>185.0</ele><time>2026-04-23T14:10:23.183Z</time></trkpt><trkpt lat="45.5818916" lon="10.808304"><ele>185.66666666666666</ele><time>2026-04-23T14:10:24.184Z</time></trkpt><trkpt lat="45.5820569" lon="10.8083486"><ele>186.33333333333334</ele><time>2026-04-23T14:10:25.183Z</time></trkpt><trkpt lat="45.582218" lon="10.808397"><ele>187.0</ele><time>2026-04-23T14:10:26.182Z</time></trkpt><trkpt lat="45.5823712" lon="10.8084471"><ele>186.66666666666669</ele><time>2026-04-23T14:10:27.183Z</time></trkpt><trkpt lat="45.5825238" lon="10.808509"><ele>186.33333333333334</ele><time>2026-04-23T14:10:28.182Z</time></trkpt><trkpt lat="45.5826712" lon="10.8085836"><ele>186.0</ele><time>2026-04-23T14:10:29.183Z</time></trkpt><trkpt lat="45.582809" lon="10.8086681"><ele>185.75</ele><time>2026-04-23T14:10:30.183Z</time></trkpt><trkpt lat="45.5829339" lon="10.8087549"><ele>185.5</ele><time>2026-04-23T14:10:31.182Z</time></trkpt><trkpt lat="45.5830504" lon="10.808838"><ele>185.25</ele><time>2026-04-23T14:10:32.182Z</time></trkpt><trkpt lat="45.5831614" lon="10.8089195"><ele>185.0</ele><time>2026-04-23T14:10:33.183Z</time></trkpt><trkpt lat="45.5832635" lon="10.8089934"><ele>185.0</ele><time>2026-04-23T14:10:34.182Z</time></trkpt><trkpt lat="45.5833616" lon="10.809063"><ele>185.0</ele><time>2026-04-23T14:10:35.182Z</time></trkpt><trkpt lat="45.5834503" lon="10.80913"><ele>185.0</ele><time>2026-04-23T14:10:36.182Z</time></trkpt><trkpt lat="45.5835359" lon="10.8091945"><ele>185.0</ele><time>2026-04-23T14:10:37.182Z</time></trkpt><trkpt lat="45.5836127" lon="10.8092465"><ele>185.0</ele><time>2026-04-23T14:10:38.183Z</time></trkpt><trkpt lat="45.5836737" lon="10.8092913"><ele>185.0</ele><time>2026-04-23T14:10:39.183Z</time></trkpt><trkpt lat="45.583769" lon="10.8093664"><ele>185.0</ele><time>2026-04-23T14:10:41.182Z</time></trkpt><trkpt lat="45.5838454" lon="10.809422"><ele>185.0</ele><time>2026-04-23T14:10:43.182Z</time></trkpt><trkpt lat="45.5839098" lon="10.8094667"><ele>185.0</ele><time>2026-04-23T14:10:45.182Z</time></trkpt><trkpt lat="45.5839981" lon="10.8095129"><ele>185.0</ele><time>2026-04-23T14:11:26.183Z</time></trkpt><trkpt lat="45.5840712" lon="10.8095614"><ele>185.0</ele><time>2026-04-23T14:11:28.183Z</time></trkpt><trkpt lat="45.5841779" lon="10.8096475"><ele>185.0</ele><time>2026-04-23T14:11:30.182Z</time></trkpt><trkpt lat="45.5842443" lon="10.809697"><ele>185.0</ele><time>2026-04-23T14:11:31.182Z</time></trkpt><trkpt lat="45.5843037" lon="10.8097381"><ele>185.0</ele><time>2026-04-23T14:11:32.183Z</time></trkpt><trkpt lat="45.584415" lon="10.8098271"><ele>185.0</ele><time>2026-04-23T14:11:34.183Z</time></trkpt><trkpt lat="45.5844722" lon="10.8098847"><ele>185.0</ele><time>2026-04-23T14:11:35.183Z</time></trkpt><trkpt lat="45.5845224" lon="10.8099491"><ele>185.0</ele><time>2026-04-23T14:11:36.183Z</time></trkpt><trkpt lat="45.5845648" lon="10.8100237"><ele>185.5</ele><time>2026-04-23T14:11:37.184Z</time></trkpt><trkpt lat="45.5846009" lon="10.8101047"><ele>186.0</ele><time>2026-04-23T14:11:38.183Z</time></trkpt><trkpt lat="45.5846238" lon="10.8101916"><ele>186.5</ele><time>2026-04-23T14:11:39.182Z</time></trkpt><trkpt lat="45.5846351" lon="10.8103728"><ele>187.0</ele><time>2026-04-23T14:11:41.183Z</time></trkpt><trkpt lat="45.5846368" lon="10.8104783"><ele>187.5</ele><time>2026-04-23T14:11:42.183Z</time></trkpt><trkpt lat="45.5846351" lon="10.8105877"><ele>188.0</ele><time>2026-04-23T14:11:43.183Z</time></trkpt><trkpt lat="45.5846379" lon="10.8107052"><ele>188.0</ele><time>2026-04-23T14:11:44.183Z</time></trkpt><trkpt lat="45.5846456" lon="10.8108266"><ele>188.0</ele><time>2026-04-23T14:11:45.182Z</time></trkpt><trkpt lat="45.5846469" lon="10.8109525"><ele>188.0</ele><time>2026-04-23T14:11:46.183Z</time></trkpt><trkpt lat="45.5846422" lon="10.8110942"><ele>188.0</ele><time>2026-04-23T14:11:47.183Z</time></trkpt><trkpt lat="45.5846319" lon="10.8112512"><ele>188.0</ele><time>2026-04-23T14:11:48.184Z</time></trkpt><trkpt lat="45.5846163" lon="10.8114122"><ele>188.0</ele><time>2026-04-23T14:11:49.183Z</time></trkpt><trkpt lat="45.5845968" lon="10.8115761"><ele>188.0</ele><time>2026-04-23T14:11:50.182Z</time></trkpt><trkpt lat="45.5845737" lon="10.8117389"><ele>188.0</ele><time>2026-04-23T14:11:51.182Z</time></trkpt><trkpt lat="45.5845473" lon="10.8119125"><ele>188.0</ele><time>2026-04-23T14:11:52.183Z</time></trkpt><trkpt lat="45.5845203" lon="10.8120959"><ele>187.5</ele><time>2026-04-23T14:11:53.183Z</time></trkpt><trkpt lat="45.5844948" lon="10.8122909"><ele>187.0</ele><time>2026-04-23T14:11:54.182Z</time></trkpt><trkpt lat="45.5844712" lon="10.8124912"><ele>186.5</ele><time>2026-04-23T14:11:55.182Z</time></trkpt><trkpt lat="45.5844579" lon="10.812695"><ele>186.0</ele><time>2026-04-23T14:11:56.183Z</time></trkpt><trkpt lat="45.5844619" lon="10.8129027"><ele>185.66666666666666</ele><time>2026-04-23T14:11:57.183Z</time></trkpt><trkpt lat="45.5844887" lon="10.8131145"><ele>185.33333333333331</ele><time>2026-04-23T14:11:58.182Z</time></trkpt><trkpt lat="45.5845356" lon="10.8133271"><ele>185.0</ele><time>2026-04-23T14:11:59.183Z</time></trkpt><trkpt lat="45.58459" lon="10.8135295"><ele>185.0</ele><time>2026-04-23T14:12:00.183Z</time></trkpt><trkpt lat="45.5846469" lon="10.8137241"><ele>185.0</ele><time>2026-04-23T14:12:01.183Z</time></trkpt><trkpt lat="45.5847066" lon="10.8139098"><ele>185.0</ele><time>2026-04-23T14:12:02.184Z</time></trkpt><trkpt lat="45.5847633" lon="10.8140932"><ele>185.0</ele><time>2026-04-23T14:12:03.183Z</time></trkpt><trkpt lat="45.5848181" lon="10.8142777"><ele>184.0</ele><time>2026-04-23T14:12:04.182Z</time></trkpt><trkpt lat="45.5848736" lon="10.8144589"><ele>183.0</ele><time>2026-04-23T14:12:05.183Z</time></trkpt><trkpt lat="45.5849211" lon="10.8146383"><ele>182.0</ele><time>2026-04-23T14:12:06.182Z</time></trkpt><trkpt lat="45.584948" lon="10.8148095"><ele>181.0</ele><time>2026-04-23T14:12:07.183Z</time></trkpt><trkpt lat="45.5849488" lon="10.8149788"><ele>181.0</ele><time>2026-04-23T14:12:08.183Z</time></trkpt><trkpt lat="45.584934" lon="10.8151463"><ele>181.0</ele><time>2026-04-23T14:12:09.182Z</time></trkpt><trkpt lat="45.5849111" lon="10.8153169"><ele>181.0</ele><time>2026-04-23T14:12:10.183Z</time></trkpt><trkpt lat="45.5848845" lon="10.815491"><ele>181.0</ele><time>2026-04-23T14:12:11.184Z</time></trkpt><trkpt lat="45.5848501" lon="10.8156647"><ele>181.0</ele><time>2026-04-23T14:12:12.182Z</time></trkpt><trkpt lat="45.5847989" lon="10.8158375"><ele>181.0</ele><time>2026-04-23T14:12:13.183Z</time></trkpt><trkpt lat="45.5847258" lon="10.8160067"><ele>181.0</ele><time>2026-04-23T14:12:14.183Z</time></trkpt><trkpt lat="45.584639" lon="10.8161729"><ele>181.0</ele><time>2026-04-23T14:12:15.184Z</time></trkpt><trkpt lat="45.5845503" lon="10.8163362"><ele>179.0</ele><time>2026-04-23T14:12:16.183Z</time></trkpt><trkpt lat="45.5844586" lon="10.816491"><ele>177.0</ele><time>2026-04-23T14:12:17.183Z</time></trkpt><trkpt lat="45.5843715" lon="10.816641"><ele>175.0</ele><time>2026-04-23T14:12:18.182Z</time></trkpt><trkpt lat="45.5842906" lon="10.8167889"><ele>173.0</ele><time>2026-04-23T14:12:19.183Z</time></trkpt><trkpt lat="45.5842236" lon="10.8169416"><ele>173.0</ele><time>2026-04-23T14:12:20.182Z</time></trkpt><trkpt lat="45.5841786" lon="10.8171059"><ele>173.0</ele><time>2026-04-23T14:12:21.182Z</time></trkpt><trkpt lat="45.5841586" lon="10.8172927"><ele>173.0</ele><time>2026-04-23T14:12:22.184Z</time></trkpt><trkpt lat="45.5841612" lon="10.8174901"><ele>173.0</ele><time>2026-04-23T14:12:23.183Z</time></trkpt><trkpt lat="45.5841664" lon="10.8176884"><ele>171.75</ele><time>2026-04-23T14:12:24.182Z</time></trkpt><trkpt lat="45.5841615" lon="10.8178842"><ele>170.5</ele><time>2026-04-23T14:12:25.183Z</time></trkpt><trkpt lat="45.5841478" lon="10.8180742"><ele>169.25</ele><time>2026-04-23T14:12:26.182Z</time></trkpt><trkpt lat="45.584132" lon="10.8182641"><ele>168.0</ele><time>2026-04-23T14:12:27.183Z</time></trkpt><trkpt lat="45.5841164" lon="10.8184527"><ele>167.25</ele><time>2026-04-23T14:12:28.182Z</time></trkpt><trkpt lat="45.5840974" lon="10.8186423"><ele>166.5</ele><time>2026-04-23T14:12:29.183Z</time></trkpt><trkpt lat="45.5840854" lon="10.8188269"><ele>165.75</ele><time>2026-04-23T14:12:30.183Z</time></trkpt><trkpt lat="45.5840953" lon="10.8190084"><ele>165.0</ele><time>2026-04-23T14:12:31.182Z</time></trkpt><trkpt lat="45.5841166" lon="10.8191841"><ele>164.2</ele><time>2026-04-23T14:12:32.183Z</time></trkpt><trkpt lat="45.5841456" lon="10.8193535"><ele>163.4</ele><time>2026-04-23T14:12:33.184Z</time></trkpt><trkpt lat="45.5841745" lon="10.8195203"><ele>162.60000000000002</ele><time>2026-04-23T14:12:34.182Z</time></trkpt><trkpt lat="45.5842059" lon="10.8196738"><ele>161.8</ele><time>2026-04-23T14:12:35.183Z</time></trkpt><trkpt lat="45.58423" lon="10.8197948"><ele>161.0</ele><time>2026-04-23T14:12:36.183Z</time></trkpt><trkpt lat="45.5842524" lon="10.8199034"><ele>161.0</ele><time>2026-04-23T14:12:37.183Z</time></trkpt><trkpt lat="45.5842723" lon="10.8200005"><ele>161.0</ele><time>2026-04-23T14:12:38.183Z</time></trkpt><trkpt lat="45.5842854" lon="10.8200966"><ele>161.0</ele><time>2026-04-23T14:12:39.182Z</time></trkpt><trkpt lat="45.5842747" lon="10.8201902"><ele>161.0</ele><time>2026-04-23T14:12:40.182Z</time></trkpt><trkpt lat="45.5842366" lon="10.8202631"><ele>161.0</ele><time>2026-04-23T14:12:41.183Z</time></trkpt><trkpt lat="45.5841258" lon="10.8203103"><ele>161.0</ele><time>2026-04-23T14:12:43.184Z</time></trkpt><trkpt lat="45.5840214" lon="10.8202077"><ele>161.0</ele><time>2026-04-23T14:12:45.182Z</time></trkpt><trkpt lat="45.5839728" lon="10.8201187"><ele>161.0</ele><time>2026-04-23T14:12:46.183Z</time></trkpt><trkpt lat="45.583918" lon="10.8200106"><ele>161.0</ele><time>2026-04-23T14:12:47.182Z</time></trkpt><trkpt lat="45.5838585" lon="10.819891"><ele>161.0</ele><time>2026-04-23T14:12:48.183Z</time></trkpt><trkpt lat="45.5837956" lon="10.8197516"><ele>161.0</ele><time>2026-04-23T14:12:49.184Z</time></trkpt><trkpt lat="45.5837493" lon="10.8195902"><ele>161.0</ele><time>2026-04-23T14:12:50.184Z</time></trkpt><trkpt lat="45.5837178" lon="10.8194159"><ele>161.0</ele><time>2026-04-23T14:12:51.183Z</time></trkpt><trkpt lat="45.5836966" lon="10.8192493"><ele>161.0</ele><time>2026-04-23T14:12:52.182Z</time></trkpt><trkpt lat="45.5836751" lon="10.8190921"><ele>161.0</ele><time>2026-04-23T14:12:53.182Z</time></trkpt><trkpt lat="45.5836527" lon="10.8189436"><ele>158.5</ele><time>2026-04-23T14:12:54.182Z</time></trkpt><trkpt lat="45.5836324" lon="10.8188094"><ele>156.0</ele><time>2026-04-23T14:12:55.182Z</time></trkpt><trkpt lat="45.5836035" lon="10.8186917"><ele>153.5</ele><time>2026-04-23T14:12:56.182Z</time></trkpt><trkpt lat="45.5835637" lon="10.8185903"><ele>151.0</ele><time>2026-04-23T14:12:57.183Z</time></trkpt><trkpt lat="45.5835067" lon="10.818516"><ele>148.5</ele><time>2026-04-23T14:12:58.183Z</time></trkpt><trkpt lat="45.5834348" lon="10.8184793"><ele>146.0</ele><time>2026-04-23T14:12:59.182Z</time></trkpt><trkpt lat="45.5833614" lon="10.8184842"><ele>146.0</ele><time>2026-04-23T14:13:00.183Z</time></trkpt><trkpt lat="45.5832972" lon="10.8185322"><ele>146.0</ele><time>2026-04-23T14:13:01.183Z</time></trkpt><trkpt lat="45.5832494" lon="10.8186186"><ele>146.0</ele><time>2026-04-23T14:13:02.182Z</time></trkpt><trkpt lat="45.5832298" lon="10.8187333"><ele>146.0</ele><time>2026-04-23T14:13:03.182Z</time></trkpt><trkpt lat="45.5832389" lon="10.81886"><ele>146.0</ele><time>2026-04-23T14:13:04.182Z</time></trkpt><trkpt lat="45.583262" lon="10.8189891"><ele>146.0</ele><time>2026-04-23T14:13:05.182Z</time></trkpt><trkpt lat="45.58328" lon="10.8191174"><ele>146.0</ele><time>2026-04-23T14:13:06.182Z</time></trkpt><trkpt lat="45.5832907" lon="10.8192441"><ele>146.0</ele><time>2026-04-23T14:13:07.182Z</time></trkpt><trkpt lat="45.5832912" lon="10.8193707"><ele>146.0</ele><time>2026-04-23T14:13:08.182Z</time></trkpt><trkpt lat="45.5832783" lon="10.8195072"><ele>146.0</ele><time>2026-04-23T14:13:09.182Z</time></trkpt><trkpt lat="45.5832511" lon="10.8196489"><ele>146.0</ele><time>2026-04-23T14:13:10.184Z</time></trkpt><trkpt lat="45.5832084" lon="10.8197845"><ele>144.6</ele><time>2026-04-23T14:13:11.183Z</time></trkpt><trkpt lat="45.5831463" lon="10.8199107"><ele>143.2</ele><time>2026-04-23T14:13:12.183Z</time></trkpt><trkpt lat="45.583074" lon="10.8200244"><ele>141.8</ele><time>2026-04-23T14:13:13.183Z</time></trkpt><trkpt lat="45.5829975" lon="10.8201352"><ele>140.4</ele><time>2026-04-23T14:13:14.183Z</time></trkpt><trkpt lat="45.5829392" lon="10.8202519"><ele>139.0</ele><time>2026-04-23T14:13:15.183Z</time></trkpt><trkpt lat="45.5829072" lon="10.8203803"><ele>138.2</ele><time>2026-04-23T14:13:16.183Z</time></trkpt><trkpt lat="45.5828813" lon="10.8205124"><ele>137.4</ele><time>2026-04-23T14:13:17.182Z</time></trkpt><trkpt lat="45.5828629" lon="10.8206536"><ele>136.6</ele><time>2026-04-23T14:13:18.183Z</time></trkpt><trkpt lat="45.5828505" lon="10.820806"><ele>135.8</ele><time>2026-04-23T14:13:19.183Z</time></trkpt><trkpt lat="45.5828493" lon="10.8209789"><ele>135.0</ele><time>2026-04-23T14:13:20.182Z</time></trkpt><trkpt lat="45.5828639" lon="10.82116"><ele>133.0</ele><time>2026-04-23T14:13:21.183Z</time></trkpt><trkpt lat="45.5828938" lon="10.8213635"><ele>131.0</ele><time>2026-04-23T14:13:22.183Z</time></trkpt><trkpt lat="45.5829303" lon="10.8215824"><ele>129.0</ele><time>2026-04-23T14:13:23.183Z</time></trkpt><trkpt lat="45.5829662" lon="10.8217941"><ele>127.5</ele><time>2026-04-23T14:13:24.182Z</time></trkpt><trkpt lat="45.5829989" lon="10.8220051"><ele>126.0</ele><time>2026-04-23T14:13:25.183Z</time></trkpt><trkpt lat="45.5830303" lon="10.8222138"><ele>124.5</ele><time>2026-04-23T14:13:26.182Z</time></trkpt><trkpt lat="45.5830635" lon="10.8224184"><ele>123.0</ele><time>2026-04-23T14:13:27.182Z</time></trkpt><trkpt lat="45.5830968" lon="10.8226082"><ele>122.25</ele><time>2026-04-23T14:13:28.184Z</time></trkpt><trkpt lat="45.5831256" lon="10.8227839"><ele>121.5</ele><time>2026-04-23T14:13:29.182Z</time></trkpt><trkpt lat="45.5831537" lon="10.8229516"><ele>120.75</ele><time>2026-04-23T14:13:30.183Z</time></trkpt><trkpt lat="45.5831831" lon="10.823102"><ele>120.0</ele><time>2026-04-23T14:13:31.182Z</time></trkpt><trkpt lat="45.583214" lon="10.823237"><ele>120.0</ele><time>2026-04-23T14:13:32.184Z</time></trkpt><trkpt lat="45.5832605" lon="10.8233536"><ele>120.0</ele><time>2026-04-23T14:13:33.183Z</time></trkpt><trkpt lat="45.5833294" lon="10.823448"><ele>120.0</ele><time>2026-04-23T14:13:34.182Z</time></trkpt><trkpt lat="45.5834091" lon="10.8235141"><ele>120.0</ele><time>2026-04-23T14:13:35.182Z</time></trkpt><trkpt lat="45.5834939" lon="10.8235584"><ele>120.0</ele><time>2026-04-23T14:13:36.182Z</time></trkpt><trkpt lat="45.5835824" lon="10.8235911"><ele>117.8</ele><time>2026-04-23T14:13:37.184Z</time></trkpt><trkpt lat="45.5836822" lon="10.8236149"><ele>115.6</ele><time>2026-04-23T14:13:38.183Z</time></trkpt><trkpt lat="45.58379" lon="10.8236461"><ele>113.4</ele><time>2026-04-23T14:13:39.182Z</time></trkpt><trkpt lat="45.5838982" lon="10.8236791"><ele>111.2</ele><time>2026-04-23T14:13:40.183Z</time></trkpt><trkpt lat="45.5840093" lon="10.8237093"><ele>109.0</ele><time>2026-04-23T14:13:41.182Z</time></trkpt><trkpt lat="45.5841261" lon="10.8237387"><ele>109.0</ele><time>2026-04-23T14:13:42.183Z</time></trkpt><trkpt lat="45.5842424" lon="10.8237745"><ele>109.0</ele><time>2026-04-23T14:13:43.182Z</time></trkpt><trkpt lat="45.5843567" lon="10.823822"><ele>109.0</ele><time>2026-04-23T14:13:44.183Z</time></trkpt><trkpt lat="45.5844627" lon="10.823895"><ele>109.0</ele><time>2026-04-23T14:13:45.184Z</time></trkpt><trkpt lat="45.5845489" lon="10.8240089"><ele>116.25</ele><time>2026-04-23T14:13:46.182Z</time></trkpt><trkpt lat="45.5846167" lon="10.8241521"><ele>123.5</ele><time>2026-04-23T14:13:47.182Z</time></trkpt><trkpt lat="45.5846827" lon="10.8243144"><ele>130.75</ele><time>2026-04-23T14:13:48.183Z</time></trkpt><trkpt lat="45.5847482" lon="10.8244918"><ele>138.0</ele><time>2026-04-23T14:13:49.183Z</time></trkpt><trkpt lat="45.5848156" lon="10.8246823"><ele>138.0</ele><time>2026-04-23T14:13:50.182Z</time></trkpt><trkpt lat="45.5848871" lon="10.8248785"><ele>138.0</ele><time>2026-04-23T14:13:51.184Z</time></trkpt><trkpt lat="45.5849576" lon="10.8250708"><ele>138.0</ele><time>2026-04-23T14:13:52.183Z</time></trkpt><trkpt lat="45.5850242" lon="10.8252649"><ele>129.0</ele><time>2026-04-23T14:13:53.183Z</time></trkpt><trkpt lat="45.5850918" lon="10.8254603"><ele>120.0</ele><time>2026-04-23T14:13:54.183Z</time></trkpt><trkpt lat="45.5851606" lon="10.8256514"><ele>111.0</ele><time>2026-04-23T14:13:55.183Z</time></trkpt><trkpt lat="45.5852322" lon="10.8258515"><ele>108.0</ele><time>2026-04-23T14:13:56.182Z</time></trkpt><trkpt lat="45.5853048" lon="10.8260508"><ele>105.0</ele><time>2026-04-23T14:13:57.182Z</time></trkpt><trkpt lat="45.5853743" lon="10.826249"><ele>102.0</ele><time>2026-04-23T14:13:58.182Z</time></trkpt><trkpt lat="45.5854316" lon="10.8264446"><ele>106.0</ele><time>2026-04-23T14:13:59.183Z</time></trkpt><trkpt lat="45.5854677" lon="10.8266419"><ele>110.0</ele><time>2026-04-23T14:14:00.183Z</time></trkpt><trkpt lat="45.5854918" lon="10.8268456"><ele>114.0</ele><time>2026-04-23T14:14:01.183Z</time></trkpt><trkpt lat="45.5854946" lon="10.8270558"><ele>118.0</ele><time>2026-04-23T14:14:02.183Z</time></trkpt><trkpt lat="45.5854756" lon="10.8272699"><ele>118.0</ele><time>2026-04-23T14:14:03.183Z</time></trkpt><trkpt lat="45.5854371" lon="10.8274837"><ele>118.0</ele><time>2026-04-23T14:14:04.183Z</time></trkpt><trkpt lat="45.5853787" lon="10.8276876"><ele>118.0</ele><time>2026-04-23T14:14:05.183Z</time></trkpt><trkpt lat="45.5853051" lon="10.8278894"><ele>112.0</ele><time>2026-04-23T14:14:06.183Z</time></trkpt><trkpt lat="45.5852239" lon="10.8280932"><ele>106.0</ele><time>2026-04-23T14:14:07.183Z</time></trkpt><trkpt lat="45.5851393" lon="10.8282996"><ele>100.0</ele><time>2026-04-23T14:14:08.184Z</time></trkpt><trkpt lat="45.5850544" lon="10.8285129"><ele>100.0</ele><time>2026-04-23T14:14:09.183Z</time></trkpt><trkpt lat="45.5849674" lon="10.8287279"><ele>100.0</ele><time>2026-04-23T14:14:10.183Z</time></trkpt><trkpt lat="45.584876" lon="10.8289523"><ele>100.0</ele><time>2026-04-23T14:14:11.184Z</time></trkpt><trkpt lat="45.5847853" lon="10.829171"><ele>100.66666666666667</ele><time>2026-04-23T14:14:12.182Z</time></trkpt><trkpt lat="45.5847009" lon="10.829378"><ele>101.33333333333334</ele><time>2026-04-23T14:14:13.184Z</time></trkpt><trkpt lat="45.5846231" lon="10.8295709"><ele>102.0</ele><time>2026-04-23T14:14:14.182Z</time></trkpt><trkpt lat="45.5845383" lon="10.8297679"><ele>101.25</ele><time>2026-04-23T14:14:15.182Z</time></trkpt><trkpt lat="45.5844612" lon="10.8299467"><ele>100.5</ele><time>2026-04-23T14:14:16.182Z</time></trkpt><trkpt lat="45.5844281" lon="10.8300711"><ele>99.75</ele><time>2026-04-23T14:14:17.183Z</time></trkpt><trkpt lat="45.5843888" lon="10.8302278"><ele>99.0</ele><time>2026-04-23T14:14:18.183Z</time></trkpt><trkpt lat="45.5843606" lon="10.8304002"><ele>98.75</ele><time>2026-04-23T14:14:19.184Z</time></trkpt><trkpt lat="45.5843482" lon="10.8305797"><ele>98.5</ele><time>2026-04-23T14:14:20.182Z</time></trkpt><trkpt lat="45.5843475" lon="10.8307636"><ele>98.25</ele><time>2026-04-23T14:14:21.184Z</time></trkpt><trkpt lat="45.584372" lon="10.8309472"><ele>98.0</ele><time>2026-04-23T14:14:22.182Z</time></trkpt><trkpt lat="45.5844142" lon="10.8311227"><ele>98.5</ele><time>2026-04-23T14:14:23.184Z</time></trkpt><trkpt lat="45.584476" lon="10.8312916"><ele>99.0</ele><time>2026-04-23T14:14:24.183Z</time></trkpt><trkpt lat="45.5845596" lon="10.8314506"><ele>99.5</ele><time>2026-04-23T14:14:25.182Z</time></trkpt><trkpt lat="45.584662" lon="10.8315995"><ele>100.0</ele><time>2026-04-23T14:14:26.183Z</time></trkpt><trkpt lat="45.5847834" lon="10.8317404"><ele>100.33333333333334</ele><time>2026-04-23T14:14:27.182Z</time></trkpt><trkpt lat="45.5849135" lon="10.8318854"><ele>100.66666666666666</ele><time>2026-04-23T14:14:28.183Z</time></trkpt><trkpt lat="45.5850496" lon="10.8320343"><ele>101.0</ele><time>2026-04-23T14:14:29.183Z</time></trkpt><trkpt lat="45.585191" lon="10.832186"><ele>101.0</ele><time>2026-04-23T14:14:30.182Z</time></trkpt><trkpt lat="45.5853379" lon="10.8323447"><ele>101.0</ele><time>2026-04-23T14:14:31.183Z</time></trkpt><trkpt lat="45.5854868" lon="10.832506"><ele>101.0</ele><time>2026-04-23T14:14:32.183Z</time></trkpt><trkpt lat="45.5856428" lon="10.8326695"><ele>100.66666666666666</ele><time>2026-04-23T14:14:33.183Z</time></trkpt><trkpt lat="45.5858049" lon="10.8328396"><ele>100.33333333333334</ele><time>2026-04-23T14:14:34.183Z</time></trkpt><trkpt lat="45.5859724" lon="10.8330173"><ele>100.0</ele><time>2026-04-23T14:14:35.183Z</time></trkpt><trkpt lat="45.5861397" lon="10.833201"><ele>101.0</ele><time>2026-04-23T14:14:36.183Z</time></trkpt><trkpt lat="45.5863032" lon="10.8333785"><ele>102.0</ele><time>2026-04-23T14:14:37.183Z</time></trkpt><trkpt lat="45.5864751" lon="10.8335611"><ele>103.0</ele><time>2026-04-23T14:14:38.183Z</time></trkpt><trkpt lat="45.5866569" lon="10.8337534"><ele>103.33333333333334</ele><time>2026-04-23T14:14:39.183Z</time></trkpt><trkpt lat="45.5868409" lon="10.8339465"><ele>103.66666666666666</ele><time>2026-04-23T14:14:40.183Z</time></trkpt><trkpt lat="45.587016" lon="10.8341324"><ele>104.0</ele><time>2026-04-23T14:14:41.183Z</time></trkpt><trkpt lat="45.5871882" lon="10.8343171"><ele>103.33333333333333</ele><time>2026-04-23T14:14:42.183Z</time></trkpt><trkpt lat="45.5873614" lon="10.8345015"><ele>102.66666666666666</ele><time>2026-04-23T14:14:43.182Z</time></trkpt><trkpt lat="45.5875289" lon="10.8346815"><ele>102.0</ele><time>2026-04-23T14:14:44.182Z</time></trkpt><trkpt lat="45.5877" lon="10.8348606"><ele>102.0</ele><time>2026-04-23T14:14:45.182Z</time></trkpt><trkpt lat="45.5878787" lon="10.83503"><ele>102.0</ele><time>2026-04-23T14:14:46.182Z</time></trkpt><trkpt lat="45.5880648" lon="10.8351853"><ele>102.0</ele><time>2026-04-23T14:14:47.182Z</time></trkpt><trkpt lat="45.5882525" lon="10.8353362"><ele>102.0</ele><time>2026-04-23T14:14:48.182Z</time></trkpt><trkpt lat="45.5884425" lon="10.8354886"><ele>102.0</ele><time>2026-04-23T14:14:49.182Z</time></trkpt><trkpt lat="45.5886325" lon="10.8356489"><ele>102.0</ele><time>2026-04-23T14:14:50.183Z</time></trkpt><trkpt lat="45.5888253" lon="10.8358065"><ele>102.0</ele><time>2026-04-23T14:14:51.183Z</time></trkpt><trkpt lat="45.5890212" lon="10.8359604"><ele>102.0</ele><time>2026-04-23T14:14:52.182Z</time></trkpt><trkpt lat="45.5892181" lon="10.8361178"><ele>102.0</ele><time>2026-04-23T14:14:53.182Z</time></trkpt><trkpt lat="45.5894097" lon="10.8362723"><ele>102.66666666666666</ele><time>2026-04-23T14:14:54.182Z</time></trkpt><trkpt lat="45.5895958" lon="10.836422"><ele>103.33333333333333</ele><time>2026-04-23T14:14:55.183Z</time></trkpt><trkpt lat="45.5897832" lon="10.8365672"><ele>104.0</ele><time>2026-04-23T14:14:56.182Z</time></trkpt><trkpt lat="45.5899766" lon="10.8366968"><ele>104.0</ele><time>2026-04-23T14:14:57.183Z</time></trkpt><trkpt lat="45.5901745" lon="10.8367988"><ele>104.0</ele><time>2026-04-23T14:14:58.182Z</time></trkpt><trkpt lat="45.5903789" lon="10.8368806"><ele>104.0</ele><time>2026-04-23T14:14:59.184Z</time></trkpt><trkpt lat="45.5905769" lon="10.836958"><ele>105.33333333333333</ele><time>2026-04-23T14:15:00.182Z</time></trkpt><trkpt lat="45.590758" lon="10.8370305"><ele>106.66666666666666</ele><time>2026-04-23T14:15:01.183Z</time></trkpt><trkpt lat="45.5909262" lon="10.8370926"><ele>108.0</ele><time>2026-04-23T14:15:02.182Z</time></trkpt><trkpt lat="45.591086" lon="10.8371491"><ele>111.33333333333334</ele><time>2026-04-23T14:15:03.183Z</time></trkpt><trkpt lat="45.591238" lon="10.8372104"><ele>114.66666666666667</ele><time>2026-04-23T14:15:04.182Z</time></trkpt><trkpt lat="45.5913901" lon="10.8372717"><ele>118.0</ele><time>2026-04-23T14:15:05.182Z</time></trkpt><trkpt lat="45.5915381" lon="10.8373256"><ele>118.0</ele><time>2026-04-23T14:15:06.183Z</time></trkpt><trkpt lat="45.5916859" lon="10.8373847"><ele>118.0</ele><time>2026-04-23T14:15:07.184Z</time></trkpt><trkpt lat="45.5918332" lon="10.8374509"><ele>118.0</ele><time>2026-04-23T14:15:08.182Z</time></trkpt><trkpt lat="45.5919791" lon="10.8375241"><ele>120.33333333333334</ele><time>2026-04-23T14:15:09.182Z</time></trkpt><trkpt lat="45.592123" lon="10.8376037"><ele>122.66666666666666</ele><time>2026-04-23T14:15:10.183Z</time></trkpt><trkpt lat="45.5922631" lon="10.8376868"><ele>125.0</ele><time>2026-04-23T14:15:11.182Z</time></trkpt><trkpt lat="45.592402" lon="10.8377715"><ele>125.66666666666666</ele><time>2026-04-23T14:15:12.183Z</time></trkpt><trkpt lat="45.5925429" lon="10.837858"><ele>126.33333333333334</ele><time>2026-04-23T14:15:13.182Z</time></trkpt><trkpt lat="45.5926848" lon="10.8379452"><ele>127.0</ele><time>2026-04-23T14:15:14.182Z</time></trkpt><trkpt lat="45.5928299" lon="10.838035"><ele>126.66666666666667</ele><time>2026-04-23T14:15:15.182Z</time></trkpt><trkpt lat="45.5929761" lon="10.8381204"><ele>126.33333333333334</ele><time>2026-04-23T14:15:16.183Z</time></trkpt><trkpt lat="45.5931248" lon="10.8382108"><ele>126.0</ele><time>2026-04-23T14:15:17.183Z</time></trkpt><trkpt lat="45.5932741" lon="10.8383056"><ele>126.0</ele><time>2026-04-23T14:15:18.182Z</time></trkpt><trkpt lat="45.5934303" lon="10.8384005"><ele>126.0</ele><time>2026-04-23T14:15:19.182Z</time></trkpt><trkpt lat="45.5935887" lon="10.8384954"><ele>126.0</ele><time>2026-04-23T14:15:20.183Z</time></trkpt><trkpt lat="45.5937522" lon="10.8385928"><ele>127.0</ele><time>2026-04-23T14:15:21.182Z</time></trkpt><trkpt lat="45.5939181" lon="10.8386934"><ele>128.0</ele><time>2026-04-23T14:15:22.183Z</time></trkpt><trkpt lat="45.5940896" lon="10.8387975"><ele>129.0</ele><time>2026-04-23T14:15:23.184Z</time></trkpt><trkpt lat="45.5942654" lon="10.838906"><ele>129.0</ele><time>2026-04-23T14:15:24.183Z</time></trkpt><trkpt lat="45.5944458" lon="10.8390177"><ele>129.0</ele><time>2026-04-23T14:15:25.183Z</time></trkpt><trkpt lat="45.5946303" lon="10.8391322"><ele>129.0</ele><time>2026-04-23T14:15:26.182Z</time></trkpt><trkpt lat="45.5948169" lon="10.8392527"><ele>128.66666666666666</ele><time>2026-04-23T14:15:27.182Z</time></trkpt><trkpt lat="45.5950084" lon="10.8393794"><ele>128.33333333333331</ele><time>2026-04-23T14:15:28.182Z</time></trkpt><trkpt lat="45.5951985" lon="10.8395097"><ele>128.0</ele><time>2026-04-23T14:15:29.183Z</time></trkpt><trkpt lat="45.5953874" lon="10.8396415"><ele>128.0</ele><time>2026-04-23T14:15:30.182Z</time></trkpt><trkpt lat="45.5955683" lon="10.8397759"><ele>128.0</ele><time>2026-04-23T14:15:31.182Z</time></trkpt><trkpt lat="45.5957415" lon="10.8399137"><ele>128.0</ele><time>2026-04-23T14:15:32.182Z</time></trkpt><trkpt lat="45.5959079" lon="10.8400541"><ele>128.0</ele><time>2026-04-23T14:15:33.183Z</time></trkpt><trkpt lat="45.596067" lon="10.840189"><ele>128.0</ele><time>2026-04-23T14:15:34.183Z</time></trkpt><trkpt lat="45.5962206" lon="10.8403228"><ele>128.0</ele><time>2026-04-23T14:15:35.183Z</time></trkpt><trkpt lat="45.596366" lon="10.8404554"><ele>127.66666666666666</ele><time>2026-04-23T14:15:36.183Z</time></trkpt><trkpt lat="45.5965065" lon="10.840593"><ele>127.33333333333334</ele><time>2026-04-23T14:15:37.183Z</time></trkpt><trkpt lat="45.5966435" lon="10.8407343"><ele>127.0</ele><time>2026-04-23T14:15:38.183Z</time></trkpt><trkpt lat="45.5967684" lon="10.8408908"><ele>127.0</ele><time>2026-04-23T14:15:39.182Z</time></trkpt><trkpt lat="45.5968872" lon="10.8410684"><ele>127.0</ele><time>2026-04-23T14:15:40.183Z</time></trkpt><trkpt lat="45.5970045" lon="10.8412553"><ele>127.0</ele><time>2026-04-23T14:15:41.182Z</time></trkpt><trkpt lat="45.597122" lon="10.8414472"><ele>127.0</ele><time>2026-04-23T14:15:42.183Z</time></trkpt><trkpt lat="45.597238" lon="10.8416383"><ele>127.0</ele><time>2026-04-23T14:15:43.184Z</time></trkpt><trkpt lat="45.5973558" lon="10.8418333"><ele>127.0</ele><time>2026-04-23T14:15:44.183Z</time></trkpt><trkpt lat="45.5974716" lon="10.8420267"><ele>126.33333333333334</ele><time>2026-04-23T14:15:45.183Z</time></trkpt><trkpt lat="45.5975947" lon="10.8422117"><ele>125.66666666666666</ele><time>2026-04-23T14:15:46.183Z</time></trkpt><trkpt lat="45.5977308" lon="10.8423791"><ele>125.0</ele><time>2026-04-23T14:15:47.182Z</time></trkpt><trkpt lat="45.5978818" lon="10.8425306"><ele>123.66666666666666</ele><time>2026-04-23T14:15:48.183Z</time></trkpt><trkpt lat="45.5980436" lon="10.8426678"><ele>122.33333333333334</ele><time>2026-04-23T14:15:49.182Z</time></trkpt><trkpt lat="45.5982061" lon="10.8427946"><ele>121.0</ele><time>2026-04-23T14:15:50.182Z</time></trkpt><trkpt lat="45.5983681" lon="10.8429112"><ele>121.0</ele><time>2026-04-23T14:15:51.183Z</time></trkpt><trkpt lat="45.5985281" lon="10.8430206"><ele>121.0</ele><time>2026-04-23T14:15:52.182Z</time></trkpt><trkpt lat="45.5986829" lon="10.8431284"><ele>121.0</ele><time>2026-04-23T14:15:53.183Z</time></trkpt><trkpt lat="45.5988338" lon="10.8432344"><ele>122.0</ele><time>2026-04-23T14:15:54.182Z</time></trkpt><trkpt lat="45.5989838" lon="10.8433416"><ele>123.0</ele><time>2026-04-23T14:15:55.183Z</time></trkpt><trkpt lat="45.5991327" lon="10.8434508"><ele>124.0</ele><time>2026-04-23T14:15:56.182Z</time></trkpt><trkpt lat="45.5992806" lon="10.8435637"><ele>123.33333333333334</ele><time>2026-04-23T14:15:57.183Z</time></trkpt><trkpt lat="45.5994326" lon="10.8436761"><ele>122.66666666666666</ele><time>2026-04-23T14:15:58.182Z</time></trkpt><trkpt lat="45.5995884" lon="10.8437831"><ele>122.0</ele><time>2026-04-23T14:15:59.182Z</time></trkpt><trkpt lat="45.5997493" lon="10.8438853"><ele>122.0</ele><time>2026-04-23T14:16:00.184Z</time></trkpt><trkpt lat="45.5999125" lon="10.8439915"><ele>122.0</ele><time>2026-04-23T14:16:01.183Z</time></trkpt><trkpt lat="45.6000779" lon="10.8440977"><ele>122.0</ele><time>2026-04-23T14:16:02.182Z</time></trkpt><trkpt lat="45.6002373" lon="10.844206"><ele>120.66666666666666</ele><time>2026-04-23T14:16:03.183Z</time></trkpt><trkpt lat="45.600389" lon="10.8443248"><ele>119.33333333333334</ele><time>2026-04-23T14:16:04.183Z</time></trkpt><trkpt lat="45.6005353" lon="10.8444548"><ele>118.0</ele><time>2026-04-23T14:16:05.182Z</time></trkpt><trkpt lat="45.6006793" lon="10.844593"><ele>118.0</ele><time>2026-04-23T14:16:06.182Z</time></trkpt><trkpt lat="45.6008237" lon="10.8447405"><ele>118.0</ele><time>2026-04-23T14:16:07.183Z</time></trkpt><trkpt lat="45.6009774" lon="10.8448841"><ele>118.0</ele><time>2026-04-23T14:16:08.183Z</time></trkpt><trkpt lat="45.6011445" lon="10.8450217"><ele>118.33333333333334</ele><time>2026-04-23T14:16:09.183Z</time></trkpt><trkpt lat="45.6013204" lon="10.845162"><ele>118.66666666666666</ele><time>2026-04-23T14:16:10.183Z</time></trkpt><trkpt lat="45.6015067" lon="10.8453049"><ele>119.0</ele><time>2026-04-23T14:16:11.183Z</time></trkpt><trkpt lat="45.6017048" lon="10.8454479"><ele>119.0</ele><time>2026-04-23T14:16:12.182Z</time></trkpt><trkpt lat="45.601912" lon="10.8455923"><ele>119.0</ele><time>2026-04-23T14:16:13.182Z</time></trkpt><trkpt lat="45.6021291" lon="10.8457553"><ele>118.5</ele><time>2026-04-23T14:16:14.182Z</time></trkpt><trkpt lat="45.6023549" lon="10.8459361"><ele>118.0</ele><time>2026-04-23T14:16:15.182Z</time></trkpt><trkpt lat="45.6025795" lon="10.8461303"><ele>118.0</ele><time>2026-04-23T14:16:16.184Z</time></trkpt><trkpt lat="45.602792" lon="10.8463222"><ele>118.0</ele><time>2026-04-23T14:16:17.182Z</time></trkpt><trkpt lat="45.6029983" lon="10.8465077"><ele>117.0</ele><time>2026-04-23T14:16:18.183Z</time></trkpt><trkpt lat="45.6031968" lon="10.8466866"><ele>116.0</ele><time>2026-04-23T14:16:19.183Z</time></trkpt><trkpt lat="45.6033933" lon="10.8468572"><ele>116.5</ele><time>2026-04-23T14:16:20.183Z</time></trkpt><trkpt lat="45.6035852" lon="10.8470303"><ele>117.0</ele><time>2026-04-23T14:16:21.182Z</time></trkpt><trkpt lat="45.6037765" lon="10.8471986"><ele>117.0</ele><time>2026-04-23T14:16:22.182Z</time></trkpt><trkpt lat="45.6039692" lon="10.8473668"><ele>117.0</ele><time>2026-04-23T14:16:23.182Z</time></trkpt><trkpt lat="45.604163" lon="10.8475383"><ele>116.5</ele><time>2026-04-23T14:16:24.184Z</time></trkpt><trkpt lat="45.6043568" lon="10.847711"><ele>116.0</ele><time>2026-04-23T14:16:25.182Z</time></trkpt><trkpt lat="45.6045517" lon="10.8478818"><ele>116.0</ele><time>2026-04-23T14:16:26.182Z</time></trkpt><trkpt lat="45.6047439" lon="10.8480519"><ele>116.0</ele><time>2026-04-23T14:16:27.183Z</time></trkpt><trkpt lat="45.6049332" lon="10.8482182"><ele>116.0</ele><time>2026-04-23T14:16:28.183Z</time></trkpt><trkpt lat="45.6051189" lon="10.8483847"><ele>115.33333333333333</ele><time>2026-04-23T14:16:29.183Z</time></trkpt><trkpt lat="45.605306" lon="10.8485488"><ele>114.66666666666666</ele><time>2026-04-23T14:16:30.183Z</time></trkpt><trkpt lat="45.6054933" lon="10.8487117"><ele>114.0</ele><time>2026-04-23T14:16:31.184Z</time></trkpt><trkpt lat="45.6056807" lon="10.8488776"><ele>114.0</ele><time>2026-04-23T14:16:32.182Z</time></trkpt><trkpt lat="45.6058701" lon="10.8490485"><ele>114.0</ele><time>2026-04-23T14:16:33.182Z</time></trkpt><trkpt lat="45.6060631" lon="10.8492166"><ele>114.0</ele><time>2026-04-23T14:16:34.182Z</time></trkpt><trkpt lat="45.6062578" lon="10.8493852"><ele>114.0</ele><time>2026-04-23T14:16:35.182Z</time></trkpt><trkpt lat="45.6064541" lon="10.8495527"><ele>114.0</ele><time>2026-04-23T14:16:36.183Z</time></trkpt><trkpt lat="45.6066475" lon="10.8497171"><ele>114.0</ele><time>2026-04-23T14:16:37.183Z</time></trkpt><trkpt lat="45.6068408" lon="10.8498764"><ele>114.0</ele><time>2026-04-23T14:16:38.184Z</time></trkpt><trkpt lat="45.6070354" lon="10.8500268"><ele>113.33333333333334</ele><time>2026-04-23T14:16:39.183Z</time></trkpt><trkpt lat="45.6072365" lon="10.8501594"><ele>112.66666666666667</ele><time>2026-04-23T14:16:40.183Z</time></trkpt><trkpt lat="45.6074439" lon="10.8502744"><ele>112.0</ele><time>2026-04-23T14:16:41.182Z</time></trkpt><trkpt lat="45.6076547" lon="10.8503693"><ele>112.0</ele><time>2026-04-23T14:16:42.183Z</time></trkpt><trkpt lat="45.6078593" lon="10.8504619"><ele>112.0</ele><time>2026-04-23T14:16:43.183Z</time></trkpt><trkpt lat="45.6080559" lon="10.8505576"><ele>112.0</ele><time>2026-04-23T14:16:44.183Z</time></trkpt><trkpt lat="45.6082492" lon="10.8506472"><ele>112.0</ele><time>2026-04-23T14:16:45.183Z</time></trkpt><trkpt lat="45.6084396" lon="10.8507349"><ele>112.0</ele><time>2026-04-23T14:16:46.183Z</time></trkpt><trkpt lat="45.6086299" lon="10.850823"><ele>112.0</ele><time>2026-04-23T14:16:47.182Z</time></trkpt><trkpt lat="45.6088205" lon="10.8509108"><ele>112.33333333333334</ele><time>2026-04-23T14:16:48.183Z</time></trkpt><trkpt lat="45.6090064" lon="10.8509924"><ele>112.66666666666666</ele><time>2026-04-23T14:16:49.182Z</time></trkpt><trkpt lat="45.6091845" lon="10.8510742"><ele>113.0</ele><time>2026-04-23T14:16:50.183Z</time></trkpt><trkpt lat="45.6093572" lon="10.8511606"><ele>112.66666666666666</ele><time>2026-04-23T14:16:51.182Z</time></trkpt><trkpt lat="45.609527" lon="10.8512538"><ele>112.33333333333334</ele><time>2026-04-23T14:16:52.182Z</time></trkpt><trkpt lat="45.6096955" lon="10.8513635"><ele>112.0</ele><time>2026-04-23T14:16:53.183Z</time></trkpt><trkpt lat="45.609868" lon="10.8514853"><ele>112.0</ele><time>2026-04-23T14:16:54.183Z</time></trkpt><trkpt lat="45.6100441" lon="10.8516167"><ele>112.0</ele><time>2026-04-23T14:16:55.182Z</time></trkpt><trkpt lat="45.6102235" lon="10.8517482"><ele>112.0</ele><time>2026-04-23T14:16:56.182Z</time></trkpt><trkpt lat="45.6104054" lon="10.8518834"><ele>111.33333333333334</ele><time>2026-04-23T14:16:57.183Z</time></trkpt><trkpt lat="45.6105873" lon="10.852021"><ele>110.66666666666666</ele><time>2026-04-23T14:16:58.182Z</time></trkpt><trkpt lat="45.6107675" lon="10.852156"><ele>110.0</ele><time>2026-04-23T14:16:59.182Z</time></trkpt><trkpt lat="45.6109386" lon="10.8522838"><ele>110.0</ele><time>2026-04-23T14:17:00.182Z</time></trkpt><trkpt lat="45.6110939" lon="10.8524021"><ele>110.0</ele><time>2026-04-23T14:17:01.182Z</time></trkpt><trkpt lat="45.6112411" lon="10.8525042"><ele>110.0</ele><time>2026-04-23T14:17:02.183Z</time></trkpt><trkpt lat="45.6113908" lon="10.8525813"><ele>109.33333333333333</ele><time>2026-04-23T14:17:03.183Z</time></trkpt><trkpt lat="45.6115438" lon="10.8526195"><ele>108.66666666666666</ele><time>2026-04-23T14:17:04.183Z</time></trkpt><trkpt lat="45.6117027" lon="10.852616"><ele>108.0</ele><time>2026-04-23T14:17:05.183Z</time></trkpt><trkpt lat="45.6118619" lon="10.8525722"><ele>107.33333333333334</ele><time>2026-04-23T14:17:06.182Z</time></trkpt><trkpt lat="45.6120247" lon="10.8525087"><ele>106.66666666666667</ele><time>2026-04-23T14:17:07.182Z</time></trkpt><trkpt lat="45.6122003" lon="10.8524376"><ele>106.0</ele><time>2026-04-23T14:17:08.182Z</time></trkpt><trkpt lat="45.6123818" lon="10.8523638"><ele>106.0</ele><time>2026-04-23T14:17:09.183Z</time></trkpt><trkpt lat="45.6125699" lon="10.8522823"><ele>106.0</ele><time>2026-04-23T14:17:10.183Z</time></trkpt><trkpt lat="45.6127459" lon="10.8522042"><ele>106.0</ele><time>2026-04-23T14:17:11.182Z</time></trkpt><trkpt lat="45.6129192" lon="10.852125"><ele>104.66666666666667</ele><time>2026-04-23T14:17:12.182Z</time></trkpt><trkpt lat="45.6130905" lon="10.8520484"><ele>103.33333333333334</ele><time>2026-04-23T14:17:13.183Z</time></trkpt><trkpt lat="45.6132595" lon="10.8519728"><ele>102.0</ele><time>2026-04-23T14:17:14.183Z</time></trkpt><trkpt lat="45.6134291" lon="10.8519017"><ele>102.0</ele><time>2026-04-23T14:17:15.183Z</time></trkpt><trkpt lat="45.6136002" lon="10.8518375"><ele>102.0</ele><time>2026-04-23T14:17:16.183Z</time></trkpt><trkpt lat="45.6137753" lon="10.8518006"><ele>102.0</ele><time>2026-04-23T14:17:17.182Z</time></trkpt><trkpt lat="45.6139552" lon="10.8518048"><ele>102.0</ele><time>2026-04-23T14:17:18.184Z</time></trkpt><trkpt lat="45.6141384" lon="10.8518312"><ele>102.0</ele><time>2026-04-23T14:17:19.182Z</time></trkpt><trkpt lat="45.6143339" lon="10.8518429"><ele>102.0</ele><time>2026-04-23T14:17:20.183Z</time></trkpt><trkpt lat="45.6145375" lon="10.8518612"><ele>103.0</ele><time>2026-04-23T14:17:21.183Z</time></trkpt><trkpt lat="45.6147403" lon="10.85191"><ele>104.0</ele><time>2026-04-23T14:17:22.182Z</time></trkpt><trkpt lat="45.614926" lon="10.8519599"><ele>105.0</ele><time>2026-04-23T14:17:23.183Z</time></trkpt><trkpt lat="45.6151043" lon="10.8520087"><ele>105.0</ele><time>2026-04-23T14:17:24.182Z</time></trkpt><trkpt lat="45.6152826" lon="10.8520516"><ele>105.0</ele><time>2026-04-23T14:17:25.182Z</time></trkpt><trkpt lat="45.6154619" lon="10.8520935"><ele>105.0</ele><time>2026-04-23T14:17:26.182Z</time></trkpt><trkpt lat="45.6156436" lon="10.8521328"><ele>104.66666666666666</ele><time>2026-04-23T14:17:27.182Z</time></trkpt><trkpt lat="45.6158294" lon="10.8521698"><ele>104.33333333333333</ele><time>2026-04-23T14:17:28.183Z</time></trkpt><trkpt lat="45.6160127" lon="10.852201"><ele>104.0</ele><time>2026-04-23T14:17:29.183Z</time></trkpt><trkpt lat="45.6161957" lon="10.8522152"><ele>104.0</ele><time>2026-04-23T14:17:30.182Z</time></trkpt><trkpt lat="45.6163818" lon="10.8522307"><ele>104.0</ele><time>2026-04-23T14:17:31.183Z</time></trkpt><trkpt lat="45.616569" lon="10.8522534"><ele>104.0</ele><time>2026-04-23T14:17:32.182Z</time></trkpt><trkpt lat="45.6167549" lon="10.8522747"><ele>104.0</ele><time>2026-04-23T14:17:33.182Z</time></trkpt><trkpt lat="45.6169392" lon="10.8523169"><ele>104.0</ele><time>2026-04-23T14:17:34.183Z</time></trkpt><trkpt lat="45.6171241" lon="10.8523641"><ele>104.0</ele><time>2026-04-23T14:17:35.183Z</time></trkpt><trkpt lat="45.6173054" lon="10.8524064"><ele>105.0</ele><time>2026-04-23T14:17:36.183Z</time></trkpt><trkpt lat="45.6174813" lon="10.8524527"><ele>106.0</ele><time>2026-04-23T14:17:37.182Z</time></trkpt><trkpt lat="45.6176518" lon="10.8524978"><ele>107.0</ele><time>2026-04-23T14:17:38.183Z</time></trkpt><trkpt lat="45.6178206" lon="10.8525395"><ele>104.66666666666666</ele><time>2026-04-23T14:17:39.183Z</time></trkpt><trkpt lat="45.6179898" lon="10.8525798"><ele>102.33333333333334</ele><time>2026-04-23T14:17:40.183Z</time></trkpt><trkpt lat="45.6181624" lon="10.8526254"><ele>100.0</ele><time>2026-04-23T14:17:41.183Z</time></trkpt><trkpt lat="45.6183294" lon="10.8526658"><ele>100.0</ele><time>2026-04-23T14:17:42.182Z</time></trkpt><trkpt lat="45.6184964" lon="10.8527024"><ele>100.0</ele><time>2026-04-23T14:17:43.182Z</time></trkpt><trkpt lat="45.6186615" lon="10.8527286"><ele>100.0</ele><time>2026-04-23T14:17:44.183Z</time></trkpt><trkpt lat="45.6188302" lon="10.8527622"><ele>100.66666666666667</ele><time>2026-04-23T14:17:45.183Z</time></trkpt><trkpt lat="45.6189974" lon="10.8528223"><ele>101.33333333333334</ele><time>2026-04-23T14:17:46.182Z</time></trkpt><trkpt lat="45.6191602" lon="10.8528986"><ele>102.0</ele><time>2026-04-23T14:17:47.183Z</time></trkpt><trkpt lat="45.6193167" lon="10.8529866"><ele>102.0</ele><time>2026-04-23T14:17:48.182Z</time></trkpt><trkpt lat="45.6194713" lon="10.8530786"><ele>102.0</ele><time>2026-04-23T14:17:49.183Z</time></trkpt><trkpt lat="45.6196223" lon="10.8531648"><ele>102.0</ele><time>2026-04-23T14:17:50.183Z</time></trkpt><trkpt lat="45.6197757" lon="10.853249"><ele>101.66666666666666</ele><time>2026-04-23T14:17:51.183Z</time></trkpt><trkpt lat="45.619928" lon="10.8533376"><ele>101.33333333333333</ele><time>2026-04-23T14:17:52.183Z</time></trkpt><trkpt lat="45.6200777" lon="10.8534299"><ele>101.0</ele><time>2026-04-23T14:17:53.182Z</time></trkpt><trkpt lat="45.6202296" lon="10.8535252"><ele>103.0</ele><time>2026-04-23T14:17:54.182Z</time></trkpt><trkpt lat="45.6203841" lon="10.8536161"><ele>105.0</ele><time>2026-04-23T14:17:55.183Z</time></trkpt><trkpt lat="45.6205423" lon="10.8537061"><ele>107.0</ele><time>2026-04-23T14:17:56.183Z</time></trkpt><trkpt lat="45.6207008" lon="10.8537957"><ele>107.0</ele><time>2026-04-23T14:17:57.182Z</time></trkpt><trkpt lat="45.6208558" lon="10.8538915"><ele>107.0</ele><time>2026-04-23T14:17:58.183Z</time></trkpt><trkpt lat="45.6210046" lon="10.8540024"><ele>107.0</ele><time>2026-04-23T14:17:59.184Z</time></trkpt><trkpt lat="45.6211431" lon="10.8541385"><ele>108.33333333333333</ele><time>2026-04-23T14:18:00.183Z</time></trkpt><trkpt lat="45.621278" lon="10.8542861"><ele>109.66666666666666</ele><time>2026-04-23T14:18:01.183Z</time></trkpt><trkpt lat="45.6214093" lon="10.8544331"><ele>111.0</ele><time>2026-04-23T14:18:02.184Z</time></trkpt><trkpt lat="45.6215441" lon="10.8545725"><ele>111.0</ele><time>2026-04-23T14:18:03.183Z</time></trkpt><trkpt lat="45.6216792" lon="10.8547124"><ele>111.0</ele><time>2026-04-23T14:18:04.183Z</time></trkpt><trkpt lat="45.621812" lon="10.8548543"><ele>111.0</ele><time>2026-04-23T14:18:05.182Z</time></trkpt><trkpt lat="45.6219454" lon="10.8550031"><ele>114.0</ele><time>2026-04-23T14:18:06.182Z</time></trkpt><trkpt lat="45.6220686" lon="10.8551667"><ele>117.0</ele><time>2026-04-23T14:18:07.183Z</time></trkpt><trkpt lat="45.6221753" lon="10.8553521"><ele>120.0</ele><time>2026-04-23T14:18:08.183Z</time></trkpt><trkpt lat="45.6222757" lon="10.855546"><ele>120.0</ele><time>2026-04-23T14:18:09.182Z</time></trkpt><trkpt lat="45.6223694" lon="10.8557364"><ele>120.0</ele><time>2026-04-23T14:18:10.183Z</time></trkpt><trkpt lat="45.6224648" lon="10.8559211"><ele>120.0</ele><time>2026-04-23T14:18:11.183Z</time></trkpt><trkpt lat="45.6225574" lon="10.8561066"><ele>117.66666666666666</ele><time>2026-04-23T14:18:12.183Z</time></trkpt><trkpt lat="45.6226485" lon="10.8562918"><ele>115.33333333333333</ele><time>2026-04-23T14:18:13.183Z</time></trkpt><trkpt lat="45.6227394" lon="10.8564741"><ele>113.0</ele><time>2026-04-23T14:18:14.183Z</time></trkpt><trkpt lat="45.6228284" lon="10.856657"><ele>115.33333333333333</ele><time>2026-04-23T14:18:15.182Z</time></trkpt><trkpt lat="45.6229199" lon="10.8568392"><ele>117.66666666666666</ele><time>2026-04-23T14:18:16.183Z</time></trkpt><trkpt lat="45.6230122" lon="10.8570244"><ele>120.0</ele><time>2026-04-23T14:18:17.182Z</time></trkpt><trkpt lat="45.6231048" lon="10.857213"><ele>120.0</ele><time>2026-04-23T14:18:18.183Z</time></trkpt><trkpt lat="45.6232015" lon="10.8573966"><ele>120.0</ele><time>2026-04-23T14:18:19.183Z</time></trkpt><trkpt lat="45.6232975" lon="10.8575838"><ele>120.0</ele><time>2026-04-23T14:18:20.182Z</time></trkpt><trkpt lat="45.6233943" lon="10.857774"><ele>120.0</ele><time>2026-04-23T14:18:21.182Z</time></trkpt><trkpt lat="45.6234866" lon="10.8579556"><ele>120.0</ele><time>2026-04-23T14:18:22.183Z</time></trkpt><trkpt lat="45.6235765" lon="10.8581369"><ele>120.0</ele><time>2026-04-23T14:18:23.183Z</time></trkpt><trkpt lat="45.6236644" lon="10.8583188"><ele>123.33333333333334</ele><time>2026-04-23T14:18:24.183Z</time></trkpt><trkpt lat="45.6237456" lon="10.8585064"><ele>126.66666666666667</ele><time>2026-04-23T14:18:25.183Z</time></trkpt><trkpt lat="45.6238173" lon="10.8587036"><ele>130.0</ele><time>2026-04-23T14:18:26.183Z</time></trkpt><trkpt lat="45.6238782" lon="10.8589119"><ele>130.0</ele><time>2026-04-23T14:18:27.182Z</time></trkpt><trkpt lat="45.6239264" lon="10.8591265"><ele>130.0</ele><time>2026-04-23T14:18:28.182Z</time></trkpt><trkpt lat="45.6239741" lon="10.8593332"><ele>130.0</ele><time>2026-04-23T14:18:29.183Z</time></trkpt><trkpt lat="45.6240135" lon="10.8595247"><ele>130.0</ele><time>2026-04-23T14:18:30.183Z</time></trkpt><trkpt lat="45.6240524" lon="10.8597032"><ele>130.0</ele><time>2026-04-23T14:18:31.182Z</time></trkpt><trkpt lat="45.6240878" lon="10.8598753"><ele>130.0</ele><time>2026-04-23T14:18:32.183Z</time></trkpt><trkpt lat="45.6241227" lon="10.8600505"><ele>130.0</ele><time>2026-04-23T14:18:33.182Z</time></trkpt><trkpt lat="45.6241595" lon="10.8602283"><ele>130.0</ele><time>2026-04-23T14:18:34.183Z</time></trkpt><trkpt lat="45.6241988" lon="10.8604067"><ele>130.5</ele><time>2026-04-23T14:18:35.183Z</time></trkpt><trkpt lat="45.6242384" lon="10.8605912"><ele>131.0</ele><time>2026-04-23T14:18:36.183Z</time></trkpt><trkpt lat="45.6242849" lon="10.8607775"><ele>131.5</ele><time>2026-04-23T14:18:37.183Z</time></trkpt><trkpt lat="45.6243397" lon="10.8609673"><ele>132.0</ele><time>2026-04-23T14:18:38.182Z</time></trkpt><trkpt lat="45.6244042" lon="10.8611625"><ele>131.0</ele><time>2026-04-23T14:18:39.182Z</time></trkpt><trkpt lat="45.6244741" lon="10.8613619"><ele>130.0</ele><time>2026-04-23T14:18:40.182Z</time></trkpt><trkpt lat="45.6245485" lon="10.8615654"><ele>129.0</ele><time>2026-04-23T14:18:41.183Z</time></trkpt><trkpt lat="45.6246246" lon="10.8617719"><ele>129.0</ele><time>2026-04-23T14:18:42.183Z</time></trkpt><trkpt lat="45.6247014" lon="10.8619783"><ele>129.0</ele><time>2026-04-23T14:18:43.182Z</time></trkpt><trkpt lat="45.6247774" lon="10.862183"><ele>129.0</ele><time>2026-04-23T14:18:44.184Z</time></trkpt><trkpt lat="45.6248536" lon="10.8623918"><ele>129.0</ele><time>2026-04-23T14:18:45.184Z</time></trkpt><trkpt lat="45.6249434" lon="10.8625867"><ele>129.0</ele><time>2026-04-23T14:18:46.183Z</time></trkpt><trkpt lat="45.625045" lon="10.862765"><ele>129.0</ele><time>2026-04-23T14:18:47.182Z</time></trkpt><trkpt lat="45.6251579" lon="10.8629192"><ele>129.0</ele><time>2026-04-23T14:18:48.183Z</time></trkpt><trkpt lat="45.6252815" lon="10.8630426"><ele>129.0</ele><time>2026-04-23T14:18:49.183Z</time></trkpt><trkpt lat="45.6254228" lon="10.8631382"><ele>129.0</ele><time>2026-04-23T14:18:50.183Z</time></trkpt><trkpt lat="45.6255773" lon="10.8632103"><ele>129.0</ele><time>2026-04-23T14:18:51.183Z</time></trkpt><trkpt lat="45.6257355" lon="10.8632821"><ele>129.0</ele><time>2026-04-23T14:18:52.183Z</time></trkpt><trkpt lat="45.6258957" lon="10.8633454"><ele>129.0</ele><time>2026-04-23T14:18:53.183Z</time></trkpt><trkpt lat="45.6260525" lon="10.863402"><ele>128.0</ele><time>2026-04-23T14:18:54.183Z</time></trkpt><trkpt lat="45.6262084" lon="10.8634633"><ele>127.0</ele><time>2026-04-23T14:18:55.182Z</time></trkpt><trkpt lat="45.6263655" lon="10.8635334"><ele>126.0</ele><time>2026-04-23T14:18:56.182Z</time></trkpt><trkpt lat="45.6265208" lon="10.8636058"><ele>126.0</ele><time>2026-04-23T14:18:57.184Z</time></trkpt><trkpt lat="45.6266712" lon="10.8636865"><ele>126.0</ele><time>2026-04-23T14:18:58.184Z</time></trkpt><trkpt lat="45.626818" lon="10.8637727"><ele>126.0</ele><time>2026-04-23T14:18:59.182Z</time></trkpt><trkpt lat="45.6269625" lon="10.863861"><ele>126.66666666666666</ele><time>2026-04-23T14:19:00.183Z</time></trkpt><trkpt lat="45.6271076" lon="10.86395"><ele>127.33333333333333</ele><time>2026-04-23T14:19:01.183Z</time></trkpt><trkpt lat="45.6272499" lon="10.8640439"><ele>128.0</ele><time>2026-04-23T14:19:02.182Z</time></trkpt><trkpt lat="45.6273867" lon="10.8641425"><ele>128.0</ele><time>2026-04-23T14:19:03.182Z</time></trkpt><trkpt lat="45.627524" lon="10.8642488"><ele>128.0</ele><time>2026-04-23T14:19:04.182Z</time></trkpt><trkpt lat="45.6276588" lon="10.8643598"><ele>128.0</ele><time>2026-04-23T14:19:05.182Z</time></trkpt><trkpt lat="45.6277926" lon="10.8644774"><ele>128.33333333333331</ele><time>2026-04-23T14:19:06.182Z</time></trkpt><trkpt lat="45.6279244" lon="10.8646051"><ele>128.66666666666666</ele><time>2026-04-23T14:19:07.184Z</time></trkpt><trkpt lat="45.6280551" lon="10.8647326"><ele>129.0</ele><time>2026-04-23T14:19:08.182Z</time></trkpt><trkpt lat="45.6281858" lon="10.8648544"><ele>129.0</ele><time>2026-04-23T14:19:09.183Z</time></trkpt><trkpt lat="45.6283154" lon="10.8649696"><ele>129.0</ele><time>2026-04-23T14:19:10.182Z</time></trkpt><trkpt lat="45.6284432" lon="10.8650802"><ele>129.0</ele><time>2026-04-23T14:19:11.183Z</time></trkpt><trkpt lat="45.6285707" lon="10.8651879"><ele>128.75</ele><time>2026-04-23T14:19:12.183Z</time></trkpt><trkpt lat="45.6286977" lon="10.8652933"><ele>128.5</ele><time>2026-04-23T14:19:13.182Z</time></trkpt><trkpt lat="45.6288247" lon="10.8653947"><ele>128.25</ele><time>2026-04-23T14:19:14.183Z</time></trkpt><trkpt lat="45.6289536" lon="10.865491"><ele>128.0</ele><time>2026-04-23T14:19:15.184Z</time></trkpt><trkpt lat="45.6290816" lon="10.8655788"><ele>128.0</ele><time>2026-04-23T14:19:16.183Z</time></trkpt><trkpt lat="45.6292115" lon="10.8656594"><ele>128.0</ele><time>2026-04-23T14:19:17.183Z</time></trkpt><trkpt lat="45.629344" lon="10.8657368"><ele>128.0</ele><time>2026-04-23T14:19:18.183Z</time></trkpt><trkpt lat="45.6294809" lon="10.8658167"><ele>128.0</ele><time>2026-04-23T14:19:19.182Z</time></trkpt><trkpt lat="45.6296165" lon="10.8659055"><ele>127.66666666666666</ele><time>2026-04-23T14:19:20.182Z</time></trkpt><trkpt lat="45.6297541" lon="10.8660033"><ele>127.33333333333334</ele><time>2026-04-23T14:19:21.183Z</time></trkpt><trkpt lat="45.6298901" lon="10.8661099"><ele>127.0</ele><time>2026-04-23T14:19:22.182Z</time></trkpt><trkpt lat="45.6300208" lon="10.8662356"><ele>127.0</ele><time>2026-04-23T14:19:23.182Z</time></trkpt><trkpt lat="45.6301462" lon="10.8663744"><ele>127.0</ele><time>2026-04-23T14:19:24.184Z</time></trkpt><trkpt lat="45.63027" lon="10.8665173"><ele>127.0</ele><time>2026-04-23T14:19:25.182Z</time></trkpt><trkpt lat="45.6303892" lon="10.8666576"><ele>127.0</ele><time>2026-04-23T14:19:26.183Z</time></trkpt><trkpt lat="45.6305006" lon="10.8667935"><ele>127.0</ele><time>2026-04-23T14:19:27.184Z</time></trkpt><trkpt lat="45.6306119" lon="10.8669265"><ele>127.0</ele><time>2026-04-23T14:19:28.182Z</time></trkpt><trkpt lat="45.6307236" lon="10.8670612"><ele>127.0</ele><time>2026-04-23T14:19:29.183Z</time></trkpt><trkpt lat="45.6308383" lon="10.8672"><ele>127.0</ele><time>2026-04-23T14:19:30.183Z</time></trkpt><trkpt lat="45.6309541" lon="10.8673432"><ele>127.0</ele><time>2026-04-23T14:19:31.183Z</time></trkpt><trkpt lat="45.6310703" lon="10.8674861"><ele>127.0</ele><time>2026-04-23T14:19:32.184Z</time></trkpt><trkpt lat="45.6311847" lon="10.8676256"><ele>127.0</ele><time>2026-04-23T14:19:33.184Z</time></trkpt><trkpt lat="45.6313012" lon="10.8677666"><ele>127.0</ele><time>2026-04-23T14:19:34.183Z</time></trkpt><trkpt lat="45.6314154" lon="10.8679065"><ele>127.0</ele><time>2026-04-23T14:19:35.182Z</time></trkpt><trkpt lat="45.63153" lon="10.8680427"><ele>127.0</ele><time>2026-04-23T14:19:36.183Z</time></trkpt><trkpt lat="45.6316449" lon="10.8681783"><ele>127.0</ele><time>2026-04-23T14:19:37.182Z</time></trkpt><trkpt lat="45.6317589" lon="10.868319"><ele>127.0</ele><time>2026-04-23T14:19:38.183Z</time></trkpt><trkpt lat="45.6318736" lon="10.8684603"><ele>127.0</ele><time>2026-04-23T14:19:39.183Z</time></trkpt><trkpt lat="45.6319906" lon="10.8686027"><ele>127.0</ele><time>2026-04-23T14:19:40.182Z</time></trkpt><trkpt lat="45.6321134" lon="10.8687453"><ele>127.0</ele><time>2026-04-23T14:19:41.183Z</time></trkpt><trkpt lat="45.6322414" lon="10.8688879"><ele>127.0</ele><time>2026-04-23T14:19:42.182Z</time></trkpt><trkpt lat="45.6323757" lon="10.8690256"><ele>127.0</ele><time>2026-04-23T14:19:43.183Z</time></trkpt><trkpt lat="45.6325141" lon="10.8691559"><ele>127.0</ele><time>2026-04-23T14:19:44.182Z</time></trkpt><trkpt lat="45.6326497" lon="10.8692722"><ele>126.66666666666667</ele><time>2026-04-23T14:19:45.184Z</time></trkpt><trkpt lat="45.6327813" lon="10.8693892"><ele>126.33333333333334</ele><time>2026-04-23T14:19:46.184Z</time></trkpt><trkpt lat="45.6329142" lon="10.8695122"><ele>126.0</ele><time>2026-04-23T14:19:47.182Z</time></trkpt><trkpt lat="45.6330473" lon="10.8696322"><ele>126.0</ele><time>2026-04-23T14:19:48.182Z</time></trkpt><trkpt lat="45.6331808" lon="10.8697543"><ele>126.0</ele><time>2026-04-23T14:19:49.182Z</time></trkpt><trkpt lat="45.6333143" lon="10.8698784"><ele>126.0</ele><time>2026-04-23T14:19:50.182Z</time></trkpt><trkpt lat="45.6334486" lon="10.8699975"><ele>126.0</ele><time>2026-04-23T14:19:51.184Z</time></trkpt><trkpt lat="45.6335804" lon="10.8701153"><ele>126.0</ele><time>2026-04-23T14:19:52.183Z</time></trkpt><trkpt lat="45.6337098" lon="10.8702319"><ele>126.0</ele><time>2026-04-23T14:19:53.184Z</time></trkpt><trkpt lat="45.633837" lon="10.8703475"><ele>126.0</ele><time>2026-04-23T14:19:54.182Z</time></trkpt><trkpt lat="45.6339619" lon="10.8704606"><ele>126.0</ele><time>2026-04-23T14:19:55.184Z</time></trkpt><trkpt lat="45.6340863" lon="10.8705728"><ele>126.0</ele><time>2026-04-23T14:19:56.183Z</time></trkpt><trkpt lat="45.6342097" lon="10.8706871"><ele>126.0</ele><time>2026-04-23T14:19:57.183Z</time></trkpt><trkpt lat="45.6343359" lon="10.8708019"><ele>126.0</ele><time>2026-04-23T14:19:58.183Z</time></trkpt><trkpt lat="45.6344648" lon="10.8709172"><ele>126.0</ele><time>2026-04-23T14:19:59.183Z</time></trkpt><trkpt lat="45.6345932" lon="10.8710344"><ele>126.0</ele><time>2026-04-23T14:20:00.182Z</time></trkpt><trkpt lat="45.6347205" lon="10.8711546"><ele>126.33333333333334</ele><time>2026-04-23T14:20:01.183Z</time></trkpt><trkpt lat="45.6348473" lon="10.8712796"><ele>126.66666666666667</ele><time>2026-04-23T14:20:02.183Z</time></trkpt><trkpt lat="45.6349793" lon="10.8714075"><ele>127.0</ele><time>2026-04-23T14:20:03.183Z</time></trkpt><trkpt lat="45.6351135" lon="10.8715435"><ele>127.0</ele><time>2026-04-23T14:20:04.182Z</time></trkpt><trkpt lat="45.6352433" lon="10.8716833"><ele>127.0</ele><time>2026-04-23T14:20:05.182Z</time></trkpt><trkpt lat="45.6353668" lon="10.8718214"><ele>127.0</ele><time>2026-04-23T14:20:06.183Z</time></trkpt><trkpt lat="45.6354924" lon="10.871953"><ele>126.0</ele><time>2026-04-23T14:20:07.182Z</time></trkpt><trkpt lat="45.6356171" lon="10.872082"><ele>125.0</ele><time>2026-04-23T14:20:08.182Z</time></trkpt><trkpt lat="45.6357407" lon="10.8722151"><ele>124.0</ele><time>2026-04-23T14:20:09.183Z</time></trkpt><trkpt lat="45.6358658" lon="10.8723433"><ele>124.0</ele><time>2026-04-23T14:20:10.183Z</time></trkpt><trkpt lat="45.6359934" lon="10.8724765"><ele>124.0</ele><time>2026-04-23T14:20:11.183Z</time></trkpt><trkpt lat="45.6361213" lon="10.8726092"><ele>124.0</ele><time>2026-04-23T14:20:12.183Z</time></trkpt><trkpt lat="45.6362488" lon="10.872745"><ele>125.0</ele><time>2026-04-23T14:20:13.184Z</time></trkpt><trkpt lat="45.6363762" lon="10.8728796"><ele>126.0</ele><time>2026-04-23T14:20:14.182Z</time></trkpt><trkpt lat="45.636499" lon="10.8730077"><ele>127.0</ele><time>2026-04-23T14:20:15.183Z</time></trkpt><trkpt lat="45.6366214" lon="10.8731332"><ele>127.0</ele><time>2026-04-23T14:20:16.182Z</time></trkpt><trkpt lat="45.6367415" lon="10.8732596"><ele>127.0</ele><time>2026-04-23T14:20:17.183Z</time></trkpt><trkpt lat="45.6368613" lon="10.8733851"><ele>127.0</ele><time>2026-04-23T14:20:18.182Z</time></trkpt><trkpt lat="45.6369813" lon="10.8735121"><ele>127.0</ele><time>2026-04-23T14:20:19.182Z</time></trkpt><trkpt lat="45.6371035" lon="10.8736444"><ele>126.66666666666667</ele><time>2026-04-23T14:20:20.183Z</time></trkpt><trkpt lat="45.6372255" lon="10.8737738"><ele>126.33333333333334</ele><time>2026-04-23T14:20:21.182Z</time></trkpt><trkpt lat="45.637351" lon="10.8739007"><ele>126.0</ele><time>2026-04-23T14:20:22.182Z</time></trkpt><trkpt lat="45.6374756" lon="10.8740309"><ele>126.0</ele><time>2026-04-23T14:20:23.182Z</time></trkpt><trkpt lat="45.6376008" lon="10.874164"><ele>126.0</ele><time>2026-04-23T14:20:24.183Z</time></trkpt><trkpt lat="45.637725" lon="10.8742935"><ele>126.0</ele><time>2026-04-23T14:20:25.184Z</time></trkpt><trkpt lat="45.6378454" lon="10.8744217"><ele>127.33333333333334</ele><time>2026-04-23T14:20:26.183Z</time></trkpt><trkpt lat="45.6379694" lon="10.8745506"><ele>128.66666666666669</ele><time>2026-04-23T14:20:27.183Z</time></trkpt><trkpt lat="45.6380954" lon="10.8746844"><ele>130.0</ele><time>2026-04-23T14:20:28.183Z</time></trkpt><trkpt lat="45.6382236" lon="10.8748258"><ele>130.0</ele><time>2026-04-23T14:20:29.183Z</time></trkpt><trkpt lat="45.6383503" lon="10.8749744"><ele>130.0</ele><time>2026-04-23T14:20:30.182Z</time></trkpt><trkpt lat="45.6384721" lon="10.8751264"><ele>130.0</ele><time>2026-04-23T14:20:31.183Z</time></trkpt><trkpt lat="45.6385881" lon="10.8752767"><ele>129.66666666666669</ele><time>2026-04-23T14:20:32.182Z</time></trkpt><trkpt lat="45.6387034" lon="10.8754237"><ele>129.33333333333334</ele><time>2026-04-23T14:20:33.183Z</time></trkpt><trkpt lat="45.638818" lon="10.8755693"><ele>129.0</ele><time>2026-04-23T14:20:34.182Z</time></trkpt><trkpt lat="45.638933" lon="10.8757126"><ele>129.0</ele><time>2026-04-23T14:20:35.183Z</time></trkpt><trkpt lat="45.6390505" lon="10.8758523"><ele>129.0</ele><time>2026-04-23T14:20:36.183Z</time></trkpt><trkpt lat="45.6391743" lon="10.8759878"><ele>129.0</ele><time>2026-04-23T14:20:37.183Z</time></trkpt><trkpt lat="45.6393004" lon="10.8761231"><ele>128.66666666666666</ele><time>2026-04-23T14:20:38.183Z</time></trkpt><trkpt lat="45.6394276" lon="10.8762548"><ele>128.33333333333331</ele><time>2026-04-23T14:20:39.184Z</time></trkpt><trkpt lat="45.6395574" lon="10.8763821"><ele>128.0</ele><time>2026-04-23T14:20:40.183Z</time></trkpt><trkpt lat="45.6396904" lon="10.8765037"><ele>128.0</ele><time>2026-04-23T14:20:41.184Z</time></trkpt><trkpt lat="45.6398233" lon="10.8766253"><ele>128.0</ele><time>2026-04-23T14:20:42.182Z</time></trkpt><trkpt lat="45.639954" lon="10.8767435"><ele>128.0</ele><time>2026-04-23T14:20:43.182Z</time></trkpt><trkpt lat="45.64008" lon="10.8768642"><ele>128.25</ele><time>2026-04-23T14:20:44.183Z</time></trkpt><trkpt lat="45.6402037" lon="10.8769795"><ele>128.5</ele><time>2026-04-23T14:20:45.183Z</time></trkpt><trkpt lat="45.6403271" lon="10.8770917"><ele>128.75</ele><time>2026-04-23T14:20:46.182Z</time></trkpt><trkpt lat="45.6404505" lon="10.877201"><ele>129.0</ele><time>2026-04-23T14:20:47.183Z</time></trkpt><trkpt lat="45.6405738" lon="10.8773081"><ele>129.0</ele><time>2026-04-23T14:20:48.183Z</time></trkpt><trkpt lat="45.6406975" lon="10.8774087"><ele>129.0</ele><time>2026-04-23T14:20:49.183Z</time></trkpt><trkpt lat="45.640825" lon="10.8775031"><ele>129.0</ele><time>2026-04-23T14:20:50.183Z</time></trkpt><trkpt lat="45.6409573" lon="10.8775902"><ele>129.0</ele><time>2026-04-23T14:20:51.183Z</time></trkpt><trkpt lat="45.6410958" lon="10.8776671"><ele>127.66666666666666</ele><time>2026-04-23T14:20:52.183Z</time></trkpt><trkpt lat="45.6412384" lon="10.8777426"><ele>126.33333333333333</ele><time>2026-04-23T14:20:53.183Z</time></trkpt><trkpt lat="45.6413821" lon="10.8778117"><ele>125.0</ele><time>2026-04-23T14:20:54.184Z</time></trkpt><trkpt lat="45.641532" lon="10.8778791"><ele>125.0</ele><time>2026-04-23T14:20:55.183Z</time></trkpt><trkpt lat="45.6416859" lon="10.8779368"><ele>125.0</ele><time>2026-04-23T14:20:56.182Z</time></trkpt><trkpt lat="45.6418385" lon="10.8779916"><ele>125.0</ele><time>2026-04-23T14:20:57.183Z</time></trkpt><trkpt lat="45.641991" lon="10.8780411"><ele>124.0</ele><time>2026-04-23T14:20:58.182Z</time></trkpt><trkpt lat="45.6421404" lon="10.8780909"><ele>123.0</ele><time>2026-04-23T14:20:59.182Z</time></trkpt><trkpt lat="45.6422884" lon="10.8781412"><ele>122.0</ele><time>2026-04-23T14:21:00.183Z</time></trkpt><trkpt lat="45.6424345" lon="10.8781895"><ele>122.0</ele><time>2026-04-23T14:21:01.182Z</time></trkpt><trkpt lat="45.6425807" lon="10.8782431"><ele>122.0</ele><time>2026-04-23T14:21:02.183Z</time></trkpt><trkpt lat="45.6427267" lon="10.8782957"><ele>122.0</ele><time>2026-04-23T14:21:03.182Z</time></trkpt><trkpt lat="45.6428752" lon="10.8783494"><ele>122.25</ele><time>2026-04-23T14:21:04.184Z</time></trkpt><trkpt lat="45.6430209" lon="10.8784012"><ele>122.5</ele><time>2026-04-23T14:21:05.183Z</time></trkpt><trkpt lat="45.6431664" lon="10.878451"><ele>122.75</ele><time>2026-04-23T14:21:06.184Z</time></trkpt><trkpt lat="45.6433114" lon="10.8784997"><ele>123.0</ele><time>2026-04-23T14:21:07.183Z</time></trkpt><trkpt lat="45.6434551" lon="10.8785504"><ele>121.25</ele><time>2026-04-23T14:21:08.182Z</time></trkpt><trkpt lat="45.6435981" lon="10.8786033"><ele>119.5</ele><time>2026-04-23T14:21:09.183Z</time></trkpt><trkpt lat="45.6437377" lon="10.878652"><ele>117.75</ele><time>2026-04-23T14:21:10.183Z</time></trkpt><trkpt lat="45.6438789" lon="10.8786988"><ele>116.0</ele><time>2026-04-23T14:21:11.183Z</time></trkpt><trkpt lat="45.6440184" lon="10.8787493"><ele>116.0</ele><time>2026-04-23T14:21:12.182Z</time></trkpt><trkpt lat="45.6441588" lon="10.8788008"><ele>116.0</ele><time>2026-04-23T14:21:13.183Z</time></trkpt><trkpt lat="45.6442993" lon="10.8788496"><ele>116.0</ele><time>2026-04-23T14:21:14.183Z</time></trkpt><trkpt lat="45.6444343" lon="10.8788964"><ele>116.0</ele><time>2026-04-23T14:21:15.183Z</time></trkpt><trkpt lat="45.6445688" lon="10.8789426"><ele>117.5</ele><time>2026-04-23T14:21:16.183Z</time></trkpt><trkpt lat="45.6447048" lon="10.8789911"><ele>119.0</ele><time>2026-04-23T14:21:17.183Z</time></trkpt><trkpt lat="45.6448452" lon="10.8790386"><ele>120.5</ele><time>2026-04-23T14:21:18.182Z</time></trkpt><trkpt lat="45.6449886" lon="10.879093"><ele>122.0</ele><time>2026-04-23T14:21:19.184Z</time></trkpt><trkpt lat="45.6451354" lon="10.8791473"><ele>122.0</ele><time>2026-04-23T14:21:20.182Z</time></trkpt><trkpt lat="45.6452838" lon="10.8791973"><ele>122.0</ele><time>2026-04-23T14:21:21.182Z</time></trkpt><trkpt lat="45.6454353" lon="10.8792461"><ele>122.0</ele><time>2026-04-23T14:21:22.184Z</time></trkpt><trkpt lat="45.6455874" lon="10.8792949"><ele>119.5</ele><time>2026-04-23T14:21:23.182Z</time></trkpt><trkpt lat="45.6457358" lon="10.8793406"><ele>117.0</ele><time>2026-04-23T14:21:24.182Z</time></trkpt><trkpt lat="45.6458794" lon="10.8793925"><ele>114.5</ele><time>2026-04-23T14:21:25.183Z</time></trkpt><trkpt lat="45.6460204" lon="10.8794467"><ele>112.0</ele><time>2026-04-23T14:21:26.182Z</time></trkpt><trkpt lat="45.6461572" lon="10.8795051"><ele>117.0</ele><time>2026-04-23T14:21:27.183Z</time></trkpt><trkpt lat="45.6462899" lon="10.8795797"><ele>122.0</ele><time>2026-04-23T14:21:28.183Z</time></trkpt><trkpt lat="45.6464176" lon="10.8796761"><ele>127.0</ele><time>2026-04-23T14:21:29.183Z</time></trkpt><trkpt lat="45.6465366" lon="10.8797966"><ele>132.0</ele><time>2026-04-23T14:21:30.182Z</time></trkpt><trkpt lat="45.6466417" lon="10.8799356"><ele>132.0</ele><time>2026-04-23T14:21:31.182Z</time></trkpt><trkpt lat="45.6467386" lon="10.8800889"><ele>132.0</ele><time>2026-04-23T14:21:32.183Z</time></trkpt><trkpt lat="45.6468297" lon="10.8802564"><ele>132.0</ele><time>2026-04-23T14:21:33.183Z</time></trkpt><trkpt lat="45.6469171" lon="10.8804328"><ele>132.0</ele><time>2026-04-23T14:21:34.183Z</time></trkpt><trkpt lat="45.6470038" lon="10.8806135"><ele>132.0</ele><time>2026-04-23T14:21:35.183Z</time></trkpt><trkpt lat="45.6470958" lon="10.8807953"><ele>132.0</ele><time>2026-04-23T14:21:36.183Z</time></trkpt><trkpt lat="45.6471857" lon="10.8809775"><ele>132.0</ele><time>2026-04-23T14:21:37.182Z</time></trkpt><trkpt lat="45.6472723" lon="10.8811606"><ele>132.0</ele><time>2026-04-23T14:21:38.182Z</time></trkpt><trkpt lat="45.6473604" lon="10.8813404"><ele>132.0</ele><time>2026-04-23T14:21:39.183Z</time></trkpt><trkpt lat="45.6474463" lon="10.8815263"><ele>132.0</ele><time>2026-04-23T14:21:40.182Z</time></trkpt><trkpt lat="45.6475354" lon="10.8817096"><ele>132.33333333333334</ele><time>2026-04-23T14:21:41.182Z</time></trkpt><trkpt lat="45.6476218" lon="10.881895"><ele>132.66666666666669</ele><time>2026-04-23T14:21:42.183Z</time></trkpt><trkpt lat="45.6477083" lon="10.8820699"><ele>133.0</ele><time>2026-04-23T14:21:43.182Z</time></trkpt><trkpt lat="45.6477956" lon="10.8822427"><ele>133.0</ele><time>2026-04-23T14:21:44.183Z</time></trkpt><trkpt lat="45.64789" lon="10.8824127"><ele>133.0</ele><time>2026-04-23T14:21:45.184Z</time></trkpt><trkpt lat="45.6479883" lon="10.8825806"><ele>133.0</ele><time>2026-04-23T14:21:46.184Z</time></trkpt><trkpt lat="45.6480934" lon="10.8827396"><ele>129.66666666666669</ele><time>2026-04-23T14:21:47.184Z</time></trkpt><trkpt lat="45.6482015" lon="10.8828994"><ele>126.33333333333334</ele><time>2026-04-23T14:21:48.184Z</time></trkpt><trkpt lat="45.6483152" lon="10.8830495"><ele>123.0</ele><time>2026-04-23T14:21:49.184Z</time></trkpt><trkpt lat="45.6484349" lon="10.883193"><ele>123.0</ele><time>2026-04-23T14:21:50.183Z</time></trkpt><trkpt lat="45.6485587" lon="10.8833299"><ele>123.0</ele><time>2026-04-23T14:21:51.183Z</time></trkpt><trkpt lat="45.648687" lon="10.8834608"><ele>123.0</ele><time>2026-04-23T14:21:52.182Z</time></trkpt><trkpt lat="45.6488174" lon="10.8835814"><ele>123.0</ele><time>2026-04-23T14:21:53.183Z</time></trkpt><trkpt lat="45.6489465" lon="10.8836965"><ele>123.0</ele><time>2026-04-23T14:21:54.182Z</time></trkpt><trkpt lat="45.6490723" lon="10.8838138"><ele>123.0</ele><time>2026-04-23T14:21:55.182Z</time></trkpt><trkpt lat="45.6491989" lon="10.8839284"><ele>123.0</ele><time>2026-04-23T14:21:56.182Z</time></trkpt><trkpt lat="45.6493268" lon="10.8840446"><ele>123.0</ele><time>2026-04-23T14:21:57.183Z</time></trkpt><trkpt lat="45.6494533" lon="10.8841635"><ele>123.0</ele><time>2026-04-23T14:21:58.183Z</time></trkpt><trkpt lat="45.6495779" lon="10.8842818"><ele>124.5</ele><time>2026-04-23T14:21:59.184Z</time></trkpt><trkpt lat="45.6497027" lon="10.8843989"><ele>126.0</ele><time>2026-04-23T14:22:00.184Z</time></trkpt><trkpt lat="45.6498272" lon="10.8845146"><ele>127.5</ele><time>2026-04-23T14:22:01.184Z</time></trkpt><trkpt lat="45.6499511" lon="10.8846322"><ele>129.0</ele><time>2026-04-23T14:22:02.183Z</time></trkpt><trkpt lat="45.6500752" lon="10.8847555"><ele>129.0</ele><time>2026-04-23T14:22:03.183Z</time></trkpt><trkpt lat="45.6501983" lon="10.8848743"><ele>129.0</ele><time>2026-04-23T14:22:04.184Z</time></trkpt><trkpt lat="45.65032" lon="10.884999"><ele>129.0</ele><time>2026-04-23T14:22:05.182Z</time></trkpt><trkpt lat="45.6504326" lon="10.8851362"><ele>129.0</ele><time>2026-04-23T14:22:06.183Z</time></trkpt><trkpt lat="45.6505412" lon="10.8852882"><ele>129.0</ele><time>2026-04-23T14:22:07.183Z</time></trkpt><trkpt lat="45.6506489" lon="10.8854461"><ele>129.0</ele><time>2026-04-23T14:22:08.183Z</time></trkpt><trkpt lat="45.6507585" lon="10.8856055"><ele>129.0</ele><time>2026-04-23T14:22:09.182Z</time></trkpt><trkpt lat="45.650867" lon="10.8857624"><ele>129.0</ele><time>2026-04-23T14:22:10.183Z</time></trkpt><trkpt lat="45.6509724" lon="10.8859184"><ele>129.0</ele><time>2026-04-23T14:22:11.183Z</time></trkpt><trkpt lat="45.6510788" lon="10.8860712"><ele>129.0</ele><time>2026-04-23T14:22:12.182Z</time></trkpt><trkpt lat="45.6511839" lon="10.8862231"><ele>128.75</ele><time>2026-04-23T14:22:13.182Z</time></trkpt><trkpt lat="45.6512875" lon="10.8863751"><ele>128.5</ele><time>2026-04-23T14:22:14.182Z</time></trkpt><trkpt lat="45.6513872" lon="10.8865223"><ele>128.25</ele><time>2026-04-23T14:22:15.183Z</time></trkpt><trkpt lat="45.6514867" lon="10.8866687"><ele>128.0</ele><time>2026-04-23T14:22:16.183Z</time></trkpt><trkpt lat="45.6515879" lon="10.8868148"><ele>128.0</ele><time>2026-04-23T14:22:17.182Z</time></trkpt><trkpt lat="45.6516868" lon="10.8869575"><ele>128.0</ele><time>2026-04-23T14:22:18.182Z</time></trkpt><trkpt lat="45.6517808" lon="10.8870963"><ele>128.0</ele><time>2026-04-23T14:22:19.184Z</time></trkpt><trkpt lat="45.6518728" lon="10.8872293"><ele>128.0</ele><time>2026-04-23T14:22:20.183Z</time></trkpt><trkpt lat="45.6519593" lon="10.8873507"><ele>128.8</ele><time>2026-04-23T14:22:21.183Z</time></trkpt><trkpt lat="45.6520424" lon="10.8874605"><ele>129.60000000000002</ele><time>2026-04-23T14:22:22.182Z</time></trkpt><trkpt lat="45.6521195" lon="10.8875605"><ele>130.39999999999998</ele><time>2026-04-23T14:22:23.182Z</time></trkpt><trkpt lat="45.6521913" lon="10.887653"><ele>131.2</ele><time>2026-04-23T14:22:24.183Z</time></trkpt><trkpt lat="45.6522659" lon="10.8877431"><ele>132.0</ele><time>2026-04-23T14:22:25.183Z</time></trkpt><trkpt lat="45.6523365" lon="10.8878266"><ele>132.0</ele><time>2026-04-23T14:22:26.183Z</time></trkpt><trkpt lat="45.6524038" lon="10.8878996"><ele>132.0</ele><time>2026-04-23T14:22:27.183Z</time></trkpt><trkpt lat="45.6524702" lon="10.8879678"><ele>132.0</ele><time>2026-04-23T14:22:28.183Z</time></trkpt><trkpt lat="45.6525429" lon="10.8880329"><ele>132.0</ele><time>2026-04-23T14:22:29.182Z</time></trkpt><trkpt lat="45.6526187" lon="10.8880979"><ele>132.0</ele><time>2026-04-23T14:22:30.184Z</time></trkpt><trkpt lat="45.6526922" lon="10.8881626"><ele>132.0</ele><time>2026-04-23T14:22:31.184Z</time></trkpt><trkpt lat="45.6527555" lon="10.8882435"><ele>131.79999999999998</ele><time>2026-04-23T14:22:32.182Z</time></trkpt><trkpt lat="45.6528013" lon="10.8883424"><ele>131.6</ele><time>2026-04-23T14:22:33.183Z</time></trkpt><trkpt lat="45.652832" lon="10.8884573"><ele>131.39999999999998</ele><time>2026-04-23T14:22:34.182Z</time></trkpt><trkpt lat="45.6528624" lon="10.8885817"><ele>131.2</ele><time>2026-04-23T14:22:35.184Z</time></trkpt><trkpt lat="45.6528966" lon="10.8887096"><ele>131.0</ele><time>2026-04-23T14:22:36.183Z</time></trkpt><trkpt lat="45.652932" lon="10.8888508"><ele>131.0</ele><time>2026-04-23T14:22:37.183Z</time></trkpt><trkpt lat="45.6529683" lon="10.8889996"><ele>131.0</ele><time>2026-04-23T14:22:38.183Z</time></trkpt><trkpt lat="45.6530079" lon="10.8891489"><ele>131.0</ele><time>2026-04-23T14:22:39.182Z</time></trkpt><trkpt lat="45.6530508" lon="10.8893"><ele>131.0</ele><time>2026-04-23T14:22:40.183Z</time></trkpt><trkpt lat="45.6530919" lon="10.8894552"><ele>130.5</ele><time>2026-04-23T14:22:41.183Z</time></trkpt><trkpt lat="45.6531341" lon="10.8896224"><ele>130.0</ele><time>2026-04-23T14:22:42.183Z</time></trkpt><trkpt lat="45.653179" lon="10.889797"><ele>129.5</ele><time>2026-04-23T14:22:43.182Z</time></trkpt><trkpt lat="45.6532244" lon="10.8899675"><ele>129.0</ele><time>2026-04-23T14:22:44.183Z</time></trkpt><trkpt lat="45.6532689" lon="10.8901372"><ele>128.5</ele><time>2026-04-23T14:22:45.182Z</time></trkpt><trkpt lat="45.6533135" lon="10.8903106"><ele>128.0</ele><time>2026-04-23T14:22:46.182Z</time></trkpt><trkpt lat="45.6533629" lon="10.890485"><ele>127.5</ele><time>2026-04-23T14:22:47.184Z</time></trkpt><trkpt lat="45.6534232" lon="10.8906527"><ele>127.0</ele><time>2026-04-23T14:22:48.183Z</time></trkpt><trkpt lat="45.6534913" lon="10.8908116"><ele>127.0</ele><time>2026-04-23T14:22:49.182Z</time></trkpt><trkpt lat="45.6535655" lon="10.890954"><ele>127.0</ele><time>2026-04-23T14:22:50.183Z</time></trkpt><trkpt lat="45.6536421" lon="10.8910853"><ele>127.0</ele><time>2026-04-23T14:22:51.184Z</time></trkpt><trkpt lat="45.6537158" lon="10.8912147"><ele>127.0</ele><time>2026-04-23T14:22:52.182Z</time></trkpt><trkpt lat="45.6537902" lon="10.891342"><ele>127.0</ele><time>2026-04-23T14:22:53.183Z</time></trkpt><trkpt lat="45.6538634" lon="10.8914685"><ele>127.0</ele><time>2026-04-23T14:22:54.182Z</time></trkpt><trkpt lat="45.6539329" lon="10.8915953"><ele>127.0</ele><time>2026-04-23T14:22:55.183Z</time></trkpt><trkpt lat="45.6540007" lon="10.8917236"><ele>127.0</ele><time>2026-04-23T14:22:56.184Z</time></trkpt><trkpt lat="45.6540686" lon="10.8918606"><ele>126.75</ele><time>2026-04-23T14:22:57.182Z</time></trkpt><trkpt lat="45.6541364" lon="10.8920057"><ele>126.5</ele><time>2026-04-23T14:22:58.183Z</time></trkpt><trkpt lat="45.6541966" lon="10.8921621"><ele>126.25</ele><time>2026-04-23T14:22:59.183Z</time></trkpt><trkpt lat="45.6542469" lon="10.892325"><ele>126.0</ele><time>2026-04-23T14:23:00.182Z</time></trkpt><trkpt lat="45.6542932" lon="10.8924925"><ele>125.75</ele><time>2026-04-23T14:23:01.183Z</time></trkpt><trkpt lat="45.6543367" lon="10.8926577"><ele>125.5</ele><time>2026-04-23T14:23:02.182Z</time></trkpt><trkpt lat="45.6543841" lon="10.8928243"><ele>125.25</ele><time>2026-04-23T14:23:03.182Z</time></trkpt><trkpt lat="45.654434" lon="10.8929846"><ele>125.0</ele><time>2026-04-23T14:23:04.183Z</time></trkpt><trkpt lat="45.6544867" lon="10.8931341"><ele>124.6</ele><time>2026-04-23T14:23:05.182Z</time></trkpt><trkpt lat="45.6545465" lon="10.8932741"><ele>124.2</ele><time>2026-04-23T14:23:06.182Z</time></trkpt><trkpt lat="45.6546108" lon="10.8934061"><ele>123.80000000000001</ele><time>2026-04-23T14:23:07.184Z</time></trkpt><trkpt lat="45.6546804" lon="10.8935228"><ele>123.4</ele><time>2026-04-23T14:23:08.182Z</time></trkpt><trkpt lat="45.6547563" lon="10.893624"><ele>123.0</ele><time>2026-04-23T14:23:09.183Z</time></trkpt><trkpt lat="45.6548422" lon="10.8937001"><ele>122.0</ele><time>2026-04-23T14:23:10.183Z</time></trkpt><trkpt lat="45.6549407" lon="10.893756"><ele>121.0</ele><time>2026-04-23T14:23:11.182Z</time></trkpt><trkpt lat="45.6550491" lon="10.8937949"><ele>120.0</ele><time>2026-04-23T14:23:12.182Z</time></trkpt><trkpt lat="45.6551635" lon="10.8938307"><ele>119.0</ele><time>2026-04-23T14:23:13.183Z</time></trkpt><trkpt lat="45.6552801" lon="10.8938597"><ele>119.5</ele><time>2026-04-23T14:23:14.182Z</time></trkpt><trkpt lat="45.6554023" lon="10.8938808"><ele>120.0</ele><time>2026-04-23T14:23:15.183Z</time></trkpt><trkpt lat="45.6555319" lon="10.8938942"><ele>120.5</ele><time>2026-04-23T14:23:16.183Z</time></trkpt><trkpt lat="45.6556637" lon="10.8939008"><ele>121.0</ele><time>2026-04-23T14:23:17.182Z</time></trkpt><trkpt lat="45.6557956" lon="10.8939172"><ele>121.0</ele><time>2026-04-23T14:23:18.183Z</time></trkpt><trkpt lat="45.6559286" lon="10.8939437"><ele>121.0</ele><time>2026-04-23T14:23:19.182Z</time></trkpt><trkpt lat="45.6560613" lon="10.8939736"><ele>121.0</ele><time>2026-04-23T14:23:20.183Z</time></trkpt><trkpt lat="45.6561934" lon="10.8939996"><ele>121.0</ele><time>2026-04-23T14:23:21.183Z</time></trkpt><trkpt lat="45.6563296" lon="10.8940207"><ele>120.5</ele><time>2026-04-23T14:23:22.182Z</time></trkpt><trkpt lat="45.6564645" lon="10.8940591"><ele>120.0</ele><time>2026-04-23T14:23:23.183Z</time></trkpt><trkpt lat="45.6565927" lon="10.8940976"><ele>119.5</ele><time>2026-04-23T14:23:24.182Z</time></trkpt><trkpt lat="45.6567247" lon="10.8941269"><ele>119.0</ele><time>2026-04-23T14:23:25.183Z</time></trkpt><trkpt lat="45.6568556" lon="10.894143"><ele>119.5</ele><time>2026-04-23T14:23:26.183Z</time></trkpt><trkpt lat="45.6569841" lon="10.8941476"><ele>120.0</ele><time>2026-04-23T14:23:27.182Z</time></trkpt><trkpt lat="45.6571134" lon="10.8941521"><ele>120.5</ele><time>2026-04-23T14:23:28.183Z</time></trkpt><trkpt lat="45.6572331" lon="10.8941636"><ele>121.0</ele><time>2026-04-23T14:23:29.183Z</time></trkpt><trkpt lat="45.6573511" lon="10.8941707"><ele>121.0</ele><time>2026-04-23T14:23:30.184Z</time></trkpt><trkpt lat="45.6574601" lon="10.89418"><ele>121.0</ele><time>2026-04-23T14:23:31.183Z</time></trkpt><trkpt lat="45.6575639" lon="10.8941908"><ele>121.0</ele><time>2026-04-23T14:23:32.182Z</time></trkpt><trkpt lat="45.6576667" lon="10.8942008"><ele>121.0</ele><time>2026-04-23T14:23:33.183Z</time></trkpt><trkpt lat="45.6577682" lon="10.8942112"><ele>121.0</ele><time>2026-04-23T14:23:34.182Z</time></trkpt><trkpt lat="45.6578691" lon="10.8942248"><ele>120.6</ele><time>2026-04-23T14:23:35.183Z</time></trkpt><trkpt lat="45.6579719" lon="10.8942456"><ele>120.19999999999999</ele><time>2026-04-23T14:23:36.182Z</time></trkpt><trkpt lat="45.6580733" lon="10.894273"><ele>119.80000000000001</ele><time>2026-04-23T14:23:37.183Z</time></trkpt><trkpt lat="45.6581791" lon="10.8943025"><ele>119.4</ele><time>2026-04-23T14:23:38.184Z</time></trkpt><trkpt lat="45.6582871" lon="10.894331"><ele>119.0</ele><time>2026-04-23T14:23:39.182Z</time></trkpt><trkpt lat="45.6583971" lon="10.8943625"><ele>119.0</ele><time>2026-04-23T14:23:40.183Z</time></trkpt><trkpt lat="45.6585135" lon="10.8944042"><ele>119.0</ele><time>2026-04-23T14:23:41.182Z</time></trkpt><trkpt lat="45.6586284" lon="10.8944644"><ele>119.0</ele><time>2026-04-23T14:23:42.182Z</time></trkpt><trkpt lat="45.6587399" lon="10.8945356"><ele>119.0</ele><time>2026-04-23T14:23:43.182Z</time></trkpt><trkpt lat="45.6588462" lon="10.8946211"><ele>119.5</ele><time>2026-04-23T14:23:44.183Z</time></trkpt><trkpt lat="45.6589484" lon="10.8947153"><ele>120.0</ele><time>2026-04-23T14:23:45.182Z</time></trkpt><trkpt lat="45.6590503" lon="10.8948089"><ele>120.5</ele><time>2026-04-23T14:23:46.183Z</time></trkpt><trkpt lat="45.6591494" lon="10.8948987"><ele>121.0</ele><time>2026-04-23T14:23:47.183Z</time></trkpt><trkpt lat="45.6592448" lon="10.894981"><ele>121.0</ele><time>2026-04-23T14:23:48.183Z</time></trkpt><trkpt lat="45.6593412" lon="10.8950502"><ele>121.0</ele><time>2026-04-23T14:23:49.184Z</time></trkpt><trkpt lat="45.6594346" lon="10.8950991"><ele>121.0</ele><time>2026-04-23T14:23:50.183Z</time></trkpt><trkpt lat="45.6595274" lon="10.8951367"><ele>121.0</ele><time>2026-04-23T14:23:51.183Z</time></trkpt><trkpt lat="45.6596188" lon="10.8951656"><ele>121.0</ele><time>2026-04-23T14:23:52.182Z</time></trkpt><trkpt lat="45.6597074" lon="10.8951938"><ele>120.19999999999999</ele><time>2026-04-23T14:23:53.182Z</time></trkpt><trkpt lat="45.6597985" lon="10.8952226"><ele>119.39999999999999</ele><time>2026-04-23T14:23:54.183Z</time></trkpt><trkpt lat="45.6598965" lon="10.8952572"><ele>118.6</ele><time>2026-04-23T14:23:55.182Z</time></trkpt><trkpt lat="45.6600021" lon="10.8952983"><ele>117.8</ele><time>2026-04-23T14:23:56.182Z</time></trkpt><trkpt lat="45.660116" lon="10.8953464"><ele>117.0</ele><time>2026-04-23T14:23:57.182Z</time></trkpt><trkpt lat="45.6602401" lon="10.8953959"><ele>118.0</ele><time>2026-04-23T14:23:58.182Z</time></trkpt><trkpt lat="45.6603725" lon="10.8954494"><ele>119.0</ele><time>2026-04-23T14:23:59.183Z</time></trkpt><trkpt lat="45.6605121" lon="10.8955061"><ele>120.0</ele><time>2026-04-23T14:24:00.182Z</time></trkpt><trkpt lat="45.6606597" lon="10.8955643"><ele>121.0</ele><time>2026-04-23T14:24:01.183Z</time></trkpt><trkpt lat="45.6608117" lon="10.8956238"><ele>121.0</ele><time>2026-04-23T14:24:02.183Z</time></trkpt><trkpt lat="45.6609713" lon="10.8956855"><ele>121.0</ele><time>2026-04-23T14:24:03.183Z</time></trkpt><trkpt lat="45.6611281" lon="10.8957526"><ele>121.0</ele><time>2026-04-23T14:24:04.182Z</time></trkpt><trkpt lat="45.6612802" lon="10.8958162"><ele>121.0</ele><time>2026-04-23T14:24:05.183Z</time></trkpt><trkpt lat="45.6614359" lon="10.8958761"><ele>121.0</ele><time>2026-04-23T14:24:06.184Z</time></trkpt><trkpt lat="45.6615909" lon="10.8959351"><ele>121.0</ele><time>2026-04-23T14:24:07.183Z</time></trkpt><trkpt lat="45.6617402" lon="10.8959863"><ele>120.0</ele><time>2026-04-23T14:24:08.183Z</time></trkpt><trkpt lat="45.661893" lon="10.8960205"><ele>119.0</ele><time>2026-04-23T14:24:09.183Z</time></trkpt><trkpt lat="45.6620485" lon="10.8960282"><ele>118.0</ele><time>2026-04-23T14:24:10.182Z</time></trkpt><trkpt lat="45.6621994" lon="10.8960167"><ele>118.0</ele><time>2026-04-23T14:24:11.183Z</time></trkpt><trkpt lat="45.6623429" lon="10.8959968"><ele>118.0</ele><time>2026-04-23T14:24:12.182Z</time></trkpt><trkpt lat="45.6624798" lon="10.8959737"><ele>118.0</ele><time>2026-04-23T14:24:13.182Z</time></trkpt><trkpt lat="45.6626139" lon="10.8959509"><ele>118.0</ele><time>2026-04-23T14:24:14.182Z</time></trkpt><trkpt lat="45.6627503" lon="10.8959302"><ele>119.0</ele><time>2026-04-23T14:24:15.183Z</time></trkpt><trkpt lat="45.6628921" lon="10.8959163"><ele>120.0</ele><time>2026-04-23T14:24:16.183Z</time></trkpt><trkpt lat="45.6630414" lon="10.8959125"><ele>121.0</ele><time>2026-04-23T14:24:17.182Z</time></trkpt><trkpt lat="45.6632018" lon="10.8959234"><ele>119.0</ele><time>2026-04-23T14:24:18.184Z</time></trkpt><trkpt lat="45.66337" lon="10.8959406"><ele>117.0</ele><time>2026-04-23T14:24:19.183Z</time></trkpt><trkpt lat="45.6635455" lon="10.8959706"><ele>115.0</ele><time>2026-04-23T14:24:20.182Z</time></trkpt><trkpt lat="45.6637195" lon="10.8960002"><ele>115.0</ele><time>2026-04-23T14:24:21.183Z</time></trkpt><trkpt lat="45.663887" lon="10.89603"><ele>115.0</ele><time>2026-04-23T14:24:22.183Z</time></trkpt><trkpt lat="45.6640533" lon="10.896062"><ele>115.0</ele><time>2026-04-23T14:24:23.183Z</time></trkpt><trkpt lat="45.6642107" lon="10.8960909"><ele>115.0</ele><time>2026-04-23T14:24:24.183Z</time></trkpt><trkpt lat="45.6643636" lon="10.8961196"><ele>115.0</ele><time>2026-04-23T14:24:25.183Z</time></trkpt><trkpt lat="45.6645181" lon="10.8961431"><ele>115.0</ele><time>2026-04-23T14:24:26.182Z</time></trkpt><trkpt lat="45.6646713" lon="10.896157"><ele>115.25</ele><time>2026-04-23T14:24:27.183Z</time></trkpt><trkpt lat="45.6648206" lon="10.8961555"><ele>115.5</ele><time>2026-04-23T14:24:28.182Z</time></trkpt><trkpt lat="45.6649667" lon="10.8961325"><ele>115.75</ele><time>2026-04-23T14:24:29.183Z</time></trkpt><trkpt lat="45.66511" lon="10.8960974"><ele>116.0</ele><time>2026-04-23T14:24:30.182Z</time></trkpt><trkpt lat="45.6652515" lon="10.8960425"><ele>116.0</ele><time>2026-04-23T14:24:31.184Z</time></trkpt><trkpt lat="45.6653931" lon="10.8959726"><ele>116.0</ele><time>2026-04-23T14:24:32.183Z</time></trkpt><trkpt lat="45.6655326" lon="10.8958924"><ele>116.0</ele><time>2026-04-23T14:24:33.182Z</time></trkpt><trkpt lat="45.6656623" lon="10.895812"><ele>116.0</ele><time>2026-04-23T14:24:34.184Z</time></trkpt><trkpt lat="45.665805" lon="10.895718"><ele>117.33333333333333</ele><time>2026-04-23T14:24:35.182Z</time></trkpt><trkpt lat="45.665953" lon="10.8956201"><ele>118.66666666666666</ele><time>2026-04-23T14:24:36.183Z</time></trkpt><trkpt lat="45.666103" lon="10.8955284"><ele>120.0</ele><time>2026-04-23T14:24:37.183Z</time></trkpt><trkpt lat="45.6662524" lon="10.8954418"><ele>120.0</ele><time>2026-04-23T14:24:38.183Z</time></trkpt><trkpt lat="45.6664064" lon="10.8953737"><ele>120.0</ele><time>2026-04-23T14:24:39.183Z</time></trkpt><trkpt lat="45.6665648" lon="10.8953194"><ele>120.0</ele><time>2026-04-23T14:24:40.183Z</time></trkpt><trkpt lat="45.6667272" lon="10.8952801"><ele>120.0</ele><time>2026-04-23T14:24:41.184Z</time></trkpt><trkpt lat="45.6668943" lon="10.8952477"><ele>120.0</ele><time>2026-04-23T14:24:42.183Z</time></trkpt><trkpt lat="45.6670565" lon="10.8952244"><ele>120.0</ele><time>2026-04-23T14:24:43.183Z</time></trkpt><trkpt lat="45.6672094" lon="10.8952099"><ele>119.75</ele><time>2026-04-23T14:24:44.183Z</time></trkpt><trkpt lat="45.6673557" lon="10.895201"><ele>119.5</ele><time>2026-04-23T14:24:45.184Z</time></trkpt><trkpt lat="45.6674979" lon="10.8951845"><ele>119.25</ele><time>2026-04-23T14:24:46.182Z</time></trkpt><trkpt lat="45.6676405" lon="10.8951561"><ele>119.0</ele><time>2026-04-23T14:24:47.184Z</time></trkpt><trkpt lat="45.6677839" lon="10.8951073"><ele>119.5</ele><time>2026-04-23T14:24:48.183Z</time></trkpt><trkpt lat="45.6679291" lon="10.8950417"><ele>120.0</ele><time>2026-04-23T14:24:49.184Z</time></trkpt><trkpt lat="45.6680706" lon="10.8949727"><ele>120.5</ele><time>2026-04-23T14:24:50.182Z</time></trkpt><trkpt lat="45.6682067" lon="10.8949035"><ele>121.0</ele><time>2026-04-23T14:24:51.184Z</time></trkpt><trkpt lat="45.668346" lon="10.8948362"><ele>121.0</ele><time>2026-04-23T14:24:52.183Z</time></trkpt><trkpt lat="45.6684918" lon="10.8947807"><ele>121.0</ele><time>2026-04-23T14:24:53.184Z</time></trkpt><trkpt lat="45.6686417" lon="10.8947285"><ele>121.0</ele><time>2026-04-23T14:24:54.183Z</time></trkpt><trkpt lat="45.668794" lon="10.8946731"><ele>120.33333333333334</ele><time>2026-04-23T14:24:55.184Z</time></trkpt><trkpt lat="45.6689508" lon="10.8946158"><ele>119.66666666666666</ele><time>2026-04-23T14:24:56.182Z</time></trkpt><trkpt lat="45.6691176" lon="10.8945516"><ele>119.0</ele><time>2026-04-23T14:24:57.183Z</time></trkpt><trkpt lat="45.6692958" lon="10.8944778"><ele>118.66666666666666</ele><time>2026-04-23T14:24:58.183Z</time></trkpt><trkpt lat="45.6694798" lon="10.8943982"><ele>118.33333333333334</ele><time>2026-04-23T14:24:59.183Z</time></trkpt><trkpt lat="45.66967" lon="10.8943157"><ele>118.0</ele><time>2026-04-23T14:25:00.184Z</time></trkpt><trkpt lat="45.6698642" lon="10.8942293"><ele>118.66666666666667</ele><time>2026-04-23T14:25:01.182Z</time></trkpt><trkpt lat="45.670067" lon="10.8941388"><ele>119.33333333333334</ele><time>2026-04-23T14:25:02.182Z</time></trkpt><trkpt lat="45.6702637" lon="10.8940452"><ele>120.0</ele><time>2026-04-23T14:25:03.183Z</time></trkpt><trkpt lat="45.6704514" lon="10.8939602"><ele>120.0</ele><time>2026-04-23T14:25:04.183Z</time></trkpt><trkpt lat="45.670631" lon="10.8938798"><ele>120.0</ele><time>2026-04-23T14:25:05.182Z</time></trkpt><trkpt lat="45.670804" lon="10.8938041"><ele>120.0</ele><time>2026-04-23T14:25:06.182Z</time></trkpt><trkpt lat="45.6709693" lon="10.8937298"><ele>120.33333333333334</ele><time>2026-04-23T14:25:07.184Z</time></trkpt><trkpt lat="45.6711353" lon="10.8936553"><ele>120.66666666666667</ele><time>2026-04-23T14:25:08.182Z</time></trkpt><trkpt lat="45.6712982" lon="10.8935862"><ele>121.0</ele><time>2026-04-23T14:25:09.183Z</time></trkpt><trkpt lat="45.6714623" lon="10.8935272"><ele>121.0</ele><time>2026-04-23T14:25:10.183Z</time></trkpt><trkpt lat="45.6716281" lon="10.8934999"><ele>121.0</ele><time>2026-04-23T14:25:11.183Z</time></trkpt><trkpt lat="45.6717951" lon="10.8934947"><ele>121.0</ele><time>2026-04-23T14:25:12.182Z</time></trkpt><trkpt lat="45.6719562" lon="10.8934946"><ele>120.66666666666667</ele><time>2026-04-23T14:25:13.182Z</time></trkpt><trkpt lat="45.6721092" lon="10.893497"><ele>120.33333333333334</ele><time>2026-04-23T14:25:14.182Z</time></trkpt><trkpt lat="45.6722629" lon="10.8934963"><ele>120.0</ele><time>2026-04-23T14:25:15.184Z</time></trkpt><trkpt lat="45.6724179" lon="10.8934845"><ele>120.0</ele><time>2026-04-23T14:25:16.183Z</time></trkpt><trkpt lat="45.6725706" lon="10.8934277"><ele>120.0</ele><time>2026-04-23T14:25:17.184Z</time></trkpt><trkpt lat="45.6727261" lon="10.8933511"><ele>120.0</ele><time>2026-04-23T14:25:18.184Z</time></trkpt><trkpt lat="45.6728886" lon="10.8932595"><ele>121.33333333333334</ele><time>2026-04-23T14:25:19.184Z</time></trkpt><trkpt lat="45.6730496" lon="10.8931668"><ele>122.66666666666667</ele><time>2026-04-23T14:25:20.183Z</time></trkpt><trkpt lat="45.6732027" lon="10.8930835"><ele>124.0</ele><time>2026-04-23T14:25:21.183Z</time></trkpt><trkpt lat="45.6733548" lon="10.8929991"><ele>124.0</ele><time>2026-04-23T14:25:22.183Z</time></trkpt><trkpt lat="45.6735086" lon="10.8929181"><ele>124.0</ele><time>2026-04-23T14:25:23.183Z</time></trkpt><trkpt lat="45.6736599" lon="10.8928668"><ele>124.0</ele><time>2026-04-23T14:25:24.182Z</time></trkpt><trkpt lat="45.6738149" lon="10.8928458"><ele>122.5</ele><time>2026-04-23T14:25:25.184Z</time></trkpt><trkpt lat="45.6739631" lon="10.8928393"><ele>121.0</ele><time>2026-04-23T14:25:26.183Z</time></trkpt><trkpt lat="45.6741091" lon="10.8928471"><ele>119.5</ele><time>2026-04-23T14:25:27.182Z</time></trkpt><trkpt lat="45.6742595" lon="10.8928564"><ele>118.0</ele><time>2026-04-23T14:25:28.182Z</time></trkpt><trkpt lat="45.6744122" lon="10.8928367"><ele>117.66666666666667</ele><time>2026-04-23T14:25:29.183Z</time></trkpt><trkpt lat="45.6745688" lon="10.8928001"><ele>117.33333333333334</ele><time>2026-04-23T14:25:30.183Z</time></trkpt><trkpt lat="45.6747296" lon="10.8927536"><ele>117.0</ele><time>2026-04-23T14:25:31.183Z</time></trkpt><trkpt lat="45.674895" lon="10.8927008"><ele>117.0</ele><time>2026-04-23T14:25:32.182Z</time></trkpt><trkpt lat="45.6750586" lon="10.8926465"><ele>117.0</ele><time>2026-04-23T14:25:33.182Z</time></trkpt><trkpt lat="45.6752173" lon="10.8925914"><ele>117.0</ele><time>2026-04-23T14:25:34.182Z</time></trkpt><trkpt lat="45.6753739" lon="10.8925387"><ele>124.66666666666666</ele><time>2026-04-23T14:25:35.183Z</time></trkpt><trkpt lat="45.675534" lon="10.8925052"><ele>132.33333333333331</ele><time>2026-04-23T14:25:36.183Z</time></trkpt><trkpt lat="45.6756997" lon="10.8924946"><ele>140.0</ele><time>2026-04-23T14:25:37.183Z</time></trkpt><trkpt lat="45.6758686" lon="10.8925053"><ele>140.0</ele><time>2026-04-23T14:25:38.183Z</time></trkpt><trkpt lat="45.6760402" lon="10.8925181"><ele>140.0</ele><time>2026-04-23T14:25:39.184Z</time></trkpt><trkpt lat="45.6762116" lon="10.8925182"><ele>140.0</ele><time>2026-04-23T14:25:40.183Z</time></trkpt><trkpt lat="45.6763827" lon="10.8924975"><ele>136.33333333333331</ele><time>2026-04-23T14:25:41.182Z</time></trkpt><trkpt lat="45.6765566" lon="10.8924561"><ele>132.66666666666666</ele><time>2026-04-23T14:25:42.182Z</time></trkpt><trkpt lat="45.6767341" lon="10.8924216"><ele>129.0</ele><time>2026-04-23T14:25:43.182Z</time></trkpt><trkpt lat="45.6769183" lon="10.8924106"><ele>127.33333333333334</ele><time>2026-04-23T14:25:44.183Z</time></trkpt><trkpt lat="45.6771057" lon="10.8924242"><ele>125.66666666666667</ele><time>2026-04-23T14:25:45.183Z</time></trkpt><trkpt lat="45.6772964" lon="10.8924426"><ele>124.0</ele><time>2026-04-23T14:25:46.183Z</time></trkpt><trkpt lat="45.6774819" lon="10.8924629"><ele>124.0</ele><time>2026-04-23T14:25:47.182Z</time></trkpt><trkpt lat="45.6776576" lon="10.8924832"><ele>124.0</ele><time>2026-04-23T14:25:48.182Z</time></trkpt><trkpt lat="45.6778259" lon="10.8925053"><ele>124.0</ele><time>2026-04-23T14:25:49.183Z</time></trkpt><trkpt lat="45.6779849" lon="10.8925414"><ele>122.0</ele><time>2026-04-23T14:25:50.183Z</time></trkpt><trkpt lat="45.6781396" lon="10.8926077"><ele>120.0</ele><time>2026-04-23T14:25:51.183Z</time></trkpt><trkpt lat="45.6782945" lon="10.8927069"><ele>118.0</ele><time>2026-04-23T14:25:52.182Z</time></trkpt><trkpt lat="45.6784472" lon="10.8928298"><ele>121.0</ele><time>2026-04-23T14:25:53.182Z</time></trkpt><trkpt lat="45.6786022" lon="10.8929656"><ele>124.0</ele><time>2026-04-23T14:25:54.181Z</time></trkpt><trkpt lat="45.6787571" lon="10.8931082"><ele>127.0</ele><time>2026-04-23T14:25:55.182Z</time></trkpt><trkpt lat="45.6789107" lon="10.8932487"><ele>127.0</ele><time>2026-04-23T14:25:56.181Z</time></trkpt><trkpt lat="45.6790693" lon="10.893391"><ele>127.0</ele><time>2026-04-23T14:25:57.183Z</time></trkpt><trkpt lat="45.6792271" lon="10.8935334"><ele>127.0</ele><time>2026-04-23T14:25:58.181Z</time></trkpt><trkpt lat="45.6793815" lon="10.8936769"><ele>125.66666666666667</ele><time>2026-04-23T14:25:59.182Z</time></trkpt><trkpt lat="45.6795293" lon="10.8938138"><ele>124.33333333333334</ele><time>2026-04-23T14:26:00.182Z</time></trkpt><trkpt lat="45.6796725" lon="10.893946"><ele>123.0</ele><time>2026-04-23T14:26:01.181Z</time></trkpt><trkpt lat="45.6798098" lon="10.8940679"><ele>123.0</ele><time>2026-04-23T14:26:02.182Z</time></trkpt><trkpt lat="45.6799487" lon="10.8941827"><ele>123.0</ele><time>2026-04-23T14:26:03.182Z</time></trkpt><trkpt lat="45.6800965" lon="10.8942668"><ele>123.0</ele><time>2026-04-23T14:26:04.182Z</time></trkpt><trkpt lat="45.6802551" lon="10.8943206"><ele>123.33333333333334</ele><time>2026-04-23T14:26:05.181Z</time></trkpt><trkpt lat="45.6804219" lon="10.8943535"><ele>123.66666666666667</ele><time>2026-04-23T14:26:06.183Z</time></trkpt><trkpt lat="45.6805927" lon="10.8943775"><ele>124.0</ele><time>2026-04-23T14:26:07.181Z</time></trkpt><trkpt lat="45.6807642" lon="10.8943965"><ele>124.0</ele><time>2026-04-23T14:26:08.183Z</time></trkpt><trkpt lat="45.6809307" lon="10.8944193"><ele>124.0</ele><time>2026-04-23T14:26:09.182Z</time></trkpt><trkpt lat="45.6810974" lon="10.8944413"><ele>124.0</ele><time>2026-04-23T14:26:10.182Z</time></trkpt><trkpt lat="45.681264" lon="10.8944631"><ele>125.66666666666667</ele><time>2026-04-23T14:26:11.182Z</time></trkpt><trkpt lat="45.6814313" lon="10.8944888"><ele>127.33333333333334</ele><time>2026-04-23T14:26:12.182Z</time></trkpt><trkpt lat="45.6815879" lon="10.8945159"><ele>129.0</ele><time>2026-04-23T14:26:13.182Z</time></trkpt><trkpt lat="45.6817402" lon="10.8945639"><ele>129.0</ele><time>2026-04-23T14:26:14.182Z</time></trkpt><trkpt lat="45.6818861" lon="10.8946511"><ele>129.0</ele><time>2026-04-23T14:26:15.183Z</time></trkpt><trkpt lat="45.6820248" lon="10.8947669"><ele>129.0</ele><time>2026-04-23T14:26:16.181Z</time></trkpt><trkpt lat="45.6821654" lon="10.8948937"><ele>128.66666666666666</ele><time>2026-04-23T14:26:17.182Z</time></trkpt><trkpt lat="45.6823086" lon="10.8950268"><ele>128.33333333333331</ele><time>2026-04-23T14:26:18.181Z</time></trkpt><trkpt lat="45.6824582" lon="10.8951686"><ele>128.0</ele><time>2026-04-23T14:26:19.182Z</time></trkpt><trkpt lat="45.682615" lon="10.8953132"><ele>131.66666666666666</ele><time>2026-04-23T14:26:20.181Z</time></trkpt><trkpt lat="45.6827672" lon="10.8954654"><ele>135.33333333333334</ele><time>2026-04-23T14:26:21.182Z</time></trkpt><trkpt lat="45.6829054" lon="10.8956167"><ele>139.0</ele><time>2026-04-23T14:26:22.182Z</time></trkpt><trkpt lat="45.6830343" lon="10.8957703"><ele>135.33333333333334</ele><time>2026-04-23T14:26:23.182Z</time></trkpt><trkpt lat="45.6831595" lon="10.8959309"><ele>131.66666666666666</ele><time>2026-04-23T14:26:24.182Z</time></trkpt><trkpt lat="45.6832796" lon="10.8961031"><ele>128.0</ele><time>2026-04-23T14:26:25.183Z</time></trkpt><trkpt lat="45.6833941" lon="10.896287"><ele>128.0</ele><time>2026-04-23T14:26:26.181Z</time></trkpt><trkpt lat="45.6835067" lon="10.8964802"><ele>128.0</ele><time>2026-04-23T14:26:27.183Z</time></trkpt><trkpt lat="45.6836123" lon="10.8966873"><ele>128.0</ele><time>2026-04-23T14:26:28.182Z</time></trkpt><trkpt lat="45.68371" lon="10.8969044"><ele>131.33333333333331</ele><time>2026-04-23T14:26:29.182Z</time></trkpt><trkpt lat="45.6838043" lon="10.8971238"><ele>134.66666666666666</ele><time>2026-04-23T14:26:30.181Z</time></trkpt><trkpt lat="45.6838942" lon="10.8973454"><ele>138.0</ele><time>2026-04-23T14:26:31.182Z</time></trkpt><trkpt lat="45.6839821" lon="10.8975725"><ele>136.33333333333334</ele><time>2026-04-23T14:26:32.182Z</time></trkpt><trkpt lat="45.684071" lon="10.8977991"><ele>134.66666666666669</ele><time>2026-04-23T14:26:33.182Z</time></trkpt><trkpt lat="45.684156" lon="10.8980167"><ele>133.0</ele><time>2026-04-23T14:26:34.182Z</time></trkpt><trkpt lat="45.6842359" lon="10.8982212"><ele>131.66666666666669</ele><time>2026-04-23T14:26:35.183Z</time></trkpt><trkpt lat="45.6843144" lon="10.8984298"><ele>130.33333333333334</ele><time>2026-04-23T14:26:36.181Z</time></trkpt><trkpt lat="45.6843978" lon="10.898636"><ele>129.0</ele><time>2026-04-23T14:26:37.182Z</time></trkpt><trkpt lat="45.6844894" lon="10.8988412"><ele>130.66666666666666</ele><time>2026-04-23T14:26:38.182Z</time></trkpt><trkpt lat="45.6845918" lon="10.8990363"><ele>132.33333333333331</ele><time>2026-04-23T14:26:39.182Z</time></trkpt><trkpt lat="45.6847023" lon="10.8992288"><ele>134.0</ele><time>2026-04-23T14:26:40.182Z</time></trkpt><trkpt lat="45.6848236" lon="10.8994197"><ele>134.0</ele><time>2026-04-23T14:26:41.182Z</time></trkpt><trkpt lat="45.6849534" lon="10.8996048"><ele>134.0</ele><time>2026-04-23T14:26:42.182Z</time></trkpt><trkpt lat="45.6850887" lon="10.8997865"><ele>134.0</ele><time>2026-04-23T14:26:43.182Z</time></trkpt><trkpt lat="45.6852256" lon="10.89997"><ele>133.66666666666666</ele><time>2026-04-23T14:26:44.182Z</time></trkpt><trkpt lat="45.6853543" lon="10.9001447"><ele>133.33333333333334</ele><time>2026-04-23T14:26:45.182Z</time></trkpt><trkpt lat="45.6854804" lon="10.9003076"><ele>133.0</ele><time>2026-04-23T14:26:46.181Z</time></trkpt><trkpt lat="45.6856135" lon="10.9004562"><ele>133.0</ele><time>2026-04-23T14:26:47.183Z</time></trkpt><trkpt lat="45.6857589" lon="10.9005779"><ele>133.0</ele><time>2026-04-23T14:26:48.182Z</time></trkpt><trkpt lat="45.6859153" lon="10.9006845"><ele>133.0</ele><time>2026-04-23T14:26:49.183Z</time></trkpt><trkpt lat="45.6860828" lon="10.9007717"><ele>132.66666666666669</ele><time>2026-04-23T14:26:50.181Z</time></trkpt><trkpt lat="45.6862543" lon="10.9008475"><ele>132.33333333333334</ele><time>2026-04-23T14:26:51.182Z</time></trkpt><trkpt lat="45.686425" lon="10.9009174"><ele>132.0</ele><time>2026-04-23T14:26:52.183Z</time></trkpt><trkpt lat="45.6865943" lon="10.9009787"><ele>129.0</ele><time>2026-04-23T14:26:53.182Z</time></trkpt><trkpt lat="45.6867681" lon="10.9010169"><ele>126.0</ele><time>2026-04-23T14:26:54.181Z</time></trkpt><trkpt lat="45.686942" lon="10.9010281"><ele>123.0</ele><time>2026-04-23T14:26:55.183Z</time></trkpt><trkpt lat="45.6871202" lon="10.9010222"><ele>123.0</ele><time>2026-04-23T14:26:56.181Z</time></trkpt><trkpt lat="45.6872994" lon="10.9010075"><ele>123.0</ele><time>2026-04-23T14:26:57.181Z</time></trkpt><trkpt lat="45.6874706" lon="10.9009857"><ele>123.0</ele><time>2026-04-23T14:26:58.182Z</time></trkpt><trkpt lat="45.6876355" lon="10.9009669"><ele>123.75</ele><time>2026-04-23T14:26:59.181Z</time></trkpt><trkpt lat="45.6877941" lon="10.9009643"><ele>124.5</ele><time>2026-04-23T14:27:00.182Z</time></trkpt><trkpt lat="45.6879418" lon="10.9009768"><ele>125.25</ele><time>2026-04-23T14:27:01.183Z</time></trkpt><trkpt lat="45.6880782" lon="10.9010045"><ele>126.0</ele><time>2026-04-23T14:27:02.181Z</time></trkpt><trkpt lat="45.6882079" lon="10.9010654"><ele>126.0</ele><time>2026-04-23T14:27:03.183Z</time></trkpt><trkpt lat="45.6883342" lon="10.901137"><ele>126.0</ele><time>2026-04-23T14:27:04.182Z</time></trkpt><trkpt lat="45.6884659" lon="10.9012082"><ele>126.0</ele><time>2026-04-23T14:27:05.182Z</time></trkpt><trkpt lat="45.6886045" lon="10.9012576"><ele>126.0</ele><time>2026-04-23T14:27:06.181Z</time></trkpt><trkpt lat="45.6887484" lon="10.9012753"><ele>126.5</ele><time>2026-04-23T14:27:07.181Z</time></trkpt><trkpt lat="45.6888928" lon="10.9012691"><ele>127.0</ele><time>2026-04-23T14:27:08.182Z</time></trkpt><trkpt lat="45.6890371" lon="10.9012312"><ele>127.5</ele><time>2026-04-23T14:27:09.182Z</time></trkpt><trkpt lat="45.6891767" lon="10.9011694"><ele>128.0</ele><time>2026-04-23T14:27:10.181Z</time></trkpt><trkpt lat="45.6893078" lon="10.9010844"><ele>127.5</ele><time>2026-04-23T14:27:11.182Z</time></trkpt><trkpt lat="45.6894328" lon="10.9009923"><ele>127.0</ele><time>2026-04-23T14:27:12.181Z</time></trkpt><trkpt lat="45.6895616" lon="10.9009249"><ele>126.5</ele><time>2026-04-23T14:27:13.183Z</time></trkpt><trkpt lat="45.6897004" lon="10.9008986"><ele>126.0</ele><time>2026-04-23T14:27:14.181Z</time></trkpt><trkpt lat="45.6898419" lon="10.900896"><ele>126.0</ele><time>2026-04-23T14:27:15.182Z</time></trkpt><trkpt lat="45.6899852" lon="10.9009236"><ele>126.0</ele><time>2026-04-23T14:27:16.182Z</time></trkpt><trkpt lat="45.690125" lon="10.9009883"><ele>126.0</ele><time>2026-04-23T14:27:17.182Z</time></trkpt><trkpt lat="45.6902585" lon="10.9010844"><ele>126.0</ele><time>2026-04-23T14:27:18.182Z</time></trkpt><trkpt lat="45.6903781" lon="10.9012062"><ele>128.0</ele><time>2026-04-23T14:27:19.182Z</time></trkpt><trkpt lat="45.6904763" lon="10.9013457"><ele>130.0</ele><time>2026-04-23T14:27:20.181Z</time></trkpt><trkpt lat="45.690555" lon="10.9014974"><ele>132.0</ele><time>2026-04-23T14:27:21.183Z</time></trkpt><trkpt lat="45.6906184" lon="10.9016628"><ele>134.0</ele><time>2026-04-23T14:27:22.182Z</time></trkpt><trkpt lat="45.6906809" lon="10.901848"><ele>134.0</ele><time>2026-04-23T14:27:23.181Z</time></trkpt><trkpt lat="45.6907457" lon="10.9020408"><ele>134.0</ele><time>2026-04-23T14:27:24.182Z</time></trkpt><trkpt lat="45.6908158" lon="10.9022417"><ele>134.0</ele><time>2026-04-23T14:27:25.182Z</time></trkpt><trkpt lat="45.6908877" lon="10.9024499"><ele>132.0</ele><time>2026-04-23T14:27:26.181Z</time></trkpt><trkpt lat="45.6909626" lon="10.9026657"><ele>130.0</ele><time>2026-04-23T14:27:27.182Z</time></trkpt><trkpt lat="45.6910381" lon="10.90289"><ele>128.0</ele><time>2026-04-23T14:27:28.182Z</time></trkpt><trkpt lat="45.6911136" lon="10.9031204"><ele>131.33333333333331</ele><time>2026-04-23T14:27:29.181Z</time></trkpt><trkpt lat="45.6911888" lon="10.9033503"><ele>134.66666666666666</ele><time>2026-04-23T14:27:30.182Z</time></trkpt><trkpt lat="45.6912599" lon="10.9035798"><ele>138.0</ele><time>2026-04-23T14:27:31.182Z</time></trkpt><trkpt lat="45.6913216" lon="10.9038128"><ele>138.0</ele><time>2026-04-23T14:27:32.181Z</time></trkpt><trkpt lat="45.6913725" lon="10.9040483"><ele>138.0</ele><time>2026-04-23T14:27:33.182Z</time></trkpt><trkpt lat="45.6914151" lon="10.9042849"><ele>138.0</ele><time>2026-04-23T14:27:34.182Z</time></trkpt><trkpt lat="45.6914499" lon="10.9045102"><ele>137.33333333333334</ele><time>2026-04-23T14:27:35.182Z</time></trkpt><trkpt lat="45.6914871" lon="10.9047265"><ele>136.66666666666669</ele><time>2026-04-23T14:27:36.181Z</time></trkpt><trkpt lat="45.6915261" lon="10.904934"><ele>136.0</ele><time>2026-04-23T14:27:37.181Z</time></trkpt><trkpt lat="45.6915741" lon="10.9051336"><ele>134.33333333333334</ele><time>2026-04-23T14:27:38.181Z</time></trkpt><trkpt lat="45.6916379" lon="10.9053302"><ele>132.66666666666666</ele><time>2026-04-23T14:27:39.182Z</time></trkpt><trkpt lat="45.6917209" lon="10.9055257"><ele>131.0</ele><time>2026-04-23T14:27:40.181Z</time></trkpt><trkpt lat="45.6918188" lon="10.9057216"><ele>130.66666666666666</ele><time>2026-04-23T14:27:41.182Z</time></trkpt><trkpt lat="45.6919157" lon="10.9059238"><ele>130.33333333333334</ele><time>2026-04-23T14:27:42.182Z</time></trkpt><trkpt lat="45.6920047" lon="10.9061346"><ele>130.0</ele><time>2026-04-23T14:27:43.181Z</time></trkpt><trkpt lat="45.6920843" lon="10.9063546"><ele>130.0</ele><time>2026-04-23T14:27:44.181Z</time></trkpt><trkpt lat="45.6921551" lon="10.9065824"><ele>130.0</ele><time>2026-04-23T14:27:45.181Z</time></trkpt><trkpt lat="45.6922291" lon="10.9068135"><ele>130.0</ele><time>2026-04-23T14:27:46.182Z</time></trkpt><trkpt lat="45.6923014" lon="10.9070472"><ele>129.0</ele><time>2026-04-23T14:27:47.181Z</time></trkpt><trkpt lat="45.6923749" lon="10.9072855"><ele>128.0</ele><time>2026-04-23T14:27:48.182Z</time></trkpt><trkpt lat="45.6924587" lon="10.9075236"><ele>127.0</ele><time>2026-04-23T14:27:49.182Z</time></trkpt><trkpt lat="45.6925648" lon="10.9077496"><ele>126.66666666666667</ele><time>2026-04-23T14:27:50.182Z</time></trkpt><trkpt lat="45.6926854" lon="10.9079648"><ele>126.33333333333334</ele><time>2026-04-23T14:27:51.181Z</time></trkpt><trkpt lat="45.6928193" lon="10.9081732"><ele>126.0</ele><time>2026-04-23T14:27:52.182Z</time></trkpt><trkpt lat="45.692962" lon="10.9083648"><ele>128.0</ele><time>2026-04-23T14:27:53.181Z</time></trkpt><trkpt lat="45.6931005" lon="10.9085331"><ele>130.0</ele><time>2026-04-23T14:27:54.182Z</time></trkpt><trkpt lat="45.6932316" lon="10.9086978"><ele>132.0</ele><time>2026-04-23T14:27:55.181Z</time></trkpt><trkpt lat="45.6933563" lon="10.9088707"><ele>132.0</ele><time>2026-04-23T14:27:56.181Z</time></trkpt><trkpt lat="45.6934726" lon="10.9090557"><ele>132.0</ele><time>2026-04-23T14:27:57.181Z</time></trkpt><trkpt lat="45.6935761" lon="10.9092564"><ele>132.0</ele><time>2026-04-23T14:27:58.181Z</time></trkpt><trkpt lat="45.693679" lon="10.9094608"><ele>132.66666666666666</ele><time>2026-04-23T14:27:59.183Z</time></trkpt><trkpt lat="45.693787" lon="10.9096661"><ele>133.33333333333331</ele><time>2026-04-23T14:28:00.181Z</time></trkpt><trkpt lat="45.6938959" lon="10.909877"><ele>134.0</ele><time>2026-04-23T14:28:01.182Z</time></trkpt><trkpt lat="45.694007" lon="10.9100954"><ele>132.33333333333331</ele><time>2026-04-23T14:28:02.182Z</time></trkpt><trkpt lat="45.6941204" lon="10.9103184"><ele>130.66666666666666</ele><time>2026-04-23T14:28:03.181Z</time></trkpt><trkpt lat="45.6942376" lon="10.910544"><ele>129.0</ele><time>2026-04-23T14:28:04.182Z</time></trkpt><trkpt lat="45.6943554" lon="10.9107713"><ele>131.0</ele><time>2026-04-23T14:28:05.181Z</time></trkpt><trkpt lat="45.694476" lon="10.9110039"><ele>133.0</ele><time>2026-04-23T14:28:06.181Z</time></trkpt><trkpt lat="45.6945981" lon="10.911238"><ele>135.0</ele><time>2026-04-23T14:28:07.181Z</time></trkpt><trkpt lat="45.6947192" lon="10.9114684"><ele>135.0</ele><time>2026-04-23T14:28:08.182Z</time></trkpt><trkpt lat="45.6948383" lon="10.9116937"><ele>135.0</ele><time>2026-04-23T14:28:09.181Z</time></trkpt><trkpt lat="45.6949538" lon="10.9119157"><ele>135.0</ele><time>2026-04-23T14:28:10.181Z</time></trkpt><trkpt lat="45.6950686" lon="10.9121366"><ele>134.0</ele><time>2026-04-23T14:28:11.182Z</time></trkpt><trkpt lat="45.6951814" lon="10.9123582"><ele>133.0</ele><time>2026-04-23T14:28:12.181Z</time></trkpt><trkpt lat="45.6952945" lon="10.9125788"><ele>132.0</ele><time>2026-04-23T14:28:13.182Z</time></trkpt><trkpt lat="45.6954087" lon="10.9128018"><ele>132.0</ele><time>2026-04-23T14:28:14.182Z</time></trkpt><trkpt lat="45.6955232" lon="10.9130243"><ele>132.0</ele><time>2026-04-23T14:28:15.181Z</time></trkpt><trkpt lat="45.6956371" lon="10.9132477"><ele>132.0</ele><time>2026-04-23T14:28:16.182Z</time></trkpt><trkpt lat="45.6957521" lon="10.9134729"><ele>132.66666666666666</ele><time>2026-04-23T14:28:17.181Z</time></trkpt><trkpt lat="45.69587" lon="10.9136979"><ele>133.33333333333331</ele><time>2026-04-23T14:28:18.182Z</time></trkpt><trkpt lat="45.6959887" lon="10.9139243"><ele>134.0</ele><time>2026-04-23T14:28:19.181Z</time></trkpt><trkpt lat="45.6960981" lon="10.9141458"><ele>132.66666666666666</ele><time>2026-04-23T14:28:20.182Z</time></trkpt><trkpt lat="45.6961951" lon="10.9143766"><ele>131.33333333333334</ele><time>2026-04-23T14:28:21.182Z</time></trkpt><trkpt lat="45.6962769" lon="10.9146133"><ele>130.0</ele><time>2026-04-23T14:28:22.182Z</time></trkpt><trkpt lat="45.6963452" lon="10.9148511"><ele>129.33333333333334</ele><time>2026-04-23T14:28:23.181Z</time></trkpt><trkpt lat="45.6964142" lon="10.915084"><ele>128.66666666666666</ele><time>2026-04-23T14:28:24.182Z</time></trkpt><trkpt lat="45.6964886" lon="10.9153069"><ele>128.0</ele><time>2026-04-23T14:28:25.182Z</time></trkpt><trkpt lat="45.6965799" lon="10.9155132"><ele>128.0</ele><time>2026-04-23T14:28:26.181Z</time></trkpt><trkpt lat="45.6966865" lon="10.9157056"><ele>128.0</ele><time>2026-04-23T14:28:27.182Z</time></trkpt><trkpt lat="45.6968119" lon="10.9158797"><ele>128.0</ele><time>2026-04-23T14:28:28.181Z</time></trkpt><trkpt lat="45.6969525" lon="10.9160291"><ele>128.66666666666666</ele><time>2026-04-23T14:28:29.182Z</time></trkpt><trkpt lat="45.6971052" lon="10.9161686"><ele>129.33333333333334</ele><time>2026-04-23T14:28:30.182Z</time></trkpt><trkpt lat="45.6972624" lon="10.9163098"><ele>130.0</ele><time>2026-04-23T14:28:31.181Z</time></trkpt><trkpt lat="45.6974239" lon="10.9164561"><ele>130.0</ele><time>2026-04-23T14:28:32.182Z</time></trkpt><trkpt lat="45.6975872" lon="10.9166001"><ele>130.0</ele><time>2026-04-23T14:28:33.182Z</time></trkpt><trkpt lat="45.6977487" lon="10.9167444"><ele>130.0</ele><time>2026-04-23T14:28:34.181Z</time></trkpt><trkpt lat="45.6979064" lon="10.9168862"><ele>128.33333333333334</ele><time>2026-04-23T14:28:35.182Z</time></trkpt><trkpt lat="45.6980655" lon="10.9170261"><ele>126.66666666666666</ele><time>2026-04-23T14:28:36.181Z</time></trkpt><trkpt lat="45.6982309" lon="10.9171619"><ele>125.0</ele><time>2026-04-23T14:28:37.182Z</time></trkpt><trkpt lat="45.6984063" lon="10.9172911"><ele>125.33333333333333</ele><time>2026-04-23T14:28:38.181Z</time></trkpt><trkpt lat="45.6985898" lon="10.9174148"><ele>125.66666666666666</ele><time>2026-04-23T14:28:39.183Z</time></trkpt><trkpt lat="45.6987805" lon="10.9175341"><ele>126.0</ele><time>2026-04-23T14:28:40.183Z</time></trkpt><trkpt lat="45.698976" lon="10.9176517"><ele>125.66666666666666</ele><time>2026-04-23T14:28:41.181Z</time></trkpt><trkpt lat="45.699169" lon="10.9177708"><ele>125.33333333333333</ele><time>2026-04-23T14:28:42.182Z</time></trkpt><trkpt lat="45.699357" lon="10.9178855"><ele>125.0</ele><time>2026-04-23T14:28:43.181Z</time></trkpt><trkpt lat="45.6995408" lon="10.9179948"><ele>125.0</ele><time>2026-04-23T14:28:44.182Z</time></trkpt><trkpt lat="45.6997214" lon="10.918104"><ele>125.0</ele><time>2026-04-23T14:28:45.182Z</time></trkpt><trkpt lat="45.6998968" lon="10.9182113"><ele>125.0</ele><time>2026-04-23T14:28:46.182Z</time></trkpt><trkpt lat="45.7000688" lon="10.9183152"><ele>124.66666666666666</ele><time>2026-04-23T14:28:47.182Z</time></trkpt><trkpt lat="45.7002384" lon="10.9184211"><ele>124.33333333333334</ele><time>2026-04-23T14:28:48.182Z</time></trkpt><trkpt lat="45.7004065" lon="10.9185302"><ele>124.0</ele><time>2026-04-23T14:28:49.181Z</time></trkpt><trkpt lat="45.7005704" lon="10.9186479"><ele>125.0</ele><time>2026-04-23T14:28:50.181Z</time></trkpt><trkpt lat="45.7007285" lon="10.9187778"><ele>126.0</ele><time>2026-04-23T14:28:51.182Z</time></trkpt><trkpt lat="45.7008749" lon="10.9189052"><ele>127.0</ele><time>2026-04-23T14:28:52.182Z</time></trkpt><trkpt lat="45.7010154" lon="10.9190283"><ele>126.0</ele><time>2026-04-23T14:28:53.181Z</time></trkpt><trkpt lat="45.7011555" lon="10.9191438"><ele>125.0</ele><time>2026-04-23T14:28:54.183Z</time></trkpt><trkpt lat="45.7012993" lon="10.9192555"><ele>124.0</ele><time>2026-04-23T14:28:55.183Z</time></trkpt><trkpt lat="45.7014516" lon="10.9193606"><ele>124.0</ele><time>2026-04-23T14:28:56.182Z</time></trkpt><trkpt lat="45.7016103" lon="10.9194655"><ele>124.0</ele><time>2026-04-23T14:28:57.182Z</time></trkpt><trkpt lat="45.7017729" lon="10.9195746"><ele>124.0</ele><time>2026-04-23T14:28:58.181Z</time></trkpt><trkpt lat="45.701939" lon="10.9196857"><ele>125.33333333333334</ele><time>2026-04-23T14:28:59.182Z</time></trkpt><trkpt lat="45.7021076" lon="10.9197996"><ele>126.66666666666666</ele><time>2026-04-23T14:29:00.181Z</time></trkpt><trkpt lat="45.7022701" lon="10.919909"><ele>128.0</ele><time>2026-04-23T14:29:01.182Z</time></trkpt><trkpt lat="45.7024271" lon="10.9200132"><ele>128.33333333333331</ele><time>2026-04-23T14:29:02.181Z</time></trkpt><trkpt lat="45.702582" lon="10.9201184"><ele>128.66666666666666</ele><time>2026-04-23T14:29:03.181Z</time></trkpt><trkpt lat="45.7027312" lon="10.9202266"><ele>129.0</ele><time>2026-04-23T14:29:04.182Z</time></trkpt><trkpt lat="45.7028694" lon="10.9203345"><ele>129.0</ele><time>2026-04-23T14:29:05.181Z</time></trkpt><trkpt lat="45.7030023" lon="10.9204444"><ele>129.0</ele><time>2026-04-23T14:29:06.182Z</time></trkpt><trkpt lat="45.7031254" lon="10.9205509"><ele>129.0</ele><time>2026-04-23T14:29:07.182Z</time></trkpt><trkpt lat="45.703249" lon="10.9206574"><ele>129.0</ele><time>2026-04-23T14:29:08.183Z</time></trkpt><trkpt lat="45.7033739" lon="10.9207658"><ele>129.0</ele><time>2026-04-23T14:29:09.181Z</time></trkpt><trkpt lat="45.703502" lon="10.9208756"><ele>129.0</ele><time>2026-04-23T14:29:10.182Z</time></trkpt><trkpt lat="45.703632" lon="10.920986"><ele>129.0</ele><time>2026-04-23T14:29:11.181Z</time></trkpt><trkpt lat="45.7037583" lon="10.9210913"><ele>129.0</ele><time>2026-04-23T14:29:12.182Z</time></trkpt><trkpt lat="45.70388" lon="10.9211883"><ele>129.0</ele><time>2026-04-23T14:29:13.183Z</time></trkpt><trkpt lat="45.7039966" lon="10.9212752"><ele>129.0</ele><time>2026-04-23T14:29:14.182Z</time></trkpt><trkpt lat="45.7041108" lon="10.921355"><ele>129.0</ele><time>2026-04-23T14:29:15.183Z</time></trkpt><trkpt lat="45.7042214" lon="10.9214292"><ele>129.0</ele><time>2026-04-23T14:29:16.182Z</time></trkpt><trkpt lat="45.7043266" lon="10.9215022"><ele>129.0</ele><time>2026-04-23T14:29:17.181Z</time></trkpt><trkpt lat="45.7044288" lon="10.9215792"><ele>129.0</ele><time>2026-04-23T14:29:18.181Z</time></trkpt><trkpt lat="45.7045322" lon="10.9216702"><ele>129.0</ele><time>2026-04-23T14:29:19.182Z</time></trkpt><trkpt lat="45.7046359" lon="10.921771"><ele>129.0</ele><time>2026-04-23T14:29:20.181Z</time></trkpt><trkpt lat="45.7047381" lon="10.9218728"><ele>129.0</ele><time>2026-04-23T14:29:21.182Z</time></trkpt><trkpt lat="45.7048382" lon="10.9219814"><ele>129.0</ele><time>2026-04-23T14:29:22.182Z</time></trkpt><trkpt lat="45.7049378" lon="10.9220998"><ele>129.0</ele><time>2026-04-23T14:29:23.182Z</time></trkpt><trkpt lat="45.7050413" lon="10.9222203"><ele>129.0</ele><time>2026-04-23T14:29:24.181Z</time></trkpt><trkpt lat="45.7051495" lon="10.9223437"><ele>129.0</ele><time>2026-04-23T14:29:25.182Z</time></trkpt><trkpt lat="45.7052636" lon="10.9224694"><ele>129.0</ele><time>2026-04-23T14:29:26.181Z</time></trkpt><trkpt lat="45.7053827" lon="10.9226001"><ele>129.0</ele><time>2026-04-23T14:29:27.181Z</time></trkpt><trkpt lat="45.7055115" lon="10.9227271"><ele>129.0</ele><time>2026-04-23T14:29:28.182Z</time></trkpt><trkpt lat="45.7056479" lon="10.9228582"><ele>129.0</ele><time>2026-04-23T14:29:29.181Z</time></trkpt><trkpt lat="45.7057889" lon="10.922997"><ele>129.0</ele><time>2026-04-23T14:29:30.182Z</time></trkpt><trkpt lat="45.705939" lon="10.9231381"><ele>128.33333333333334</ele><time>2026-04-23T14:29:31.182Z</time></trkpt><trkpt lat="45.7060964" lon="10.9232805"><ele>127.66666666666667</ele><time>2026-04-23T14:29:32.181Z</time></trkpt><trkpt lat="45.7062585" lon="10.9234256"><ele>127.0</ele><time>2026-04-23T14:29:33.182Z</time></trkpt><trkpt lat="45.7064273" lon="10.9235631"><ele>127.0</ele><time>2026-04-23T14:29:34.182Z</time></trkpt><trkpt lat="45.7065931" lon="10.9236977"><ele>127.0</ele><time>2026-04-23T14:29:35.182Z</time></trkpt><trkpt lat="45.706752" lon="10.923825"><ele>127.0</ele><time>2026-04-23T14:29:36.181Z</time></trkpt><trkpt lat="45.7069122" lon="10.9239378"><ele>128.66666666666669</ele><time>2026-04-23T14:29:37.182Z</time></trkpt><trkpt lat="45.7070761" lon="10.9240366"><ele>130.33333333333334</ele><time>2026-04-23T14:29:38.183Z</time></trkpt><trkpt lat="45.7072476" lon="10.92413"><ele>132.0</ele><time>2026-04-23T14:29:39.181Z</time></trkpt><trkpt lat="45.7074224" lon="10.9242227"><ele>130.33333333333334</ele><time>2026-04-23T14:29:40.182Z</time></trkpt><trkpt lat="45.7076015" lon="10.9243162"><ele>128.66666666666669</ele><time>2026-04-23T14:29:41.182Z</time></trkpt><trkpt lat="45.7077884" lon="10.9244078"><ele>127.0</ele><time>2026-04-23T14:29:42.182Z</time></trkpt><trkpt lat="45.7079803" lon="10.9245001"><ele>127.0</ele><time>2026-04-23T14:29:43.182Z</time></trkpt><trkpt lat="45.7081827" lon="10.9245928"><ele>127.0</ele><time>2026-04-23T14:29:44.182Z</time></trkpt><trkpt lat="45.7083857" lon="10.9246928"><ele>127.0</ele><time>2026-04-23T14:29:45.181Z</time></trkpt><trkpt lat="45.7085764" lon="10.9248013"><ele>127.66666666666667</ele><time>2026-04-23T14:29:46.183Z</time></trkpt><trkpt lat="45.7087573" lon="10.9249143"><ele>128.33333333333334</ele><time>2026-04-23T14:29:47.182Z</time></trkpt><trkpt lat="45.7089342" lon="10.9250164"><ele>129.0</ele><time>2026-04-23T14:29:48.183Z</time></trkpt><trkpt lat="45.7091067" lon="10.9251102"><ele>129.0</ele><time>2026-04-23T14:29:49.182Z</time></trkpt><trkpt lat="45.7092751" lon="10.9252068"><ele>129.0</ele><time>2026-04-23T14:29:50.181Z</time></trkpt><trkpt lat="45.7094371" lon="10.9253117"><ele>129.0</ele><time>2026-04-23T14:29:51.181Z</time></trkpt><trkpt lat="45.7095963" lon="10.9254205"><ele>129.33333333333334</ele><time>2026-04-23T14:29:52.181Z</time></trkpt><trkpt lat="45.709754" lon="10.9255315"><ele>129.66666666666669</ele><time>2026-04-23T14:29:53.182Z</time></trkpt><trkpt lat="45.7099118" lon="10.9256466"><ele>130.0</ele><time>2026-04-23T14:29:54.183Z</time></trkpt><trkpt lat="45.7100691" lon="10.9257643"><ele>130.0</ele><time>2026-04-23T14:29:55.182Z</time></trkpt><trkpt lat="45.7102278" lon="10.925884"><ele>130.0</ele><time>2026-04-23T14:29:56.182Z</time></trkpt><trkpt lat="45.7103862" lon="10.9260023"><ele>130.0</ele><time>2026-04-23T14:29:57.181Z</time></trkpt><trkpt lat="45.7105423" lon="10.9261123"><ele>129.33333333333334</ele><time>2026-04-23T14:29:58.182Z</time></trkpt><trkpt lat="45.7106978" lon="10.9262156"><ele>128.66666666666666</ele><time>2026-04-23T14:29:59.181Z</time></trkpt><trkpt lat="45.7108568" lon="10.9263089"><ele>128.0</ele><time>2026-04-23T14:30:00.182Z</time></trkpt><trkpt lat="45.711021" lon="10.9263953"><ele>130.0</ele><time>2026-04-23T14:30:01.181Z</time></trkpt><trkpt lat="45.7111879" lon="10.926482"><ele>132.0</ele><time>2026-04-23T14:30:02.182Z</time></trkpt><trkpt lat="45.7113606" lon="10.9265624"><ele>134.0</ele><time>2026-04-23T14:30:03.181Z</time></trkpt><trkpt lat="45.7115345" lon="10.9266401"><ele>134.0</ele><time>2026-04-23T14:30:04.181Z</time></trkpt><trkpt lat="45.7117103" lon="10.9267067"><ele>134.0</ele><time>2026-04-23T14:30:05.182Z</time></trkpt><trkpt lat="45.7118775" lon="10.9267658"><ele>134.0</ele><time>2026-04-23T14:30:06.182Z</time></trkpt><trkpt lat="45.7120301" lon="10.9268171"><ele>132.4</ele><time>2026-04-23T14:30:07.181Z</time></trkpt><trkpt lat="45.7121639" lon="10.92686"><ele>130.8</ele><time>2026-04-23T14:30:08.182Z</time></trkpt><trkpt lat="45.7122751" lon="10.9268949"><ele>129.2</ele><time>2026-04-23T14:30:09.182Z</time></trkpt><trkpt lat="45.7123672" lon="10.9269219"><ele>127.6</ele><time>2026-04-23T14:30:10.181Z</time></trkpt><trkpt lat="45.7124436" lon="10.9269433"><ele>126.0</ele><time>2026-04-23T14:30:11.182Z</time></trkpt><trkpt lat="45.7125057" lon="10.9269589"><ele>126.0</ele><time>2026-04-23T14:30:12.181Z</time></trkpt><trkpt lat="45.7126104" lon="10.9269893"><ele>126.0</ele><time>2026-04-23T14:30:14.182Z</time></trkpt><trkpt lat="45.7127069" lon="10.9270184"><ele>126.0</ele><time>2026-04-23T14:30:16.181Z</time></trkpt><trkpt lat="45.7127984" lon="10.9270482"><ele>126.0</ele><time>2026-04-23T14:30:18.182Z</time></trkpt><trkpt lat="45.7128869" lon="10.9270737"><ele>126.0</ele><time>2026-04-23T14:30:20.182Z</time></trkpt><trkpt lat="45.7129953" lon="10.9271033"><ele>126.16666666666667</ele><time>2026-04-23T14:30:22.182Z</time></trkpt><trkpt lat="45.7131202" lon="10.9271448"><ele>126.33333333333334</ele><time>2026-04-23T14:30:24.182Z</time></trkpt><trkpt lat="45.7131854" lon="10.9271742"><ele>126.5</ele><time>2026-04-23T14:30:25.181Z</time></trkpt><trkpt lat="45.7132535" lon="10.9272074"><ele>126.66666666666667</ele><time>2026-04-23T14:30:26.183Z</time></trkpt><trkpt lat="45.7133232" lon="10.9272409"><ele>126.83333333333334</ele><time>2026-04-23T14:30:27.182Z</time></trkpt><trkpt lat="45.7133974" lon="10.9272784"><ele>127.0</ele><time>2026-04-23T14:30:28.182Z</time></trkpt><trkpt lat="45.7134827" lon="10.9273165"><ele>128.6</ele><time>2026-04-23T14:30:29.182Z</time></trkpt><trkpt lat="45.7135741" lon="10.9273505"><ele>130.2</ele><time>2026-04-23T14:30:30.182Z</time></trkpt><trkpt lat="45.7136663" lon="10.9273869"><ele>131.8</ele><time>2026-04-23T14:30:31.181Z</time></trkpt><trkpt lat="45.7137412" lon="10.9274201"><ele>133.4</ele><time>2026-04-23T14:30:32.182Z</time></trkpt><trkpt lat="45.7138052" lon="10.9274567"><ele>135.0</ele><time>2026-04-23T14:30:33.182Z</time></trkpt><trkpt lat="45.7139275" lon="10.9275114"><ele>135.0</ele><time>2026-04-23T14:30:35.183Z</time></trkpt><trkpt lat="45.7139964" lon="10.9275382"><ele>135.0</ele><time>2026-04-23T14:30:36.181Z</time></trkpt><trkpt lat="45.7140734" lon="10.9275639"><ele>135.0</ele><time>2026-04-23T14:30:37.181Z</time></trkpt><trkpt lat="45.7141534" lon="10.9275869"><ele>135.0</ele><time>2026-04-23T14:30:38.182Z</time></trkpt><trkpt lat="45.7142305" lon="10.9276049"><ele>135.0</ele><time>2026-04-23T14:30:39.182Z</time></trkpt><trkpt lat="45.7143081" lon="10.9276215"><ele>135.0</ele><time>2026-04-23T14:30:40.181Z</time></trkpt><trkpt lat="45.7143803" lon="10.9276353"><ele>133.2</ele><time>2026-04-23T14:30:41.183Z</time></trkpt><trkpt lat="45.7144551" lon="10.927645"><ele>131.4</ele><time>2026-04-23T14:30:42.182Z</time></trkpt><trkpt lat="45.7145395" lon="10.9276563"><ele>129.6</ele><time>2026-04-23T14:30:43.182Z</time></trkpt><trkpt lat="45.7146315" lon="10.9276656"><ele>127.8</ele><time>2026-04-23T14:30:44.182Z</time></trkpt><trkpt lat="45.7147294" lon="10.9276724"><ele>126.0</ele><time>2026-04-23T14:30:45.181Z</time></trkpt><trkpt lat="45.7148291" lon="10.927677"><ele>126.0</ele><time>2026-04-23T14:30:46.182Z</time></trkpt><trkpt lat="45.7149348" lon="10.9276789"><ele>126.0</ele><time>2026-04-23T14:30:47.182Z</time></trkpt><trkpt lat="45.7150392" lon="10.9276793"><ele>126.0</ele><time>2026-04-23T14:30:48.182Z</time></trkpt><trkpt lat="45.7151429" lon="10.9276805"><ele>126.0</ele><time>2026-04-23T14:30:49.182Z</time></trkpt><trkpt lat="45.7152448" lon="10.927682"><ele>126.0</ele><time>2026-04-23T14:30:50.182Z</time></trkpt><trkpt lat="45.715341" lon="10.9276847"><ele>126.6</ele><time>2026-04-23T14:30:51.181Z</time></trkpt><trkpt lat="45.7154356" lon="10.9276848"><ele>127.19999999999999</ele><time>2026-04-23T14:30:52.181Z</time></trkpt><trkpt lat="45.7155252" lon="10.9276842"><ele>127.80000000000001</ele><time>2026-04-23T14:30:53.183Z</time></trkpt><trkpt lat="45.7156165" lon="10.9276889"><ele>128.4</ele><time>2026-04-23T14:30:54.181Z</time></trkpt><trkpt lat="45.7157147" lon="10.927696"><ele>129.0</ele><time>2026-04-23T14:30:55.182Z</time></trkpt><trkpt lat="45.7158229" lon="10.9277076"><ele>129.0</ele><time>2026-04-23T14:30:56.182Z</time></trkpt><trkpt lat="45.7159374" lon="10.927727"><ele>129.0</ele><time>2026-04-23T14:30:57.182Z</time></trkpt><trkpt lat="45.7160554" lon="10.9277578"><ele>129.0</ele><time>2026-04-23T14:30:58.181Z</time></trkpt><trkpt lat="45.7161768" lon="10.9278056"><ele>129.0</ele><time>2026-04-23T14:30:59.182Z</time></trkpt><trkpt lat="45.7162978" lon="10.92786"><ele>128.75</ele><time>2026-04-23T14:31:00.182Z</time></trkpt><trkpt lat="45.7164228" lon="10.9279149"><ele>128.5</ele><time>2026-04-23T14:31:01.181Z</time></trkpt><trkpt lat="45.7165467" lon="10.927966"><ele>128.25</ele><time>2026-04-23T14:31:02.182Z</time></trkpt><trkpt lat="45.7166691" lon="10.9280164"><ele>128.0</ele><time>2026-04-23T14:31:03.182Z</time></trkpt><trkpt lat="45.7167918" lon="10.9280697"><ele>128.25</ele><time>2026-04-23T14:31:04.182Z</time></trkpt><trkpt lat="45.71691" lon="10.9281212"><ele>128.5</ele><time>2026-04-23T14:31:05.182Z</time></trkpt><trkpt lat="45.7170212" lon="10.9281703"><ele>128.75</ele><time>2026-04-23T14:31:06.181Z</time></trkpt><trkpt lat="45.7171288" lon="10.9282152"><ele>129.0</ele><time>2026-04-23T14:31:07.183Z</time></trkpt><trkpt lat="45.7172377" lon="10.9282598"><ele>129.0</ele><time>2026-04-23T14:31:08.182Z</time></trkpt><trkpt lat="45.7173513" lon="10.9283078"><ele>129.0</ele><time>2026-04-23T14:31:09.182Z</time></trkpt><trkpt lat="45.7174678" lon="10.9283587"><ele>129.0</ele><time>2026-04-23T14:31:10.181Z</time></trkpt><trkpt lat="45.7175893" lon="10.9284058"><ele>129.0</ele><time>2026-04-23T14:31:11.181Z</time></trkpt><trkpt lat="45.7177157" lon="10.9284487"><ele>128.25</ele><time>2026-04-23T14:31:12.181Z</time></trkpt><trkpt lat="45.7178408" lon="10.9284826"><ele>127.5</ele><time>2026-04-23T14:31:13.181Z</time></trkpt><trkpt lat="45.7179665" lon="10.9285106"><ele>126.75</ele><time>2026-04-23T14:31:14.182Z</time></trkpt><trkpt lat="45.7180907" lon="10.928531"><ele>126.0</ele><time>2026-04-23T14:31:15.182Z</time></trkpt><trkpt lat="45.7182197" lon="10.9285489"><ele>126.0</ele><time>2026-04-23T14:31:16.182Z</time></trkpt><trkpt lat="45.718341" lon="10.9285654"><ele>126.0</ele><time>2026-04-23T14:31:17.181Z</time></trkpt><trkpt lat="45.7184643" lon="10.9285744"><ele>126.0</ele><time>2026-04-23T14:31:18.181Z</time></trkpt><trkpt lat="45.7185851" lon="10.9285774"><ele>126.0</ele><time>2026-04-23T14:31:19.182Z</time></trkpt><trkpt lat="45.7187093" lon="10.9285742"><ele>126.0</ele><time>2026-04-23T14:31:20.182Z</time></trkpt><trkpt lat="45.7188403" lon="10.9285686"><ele>126.0</ele><time>2026-04-23T14:31:21.181Z</time></trkpt><trkpt lat="45.7189819" lon="10.9285688"><ele>126.0</ele><time>2026-04-23T14:31:22.181Z</time></trkpt><trkpt lat="45.7191266" lon="10.9285779"><ele>126.0</ele><time>2026-04-23T14:31:23.182Z</time></trkpt><trkpt lat="45.7192751" lon="10.9285924"><ele>126.0</ele><time>2026-04-23T14:31:24.181Z</time></trkpt><trkpt lat="45.7194239" lon="10.9286171"><ele>126.0</ele><time>2026-04-23T14:31:25.182Z</time></trkpt><trkpt lat="45.7195689" lon="10.9286506"><ele>126.0</ele><time>2026-04-23T14:31:26.182Z</time></trkpt><trkpt lat="45.7197166" lon="10.9286867"><ele>126.0</ele><time>2026-04-23T14:31:27.181Z</time></trkpt><trkpt lat="45.7198592" lon="10.9287262"><ele>126.0</ele><time>2026-04-23T14:31:28.182Z</time></trkpt><trkpt lat="45.7199993" lon="10.9287684"><ele>126.0</ele><time>2026-04-23T14:31:29.182Z</time></trkpt><trkpt lat="45.7201403" lon="10.9288163"><ele>126.0</ele><time>2026-04-23T14:31:30.181Z</time></trkpt><trkpt lat="45.7202757" lon="10.928871"><ele>126.0</ele><time>2026-04-23T14:31:31.182Z</time></trkpt><trkpt lat="45.7204103" lon="10.9289297"><ele>126.75</ele><time>2026-04-23T14:31:32.182Z</time></trkpt><trkpt lat="45.7205435" lon="10.9289895"><ele>127.5</ele><time>2026-04-23T14:31:33.182Z</time></trkpt><trkpt lat="45.7206745" lon="10.9290477"><ele>128.25</ele><time>2026-04-23T14:31:34.183Z</time></trkpt><trkpt lat="45.7208053" lon="10.9290992"><ele>129.0</ele><time>2026-04-23T14:31:35.181Z</time></trkpt><trkpt lat="45.7209406" lon="10.9291418"><ele>129.0</ele><time>2026-04-23T14:31:36.182Z</time></trkpt><trkpt lat="45.72108" lon="10.9291751"><ele>129.0</ele><time>2026-04-23T14:31:37.181Z</time></trkpt><trkpt lat="45.7212189" lon="10.9292021"><ele>129.0</ele><time>2026-04-23T14:31:38.182Z</time></trkpt><trkpt lat="45.7213601" lon="10.9292262"><ele>129.0</ele><time>2026-04-23T14:31:39.182Z</time></trkpt><trkpt lat="45.721503" lon="10.9292453"><ele>129.0</ele><time>2026-04-23T14:31:40.182Z</time></trkpt><trkpt lat="45.721651" lon="10.9292739"><ele>129.0</ele><time>2026-04-23T14:31:41.182Z</time></trkpt><trkpt lat="45.7218025" lon="10.9293351"><ele>129.0</ele><time>2026-04-23T14:31:42.182Z</time></trkpt><trkpt lat="45.7219496" lon="10.9294194"><ele>129.0</ele><time>2026-04-23T14:31:43.181Z</time></trkpt><trkpt lat="45.7220947" lon="10.9295218"><ele>129.0</ele><time>2026-04-23T14:31:44.183Z</time></trkpt><trkpt lat="45.7222521" lon="10.9296308"><ele>129.0</ele><time>2026-04-23T14:31:45.183Z</time></trkpt><trkpt lat="45.722422" lon="10.9297436"><ele>129.0</ele><time>2026-04-23T14:31:46.183Z</time></trkpt><trkpt lat="45.7226096" lon="10.9298728"><ele>129.0</ele><time>2026-04-23T14:31:47.182Z</time></trkpt><trkpt lat="45.7228091" lon="10.9300167"><ele>129.0</ele><time>2026-04-23T14:31:48.182Z</time></trkpt><trkpt lat="45.7230181" lon="10.9301718"><ele>130.0</ele><time>2026-04-23T14:31:49.182Z</time></trkpt><trkpt lat="45.7232342" lon="10.9303445"><ele>131.0</ele><time>2026-04-23T14:31:50.183Z</time></trkpt><trkpt lat="45.7234518" lon="10.9305201"><ele>133.0</ele><time>2026-04-23T14:31:51.183Z</time></trkpt><trkpt lat="45.7236637" lon="10.9306835"><ele>135.0</ele><time>2026-04-23T14:31:52.183Z</time></trkpt><trkpt lat="45.7238722" lon="10.9308393"><ele>134.33333333333334</ele><time>2026-04-23T14:31:53.182Z</time></trkpt><trkpt lat="45.7240776" lon="10.930992"><ele>133.66666666666669</ele><time>2026-04-23T14:31:54.182Z</time></trkpt><trkpt lat="45.7242686" lon="10.9311381"><ele>133.0</ele><time>2026-04-23T14:31:55.183Z</time></trkpt><trkpt lat="45.7244483" lon="10.931281"><ele>133.0</ele><time>2026-04-23T14:31:56.181Z</time></trkpt><trkpt lat="45.7246188" lon="10.9314191"><ele>133.0</ele><time>2026-04-23T14:31:57.182Z</time></trkpt><trkpt lat="45.7247782" lon="10.9315521"><ele>133.0</ele><time>2026-04-23T14:31:58.182Z</time></trkpt><trkpt lat="45.7249233" lon="10.931681"><ele>133.25</ele><time>2026-04-23T14:31:59.182Z</time></trkpt><trkpt lat="45.7250547" lon="10.9318112"><ele>133.5</ele><time>2026-04-23T14:32:00.182Z</time></trkpt><trkpt lat="45.7251665" lon="10.9319491"><ele>133.75</ele><time>2026-04-23T14:32:01.182Z</time></trkpt><trkpt lat="45.7252637" lon="10.9320883"><ele>134.0</ele><time>2026-04-23T14:32:02.182Z</time></trkpt><trkpt lat="45.7253479" lon="10.9322317"><ele>134.0</ele><time>2026-04-23T14:32:03.182Z</time></trkpt><trkpt lat="45.725419" lon="10.9323753"><ele>134.0</ele><time>2026-04-23T14:32:04.181Z</time></trkpt><trkpt lat="45.7254732" lon="10.9325144"><ele>134.0</ele><time>2026-04-23T14:32:05.182Z</time></trkpt><trkpt lat="45.7255169" lon="10.932636"><ele>134.0</ele><time>2026-04-23T14:32:06.182Z</time></trkpt><trkpt lat="45.725555" lon="10.9327344"><ele>134.0</ele><time>2026-04-23T14:32:07.181Z</time></trkpt><trkpt lat="45.7256124" lon="10.9328645"><ele>133.83333333333331</ele><time>2026-04-23T14:32:09.182Z</time></trkpt><trkpt lat="45.7256507" lon="10.9329415"><ele>133.66666666666666</ele><time>2026-04-23T14:32:12.181Z</time></trkpt><trkpt lat="45.7257275" lon="10.9330299"><ele>133.5</ele><time>2026-04-23T14:32:24.182Z</time></trkpt><trkpt lat="45.72578" lon="10.9330968"><ele>133.33333333333334</ele><time>2026-04-23T14:32:25.181Z</time></trkpt><trkpt lat="45.7258331" lon="10.9331786"><ele>133.16666666666669</ele><time>2026-04-23T14:32:26.182Z</time></trkpt><trkpt lat="45.7258957" lon="10.9332785"><ele>133.0</ele><time>2026-04-23T14:32:27.182Z</time></trkpt><trkpt lat="45.7259654" lon="10.9333951"><ele>133.0</ele><time>2026-04-23T14:32:28.182Z</time></trkpt><trkpt lat="45.7260415" lon="10.9335184"><ele>133.0</ele><time>2026-04-23T14:32:29.183Z</time></trkpt><trkpt lat="45.726126" lon="10.9336516"><ele>133.0</ele><time>2026-04-23T14:32:30.182Z</time></trkpt><trkpt lat="45.7262202" lon="10.9337941"><ele>133.0</ele><time>2026-04-23T14:32:31.182Z</time></trkpt><trkpt lat="45.7263181" lon="10.9339419"><ele>133.33333333333334</ele><time>2026-04-23T14:32:32.182Z</time></trkpt><trkpt lat="45.7264211" lon="10.9341005"><ele>133.66666666666666</ele><time>2026-04-23T14:32:33.181Z</time></trkpt><trkpt lat="45.7265354" lon="10.9342569"><ele>134.0</ele><time>2026-04-23T14:32:34.183Z</time></trkpt><trkpt lat="45.7266571" lon="10.9343936"><ele>134.0</ele><time>2026-04-23T14:32:35.183Z</time></trkpt><trkpt lat="45.7267842" lon="10.9345226"><ele>134.0</ele><time>2026-04-23T14:32:36.181Z</time></trkpt><trkpt lat="45.7269168" lon="10.9346414"><ele>134.0</ele><time>2026-04-23T14:32:37.181Z</time></trkpt><trkpt lat="45.7270433" lon="10.934755"><ele>134.66666666666666</ele><time>2026-04-23T14:32:38.182Z</time></trkpt><trkpt lat="45.7271649" lon="10.9348792"><ele>135.33333333333334</ele><time>2026-04-23T14:32:39.181Z</time></trkpt><trkpt lat="45.7272859" lon="10.9350227"><ele>136.0</ele><time>2026-04-23T14:32:40.181Z</time></trkpt><trkpt lat="45.7274123" lon="10.9351592"><ele>136.25</ele><time>2026-04-23T14:32:41.181Z</time></trkpt><trkpt lat="45.7275325" lon="10.9352872"><ele>136.5</ele><time>2026-04-23T14:32:42.181Z</time></trkpt><trkpt lat="45.7276456" lon="10.9354144"><ele>136.75</ele><time>2026-04-23T14:32:43.182Z</time></trkpt><trkpt lat="45.7277504" lon="10.9355323"><ele>137.0</ele><time>2026-04-23T14:32:44.182Z</time></trkpt><trkpt lat="45.7278488" lon="10.9356434"><ele>138.0</ele><time>2026-04-23T14:32:45.182Z</time></trkpt><trkpt lat="45.7279353" lon="10.9357791"><ele>139.0</ele><time>2026-04-23T14:32:46.182Z</time></trkpt><trkpt lat="45.7280087" lon="10.9359383"><ele>140.0</ele><time>2026-04-23T14:32:47.182Z</time></trkpt><trkpt lat="45.7280725" lon="10.9361189"><ele>141.0</ele><time>2026-04-23T14:32:48.181Z</time></trkpt><trkpt lat="45.7281353" lon="10.936318"><ele>141.0</ele><time>2026-04-23T14:32:49.181Z</time></trkpt><trkpt lat="45.7282055" lon="10.9365265"><ele>141.0</ele><time>2026-04-23T14:32:50.183Z</time></trkpt><trkpt lat="45.7282973" lon="10.9367297"><ele>141.0</ele><time>2026-04-23T14:32:51.183Z</time></trkpt><trkpt lat="45.7284064" lon="10.9369301"><ele>140.66666666666666</ele><time>2026-04-23T14:32:52.182Z</time></trkpt><trkpt lat="45.7285213" lon="10.9371302"><ele>140.33333333333331</ele><time>2026-04-23T14:32:53.182Z</time></trkpt><trkpt lat="45.728639" lon="10.9373338"><ele>140.0</ele><time>2026-04-23T14:32:54.183Z</time></trkpt><trkpt lat="45.7287552" lon="10.9375464"><ele>139.0</ele><time>2026-04-23T14:32:55.181Z</time></trkpt><trkpt lat="45.7288655" lon="10.9377627"><ele>138.0</ele><time>2026-04-23T14:32:56.181Z</time></trkpt><trkpt lat="45.7289732" lon="10.9379871"><ele>137.0</ele><time>2026-04-23T14:32:57.181Z</time></trkpt><trkpt lat="45.7290833" lon="10.9382098"><ele>137.33333333333331</ele><time>2026-04-23T14:32:58.181Z</time></trkpt><trkpt lat="45.7291987" lon="10.9384259"><ele>137.66666666666666</ele><time>2026-04-23T14:32:59.182Z</time></trkpt><trkpt lat="45.7293227" lon="10.9386326"><ele>138.0</ele><time>2026-04-23T14:33:00.181Z</time></trkpt><trkpt lat="45.7294641" lon="10.9388158"><ele>138.0</ele><time>2026-04-23T14:33:01.181Z</time></trkpt><trkpt lat="45.7296187" lon="10.93898"><ele>138.0</ele><time>2026-04-23T14:33:02.181Z</time></trkpt><trkpt lat="45.7297811" lon="10.93912"><ele>138.0</ele><time>2026-04-23T14:33:03.182Z</time></trkpt><trkpt lat="45.7299508" lon="10.9392285"><ele>137.66666666666666</ele><time>2026-04-23T14:33:04.182Z</time></trkpt><trkpt lat="45.7301222" lon="10.9393196"><ele>137.33333333333331</ele><time>2026-04-23T14:33:05.182Z</time></trkpt><trkpt lat="45.7302918" lon="10.9394041"><ele>137.0</ele><time>2026-04-23T14:33:06.183Z</time></trkpt><trkpt lat="45.7304562" lon="10.9394777"><ele>137.0</ele><time>2026-04-23T14:33:07.181Z</time></trkpt><trkpt lat="45.7306141" lon="10.9395471"><ele>137.0</ele><time>2026-04-23T14:33:08.182Z</time></trkpt><trkpt lat="45.7307743" lon="10.9396174"><ele>137.0</ele><time>2026-04-23T14:33:09.182Z</time></trkpt><trkpt lat="45.7309385" lon="10.9396868"><ele>137.33333333333331</ele><time>2026-04-23T14:33:10.182Z</time></trkpt><trkpt lat="45.7311047" lon="10.9397556"><ele>137.66666666666666</ele><time>2026-04-23T14:33:11.183Z</time></trkpt><trkpt lat="45.7312717" lon="10.9398267"><ele>138.0</ele><time>2026-04-23T14:33:12.182Z</time></trkpt><trkpt lat="45.7314355" lon="10.9398939"><ele>138.0</ele><time>2026-04-23T14:33:13.182Z</time></trkpt><trkpt lat="45.7315911" lon="10.9399663"><ele>138.0</ele><time>2026-04-23T14:33:14.182Z</time></trkpt><trkpt lat="45.7317361" lon="10.9400243"><ele>138.0</ele><time>2026-04-23T14:33:15.182Z</time></trkpt><trkpt lat="45.7318654" lon="10.9400533"><ele>138.0</ele><time>2026-04-23T14:33:16.183Z</time></trkpt><trkpt lat="45.7319798" lon="10.9400516"><ele>138.0</ele><time>2026-04-23T14:33:17.182Z</time></trkpt><trkpt lat="45.7320826" lon="10.9400347"><ele>138.0</ele><time>2026-04-23T14:33:18.182Z</time></trkpt><trkpt lat="45.7321786" lon="10.9400123"><ele>138.0</ele><time>2026-04-23T14:33:19.183Z</time></trkpt><trkpt lat="45.7322745" lon="10.9400205"><ele>138.0</ele><time>2026-04-23T14:33:20.182Z</time></trkpt><trkpt lat="45.7323712" lon="10.9400561"><ele>138.0</ele><time>2026-04-23T14:33:21.182Z</time></trkpt><trkpt lat="45.73247" lon="10.9400836"><ele>138.0</ele><time>2026-04-23T14:33:22.181Z</time></trkpt><trkpt lat="45.7325694" lon="10.9400754"><ele>138.0</ele><time>2026-04-23T14:33:23.182Z</time></trkpt><trkpt lat="45.732659" lon="10.9400506"><ele>138.0</ele><time>2026-04-23T14:33:24.182Z</time></trkpt><trkpt lat="45.7327444" lon="10.9400338"><ele>138.0</ele><time>2026-04-23T14:33:25.183Z</time></trkpt><trkpt lat="45.7328199" lon="10.9400598"><ele>138.0</ele><time>2026-04-23T14:33:26.182Z</time></trkpt><trkpt lat="45.7328783" lon="10.9401304"><ele>138.0</ele><time>2026-04-23T14:33:27.181Z</time></trkpt><trkpt lat="45.7329273" lon="10.9402382"><ele>138.0</ele><time>2026-04-23T14:33:28.182Z</time></trkpt><trkpt lat="45.732978" lon="10.9403722"><ele>138.0</ele><time>2026-04-23T14:33:29.182Z</time></trkpt><trkpt lat="45.7330388" lon="10.940523"><ele>138.0</ele><time>2026-04-23T14:33:30.182Z</time></trkpt><trkpt lat="45.7331124" lon="10.9406817"><ele>138.0</ele><time>2026-04-23T14:33:31.182Z</time></trkpt><trkpt lat="45.7331969" lon="10.9408313"><ele>137.5</ele><time>2026-04-23T14:33:32.183Z</time></trkpt><trkpt lat="45.733288" lon="10.9409591"><ele>137.0</ele><time>2026-04-23T14:33:33.182Z</time></trkpt><trkpt lat="45.7333925" lon="10.9410696"><ele>136.5</ele><time>2026-04-23T14:33:34.181Z</time></trkpt><trkpt lat="45.7335035" lon="10.9411555"><ele>136.0</ele><time>2026-04-23T14:33:35.181Z</time></trkpt><trkpt lat="45.733629" lon="10.9412167"><ele>135.5</ele><time>2026-04-23T14:33:36.182Z</time></trkpt><trkpt lat="45.7337626" lon="10.9412479"><ele>135.0</ele><time>2026-04-23T14:33:37.181Z</time></trkpt><trkpt lat="45.7338892" lon="10.9412602"><ele>134.5</ele><time>2026-04-23T14:33:38.183Z</time></trkpt><trkpt lat="45.7340056" lon="10.941254"><ele>134.0</ele><time>2026-04-23T14:33:39.183Z</time></trkpt><trkpt lat="45.7341108" lon="10.941244"><ele>134.0</ele><time>2026-04-23T14:33:40.182Z</time></trkpt><trkpt lat="45.7342066" lon="10.9412377"><ele>134.0</ele><time>2026-04-23T14:33:41.181Z</time></trkpt><trkpt lat="45.7342958" lon="10.941243"><ele>134.0</ele><time>2026-04-23T14:33:42.181Z</time></trkpt><trkpt lat="45.7343825" lon="10.9412709"><ele>134.0</ele><time>2026-04-23T14:33:43.182Z</time></trkpt><trkpt lat="45.7344761" lon="10.941317"><ele>134.0</ele><time>2026-04-23T14:33:44.181Z</time></trkpt><trkpt lat="45.7345706" lon="10.9413908"><ele>134.25</ele><time>2026-04-23T14:33:45.181Z</time></trkpt><trkpt lat="45.7346575" lon="10.9414994"><ele>134.5</ele><time>2026-04-23T14:33:46.182Z</time></trkpt><trkpt lat="45.7347386" lon="10.9416285"><ele>134.75</ele><time>2026-04-23T14:33:47.182Z</time></trkpt><trkpt lat="45.7348181" lon="10.9417704"><ele>135.0</ele><time>2026-04-23T14:33:48.181Z</time></trkpt><trkpt lat="45.7348973" lon="10.9419165"><ele>134.5</ele><time>2026-04-23T14:33:49.181Z</time></trkpt><trkpt lat="45.734982" lon="10.9420741"><ele>134.0</ele><time>2026-04-23T14:33:50.182Z</time></trkpt><trkpt lat="45.7350692" lon="10.9422406"><ele>133.5</ele><time>2026-04-23T14:33:51.182Z</time></trkpt><trkpt lat="45.7351577" lon="10.9424061"><ele>133.0</ele><time>2026-04-23T14:33:52.182Z</time></trkpt><trkpt lat="45.7352378" lon="10.9425618"><ele>133.0</ele><time>2026-04-23T14:33:53.181Z</time></trkpt><trkpt lat="45.7353071" lon="10.9427068"><ele>133.0</ele><time>2026-04-23T14:33:54.182Z</time></trkpt><trkpt lat="45.7353715" lon="10.9428384"><ele>133.0</ele><time>2026-04-23T14:33:55.181Z</time></trkpt><trkpt lat="45.7354328" lon="10.9429649"><ele>133.0</ele><time>2026-04-23T14:33:56.181Z</time></trkpt><trkpt lat="45.7354951" lon="10.9430877"><ele>133.0</ele><time>2026-04-23T14:33:57.183Z</time></trkpt><trkpt lat="45.7355599" lon="10.9432125"><ele>133.0</ele><time>2026-04-23T14:33:58.181Z</time></trkpt><trkpt lat="45.7356269" lon="10.9433454"><ele>133.0</ele><time>2026-04-23T14:33:59.181Z</time></trkpt><trkpt lat="45.7356968" lon="10.9434851"><ele>133.0</ele><time>2026-04-23T14:34:00.181Z</time></trkpt><trkpt lat="45.7357738" lon="10.9436387"><ele>133.0</ele><time>2026-04-23T14:34:01.182Z</time></trkpt><trkpt lat="45.7358573" lon="10.9438064"><ele>133.0</ele><time>2026-04-23T14:34:02.182Z</time></trkpt><trkpt lat="45.735948" lon="10.9439869"><ele>133.0</ele><time>2026-04-23T14:34:03.182Z</time></trkpt><trkpt lat="45.7360437" lon="10.9441702"><ele>133.0</ele><time>2026-04-23T14:34:04.182Z</time></trkpt><trkpt lat="45.7361383" lon="10.9443523"><ele>133.0</ele><time>2026-04-23T14:34:05.182Z</time></trkpt><trkpt lat="45.7362333" lon="10.9445217"><ele>133.0</ele><time>2026-04-23T14:34:06.183Z</time></trkpt><trkpt lat="45.7363274" lon="10.9446831"><ele>133.0</ele><time>2026-04-23T14:34:07.182Z</time></trkpt><trkpt lat="45.7364181" lon="10.9448448"><ele>133.0</ele><time>2026-04-23T14:34:08.182Z</time></trkpt><trkpt lat="45.7365053" lon="10.9450023"><ele>132.75</ele><time>2026-04-23T14:34:09.182Z</time></trkpt><trkpt lat="45.7365959" lon="10.9451637"><ele>132.5</ele><time>2026-04-23T14:34:10.182Z</time></trkpt><trkpt lat="45.7366751" lon="10.9453319"><ele>132.25</ele><time>2026-04-23T14:34:11.182Z</time></trkpt><trkpt lat="45.7367488" lon="10.9455001"><ele>132.0</ele><time>2026-04-23T14:34:12.182Z</time></trkpt><trkpt lat="45.7368122" lon="10.9456708"><ele>132.0</ele><time>2026-04-23T14:34:13.182Z</time></trkpt><trkpt lat="45.7368658" lon="10.9458445"><ele>132.0</ele><time>2026-04-23T14:34:14.181Z</time></trkpt><trkpt lat="45.7369076" lon="10.9460206"><ele>132.0</ele><time>2026-04-23T14:34:15.182Z</time></trkpt><trkpt lat="45.7369385" lon="10.9461997"><ele>132.0</ele><time>2026-04-23T14:34:16.181Z</time></trkpt><trkpt lat="45.7369612" lon="10.9463852"><ele>131.75</ele><time>2026-04-23T14:34:17.182Z</time></trkpt><trkpt lat="45.7369794" lon="10.9465772"><ele>131.5</ele><time>2026-04-23T14:34:18.182Z</time></trkpt><trkpt lat="45.7369981" lon="10.9467805"><ele>131.25</ele><time>2026-04-23T14:34:19.183Z</time></trkpt><trkpt lat="45.7370111" lon="10.9469897"><ele>131.0</ele><time>2026-04-23T14:34:20.181Z</time></trkpt><trkpt lat="45.7370259" lon="10.9472063"><ele>131.0</ele><time>2026-04-23T14:34:21.181Z</time></trkpt><trkpt lat="45.7370408" lon="10.9474282"><ele>131.0</ele><time>2026-04-23T14:34:22.182Z</time></trkpt><trkpt lat="45.7370575" lon="10.9476583"><ele>131.0</ele><time>2026-04-23T14:34:23.181Z</time></trkpt><trkpt lat="45.7370741" lon="10.9478903"><ele>131.0</ele><time>2026-04-23T14:34:24.181Z</time></trkpt><trkpt lat="45.7370925" lon="10.9481275"><ele>131.0</ele><time>2026-04-23T14:34:25.181Z</time></trkpt><trkpt lat="45.7371127" lon="10.9483709"><ele>131.0</ele><time>2026-04-23T14:34:26.182Z</time></trkpt><trkpt lat="45.7371294" lon="10.9486104"><ele>131.0</ele><time>2026-04-23T14:34:27.182Z</time></trkpt><trkpt lat="45.7371523" lon="10.9488425"><ele>131.0</ele><time>2026-04-23T14:34:28.182Z</time></trkpt><trkpt lat="45.7371958" lon="10.9490682"><ele>131.0</ele><time>2026-04-23T14:34:29.181Z</time></trkpt><trkpt lat="45.7372525" lon="10.9492891"><ele>131.66666666666666</ele><time>2026-04-23T14:34:30.181Z</time></trkpt><trkpt lat="45.7373213" lon="10.9495079"><ele>132.33333333333334</ele><time>2026-04-23T14:34:31.182Z</time></trkpt><trkpt lat="45.7374054" lon="10.9497221"><ele>133.0</ele><time>2026-04-23T14:34:32.181Z</time></trkpt><trkpt lat="45.7374992" lon="10.9499364"><ele>133.0</ele><time>2026-04-23T14:34:33.182Z</time></trkpt><trkpt lat="45.7375992" lon="10.9501593"><ele>133.0</ele><time>2026-04-23T14:34:34.181Z</time></trkpt><trkpt lat="45.737701" lon="10.9503909"><ele>133.0</ele><time>2026-04-23T14:34:35.181Z</time></trkpt><trkpt lat="45.7378074" lon="10.9506297"><ele>133.0</ele><time>2026-04-23T14:34:36.181Z</time></trkpt><trkpt lat="45.7379167" lon="10.950873"><ele>133.0</ele><time>2026-04-23T14:34:37.182Z</time></trkpt><trkpt lat="45.7380249" lon="10.9511155"><ele>133.0</ele><time>2026-04-23T14:34:38.182Z</time></trkpt><trkpt lat="45.7381253" lon="10.9513392"><ele>134.33333333333334</ele><time>2026-04-23T14:34:39.183Z</time></trkpt><trkpt lat="45.7382203" lon="10.9515504"><ele>135.66666666666666</ele><time>2026-04-23T14:34:40.183Z</time></trkpt><trkpt lat="45.7383082" lon="10.9517458"><ele>137.0</ele><time>2026-04-23T14:34:41.183Z</time></trkpt><trkpt lat="45.7383886" lon="10.9519244"><ele>137.0</ele><time>2026-04-23T14:34:42.183Z</time></trkpt><trkpt lat="45.7384634" lon="10.9520887"><ele>137.0</ele><time>2026-04-23T14:34:43.181Z</time></trkpt><trkpt lat="45.7385275" lon="10.952235"><ele>137.0</ele><time>2026-04-23T14:34:44.182Z</time></trkpt><trkpt lat="45.738584" lon="10.95237"><ele>137.0</ele><time>2026-04-23T14:34:45.181Z</time></trkpt><trkpt lat="45.7386258" lon="10.9524935"><ele>138.33333333333331</ele><time>2026-04-23T14:34:46.181Z</time></trkpt><trkpt lat="45.7386521" lon="10.9526144"><ele>139.66666666666666</ele><time>2026-04-23T14:34:47.182Z</time></trkpt><trkpt lat="45.7386678" lon="10.9527349"><ele>141.0</ele><time>2026-04-23T14:34:48.183Z</time></trkpt><trkpt lat="45.738688" lon="10.9528531"><ele>142.33333333333334</ele><time>2026-04-23T14:34:49.183Z</time></trkpt><trkpt lat="45.7387374" lon="10.9529469"><ele>143.66666666666669</ele><time>2026-04-23T14:34:50.183Z</time></trkpt><trkpt lat="45.7388019" lon="10.9530199"><ele>145.0</ele><time>2026-04-23T14:34:51.182Z</time></trkpt><trkpt lat="45.7388696" lon="10.9531068"><ele>145.0</ele><time>2026-04-23T14:34:52.182Z</time></trkpt><trkpt lat="45.7389307" lon="10.9532208"><ele>145.0</ele><time>2026-04-23T14:34:53.182Z</time></trkpt><trkpt lat="45.7389878" lon="10.9533573"><ele>145.0</ele><time>2026-04-23T14:34:54.181Z</time></trkpt><trkpt lat="45.7390433" lon="10.9535139"><ele>145.0</ele><time>2026-04-23T14:34:55.181Z</time></trkpt><trkpt lat="45.739094" lon="10.9536854"><ele>144.66666666666669</ele><time>2026-04-23T14:34:56.182Z</time></trkpt><trkpt lat="45.7391396" lon="10.9538811"><ele>144.33333333333334</ele><time>2026-04-23T14:34:57.181Z</time></trkpt><trkpt lat="45.7391822" lon="10.954089"><ele>144.0</ele><time>2026-04-23T14:34:58.181Z</time></trkpt><trkpt lat="45.7392228" lon="10.9543086"><ele>143.0</ele><time>2026-04-23T14:34:59.182Z</time></trkpt><trkpt lat="45.7392595" lon="10.9545291"><ele>142.0</ele><time>2026-04-23T14:35:00.182Z</time></trkpt><trkpt lat="45.7392975" lon="10.9547594"><ele>141.0</ele><time>2026-04-23T14:35:01.181Z</time></trkpt><trkpt lat="45.7393373" lon="10.9549956"><ele>140.66666666666666</ele><time>2026-04-23T14:35:02.183Z</time></trkpt><trkpt lat="45.7393774" lon="10.9552429"><ele>140.33333333333331</ele><time>2026-04-23T14:35:03.181Z</time></trkpt><trkpt lat="45.7394213" lon="10.9555002"><ele>140.0</ele><time>2026-04-23T14:35:04.181Z</time></trkpt><trkpt lat="45.7394658" lon="10.9557558"><ele>143.0</ele><time>2026-04-23T14:35:05.182Z</time></trkpt><trkpt lat="45.7395076" lon="10.9559989"><ele>146.0</ele><time>2026-04-23T14:35:06.183Z</time></trkpt><trkpt lat="45.7395523" lon="10.9562322"><ele>149.0</ele><time>2026-04-23T14:35:07.181Z</time></trkpt><trkpt lat="45.7396045" lon="10.9564586"><ele>149.0</ele><time>2026-04-23T14:35:08.182Z</time></trkpt><trkpt lat="45.7396656" lon="10.9566823"><ele>149.0</ele><time>2026-04-23T14:35:09.182Z</time></trkpt><trkpt lat="45.7397332" lon="10.9568998"><ele>149.0</ele><time>2026-04-23T14:35:10.183Z</time></trkpt><trkpt lat="45.7398039" lon="10.9571119"><ele>148.0</ele><time>2026-04-23T14:35:11.182Z</time></trkpt><trkpt lat="45.7398743" lon="10.9573225"><ele>147.0</ele><time>2026-04-23T14:35:12.181Z</time></trkpt><trkpt lat="45.7399487" lon="10.9575257"><ele>146.0</ele><time>2026-04-23T14:35:13.181Z</time></trkpt><trkpt lat="45.7400226" lon="10.95773"><ele>145.66666666666666</ele><time>2026-04-23T14:35:14.182Z</time></trkpt><trkpt lat="45.7400965" lon="10.9579366"><ele>145.33333333333334</ele><time>2026-04-23T14:35:15.182Z</time></trkpt><trkpt lat="45.7401711" lon="10.9581442"><ele>145.0</ele><time>2026-04-23T14:35:16.182Z</time></trkpt><trkpt lat="45.7402426" lon="10.9583467"><ele>145.2</ele><time>2026-04-23T14:35:17.181Z</time></trkpt><trkpt lat="45.7403032" lon="10.9585209"><ele>145.4</ele><time>2026-04-23T14:35:18.181Z</time></trkpt><trkpt lat="45.7403535" lon="10.9586662"><ele>145.6</ele><time>2026-04-23T14:35:19.181Z</time></trkpt><trkpt lat="45.7403953" lon="10.9587861"><ele>145.8</ele><time>2026-04-23T14:35:20.182Z</time></trkpt><trkpt lat="45.7404286" lon="10.9588754"><ele>146.0</ele><time>2026-04-23T14:35:21.182Z</time></trkpt><trkpt lat="45.7404692" lon="10.9589793"><ele>146.0</ele><time>2026-04-23T14:35:23.181Z</time></trkpt><trkpt lat="45.7405111" lon="10.9590897"><ele>146.0</ele><time>2026-04-23T14:35:26.182Z</time></trkpt><trkpt lat="45.7405617" lon="10.9592456"><ele>146.0</ele><time>2026-04-23T14:35:28.182Z</time></trkpt><trkpt lat="45.7405881" lon="10.9593451"><ele>146.0</ele><time>2026-04-23T14:35:29.182Z</time></trkpt><trkpt lat="45.7406191" lon="10.959467"><ele>146.0</ele><time>2026-04-23T14:35:30.181Z</time></trkpt><trkpt lat="45.7406531" lon="10.9596085"><ele>146.0</ele><time>2026-04-23T14:35:31.181Z</time></trkpt><trkpt lat="45.7406866" lon="10.9597568"><ele>146.0</ele><time>2026-04-23T14:35:32.182Z</time></trkpt><trkpt lat="45.740723" lon="10.9599178"><ele>146.0</ele><time>2026-04-23T14:35:33.182Z</time></trkpt><trkpt lat="45.7407621" lon="10.9600955"><ele>146.0</ele><time>2026-04-23T14:35:34.181Z</time></trkpt><trkpt lat="45.7408035" lon="10.9602733"><ele>146.0</ele><time>2026-04-23T14:35:35.182Z</time></trkpt><trkpt lat="45.7408472" lon="10.9604592"><ele>146.0</ele><time>2026-04-23T14:35:36.182Z</time></trkpt><trkpt lat="45.7408908" lon="10.9606537"><ele>146.0</ele><time>2026-04-23T14:35:37.183Z</time></trkpt><trkpt lat="45.7409378" lon="10.9608629"><ele>146.0</ele><time>2026-04-23T14:35:38.182Z</time></trkpt><trkpt lat="45.7409854" lon="10.9610864"><ele>145.0</ele><time>2026-04-23T14:35:39.182Z</time></trkpt><trkpt lat="45.7410341" lon="10.9613211"><ele>144.0</ele><time>2026-04-23T14:35:40.182Z</time></trkpt><trkpt lat="45.7410883" lon="10.9615695"><ele>143.0</ele><time>2026-04-23T14:35:41.182Z</time></trkpt><trkpt lat="45.7411476" lon="10.9618391"><ele>143.33333333333331</ele><time>2026-04-23T14:35:42.181Z</time></trkpt><trkpt lat="45.7412127" lon="10.9621342"><ele>143.66666666666666</ele><time>2026-04-23T14:35:43.181Z</time></trkpt><trkpt lat="45.7412796" lon="10.9624476"><ele>144.0</ele><time>2026-04-23T14:35:44.182Z</time></trkpt><trkpt lat="45.7413503" lon="10.9627732"><ele>144.0</ele><time>2026-04-23T14:35:45.182Z</time></trkpt><trkpt lat="45.7414193" lon="10.9631022"><ele>144.0</ele><time>2026-04-23T14:35:46.182Z</time></trkpt><trkpt lat="45.7414867" lon="10.9634395"><ele>144.0</ele><time>2026-04-23T14:35:47.182Z</time></trkpt><trkpt lat="45.7415538" lon="10.9637848"><ele>144.0</ele><time>2026-04-23T14:35:48.181Z</time></trkpt><trkpt lat="45.7416219" lon="10.9641407"><ele>144.0</ele><time>2026-04-23T14:35:49.182Z</time></trkpt><trkpt lat="45.7416909" lon="10.9645063"><ele>144.0</ele><time>2026-04-23T14:35:50.181Z</time></trkpt><trkpt lat="45.7417615" lon="10.9648775"><ele>144.5</ele><time>2026-04-23T14:35:51.182Z</time></trkpt><trkpt lat="45.7418381" lon="10.9652417"><ele>145.0</ele><time>2026-04-23T14:35:52.181Z</time></trkpt><trkpt lat="45.7419179" lon="10.9656026"><ele>148.0</ele><time>2026-04-23T14:35:53.183Z</time></trkpt><trkpt lat="45.7420008" lon="10.9659559"><ele>151.0</ele><time>2026-04-23T14:35:54.183Z</time></trkpt><trkpt lat="45.7420809" lon="10.9662891"><ele>151.0</ele><time>2026-04-23T14:35:55.182Z</time></trkpt><trkpt lat="45.7421557" lon="10.9666071"><ele>151.0</ele><time>2026-04-23T14:35:56.181Z</time></trkpt><trkpt lat="45.7422258" lon="10.9669067"><ele>151.33333333333334</ele><time>2026-04-23T14:35:57.181Z</time></trkpt><trkpt lat="45.7422937" lon="10.967191"><ele>151.66666666666666</ele><time>2026-04-23T14:35:58.181Z</time></trkpt><trkpt lat="45.7423576" lon="10.9674607"><ele>152.0</ele><time>2026-04-23T14:35:59.183Z</time></trkpt><trkpt lat="45.7424149" lon="10.9677172"><ele>151.33333333333331</ele><time>2026-04-23T14:36:00.182Z</time></trkpt><trkpt lat="45.7424693" lon="10.9679676"><ele>150.66666666666666</ele><time>2026-04-23T14:36:01.181Z</time></trkpt><trkpt lat="45.7425204" lon="10.9682189"><ele>150.0</ele><time>2026-04-23T14:36:02.181Z</time></trkpt><trkpt lat="45.7425678" lon="10.9684695"><ele>149.0</ele><time>2026-04-23T14:36:03.182Z</time></trkpt><trkpt lat="45.742616" lon="10.9687219"><ele>148.0</ele><time>2026-04-23T14:36:04.182Z</time></trkpt><trkpt lat="45.7426595" lon="10.9689738"><ele>147.0</ele><time>2026-04-23T14:36:05.183Z</time></trkpt><trkpt lat="45.7427009" lon="10.9692216"><ele>148.66666666666666</ele><time>2026-04-23T14:36:06.181Z</time></trkpt><trkpt lat="45.7427408" lon="10.9694583"><ele>150.33333333333331</ele><time>2026-04-23T14:36:07.181Z</time></trkpt><trkpt lat="45.7427815" lon="10.9696846"><ele>152.0</ele><time>2026-04-23T14:36:08.182Z</time></trkpt><trkpt lat="45.7428201" lon="10.9699031"><ele>151.33333333333331</ele><time>2026-04-23T14:36:09.182Z</time></trkpt><trkpt lat="45.7428592" lon="10.9701246"><ele>150.66666666666666</ele><time>2026-04-23T14:36:10.181Z</time></trkpt><trkpt lat="45.7429018" lon="10.9703412"><ele>150.0</ele><time>2026-04-23T14:36:11.183Z</time></trkpt><trkpt lat="45.7429512" lon="10.9705579"><ele>150.0</ele><time>2026-04-23T14:36:12.181Z</time></trkpt><trkpt lat="45.743007" lon="10.9707769"><ele>150.0</ele><time>2026-04-23T14:36:13.181Z</time></trkpt><trkpt lat="45.7430668" lon="10.9709878"><ele>150.0</ele><time>2026-04-23T14:36:14.182Z</time></trkpt><trkpt lat="45.7431366" lon="10.9711904"><ele>147.0</ele><time>2026-04-23T14:36:15.182Z</time></trkpt><trkpt lat="45.7432092" lon="10.9713819"><ele>144.0</ele><time>2026-04-23T14:36:16.182Z</time></trkpt><trkpt lat="45.7432857" lon="10.9715682"><ele>141.0</ele><time>2026-04-23T14:36:17.182Z</time></trkpt><trkpt lat="45.7433678" lon="10.9717444"><ele>139.75</ele><time>2026-04-23T14:36:18.181Z</time></trkpt><trkpt lat="45.7434497" lon="10.9719051"><ele>138.5</ele><time>2026-04-23T14:36:19.181Z</time></trkpt><trkpt lat="45.743528" lon="10.9720446"><ele>137.25</ele><time>2026-04-23T14:36:20.182Z</time></trkpt><trkpt lat="45.7436016" lon="10.9721688"><ele>136.0</ele><time>2026-04-23T14:36:21.182Z</time></trkpt><trkpt lat="45.7436688" lon="10.9722807"><ele>137.0</ele><time>2026-04-23T14:36:22.182Z</time></trkpt><trkpt lat="45.7437307" lon="10.972383"><ele>138.0</ele><time>2026-04-23T14:36:23.182Z</time></trkpt><trkpt lat="45.7437908" lon="10.9724853"><ele>139.0</ele><time>2026-04-23T14:36:24.181Z</time></trkpt><trkpt lat="45.7438489" lon="10.9725854"><ele>140.0</ele><time>2026-04-23T14:36:25.181Z</time></trkpt><trkpt lat="45.7439064" lon="10.9726771"><ele>141.0</ele><time>2026-04-23T14:36:26.181Z</time></trkpt><trkpt lat="45.7439545" lon="10.9727577"><ele>142.0</ele><time>2026-04-23T14:36:27.182Z</time></trkpt><trkpt lat="45.7440091" lon="10.9728502"><ele>142.0</ele><time>2026-04-23T14:36:28.182Z</time></trkpt><trkpt lat="45.7440727" lon="10.9729596"><ele>142.0</ele><time>2026-04-23T14:36:29.182Z</time></trkpt><trkpt lat="45.7441478" lon="10.973088"><ele>142.0</ele><time>2026-04-23T14:36:30.181Z</time></trkpt><trkpt lat="45.7442288" lon="10.97323"><ele>142.0</ele><time>2026-04-23T14:36:31.181Z</time></trkpt><trkpt lat="45.7443166" lon="10.9733872"><ele>146.66666666666669</ele><time>2026-04-23T14:36:32.181Z</time></trkpt><trkpt lat="45.7444114" lon="10.9735552"><ele>151.33333333333334</ele><time>2026-04-23T14:36:33.182Z</time></trkpt><trkpt lat="45.744508" lon="10.973722"><ele>156.0</ele><time>2026-04-23T14:36:34.182Z</time></trkpt><trkpt lat="45.7446068" lon="10.9738922"><ele>156.0</ele><time>2026-04-23T14:36:35.182Z</time></trkpt><trkpt lat="45.74471" lon="10.9740699"><ele>156.0</ele><time>2026-04-23T14:36:36.182Z</time></trkpt><trkpt lat="45.7448184" lon="10.9742558"><ele>156.0</ele><time>2026-04-23T14:36:37.182Z</time></trkpt><trkpt lat="45.7449319" lon="10.974455"><ele>152.0</ele><time>2026-04-23T14:36:38.182Z</time></trkpt><trkpt lat="45.7450452" lon="10.9746501"><ele>148.0</ele><time>2026-04-23T14:36:39.181Z</time></trkpt><trkpt lat="45.7451617" lon="10.974847"><ele>144.0</ele><time>2026-04-23T14:36:40.181Z</time></trkpt><trkpt lat="45.7452901" lon="10.9750405"><ele>143.66666666666666</ele><time>2026-04-23T14:36:41.181Z</time></trkpt><trkpt lat="45.7454337" lon="10.9752233"><ele>143.33333333333331</ele><time>2026-04-23T14:36:42.182Z</time></trkpt><trkpt lat="45.7455864" lon="10.975396"><ele>143.0</ele><time>2026-04-23T14:36:43.182Z</time></trkpt><trkpt lat="45.7457433" lon="10.975556"><ele>143.0</ele><time>2026-04-23T14:36:44.182Z</time></trkpt><trkpt lat="45.7458975" lon="10.9756959"><ele>143.0</ele><time>2026-04-23T14:36:45.183Z</time></trkpt><trkpt lat="45.7460471" lon="10.975826"><ele>143.0</ele><time>2026-04-23T14:36:46.181Z</time></trkpt><trkpt lat="45.746191" lon="10.9759512"><ele>142.33333333333331</ele><time>2026-04-23T14:36:47.182Z</time></trkpt><trkpt lat="45.7463319" lon="10.9760732"><ele>141.66666666666666</ele><time>2026-04-23T14:36:48.182Z</time></trkpt><trkpt lat="45.7464722" lon="10.9762038"><ele>141.0</ele><time>2026-04-23T14:36:49.181Z</time></trkpt><trkpt lat="45.7466057" lon="10.9763507"><ele>141.0</ele><time>2026-04-23T14:36:50.182Z</time></trkpt><trkpt lat="45.7467329" lon="10.9765125"><ele>141.0</ele><time>2026-04-23T14:36:51.183Z</time></trkpt><trkpt lat="45.7468548" lon="10.9766892"><ele>141.0</ele><time>2026-04-23T14:36:52.181Z</time></trkpt><trkpt lat="45.7469707" lon="10.9768643"><ele>144.0</ele><time>2026-04-23T14:36:53.181Z</time></trkpt><trkpt lat="45.7470823" lon="10.9770353"><ele>147.0</ele><time>2026-04-23T14:36:54.181Z</time></trkpt><trkpt lat="45.7471883" lon="10.9772044"><ele>150.0</ele><time>2026-04-23T14:36:55.183Z</time></trkpt><trkpt lat="45.747292" lon="10.9773721"><ele>147.66666666666666</ele><time>2026-04-23T14:36:56.181Z</time></trkpt><trkpt lat="45.7473974" lon="10.9775425"><ele>145.33333333333331</ele><time>2026-04-23T14:36:57.182Z</time></trkpt><trkpt lat="45.7474994" lon="10.9777199"><ele>143.0</ele><time>2026-04-23T14:36:58.182Z</time></trkpt><trkpt lat="45.7475879" lon="10.9779077"><ele>143.0</ele><time>2026-04-23T14:36:59.181Z</time></trkpt><trkpt lat="45.7476628" lon="10.9781077"><ele>143.0</ele><time>2026-04-23T14:37:00.182Z</time></trkpt><trkpt lat="45.7477295" lon="10.9782998"><ele>143.0</ele><time>2026-04-23T14:37:01.182Z</time></trkpt><trkpt lat="45.7477934" lon="10.9784822"><ele>145.25</ele><time>2026-04-23T14:37:02.181Z</time></trkpt><trkpt lat="45.7478535" lon="10.9786555"><ele>147.5</ele><time>2026-04-23T14:37:03.182Z</time></trkpt><trkpt lat="45.7479095" lon="10.9788188"><ele>149.75</ele><time>2026-04-23T14:37:04.182Z</time></trkpt><trkpt lat="45.7479664" lon="10.9789777"><ele>152.0</ele><time>2026-04-23T14:37:05.181Z</time></trkpt><trkpt lat="45.7480319" lon="10.9791294"><ele>149.75</ele><time>2026-04-23T14:37:06.181Z</time></trkpt><trkpt lat="45.7481116" lon="10.9792704"><ele>147.5</ele><time>2026-04-23T14:37:07.181Z</time></trkpt><trkpt lat="45.7481999" lon="10.9793971"><ele>145.25</ele><time>2026-04-23T14:37:08.182Z</time></trkpt><trkpt lat="45.7483" lon="10.9795086"><ele>143.0</ele><time>2026-04-23T14:37:09.181Z</time></trkpt><trkpt lat="45.7484102" lon="10.9796087"><ele>143.0</ele><time>2026-04-23T14:37:10.182Z</time></trkpt><trkpt lat="45.7485255" lon="10.9796997"><ele>143.0</ele><time>2026-04-23T14:37:11.183Z</time></trkpt><trkpt lat="45.7486406" lon="10.9797852"><ele>143.0</ele><time>2026-04-23T14:37:12.181Z</time></trkpt><trkpt lat="45.7487577" lon="10.9798664"><ele>143.0</ele><time>2026-04-23T14:37:13.182Z</time></trkpt><trkpt lat="45.7488784" lon="10.9799485"><ele>143.5</ele><time>2026-04-23T14:37:14.182Z</time></trkpt><trkpt lat="45.7490039" lon="10.9800361"><ele>144.0</ele><time>2026-04-23T14:37:15.181Z</time></trkpt><trkpt lat="45.7491318" lon="10.9801235"><ele>144.5</ele><time>2026-04-23T14:37:16.182Z</time></trkpt><trkpt lat="45.7492626" lon="10.9802127"><ele>145.0</ele><time>2026-04-23T14:37:17.182Z</time></trkpt><trkpt lat="45.749395" lon="10.9803031"><ele>145.0</ele><time>2026-04-23T14:37:18.181Z</time></trkpt><trkpt lat="45.7495265" lon="10.9803957"><ele>145.0</ele><time>2026-04-23T14:37:19.183Z</time></trkpt><trkpt lat="45.749654" lon="10.9804859"><ele>145.0</ele><time>2026-04-23T14:37:20.181Z</time></trkpt><trkpt lat="45.7497792" lon="10.9805762"><ele>145.0</ele><time>2026-04-23T14:37:21.182Z</time></trkpt><trkpt lat="45.7499051" lon="10.9806656"><ele>145.0</ele><time>2026-04-23T14:37:22.181Z</time></trkpt><trkpt lat="45.7500339" lon="10.9807564"><ele>145.0</ele><time>2026-04-23T14:37:23.182Z</time></trkpt><trkpt lat="45.750164" lon="10.9808498"><ele>145.0</ele><time>2026-04-23T14:37:24.183Z</time></trkpt><trkpt lat="45.7502899" lon="10.9809596"><ele>145.0</ele><time>2026-04-23T14:37:25.181Z</time></trkpt><trkpt lat="45.7504055" lon="10.9810876"><ele>145.0</ele><time>2026-04-23T14:37:26.181Z</time></trkpt><trkpt lat="45.7505119" lon="10.9812319"><ele>145.0</ele><time>2026-04-23T14:37:27.183Z</time></trkpt><trkpt lat="45.7506189" lon="10.9813849"><ele>145.0</ele><time>2026-04-23T14:37:28.181Z</time></trkpt><trkpt lat="45.7507266" lon="10.9815424"><ele>143.75</ele><time>2026-04-23T14:37:29.182Z</time></trkpt><trkpt lat="45.7508338" lon="10.9816982"><ele>142.5</ele><time>2026-04-23T14:37:30.182Z</time></trkpt><trkpt lat="45.7509341" lon="10.9818499"><ele>141.25</ele><time>2026-04-23T14:37:31.182Z</time></trkpt><trkpt lat="45.7510314" lon="10.9820001"><ele>140.0</ele><time>2026-04-23T14:37:32.182Z</time></trkpt><trkpt lat="45.7511299" lon="10.982152"><ele>140.75</ele><time>2026-04-23T14:37:33.182Z</time></trkpt><trkpt lat="45.7512297" lon="10.982302"><ele>141.5</ele><time>2026-04-23T14:37:34.182Z</time></trkpt><trkpt lat="45.7513291" lon="10.9824482"><ele>142.25</ele><time>2026-04-23T14:37:35.181Z</time></trkpt><trkpt lat="45.7514291" lon="10.9825922"><ele>143.0</ele><time>2026-04-23T14:37:36.183Z</time></trkpt><trkpt lat="45.7515316" lon="10.9827335"><ele>143.0</ele><time>2026-04-23T14:37:37.181Z</time></trkpt><trkpt lat="45.7516366" lon="10.9828726"><ele>143.0</ele><time>2026-04-23T14:37:38.183Z</time></trkpt><trkpt lat="45.7517432" lon="10.9830035"><ele>143.0</ele><time>2026-04-23T14:37:39.182Z</time></trkpt><trkpt lat="45.7518527" lon="10.9831304"><ele>143.0</ele><time>2026-04-23T14:37:40.182Z</time></trkpt><trkpt lat="45.7519577" lon="10.9832556"><ele>143.5</ele><time>2026-04-23T14:37:41.182Z</time></trkpt><trkpt lat="45.7520611" lon="10.9833788"><ele>144.0</ele><time>2026-04-23T14:37:42.182Z</time></trkpt><trkpt lat="45.7521588" lon="10.9835092"><ele>144.5</ele><time>2026-04-23T14:37:43.181Z</time></trkpt><trkpt lat="45.7522472" lon="10.9836548"><ele>145.0</ele><time>2026-04-23T14:37:44.182Z</time></trkpt><trkpt lat="45.7523234" lon="10.9838169"><ele>145.0</ele><time>2026-04-23T14:37:45.182Z</time></trkpt><trkpt lat="45.7523903" lon="10.9839935"><ele>145.0</ele><time>2026-04-23T14:37:46.182Z</time></trkpt><trkpt lat="45.7524474" lon="10.9841808"><ele>145.0</ele><time>2026-04-23T14:37:47.181Z</time></trkpt><trkpt lat="45.752504" lon="10.9843686"><ele>145.0</ele><time>2026-04-23T14:37:48.182Z</time></trkpt><trkpt lat="45.7525605" lon="10.984561"><ele>144.33333333333334</ele><time>2026-04-23T14:37:49.182Z</time></trkpt><trkpt lat="45.7526188" lon="10.9847583"><ele>143.66666666666666</ele><time>2026-04-23T14:37:50.182Z</time></trkpt><trkpt lat="45.7526779" lon="10.9849578"><ele>143.0</ele><time>2026-04-23T14:37:51.181Z</time></trkpt><trkpt lat="45.7527396" lon="10.9851584"><ele>146.33333333333331</ele><time>2026-04-23T14:37:52.183Z</time></trkpt><trkpt lat="45.7528043" lon="10.9853611"><ele>149.66666666666666</ele><time>2026-04-23T14:37:53.181Z</time></trkpt><trkpt lat="45.7528745" lon="10.9855519"><ele>153.0</ele><time>2026-04-23T14:37:54.182Z</time></trkpt><trkpt lat="45.7529569" lon="10.9857374"><ele>150.66666666666666</ele><time>2026-04-23T14:37:55.181Z</time></trkpt><trkpt lat="45.7530476" lon="10.9859202"><ele>148.33333333333331</ele><time>2026-04-23T14:37:56.183Z</time></trkpt><trkpt lat="45.7531455" lon="10.986085"><ele>146.0</ele><time>2026-04-23T14:37:57.182Z</time></trkpt><trkpt lat="45.7532499" lon="10.9862365"><ele>146.0</ele><time>2026-04-23T14:37:58.181Z</time></trkpt><trkpt lat="45.7533552" lon="10.9863814"><ele>146.0</ele><time>2026-04-23T14:37:59.181Z</time></trkpt><trkpt lat="45.7534659" lon="10.9865157"><ele>146.0</ele><time>2026-04-23T14:38:00.182Z</time></trkpt><trkpt lat="45.7535812" lon="10.9866338"><ele>146.0</ele><time>2026-04-23T14:38:01.181Z</time></trkpt><trkpt lat="45.7537014" lon="10.9867369"><ele>146.5</ele><time>2026-04-23T14:38:02.182Z</time></trkpt><trkpt lat="45.7538208" lon="10.9868329"><ele>147.0</ele><time>2026-04-23T14:38:03.181Z</time></trkpt><trkpt lat="45.7539431" lon="10.9869136"><ele>147.5</ele><time>2026-04-23T14:38:04.181Z</time></trkpt><trkpt lat="45.7540588" lon="10.9870009"><ele>148.0</ele><time>2026-04-23T14:38:05.182Z</time></trkpt><trkpt lat="45.754168" lon="10.987098"><ele>148.0</ele><time>2026-04-23T14:38:06.183Z</time></trkpt><trkpt lat="45.7542726" lon="10.9872106"><ele>148.0</ele><time>2026-04-23T14:38:07.181Z</time></trkpt><trkpt lat="45.7543707" lon="10.987342"><ele>148.0</ele><time>2026-04-23T14:38:08.182Z</time></trkpt><trkpt lat="45.7544612" lon="10.98749"><ele>148.0</ele><time>2026-04-23T14:38:09.181Z</time></trkpt><trkpt lat="45.7545424" lon="10.9876524"><ele>146.25</ele><time>2026-04-23T14:38:10.182Z</time></trkpt><trkpt lat="45.7546135" lon="10.9878214"><ele>144.5</ele><time>2026-04-23T14:38:11.182Z</time></trkpt><trkpt lat="45.7546767" lon="10.9879988"><ele>142.75</ele><time>2026-04-23T14:38:12.182Z</time></trkpt><trkpt lat="45.7547347" lon="10.9881787"><ele>141.0</ele><time>2026-04-23T14:38:13.183Z</time></trkpt><trkpt lat="45.7547849" lon="10.9883697"><ele>140.25</ele><time>2026-04-23T14:38:14.181Z</time></trkpt><trkpt lat="45.7548395" lon="10.988557"><ele>139.5</ele><time>2026-04-23T14:38:15.182Z</time></trkpt><trkpt lat="45.7548949" lon="10.9887422"><ele>138.75</ele><time>2026-04-23T14:38:16.182Z</time></trkpt><trkpt lat="45.7549486" lon="10.9889271"><ele>138.0</ele><time>2026-04-23T14:38:17.181Z</time></trkpt><trkpt lat="45.7550121" lon="10.9891083"><ele>139.0</ele><time>2026-04-23T14:38:18.181Z</time></trkpt><trkpt lat="45.7550911" lon="10.9892842"><ele>140.0</ele><time>2026-04-23T14:38:19.181Z</time></trkpt><trkpt lat="45.7551806" lon="10.9894609"><ele>141.0</ele><time>2026-04-23T14:38:20.182Z</time></trkpt><trkpt lat="45.7552793" lon="10.9896313"><ele>141.25</ele><time>2026-04-23T14:38:21.181Z</time></trkpt><trkpt lat="45.7553897" lon="10.9897837"><ele>141.5</ele><time>2026-04-23T14:38:22.182Z</time></trkpt><trkpt lat="45.7555015" lon="10.9899238"><ele>141.75</ele><time>2026-04-23T14:38:23.181Z</time></trkpt><trkpt lat="45.7556167" lon="10.9900436"><ele>142.0</ele><time>2026-04-23T14:38:24.181Z</time></trkpt><trkpt lat="45.7557344" lon="10.9901562"><ele>142.0</ele><time>2026-04-23T14:38:25.181Z</time></trkpt><trkpt lat="45.755856" lon="10.9902701"><ele>142.0</ele><time>2026-04-23T14:38:26.181Z</time></trkpt><trkpt lat="45.7559819" lon="10.9903788"><ele>142.0</ele><time>2026-04-23T14:38:27.182Z</time></trkpt><trkpt lat="45.7561092" lon="10.9904863"><ele>142.0</ele><time>2026-04-23T14:38:28.181Z</time></trkpt><trkpt lat="45.7562374" lon="10.9905956"><ele>142.0</ele><time>2026-04-23T14:38:29.182Z</time></trkpt><trkpt lat="45.7563673" lon="10.9907072"><ele>142.0</ele><time>2026-04-23T14:38:30.181Z</time></trkpt><trkpt lat="45.7564967" lon="10.9908213"><ele>142.0</ele><time>2026-04-23T14:38:31.182Z</time></trkpt><trkpt lat="45.756625" lon="10.9909324"><ele>142.0</ele><time>2026-04-23T14:38:32.182Z</time></trkpt><trkpt lat="45.7567512" lon="10.9910404"><ele>142.0</ele><time>2026-04-23T14:38:33.182Z</time></trkpt><trkpt lat="45.7568733" lon="10.9911438"><ele>142.0</ele><time>2026-04-23T14:38:34.182Z</time></trkpt><trkpt lat="45.7569903" lon="10.9912429"><ele>142.0</ele><time>2026-04-23T14:38:35.181Z</time></trkpt><trkpt lat="45.7571043" lon="10.9913395"><ele>142.75</ele><time>2026-04-23T14:38:36.181Z</time></trkpt><trkpt lat="45.7572194" lon="10.991442"><ele>143.5</ele><time>2026-04-23T14:38:37.182Z</time></trkpt><trkpt lat="45.7573351" lon="10.9915482"><ele>144.25</ele><time>2026-04-23T14:38:38.181Z</time></trkpt><trkpt lat="45.7574487" lon="10.9916592"><ele>145.0</ele><time>2026-04-23T14:38:39.182Z</time></trkpt><trkpt lat="45.7575636" lon="10.9917729"><ele>145.0</ele><time>2026-04-23T14:38:40.182Z</time></trkpt><trkpt lat="45.7576807" lon="10.9918934"><ele>145.0</ele><time>2026-04-23T14:38:41.182Z</time></trkpt><trkpt lat="45.7578045" lon="10.9920166"><ele>145.0</ele><time>2026-04-23T14:38:42.182Z</time></trkpt><trkpt lat="45.7579343" lon="10.9921425"><ele>145.33333333333334</ele><time>2026-04-23T14:38:43.181Z</time></trkpt><trkpt lat="45.7580682" lon="10.992275"><ele>145.66666666666666</ele><time>2026-04-23T14:38:44.182Z</time></trkpt><trkpt lat="45.7582055" lon="10.9924122"><ele>146.0</ele><time>2026-04-23T14:38:45.182Z</time></trkpt><trkpt lat="45.7583407" lon="10.992539"><ele>144.66666666666666</ele><time>2026-04-23T14:38:46.181Z</time></trkpt><trkpt lat="45.7584798" lon="10.9926458"><ele>143.33333333333334</ele><time>2026-04-23T14:38:47.182Z</time></trkpt><trkpt lat="45.7586208" lon="10.9927361"><ele>142.0</ele><time>2026-04-23T14:38:48.183Z</time></trkpt><trkpt lat="45.7587561" lon="10.9928238"><ele>142.0</ele><time>2026-04-23T14:38:49.182Z</time></trkpt><trkpt lat="45.7588878" lon="10.9929067"><ele>142.0</ele><time>2026-04-23T14:38:50.181Z</time></trkpt><trkpt lat="45.7590188" lon="10.9929888"><ele>142.0</ele><time>2026-04-23T14:38:51.182Z</time></trkpt><trkpt lat="45.7591499" lon="10.9930731"><ele>142.0</ele><time>2026-04-23T14:38:52.182Z</time></trkpt><trkpt lat="45.7592819" lon="10.9931592"><ele>144.0</ele><time>2026-04-23T14:38:53.183Z</time></trkpt><trkpt lat="45.7594152" lon="10.9932433"><ele>146.0</ele><time>2026-04-23T14:38:54.183Z</time></trkpt><trkpt lat="45.7595532" lon="10.993331"><ele>148.0</ele><time>2026-04-23T14:38:55.182Z</time></trkpt><trkpt lat="45.7596898" lon="10.9934222"><ele>150.0</ele><time>2026-04-23T14:38:56.182Z</time></trkpt><trkpt lat="45.7598296" lon="10.9935195"><ele>150.0</ele><time>2026-04-23T14:38:57.181Z</time></trkpt><trkpt lat="45.7599679" lon="10.9936223"><ele>150.0</ele><time>2026-04-23T14:38:58.182Z</time></trkpt><trkpt lat="45.7601046" lon="10.9937346"><ele>150.0</ele><time>2026-04-23T14:38:59.181Z</time></trkpt><trkpt lat="45.7602333" lon="10.9938551"><ele>149.0</ele><time>2026-04-23T14:39:00.182Z</time></trkpt><trkpt lat="45.760358" lon="10.9939755"><ele>148.0</ele><time>2026-04-23T14:39:01.182Z</time></trkpt><trkpt lat="45.7604806" lon="10.9940953"><ele>147.0</ele><time>2026-04-23T14:39:02.182Z</time></trkpt><trkpt lat="45.7606031" lon="10.9942122"><ele>146.0</ele><time>2026-04-23T14:39:03.182Z</time></trkpt><trkpt lat="45.7607237" lon="10.9943294"><ele>146.0</ele><time>2026-04-23T14:39:04.181Z</time></trkpt><trkpt lat="45.7608447" lon="10.9944451"><ele>146.0</ele><time>2026-04-23T14:39:05.182Z</time></trkpt><trkpt lat="45.7609656" lon="10.9945617"><ele>146.0</ele><time>2026-04-23T14:39:06.181Z</time></trkpt><trkpt lat="45.7610876" lon="10.9946806"><ele>146.0</ele><time>2026-04-23T14:39:07.182Z</time></trkpt><trkpt lat="45.761211" lon="10.9948006"><ele>144.33333333333331</ele><time>2026-04-23T14:39:08.181Z</time></trkpt><trkpt lat="45.7613367" lon="10.9949188"><ele>142.66666666666666</ele><time>2026-04-23T14:39:09.182Z</time></trkpt><trkpt lat="45.7614667" lon="10.9950352"><ele>141.0</ele><time>2026-04-23T14:39:10.182Z</time></trkpt><trkpt lat="45.7616005" lon="10.9951501"><ele>141.0</ele><time>2026-04-23T14:39:11.182Z</time></trkpt><trkpt lat="45.7617376" lon="10.9952647"><ele>141.0</ele><time>2026-04-23T14:39:12.182Z</time></trkpt><trkpt lat="45.761875" lon="10.9953808"><ele>141.0</ele><time>2026-04-23T14:39:13.182Z</time></trkpt><trkpt lat="45.7620083" lon="10.9954929"><ele>141.75</ele><time>2026-04-23T14:39:14.182Z</time></trkpt><trkpt lat="45.7621359" lon="10.9955994"><ele>142.5</ele><time>2026-04-23T14:39:15.181Z</time></trkpt><trkpt lat="45.762263" lon="10.9957045"><ele>143.25</ele><time>2026-04-23T14:39:16.181Z</time></trkpt><trkpt lat="45.7623908" lon="10.9958112"><ele>144.0</ele><time>2026-04-23T14:39:17.181Z</time></trkpt><trkpt lat="45.762519" lon="10.9959218"><ele>144.0</ele><time>2026-04-23T14:39:18.181Z</time></trkpt><trkpt lat="45.7626432" lon="10.9960264"><ele>144.0</ele><time>2026-04-23T14:39:19.181Z</time></trkpt><trkpt lat="45.7627685" lon="10.9961285"><ele>144.0</ele><time>2026-04-23T14:39:20.182Z</time></trkpt><trkpt lat="45.7628943" lon="10.9962338"><ele>144.0</ele><time>2026-04-23T14:39:21.182Z</time></trkpt><trkpt lat="45.7630194" lon="10.9963423"><ele>144.75</ele><time>2026-04-23T14:39:22.183Z</time></trkpt><trkpt lat="45.7631447" lon="10.9964484"><ele>145.5</ele><time>2026-04-23T14:39:23.182Z</time></trkpt><trkpt lat="45.7632689" lon="10.9965534"><ele>146.25</ele><time>2026-04-23T14:39:24.183Z</time></trkpt><trkpt lat="45.7633955" lon="10.9966537"><ele>147.0</ele><time>2026-04-23T14:39:25.182Z</time></trkpt><trkpt lat="45.7635224" lon="10.9967625"><ele>147.0</ele><time>2026-04-23T14:39:26.181Z</time></trkpt><trkpt lat="45.7636461" lon="10.9968691"><ele>147.0</ele><time>2026-04-23T14:39:27.182Z</time></trkpt><trkpt lat="45.7637672" lon="10.9969696"><ele>147.0</ele><time>2026-04-23T14:39:28.181Z</time></trkpt><trkpt lat="45.7638898" lon="10.9970732"><ele>147.0</ele><time>2026-04-23T14:39:29.182Z</time></trkpt><trkpt lat="45.7640153" lon="10.9971737"><ele>147.0</ele><time>2026-04-23T14:39:30.182Z</time></trkpt><trkpt lat="45.7641426" lon="10.9972683"><ele>147.0</ele><time>2026-04-23T14:39:31.182Z</time></trkpt><trkpt lat="45.764271" lon="10.9973517"><ele>147.0</ele><time>2026-04-23T14:39:32.181Z</time></trkpt><trkpt lat="45.7644013" lon="10.9974312"><ele>147.0</ele><time>2026-04-23T14:39:33.181Z</time></trkpt><trkpt lat="45.7645338" lon="10.9975108"><ele>145.75</ele><time>2026-04-23T14:39:34.182Z</time></trkpt><trkpt lat="45.7646664" lon="10.9975877"><ele>144.5</ele><time>2026-04-23T14:39:35.183Z</time></trkpt><trkpt lat="45.7648" lon="10.9976648"><ele>143.25</ele><time>2026-04-23T14:39:36.182Z</time></trkpt><trkpt lat="45.7649345" lon="10.9977428"><ele>142.0</ele><time>2026-04-23T14:39:37.182Z</time></trkpt><trkpt lat="45.7650675" lon="10.9978229"><ele>143.5</ele><time>2026-04-23T14:39:38.182Z</time></trkpt><trkpt lat="45.7652017" lon="10.9979057"><ele>145.0</ele><time>2026-04-23T14:39:39.181Z</time></trkpt><trkpt lat="45.7653369" lon="10.9979887"><ele>146.5</ele><time>2026-04-23T14:39:40.182Z</time></trkpt><trkpt lat="45.7654756" lon="10.9980676"><ele>148.0</ele><time>2026-04-23T14:39:41.181Z</time></trkpt><trkpt lat="45.7656128" lon="10.9981487"><ele>148.0</ele><time>2026-04-23T14:39:42.182Z</time></trkpt><trkpt lat="45.7657481" lon="10.9982316"><ele>148.0</ele><time>2026-04-23T14:39:43.181Z</time></trkpt><trkpt lat="45.7658765" lon="10.9983083"><ele>148.0</ele><time>2026-04-23T14:39:44.182Z</time></trkpt><trkpt lat="45.7660004" lon="10.9983795"><ele>148.0</ele><time>2026-04-23T14:39:45.182Z</time></trkpt><trkpt lat="45.7661204" lon="10.9984507"><ele>147.25</ele><time>2026-04-23T14:39:46.182Z</time></trkpt><trkpt lat="45.7662409" lon="10.9985202"><ele>146.5</ele><time>2026-04-23T14:39:47.183Z</time></trkpt><trkpt lat="45.7663604" lon="10.998594"><ele>145.75</ele><time>2026-04-23T14:39:48.182Z</time></trkpt><trkpt lat="45.7664753" lon="10.9986739"><ele>145.0</ele><time>2026-04-23T14:39:49.183Z</time></trkpt><trkpt lat="45.7665872" lon="10.9987679"><ele>145.0</ele><time>2026-04-23T14:39:50.182Z</time></trkpt><trkpt lat="45.7666923" lon="10.9988843"><ele>145.0</ele><time>2026-04-23T14:39:51.182Z</time></trkpt><trkpt lat="45.7667797" lon="10.9990223"><ele>145.0</ele><time>2026-04-23T14:39:52.181Z</time></trkpt><trkpt lat="45.7668539" lon="10.999175"><ele>145.0</ele><time>2026-04-23T14:39:53.182Z</time></trkpt><trkpt lat="45.7669144" lon="10.9993515"><ele>148.75</ele><time>2026-04-23T14:39:54.181Z</time></trkpt><trkpt lat="45.7669551" lon="10.9995414"><ele>152.5</ele><time>2026-04-23T14:39:55.182Z</time></trkpt><trkpt lat="45.7669884" lon="10.9997293"><ele>156.25</ele><time>2026-04-23T14:39:56.182Z</time></trkpt><trkpt lat="45.7670182" lon="10.9999136"><ele>160.0</ele><time>2026-04-23T14:39:57.182Z</time></trkpt><trkpt lat="45.7670467" lon="11.0000964"><ele>160.0</ele><time>2026-04-23T14:39:58.181Z</time></trkpt><trkpt lat="45.767071" lon="11.0002729"><ele>160.0</ele><time>2026-04-23T14:39:59.182Z</time></trkpt><trkpt lat="45.7670939" lon="11.0004409"><ele>160.0</ele><time>2026-04-23T14:40:00.182Z</time></trkpt><trkpt lat="45.7671166" lon="11.0006"><ele>160.0</ele><time>2026-04-23T14:40:01.182Z</time></trkpt><trkpt lat="45.7671373" lon="11.0007527"><ele>158.8</ele><time>2026-04-23T14:40:02.181Z</time></trkpt><trkpt lat="45.7671623" lon="11.0008954"><ele>157.6</ele><time>2026-04-23T14:40:03.183Z</time></trkpt><trkpt lat="45.7672019" lon="11.0010214"><ele>156.4</ele><time>2026-04-23T14:40:04.182Z</time></trkpt><trkpt lat="45.767251" lon="11.0011331"><ele>155.2</ele><time>2026-04-23T14:40:05.183Z</time></trkpt><trkpt lat="45.767306" lon="11.0012369"><ele>154.0</ele><time>2026-04-23T14:40:06.181Z</time></trkpt><trkpt lat="45.7673678" lon="11.00133"><ele>154.0</ele><time>2026-04-23T14:40:07.182Z</time></trkpt><trkpt lat="45.7674433" lon="11.001419"><ele>154.0</ele><time>2026-04-23T14:40:08.181Z</time></trkpt><trkpt lat="45.7675333" lon="11.0014958"><ele>154.0</ele><time>2026-04-23T14:40:09.181Z</time></trkpt><trkpt lat="45.7676386" lon="11.0015637"><ele>154.0</ele><time>2026-04-23T14:40:10.182Z</time></trkpt><trkpt lat="45.7677541" lon="11.0016137"><ele>154.0</ele><time>2026-04-23T14:40:11.183Z</time></trkpt><trkpt lat="45.7678806" lon="11.0016351"><ele>156.25</ele><time>2026-04-23T14:40:12.183Z</time></trkpt><trkpt lat="45.7680132" lon="11.0016347"><ele>158.5</ele><time>2026-04-23T14:40:13.182Z</time></trkpt><trkpt lat="45.7681472" lon="11.0016239"><ele>160.75</ele><time>2026-04-23T14:40:14.181Z</time></trkpt><trkpt lat="45.7682756" lon="11.001614"><ele>163.0</ele><time>2026-04-23T14:40:15.182Z</time></trkpt><trkpt lat="45.7683937" lon="11.0016044"><ele>163.0</ele><time>2026-04-23T14:40:16.182Z</time></trkpt><trkpt lat="45.7685108" lon="11.0015928"><ele>163.0</ele><time>2026-04-23T14:40:17.182Z</time></trkpt><trkpt lat="45.7686282" lon="11.0015809"><ele>163.0</ele><time>2026-04-23T14:40:18.182Z</time></trkpt><trkpt lat="45.7687469" lon="11.0015692"><ele>163.0</ele><time>2026-04-23T14:40:19.183Z</time></trkpt><trkpt lat="45.7688623" lon="11.0015563"><ele>163.4</ele><time>2026-04-23T14:40:20.182Z</time></trkpt><trkpt lat="45.7689738" lon="11.0015299"><ele>163.8</ele><time>2026-04-23T14:40:21.182Z</time></trkpt><trkpt lat="45.7690816" lon="11.0014897"><ele>164.2</ele><time>2026-04-23T14:40:22.182Z</time></trkpt><trkpt lat="45.7691864" lon="11.00143"><ele>164.6</ele><time>2026-04-23T14:40:23.182Z</time></trkpt><trkpt lat="45.7692877" lon="11.0013616"><ele>165.0</ele><time>2026-04-23T14:40:24.183Z</time></trkpt><trkpt lat="45.7693892" lon="11.0013032"><ele>165.2</ele><time>2026-04-23T14:40:25.181Z</time></trkpt><trkpt lat="45.7694929" lon="11.0012639"><ele>165.4</ele><time>2026-04-23T14:40:26.182Z</time></trkpt><trkpt lat="45.7695989" lon="11.0012403"><ele>165.60000000000002</ele><time>2026-04-23T14:40:27.182Z</time></trkpt><trkpt lat="45.7697074" lon="11.0012349"><ele>165.8</ele><time>2026-04-23T14:40:28.182Z</time></trkpt><trkpt lat="45.7698163" lon="11.0012389"><ele>166.0</ele><time>2026-04-23T14:40:29.181Z</time></trkpt><trkpt lat="45.7699254" lon="11.0012457"><ele>166.0</ele><time>2026-04-23T14:40:30.182Z</time></trkpt><trkpt lat="45.7700343" lon="11.0012482"><ele>166.0</ele><time>2026-04-23T14:40:31.182Z</time></trkpt><trkpt lat="45.7701452" lon="11.001253"><ele>166.0</ele><time>2026-04-23T14:40:32.182Z</time></trkpt><trkpt lat="45.7702575" lon="11.0012617"><ele>166.0</ele><time>2026-04-23T14:40:33.182Z</time></trkpt><trkpt lat="45.7703714" lon="11.0012707"><ele>166.0</ele><time>2026-04-23T14:40:34.182Z</time></trkpt><trkpt lat="45.7704875" lon="11.0012819"><ele>167.25</ele><time>2026-04-23T14:40:35.182Z</time></trkpt><trkpt lat="45.7706043" lon="11.0012956"><ele>168.5</ele><time>2026-04-23T14:40:36.181Z</time></trkpt><trkpt lat="45.7707256" lon="11.0013093"><ele>169.75</ele><time>2026-04-23T14:40:37.181Z</time></trkpt><trkpt lat="45.7708479" lon="11.0013237"><ele>171.0</ele><time>2026-04-23T14:40:38.181Z</time></trkpt><trkpt lat="45.7709723" lon="11.0013384"><ele>172.0</ele><time>2026-04-23T14:40:39.183Z</time></trkpt><trkpt lat="45.7710925" lon="11.0013567"><ele>173.0</ele><time>2026-04-23T14:40:40.182Z</time></trkpt><trkpt lat="45.7712047" lon="11.001385"><ele>174.0</ele><time>2026-04-23T14:40:41.182Z</time></trkpt><trkpt lat="45.7713106" lon="11.0014315"><ele>175.0</ele><time>2026-04-23T14:40:42.181Z</time></trkpt><trkpt lat="45.7714165" lon="11.0014769"><ele>175.0</ele><time>2026-04-23T14:40:43.182Z</time></trkpt><trkpt lat="45.7715257" lon="11.0015235"><ele>175.0</ele><time>2026-04-23T14:40:44.181Z</time></trkpt><trkpt lat="45.7716364" lon="11.0015674"><ele>175.0</ele><time>2026-04-23T14:40:45.182Z</time></trkpt><trkpt lat="45.7717482" lon="11.0016047"><ele>175.0</ele><time>2026-04-23T14:40:46.181Z</time></trkpt><trkpt lat="45.7718652" lon="11.0016318"><ele>175.75</ele><time>2026-04-23T14:40:47.182Z</time></trkpt><trkpt lat="45.7719837" lon="11.0016491"><ele>176.5</ele><time>2026-04-23T14:40:48.181Z</time></trkpt><trkpt lat="45.7721074" lon="11.0016588"><ele>177.25</ele><time>2026-04-23T14:40:49.181Z</time></trkpt><trkpt lat="45.7722341" lon="11.0016618"><ele>178.0</ele><time>2026-04-23T14:40:50.182Z</time></trkpt><trkpt lat="45.7723575" lon="11.0016587"><ele>178.0</ele><time>2026-04-23T14:40:51.181Z</time></trkpt><trkpt lat="45.77248" lon="11.001646"><ele>178.0</ele><time>2026-04-23T14:40:52.181Z</time></trkpt><trkpt lat="45.7725973" lon="11.0016409"><ele>178.0</ele><time>2026-04-23T14:40:53.181Z</time></trkpt><trkpt lat="45.7727059" lon="11.0016435"><ele>178.0</ele><time>2026-04-23T14:40:54.182Z</time></trkpt><trkpt lat="45.7728126" lon="11.001652"><ele>177.0</ele><time>2026-04-23T14:40:55.182Z</time></trkpt><trkpt lat="45.772918" lon="11.0016668"><ele>176.0</ele><time>2026-04-23T14:40:56.182Z</time></trkpt><trkpt lat="45.7730251" lon="11.001681"><ele>175.0</ele><time>2026-04-23T14:40:57.182Z</time></trkpt><trkpt lat="45.7731351" lon="11.0016895"><ele>174.0</ele><time>2026-04-23T14:40:58.181Z</time></trkpt><trkpt lat="45.7732504" lon="11.0016994"><ele>173.0</ele><time>2026-04-23T14:40:59.182Z</time></trkpt><trkpt lat="45.7733683" lon="11.0017113"><ele>173.0</ele><time>2026-04-23T14:41:00.181Z</time></trkpt><trkpt lat="45.7734918" lon="11.0017203"><ele>173.0</ele><time>2026-04-23T14:41:01.183Z</time></trkpt><trkpt lat="45.773622" lon="11.0017272"><ele>173.0</ele><time>2026-04-23T14:41:02.181Z</time></trkpt><trkpt lat="45.7737591" lon="11.0017315"><ele>173.0</ele><time>2026-04-23T14:41:03.182Z</time></trkpt><trkpt lat="45.7739008" lon="11.0017381"><ele>172.75</ele><time>2026-04-23T14:41:04.182Z</time></trkpt><trkpt lat="45.774039" lon="11.0017479"><ele>172.5</ele><time>2026-04-23T14:41:05.183Z</time></trkpt><trkpt lat="45.7741734" lon="11.0017589"><ele>172.25</ele><time>2026-04-23T14:41:06.183Z</time></trkpt><trkpt lat="45.7743177" lon="11.0017752"><ele>172.0</ele><time>2026-04-23T14:41:07.182Z</time></trkpt><trkpt lat="45.774468" lon="11.0018099"><ele>172.66666666666669</ele><time>2026-04-23T14:41:08.183Z</time></trkpt><trkpt lat="45.7746216" lon="11.0018675"><ele>173.33333333333334</ele><time>2026-04-23T14:41:09.182Z</time></trkpt><trkpt lat="45.7747776" lon="11.0019372"><ele>174.0</ele><time>2026-04-23T14:41:10.181Z</time></trkpt><trkpt lat="45.7749361" lon="11.0020055"><ele>174.0</ele><time>2026-04-23T14:41:11.181Z</time></trkpt><trkpt lat="45.7750958" lon="11.0020662"><ele>174.0</ele><time>2026-04-23T14:41:12.182Z</time></trkpt><trkpt lat="45.7752563" lon="11.0021226"><ele>174.0</ele><time>2026-04-23T14:41:13.183Z</time></trkpt><trkpt lat="45.7754213" lon="11.0021684"><ele>174.0</ele><time>2026-04-23T14:41:14.182Z</time></trkpt><trkpt lat="45.7755881" lon="11.0022069"><ele>174.0</ele><time>2026-04-23T14:41:15.181Z</time></trkpt><trkpt lat="45.7757498" lon="11.0022529"><ele>174.0</ele><time>2026-04-23T14:41:16.181Z</time></trkpt><trkpt lat="45.7759099" lon="11.0022997"><ele>173.66666666666666</ele><time>2026-04-23T14:41:17.183Z</time></trkpt><trkpt lat="45.7760653" lon="11.0023431"><ele>173.33333333333331</ele><time>2026-04-23T14:41:18.182Z</time></trkpt><trkpt lat="45.7762175" lon="11.0023791"><ele>173.0</ele><time>2026-04-23T14:41:19.182Z</time></trkpt><trkpt lat="45.776368" lon="11.0024159"><ele>173.0</ele><time>2026-04-23T14:41:20.182Z</time></trkpt><trkpt lat="45.7765144" lon="11.0024439"><ele>173.0</ele><time>2026-04-23T14:41:21.181Z</time></trkpt><trkpt lat="45.7766617" lon="11.002451"><ele>173.0</ele><time>2026-04-23T14:41:22.181Z</time></trkpt><trkpt lat="45.7768116" lon="11.0024555"><ele>173.0</ele><time>2026-04-23T14:41:23.181Z</time></trkpt><trkpt lat="45.7769654" lon="11.0024564"><ele>172.33333333333331</ele><time>2026-04-23T14:41:24.182Z</time></trkpt><trkpt lat="45.777118" lon="11.0024588"><ele>171.66666666666666</ele><time>2026-04-23T14:41:25.181Z</time></trkpt><trkpt lat="45.7772678" lon="11.0024579"><ele>171.0</ele><time>2026-04-23T14:41:26.181Z</time></trkpt><trkpt lat="45.7774177" lon="11.002461"><ele>171.0</ele><time>2026-04-23T14:41:27.182Z</time></trkpt><trkpt lat="45.777566" lon="11.0024704"><ele>171.0</ele><time>2026-04-23T14:41:28.181Z</time></trkpt><trkpt lat="45.7777123" lon="11.0024917"><ele>171.0</ele><time>2026-04-23T14:41:29.181Z</time></trkpt><trkpt lat="45.7778582" lon="11.0025258"><ele>171.0</ele><time>2026-04-23T14:41:30.182Z</time></trkpt><trkpt lat="45.7780046" lon="11.0025642"><ele>171.0</ele><time>2026-04-23T14:41:31.182Z</time></trkpt><trkpt lat="45.7781441" lon="11.0026037"><ele>171.0</ele><time>2026-04-23T14:41:32.182Z</time></trkpt><trkpt lat="45.7782804" lon="11.0026528"><ele>171.0</ele><time>2026-04-23T14:41:33.181Z</time></trkpt><trkpt lat="45.7784143" lon="11.0027133"><ele>171.0</ele><time>2026-04-23T14:41:34.181Z</time></trkpt><trkpt lat="45.778549" lon="11.0027829"><ele>172.5</ele><time>2026-04-23T14:41:35.182Z</time></trkpt><trkpt lat="45.77868" lon="11.0028627"><ele>174.0</ele><time>2026-04-23T14:41:36.182Z</time></trkpt><trkpt lat="45.7788082" lon="11.0029481"><ele>175.5</ele><time>2026-04-23T14:41:37.182Z</time></trkpt><trkpt lat="45.7789314" lon="11.0030373"><ele>177.0</ele><time>2026-04-23T14:41:38.182Z</time></trkpt><trkpt lat="45.7790523" lon="11.0031324"><ele>177.0</ele><time>2026-04-23T14:41:39.181Z</time></trkpt><trkpt lat="45.7791717" lon="11.0032347"><ele>177.0</ele><time>2026-04-23T14:41:40.182Z</time></trkpt><trkpt lat="45.7792855" lon="11.0033485"><ele>177.0</ele><time>2026-04-23T14:41:41.182Z</time></trkpt><trkpt lat="45.779396" lon="11.0034717"><ele>177.0</ele><time>2026-04-23T14:41:42.182Z</time></trkpt><trkpt lat="45.7795012" lon="11.0036079"><ele>175.5</ele><time>2026-04-23T14:41:43.181Z</time></trkpt><trkpt lat="45.7796041" lon="11.0037579"><ele>174.0</ele><time>2026-04-23T14:41:44.181Z</time></trkpt><trkpt lat="45.7797055" lon="11.0039133"><ele>172.5</ele><time>2026-04-23T14:41:45.182Z</time></trkpt><trkpt lat="45.7798112" lon="11.0040706"><ele>171.0</ele><time>2026-04-23T14:41:46.182Z</time></trkpt><trkpt lat="45.7799253" lon="11.0042187"><ele>170.0</ele><time>2026-04-23T14:41:47.182Z</time></trkpt><trkpt lat="45.7800458" lon="11.0043576"><ele>169.0</ele><time>2026-04-23T14:41:48.181Z</time></trkpt><trkpt lat="45.7801701" lon="11.0044885"><ele>168.0</ele><time>2026-04-23T14:41:49.181Z</time></trkpt><trkpt lat="45.7802901" lon="11.004607"><ele>169.75</ele><time>2026-04-23T14:41:50.181Z</time></trkpt><trkpt lat="45.7804043" lon="11.0047174"><ele>171.5</ele><time>2026-04-23T14:41:51.181Z</time></trkpt><trkpt lat="45.7805135" lon="11.0048291"><ele>173.25</ele><time>2026-04-23T14:41:52.182Z</time></trkpt><trkpt lat="45.7806228" lon="11.0049436"><ele>175.0</ele><time>2026-04-23T14:41:53.182Z</time></trkpt><trkpt lat="45.7807327" lon="11.0050611"><ele>175.0</ele><time>2026-04-23T14:41:54.181Z</time></trkpt><trkpt lat="45.7808407" lon="11.0051796"><ele>175.0</ele><time>2026-04-23T14:41:55.182Z</time></trkpt><trkpt lat="45.7809515" lon="11.0053061"><ele>175.0</ele><time>2026-04-23T14:41:56.182Z</time></trkpt><trkpt lat="45.7810639" lon="11.0054353"><ele>175.0</ele><time>2026-04-23T14:41:57.182Z</time></trkpt><trkpt lat="45.7811768" lon="11.0055682"><ele>175.0</ele><time>2026-04-23T14:41:58.182Z</time></trkpt><trkpt lat="45.7812866" lon="11.0056948"><ele>175.0</ele><time>2026-04-23T14:41:59.183Z</time></trkpt><trkpt lat="45.7813931" lon="11.0058136"><ele>175.0</ele><time>2026-04-23T14:42:00.182Z</time></trkpt><trkpt lat="45.7815018" lon="11.0059289"><ele>175.0</ele><time>2026-04-23T14:42:01.182Z</time></trkpt><trkpt lat="45.7816124" lon="11.0060398"><ele>175.0</ele><time>2026-04-23T14:42:02.182Z</time></trkpt><trkpt lat="45.7817255" lon="11.0061472"><ele>175.0</ele><time>2026-04-23T14:42:03.182Z</time></trkpt><trkpt lat="45.7818455" lon="11.0062504"><ele>175.0</ele><time>2026-04-23T14:42:04.182Z</time></trkpt><trkpt lat="45.7819684" lon="11.0063499"><ele>175.0</ele><time>2026-04-23T14:42:05.182Z</time></trkpt><trkpt lat="45.7820972" lon="11.0064462"><ele>175.0</ele><time>2026-04-23T14:42:06.181Z</time></trkpt><trkpt lat="45.7822319" lon="11.0065379"><ele>175.0</ele><time>2026-04-23T14:42:07.181Z</time></trkpt><trkpt lat="45.7823711" lon="11.0066231"><ele>175.0</ele><time>2026-04-23T14:42:08.181Z</time></trkpt><trkpt lat="45.7825098" lon="11.0067101"><ele>176.66666666666669</ele><time>2026-04-23T14:42:09.181Z</time></trkpt><trkpt lat="45.7826505" lon="11.0068003"><ele>178.33333333333334</ele><time>2026-04-23T14:42:10.181Z</time></trkpt><trkpt lat="45.7827858" lon="11.0068934"><ele>180.0</ele><time>2026-04-23T14:42:11.182Z</time></trkpt><trkpt lat="45.7829188" lon="11.0069993"><ele>181.0</ele><time>2026-04-23T14:42:12.181Z</time></trkpt><trkpt lat="45.7830456" lon="11.0071116"><ele>182.0</ele><time>2026-04-23T14:42:13.181Z</time></trkpt><trkpt lat="45.7831649" lon="11.0072334"><ele>183.0</ele><time>2026-04-23T14:42:14.182Z</time></trkpt><trkpt lat="45.7832733" lon="11.0073607"><ele>184.0</ele><time>2026-04-23T14:42:15.182Z</time></trkpt><trkpt lat="45.7833724" lon="11.0075033"><ele>184.0</ele><time>2026-04-23T14:42:16.182Z</time></trkpt><trkpt lat="45.7834571" lon="11.0076606"><ele>184.0</ele><time>2026-04-23T14:42:17.181Z</time></trkpt><trkpt lat="45.783546" lon="11.0078302"><ele>184.0</ele><time>2026-04-23T14:42:18.182Z</time></trkpt><trkpt lat="45.7836511" lon="11.0079976"><ele>184.0</ele><time>2026-04-23T14:42:19.181Z</time></trkpt><trkpt lat="45.7837764" lon="11.0081666"><ele>183.66666666666669</ele><time>2026-04-23T14:42:20.182Z</time></trkpt><trkpt lat="45.7839203" lon="11.0083456"><ele>183.33333333333334</ele><time>2026-04-23T14:42:21.181Z</time></trkpt><trkpt lat="45.7840756" lon="11.0085399"><ele>183.0</ele><time>2026-04-23T14:42:22.182Z</time></trkpt><trkpt lat="45.784237" lon="11.0087571"><ele>183.33333333333334</ele><time>2026-04-23T14:42:23.182Z</time></trkpt><trkpt lat="45.784395" lon="11.0089842"><ele>183.66666666666669</ele><time>2026-04-23T14:42:24.182Z</time></trkpt><trkpt lat="45.78455" lon="11.0092135"><ele>184.0</ele><time>2026-04-23T14:42:25.181Z</time></trkpt><trkpt lat="45.784704" lon="11.0094373"><ele>184.33333333333334</ele><time>2026-04-23T14:42:26.181Z</time></trkpt><trkpt lat="45.7848533" lon="11.0096528"><ele>184.66666666666666</ele><time>2026-04-23T14:42:27.182Z</time></trkpt><trkpt lat="45.7850015" lon="11.0098628"><ele>185.0</ele><time>2026-04-23T14:42:28.181Z</time></trkpt><trkpt lat="45.7851428" lon="11.0100599"><ele>185.33333333333331</ele><time>2026-04-23T14:42:29.182Z</time></trkpt><trkpt lat="45.7852777" lon="11.0102482"><ele>185.66666666666666</ele><time>2026-04-23T14:42:30.182Z</time></trkpt><trkpt lat="45.7854076" lon="11.0104258"><ele>186.0</ele><time>2026-04-23T14:42:31.182Z</time></trkpt><trkpt lat="45.7855358" lon="11.010596"><ele>186.0</ele><time>2026-04-23T14:42:32.181Z</time></trkpt><trkpt lat="45.7856725" lon="11.0107466"><ele>186.0</ele><time>2026-04-23T14:42:33.181Z</time></trkpt><trkpt lat="45.7858212" lon="11.01088"><ele>186.0</ele><time>2026-04-23T14:42:34.182Z</time></trkpt><trkpt lat="45.7859815" lon="11.010998"><ele>186.0</ele><time>2026-04-23T14:42:35.181Z</time></trkpt><trkpt lat="45.7861494" lon="11.0111211"><ele>186.0</ele><time>2026-04-23T14:42:36.182Z</time></trkpt><trkpt lat="45.7863178" lon="11.011253"><ele>186.0</ele><time>2026-04-23T14:42:37.182Z</time></trkpt><trkpt lat="45.7864892" lon="11.0113881"><ele>186.0</ele><time>2026-04-23T14:42:38.182Z</time></trkpt><trkpt lat="45.7866539" lon="11.011536"><ele>186.0</ele><time>2026-04-23T14:42:39.181Z</time></trkpt><trkpt lat="45.7868037" lon="11.0117139"><ele>186.0</ele><time>2026-04-23T14:42:40.182Z</time></trkpt><trkpt lat="45.7869511" lon="11.0119019"><ele>185.66666666666666</ele><time>2026-04-23T14:42:41.181Z</time></trkpt><trkpt lat="45.7870902" lon="11.0120876"><ele>185.33333333333331</ele><time>2026-04-23T14:42:42.182Z</time></trkpt><trkpt lat="45.7872283" lon="11.0122702"><ele>185.0</ele><time>2026-04-23T14:42:43.181Z</time></trkpt><trkpt lat="45.7873734" lon="11.0124439"><ele>184.66666666666666</ele><time>2026-04-23T14:42:44.182Z</time></trkpt><trkpt lat="45.787531" lon="11.012597"><ele>184.33333333333334</ele><time>2026-04-23T14:42:45.182Z</time></trkpt><trkpt lat="45.7877024" lon="11.012731"><ele>184.0</ele><time>2026-04-23T14:42:46.182Z</time></trkpt><trkpt lat="45.7878868" lon="11.0128518"><ele>184.0</ele><time>2026-04-23T14:42:47.181Z</time></trkpt><trkpt lat="45.788082" lon="11.0129654"><ele>184.0</ele><time>2026-04-23T14:42:48.182Z</time></trkpt><trkpt lat="45.7882846" lon="11.0130764"><ele>184.0</ele><time>2026-04-23T14:42:49.182Z</time></trkpt><trkpt lat="45.788493" lon="11.0131873"><ele>183.5</ele><time>2026-04-23T14:42:50.182Z</time></trkpt><trkpt lat="45.7887049" lon="11.0133001"><ele>183.0</ele><time>2026-04-23T14:42:51.182Z</time></trkpt><trkpt lat="45.7889172" lon="11.0134153"><ele>181.0</ele><time>2026-04-23T14:42:52.182Z</time></trkpt><trkpt lat="45.7891324" lon="11.0135248"><ele>179.0</ele><time>2026-04-23T14:42:53.181Z</time></trkpt><trkpt lat="45.7893553" lon="11.0136125"><ele>178.5</ele><time>2026-04-23T14:42:54.182Z</time></trkpt><trkpt lat="45.7895855" lon="11.0136727"><ele>178.0</ele><time>2026-04-23T14:42:55.181Z</time></trkpt><trkpt lat="45.7898189" lon="11.0137259"><ele>178.0</ele><time>2026-04-23T14:42:56.181Z</time></trkpt><trkpt lat="45.7900549" lon="11.0137809"><ele>178.0</ele><time>2026-04-23T14:42:57.182Z</time></trkpt><trkpt lat="45.7902913" lon="11.0138422"><ele>180.0</ele><time>2026-04-23T14:42:58.182Z</time></trkpt><trkpt lat="45.7905272" lon="11.0139217"><ele>182.0</ele><time>2026-04-23T14:42:59.182Z</time></trkpt><trkpt lat="45.7907621" lon="11.0140197"><ele>182.0</ele><time>2026-04-23T14:43:00.182Z</time></trkpt><trkpt lat="45.790998" lon="11.0141239"><ele>182.0</ele><time>2026-04-23T14:43:01.182Z</time></trkpt><trkpt lat="45.7912359" lon="11.014233"><ele>178.0</ele><time>2026-04-23T14:43:02.181Z</time></trkpt><trkpt lat="45.791475" lon="11.0143407"><ele>174.0</ele><time>2026-04-23T14:43:03.182Z</time></trkpt><trkpt lat="45.7917129" lon="11.0144468"><ele>176.0</ele><time>2026-04-23T14:43:04.181Z</time></trkpt><trkpt lat="45.7919478" lon="11.0145464"><ele>178.0</ele><time>2026-04-23T14:43:05.182Z</time></trkpt><trkpt lat="45.792182" lon="11.0146377"><ele>178.0</ele><time>2026-04-23T14:43:06.182Z</time></trkpt><trkpt lat="45.792421" lon="11.0147127"><ele>178.0</ele><time>2026-04-23T14:43:07.181Z</time></trkpt><trkpt lat="45.79266" lon="11.0147762"><ele>179.5</ele><time>2026-04-23T14:43:08.182Z</time></trkpt><trkpt lat="45.7929011" lon="11.0148402"><ele>181.0</ele><time>2026-04-23T14:43:09.182Z</time></trkpt><trkpt lat="45.7931434" lon="11.0149046"><ele>181.0</ele><time>2026-04-23T14:43:10.182Z</time></trkpt><trkpt lat="45.7933834" lon="11.0149717"><ele>181.0</ele><time>2026-04-23T14:43:11.181Z</time></trkpt><trkpt lat="45.793622" lon="11.0150338"><ele>175.0</ele><time>2026-04-23T14:43:12.181Z</time></trkpt><trkpt lat="45.7938584" lon="11.0150948"><ele>169.0</ele><time>2026-04-23T14:43:13.181Z</time></trkpt><trkpt lat="45.7940825" lon="11.0151595"><ele>169.0</ele><time>2026-04-23T14:43:14.181Z</time></trkpt><trkpt lat="45.7942933" lon="11.0152314"><ele>169.0</ele><time>2026-04-23T14:43:15.182Z</time></trkpt><trkpt lat="45.7944918" lon="11.0153073"><ele>169.0</ele><time>2026-04-23T14:43:16.182Z</time></trkpt><trkpt lat="45.7946802" lon="11.0153893"><ele>169.0</ele><time>2026-04-23T14:43:17.182Z</time></trkpt><trkpt lat="45.7948602" lon="11.0154667"><ele>169.0</ele><time>2026-04-23T14:43:18.182Z</time></trkpt><trkpt lat="45.7950332" lon="11.0155333"><ele>169.0</ele><time>2026-04-23T14:43:19.181Z</time></trkpt><trkpt lat="45.7952036" lon="11.0155776"><ele>169.0</ele><time>2026-04-23T14:43:20.181Z</time></trkpt><trkpt lat="45.7953736" lon="11.0155962"><ele>169.0</ele><time>2026-04-23T14:43:21.182Z</time></trkpt><trkpt lat="45.7955453" lon="11.015605"><ele>169.0</ele><time>2026-04-23T14:43:22.182Z</time></trkpt><trkpt lat="45.7957133" lon="11.0156121"><ele>169.0</ele><time>2026-04-23T14:43:23.182Z</time></trkpt><trkpt lat="45.7958752" lon="11.0156155"><ele>169.0</ele><time>2026-04-23T14:43:24.182Z</time></trkpt><trkpt lat="45.79603" lon="11.0156182"><ele>169.0</ele><time>2026-04-23T14:43:25.182Z</time></trkpt><trkpt lat="45.7961744" lon="11.0156184"><ele>171.0</ele><time>2026-04-23T14:43:26.182Z</time></trkpt><trkpt lat="45.7963125" lon="11.0156098"><ele>173.0</ele><time>2026-04-23T14:43:27.181Z</time></trkpt><trkpt lat="45.7964406" lon="11.0155963"><ele>175.0</ele><time>2026-04-23T14:43:28.182Z</time></trkpt><trkpt lat="45.7965599" lon="11.0155768"><ele>177.0</ele><time>2026-04-23T14:43:29.182Z</time></trkpt><trkpt lat="45.7966732" lon="11.0155565"><ele>177.0</ele><time>2026-04-23T14:43:30.181Z</time></trkpt><trkpt lat="45.7967817" lon="11.0155343"><ele>177.0</ele><time>2026-04-23T14:43:31.182Z</time></trkpt><trkpt lat="45.796885" lon="11.0155075"><ele>177.0</ele><time>2026-04-23T14:43:32.182Z</time></trkpt><trkpt lat="45.7969846" lon="11.0154786"><ele>177.0</ele><time>2026-04-23T14:43:33.181Z</time></trkpt><trkpt lat="45.7970812" lon="11.0154601"><ele>177.0</ele><time>2026-04-23T14:43:34.182Z</time></trkpt><trkpt lat="45.7971847" lon="11.0154514"><ele>175.25</ele><time>2026-04-23T14:43:35.181Z</time></trkpt><trkpt lat="45.7972968" lon="11.015446"><ele>173.5</ele><time>2026-04-23T14:43:36.181Z</time></trkpt><trkpt lat="45.7974204" lon="11.0154548"><ele>171.75</ele><time>2026-04-23T14:43:37.182Z</time></trkpt><trkpt lat="45.7975488" lon="11.0154512"><ele>170.0</ele><time>2026-04-23T14:43:38.182Z</time></trkpt><trkpt lat="45.7976846" lon="11.0154473"><ele>169.0</ele><time>2026-04-23T14:43:39.182Z</time></trkpt><trkpt lat="45.7978216" lon="11.0154492"><ele>168.0</ele><time>2026-04-23T14:43:40.182Z</time></trkpt><trkpt lat="45.7979625" lon="11.0154523"><ele>167.0</ele><time>2026-04-23T14:43:41.182Z</time></trkpt><trkpt lat="45.7981113" lon="11.0154659"><ele>166.0</ele><time>2026-04-23T14:43:42.182Z</time></trkpt><trkpt lat="45.798269" lon="11.015476"><ele>166.0</ele><time>2026-04-23T14:43:43.183Z</time></trkpt><trkpt lat="45.7984327" lon="11.0154721"><ele>166.0</ele><time>2026-04-23T14:43:44.182Z</time></trkpt><trkpt lat="45.7985945" lon="11.0154582"><ele>166.0</ele><time>2026-04-23T14:43:45.181Z</time></trkpt><trkpt lat="45.7987452" lon="11.0154344"><ele>163.5</ele><time>2026-04-23T14:43:46.181Z</time></trkpt><trkpt lat="45.7988875" lon="11.0153892"><ele>161.0</ele><time>2026-04-23T14:43:47.182Z</time></trkpt><trkpt lat="45.7990314" lon="11.0153289"><ele>158.5</ele><time>2026-04-23T14:43:48.181Z</time></trkpt><trkpt lat="45.7991714" lon="11.0152673"><ele>156.0</ele><time>2026-04-23T14:43:49.181Z</time></trkpt><trkpt lat="45.799307" lon="11.0152055"><ele>156.5</ele><time>2026-04-23T14:43:50.181Z</time></trkpt><trkpt lat="45.7994376" lon="11.0151396"><ele>157.0</ele><time>2026-04-23T14:43:51.182Z</time></trkpt><trkpt lat="45.7995626" lon="11.0150575"><ele>157.5</ele><time>2026-04-23T14:43:52.181Z</time></trkpt><trkpt lat="45.7996831" lon="11.0149542"><ele>158.0</ele><time>2026-04-23T14:43:53.181Z</time></trkpt><trkpt lat="45.7998093" lon="11.014835"><ele>158.33333333333331</ele><time>2026-04-23T14:43:54.181Z</time></trkpt><trkpt lat="45.7999332" lon="11.0147039"><ele>158.66666666666666</ele><time>2026-04-23T14:43:55.182Z</time></trkpt><trkpt lat="45.8000643" lon="11.0145669"><ele>159.0</ele><time>2026-04-23T14:43:56.181Z</time></trkpt><trkpt lat="45.8002002" lon="11.0144332"><ele>159.0</ele><time>2026-04-23T14:43:57.182Z</time></trkpt><trkpt lat="45.8003437" lon="11.0143157"><ele>159.0</ele><time>2026-04-23T14:43:58.182Z</time></trkpt><trkpt lat="45.8004956" lon="11.0142105"><ele>159.0</ele><time>2026-04-23T14:43:59.182Z</time></trkpt><trkpt lat="45.8006552" lon="11.0141005"><ele>159.66666666666666</ele><time>2026-04-23T14:44:00.181Z</time></trkpt><trkpt lat="45.8008129" lon="11.0139849"><ele>160.33333333333331</ele><time>2026-04-23T14:44:01.182Z</time></trkpt><trkpt lat="45.8009771" lon="11.0138652"><ele>161.0</ele><time>2026-04-23T14:44:02.181Z</time></trkpt><trkpt lat="45.8011474" lon="11.0137444"><ele>161.0</ele><time>2026-04-23T14:44:03.181Z</time></trkpt><trkpt lat="45.8013214" lon="11.0136207"><ele>161.0</ele><time>2026-04-23T14:44:04.182Z</time></trkpt><trkpt lat="45.801499" lon="11.0134941"><ele>161.0</ele><time>2026-04-23T14:44:05.182Z</time></trkpt><trkpt lat="45.8016754" lon="11.0133733"><ele>165.33333333333331</ele><time>2026-04-23T14:44:06.182Z</time></trkpt><trkpt lat="45.8018541" lon="11.0132555"><ele>169.66666666666666</ele><time>2026-04-23T14:44:07.181Z</time></trkpt><trkpt lat="45.802036" lon="11.013139"><ele>174.0</ele><time>2026-04-23T14:44:08.182Z</time></trkpt><trkpt lat="45.802224" lon="11.0130322"><ele>174.0</ele><time>2026-04-23T14:44:09.183Z</time></trkpt><trkpt lat="45.8024152" lon="11.0129371"><ele>174.0</ele><time>2026-04-23T14:44:10.182Z</time></trkpt><trkpt lat="45.8026064" lon="11.0128526"><ele>174.0</ele><time>2026-04-23T14:44:11.183Z</time></trkpt><trkpt lat="45.8028018" lon="11.0127922"><ele>169.33333333333334</ele><time>2026-04-23T14:44:12.181Z</time></trkpt><trkpt lat="45.8029975" lon="11.0127444"><ele>164.66666666666669</ele><time>2026-04-23T14:44:13.181Z</time></trkpt><trkpt lat="45.8031879" lon="11.0126945"><ele>160.0</ele><time>2026-04-23T14:44:14.182Z</time></trkpt><trkpt lat="45.8033712" lon="11.0126364"><ele>161.0</ele><time>2026-04-23T14:44:15.182Z</time></trkpt><trkpt lat="45.8035444" lon="11.0125633"><ele>162.0</ele><time>2026-04-23T14:44:16.181Z</time></trkpt><trkpt lat="45.8037063" lon="11.0124625"><ele>163.0</ele><time>2026-04-23T14:44:17.182Z</time></trkpt><trkpt lat="45.8038589" lon="11.0123326"><ele>163.0</ele><time>2026-04-23T14:44:18.182Z</time></trkpt><trkpt lat="45.8040049" lon="11.0121933"><ele>163.0</ele><time>2026-04-23T14:44:19.182Z</time></trkpt><trkpt lat="45.8041457" lon="11.0120666"><ele>163.0</ele><time>2026-04-23T14:44:20.181Z</time></trkpt><trkpt lat="45.8042829" lon="11.0119707"><ele>161.75</ele><time>2026-04-23T14:44:21.182Z</time></trkpt><trkpt lat="45.8044173" lon="11.011914"><ele>160.5</ele><time>2026-04-23T14:44:22.181Z</time></trkpt><trkpt lat="45.8045524" lon="11.0118947"><ele>159.25</ele><time>2026-04-23T14:44:23.182Z</time></trkpt><trkpt lat="45.8046896" lon="11.0119089"><ele>158.0</ele><time>2026-04-23T14:44:24.181Z</time></trkpt><trkpt lat="45.8048242" lon="11.0119646"><ele>158.0</ele><time>2026-04-23T14:44:25.181Z</time></trkpt><trkpt lat="45.8049491" lon="11.01206"><ele>158.0</ele><time>2026-04-23T14:44:26.182Z</time></trkpt><trkpt lat="45.805066" lon="11.0121788"><ele>158.0</ele><time>2026-04-23T14:44:27.182Z</time></trkpt><trkpt lat="45.8051826" lon="11.0122825"><ele>158.0</ele><time>2026-04-23T14:44:28.182Z</time></trkpt><trkpt lat="45.8053028" lon="11.0123531"><ele>158.5</ele><time>2026-04-23T14:44:29.182Z</time></trkpt><trkpt lat="45.8054227" lon="11.0123925"><ele>159.0</ele><time>2026-04-23T14:44:30.181Z</time></trkpt><trkpt lat="45.8055479" lon="11.012396"><ele>159.5</ele><time>2026-04-23T14:44:31.182Z</time></trkpt><trkpt lat="45.8056752" lon="11.0123718"><ele>160.0</ele><time>2026-04-23T14:44:32.181Z</time></trkpt><trkpt lat="45.8058028" lon="11.0123181"><ele>160.0</ele><time>2026-04-23T14:44:33.181Z</time></trkpt><trkpt lat="45.8059296" lon="11.0122384"><ele>160.0</ele><time>2026-04-23T14:44:34.182Z</time></trkpt><trkpt lat="45.8060541" lon="11.0121357"><ele>160.0</ele><time>2026-04-23T14:44:35.181Z</time></trkpt><trkpt lat="45.8061799" lon="11.0120202"><ele>160.0</ele><time>2026-04-23T14:44:36.182Z</time></trkpt><trkpt lat="45.8063039" lon="11.0118857"><ele>157.0</ele><time>2026-04-23T14:44:37.181Z</time></trkpt><trkpt lat="45.8064218" lon="11.0117321"><ele>154.0</ele><time>2026-04-23T14:44:38.182Z</time></trkpt><trkpt lat="45.8065447" lon="11.0115772"><ele>151.0</ele><time>2026-04-23T14:44:39.182Z</time></trkpt><trkpt lat="45.8066781" lon="11.01143"><ele>151.0</ele><time>2026-04-23T14:44:40.181Z</time></trkpt><trkpt lat="45.8068203" lon="11.0112906"><ele>151.0</ele><time>2026-04-23T14:44:41.181Z</time></trkpt><trkpt lat="45.8069742" lon="11.0111708"><ele>151.0</ele><time>2026-04-23T14:44:42.181Z</time></trkpt><trkpt lat="45.8071383" lon="11.0110714"><ele>150.0</ele><time>2026-04-23T14:44:43.181Z</time></trkpt><trkpt lat="45.8073099" lon="11.0109941"><ele>149.0</ele><time>2026-04-23T14:44:44.182Z</time></trkpt><trkpt lat="45.8074843" lon="11.0109378"><ele>148.0</ele><time>2026-04-23T14:44:45.181Z</time></trkpt><trkpt lat="45.8076542" lon="11.0109177"><ele>148.33333333333334</ele><time>2026-04-23T14:44:46.181Z</time></trkpt><trkpt lat="45.8078159" lon="11.010923"><ele>148.66666666666666</ele><time>2026-04-23T14:44:47.182Z</time></trkpt><trkpt lat="45.8079678" lon="11.0109438"><ele>149.0</ele><time>2026-04-23T14:44:48.181Z</time></trkpt><trkpt lat="45.8081097" lon="11.0109716"><ele>149.0</ele><time>2026-04-23T14:44:49.182Z</time></trkpt><trkpt lat="45.8082427" lon="11.011008"><ele>149.0</ele><time>2026-04-23T14:44:50.181Z</time></trkpt><trkpt lat="45.8083697" lon="11.0110443"><ele>149.0</ele><time>2026-04-23T14:44:51.181Z</time></trkpt><trkpt lat="45.8084922" lon="11.0110806"><ele>149.0</ele><time>2026-04-23T14:44:52.182Z</time></trkpt><trkpt lat="45.80862" lon="11.0111166"><ele>148.75</ele><time>2026-04-23T14:44:53.181Z</time></trkpt><trkpt lat="45.8087466" lon="11.0111546"><ele>148.5</ele><time>2026-04-23T14:44:54.182Z</time></trkpt><trkpt lat="45.808877" lon="11.0111901"><ele>148.25</ele><time>2026-04-23T14:44:55.182Z</time></trkpt><trkpt lat="45.8090093" lon="11.0112278"><ele>148.0</ele><time>2026-04-23T14:44:56.182Z</time></trkpt><trkpt lat="45.8091469" lon="11.0112621"><ele>148.0</ele><time>2026-04-23T14:44:57.182Z</time></trkpt><trkpt lat="45.8092853" lon="11.011292"><ele>148.0</ele><time>2026-04-23T14:44:58.182Z</time></trkpt><trkpt lat="45.8094321" lon="11.0113134"><ele>148.0</ele><time>2026-04-23T14:44:59.182Z</time></trkpt><trkpt lat="45.8095844" lon="11.0113283"><ele>148.0</ele><time>2026-04-23T14:45:00.181Z</time></trkpt><trkpt lat="45.8097445" lon="11.0113256"><ele>148.33333333333334</ele><time>2026-04-23T14:45:01.181Z</time></trkpt><trkpt lat="45.8099103" lon="11.0113137"><ele>148.66666666666666</ele><time>2026-04-23T14:45:02.182Z</time></trkpt><trkpt lat="45.8100817" lon="11.0112843"><ele>149.0</ele><time>2026-04-23T14:45:03.182Z</time></trkpt><trkpt lat="45.8102578" lon="11.0112347"><ele>149.0</ele><time>2026-04-23T14:45:04.181Z</time></trkpt><trkpt lat="45.8104356" lon="11.0111681"><ele>149.0</ele><time>2026-04-23T14:45:05.181Z</time></trkpt><trkpt lat="45.8106172" lon="11.0110833"><ele>149.0</ele><time>2026-04-23T14:45:06.182Z</time></trkpt><trkpt lat="45.8108007" lon="11.0109858"><ele>149.0</ele><time>2026-04-23T14:45:07.182Z</time></trkpt><trkpt lat="45.8109732" lon="11.0108874"><ele>149.0</ele><time>2026-04-23T14:45:08.182Z</time></trkpt><trkpt lat="45.8111357" lon="11.0107898"><ele>149.0</ele><time>2026-04-23T14:45:09.181Z</time></trkpt><trkpt lat="45.8112911" lon="11.0106966"><ele>150.33333333333331</ele><time>2026-04-23T14:45:10.181Z</time></trkpt><trkpt lat="45.8114405" lon="11.0106123"><ele>151.66666666666666</ele><time>2026-04-23T14:45:11.182Z</time></trkpt><trkpt lat="45.8115849" lon="11.0105285"><ele>153.0</ele><time>2026-04-23T14:45:12.183Z</time></trkpt><trkpt lat="45.8117304" lon="11.0104461"><ele>154.0</ele><time>2026-04-23T14:45:13.181Z</time></trkpt><trkpt lat="45.8118766" lon="11.0103601"><ele>155.0</ele><time>2026-04-23T14:45:14.182Z</time></trkpt><trkpt lat="45.8120242" lon="11.0102809"><ele>156.0</ele><time>2026-04-23T14:45:15.181Z</time></trkpt><trkpt lat="45.8121728" lon="11.0101937"><ele>156.0</ele><time>2026-04-23T14:45:16.181Z</time></trkpt><trkpt lat="45.812326" lon="11.0101229"><ele>156.0</ele><time>2026-04-23T14:45:17.182Z</time></trkpt><trkpt lat="45.8124841" lon="11.0100724"><ele>156.0</ele><time>2026-04-23T14:45:18.182Z</time></trkpt><trkpt lat="45.8126349" lon="11.0100254"><ele>156.33333333333334</ele><time>2026-04-23T14:45:19.181Z</time></trkpt><trkpt lat="45.8127809" lon="11.0099798"><ele>156.66666666666669</ele><time>2026-04-23T14:45:20.182Z</time></trkpt><trkpt lat="45.8129268" lon="11.0099293"><ele>157.0</ele><time>2026-04-23T14:45:21.182Z</time></trkpt><trkpt lat="45.8130717" lon="11.0098701"><ele>157.0</ele><time>2026-04-23T14:45:22.182Z</time></trkpt><trkpt lat="45.8132164" lon="11.0098024"><ele>157.0</ele><time>2026-04-23T14:45:23.183Z</time></trkpt><trkpt lat="45.8133616" lon="11.0097199"><ele>157.0</ele><time>2026-04-23T14:45:24.181Z</time></trkpt><trkpt lat="45.813508" lon="11.00963"><ele>156.33333333333334</ele><time>2026-04-23T14:45:25.181Z</time></trkpt><trkpt lat="45.8136582" lon="11.0095348"><ele>155.66666666666666</ele><time>2026-04-23T14:45:26.182Z</time></trkpt><trkpt lat="45.8138113" lon="11.0094361"><ele>155.0</ele><time>2026-04-23T14:45:27.182Z</time></trkpt><trkpt lat="45.8139666" lon="11.0093319"><ele>155.0</ele><time>2026-04-23T14:45:28.182Z</time></trkpt><trkpt lat="45.8141193" lon="11.0092282"><ele>155.0</ele><time>2026-04-23T14:45:29.182Z</time></trkpt><trkpt lat="45.8142735" lon="11.0091267"><ele>155.0</ele><time>2026-04-23T14:45:30.181Z</time></trkpt><trkpt lat="45.8144277" lon="11.009025"><ele>156.0</ele><time>2026-04-23T14:45:31.181Z</time></trkpt><trkpt lat="45.8145847" lon="11.0089203"><ele>157.0</ele><time>2026-04-23T14:45:32.183Z</time></trkpt><trkpt lat="45.8147398" lon="11.0088072"><ele>158.0</ele><time>2026-04-23T14:45:33.182Z</time></trkpt><trkpt lat="45.8148938" lon="11.0086874"><ele>158.0</ele><time>2026-04-23T14:45:34.182Z</time></trkpt><trkpt lat="45.815047" lon="11.0085568"><ele>158.0</ele><time>2026-04-23T14:45:35.182Z</time></trkpt><trkpt lat="45.8151936" lon="11.0084264"><ele>158.0</ele><time>2026-04-23T14:45:36.181Z</time></trkpt><trkpt lat="45.8153344" lon="11.0082991"><ele>158.66666666666666</ele><time>2026-04-23T14:45:37.182Z</time></trkpt><trkpt lat="45.8154735" lon="11.0081774"><ele>159.33333333333334</ele><time>2026-04-23T14:45:38.181Z</time></trkpt><trkpt lat="45.8156105" lon="11.0080579"><ele>160.0</ele><time>2026-04-23T14:45:39.181Z</time></trkpt><trkpt lat="45.8157427" lon="11.0079443"><ele>160.0</ele><time>2026-04-23T14:45:40.182Z</time></trkpt><trkpt lat="45.8158692" lon="11.0078314"><ele>160.0</ele><time>2026-04-23T14:45:41.182Z</time></trkpt><trkpt lat="45.8159893" lon="11.0077146"><ele>160.0</ele><time>2026-04-23T14:45:42.182Z</time></trkpt><trkpt lat="45.8160921" lon="11.00757"><ele>160.0</ele><time>2026-04-23T14:45:43.181Z</time></trkpt><trkpt lat="45.8161738" lon="11.007402"><ele>160.0</ele><time>2026-04-23T14:45:44.183Z</time></trkpt><trkpt lat="45.8162321" lon="11.0072177"><ele>160.0</ele><time>2026-04-23T14:45:45.182Z</time></trkpt><trkpt lat="45.8162695" lon="11.0070268"><ele>160.0</ele><time>2026-04-23T14:45:46.181Z</time></trkpt><trkpt lat="45.8163032" lon="11.0068335"><ele>160.0</ele><time>2026-04-23T14:45:47.182Z</time></trkpt><trkpt lat="45.8163433" lon="11.0066409"><ele>160.0</ele><time>2026-04-23T14:45:48.182Z</time></trkpt><trkpt lat="45.816394" lon="11.006452"><ele>160.0</ele><time>2026-04-23T14:45:49.181Z</time></trkpt><trkpt lat="45.8164461" lon="11.0062703"><ele>160.0</ele><time>2026-04-23T14:45:50.182Z</time></trkpt><trkpt lat="45.8165129" lon="11.0060978"><ele>160.0</ele><time>2026-04-23T14:45:51.182Z</time></trkpt><trkpt lat="45.8165931" lon="11.0059307"><ele>160.33333333333334</ele><time>2026-04-23T14:45:52.181Z</time></trkpt><trkpt lat="45.8166824" lon="11.0057674"><ele>160.66666666666666</ele><time>2026-04-23T14:45:53.181Z</time></trkpt><trkpt lat="45.8167814" lon="11.0056083"><ele>161.0</ele><time>2026-04-23T14:45:54.182Z</time></trkpt><trkpt lat="45.8168906" lon="11.0054479"><ele>160.66666666666666</ele><time>2026-04-23T14:45:55.181Z</time></trkpt><trkpt lat="45.8170045" lon="11.005278"><ele>160.33333333333334</ele><time>2026-04-23T14:45:56.182Z</time></trkpt><trkpt lat="45.8171182" lon="11.0051078"><ele>160.0</ele><time>2026-04-23T14:45:57.182Z</time></trkpt><trkpt lat="45.8172239" lon="11.0049424"><ele>160.0</ele><time>2026-04-23T14:45:58.181Z</time></trkpt><trkpt lat="45.817322" lon="11.0047699"><ele>160.0</ele><time>2026-04-23T14:45:59.182Z</time></trkpt><trkpt lat="45.8174123" lon="11.0045888"><ele>160.0</ele><time>2026-04-23T14:46:00.181Z</time></trkpt><trkpt lat="45.8174974" lon="11.0044003"><ele>160.0</ele><time>2026-04-23T14:46:01.181Z</time></trkpt><trkpt lat="45.8175821" lon="11.0042136"><ele>160.0</ele><time>2026-04-23T14:46:02.182Z</time></trkpt><trkpt lat="45.8176659" lon="11.0040217"><ele>160.0</ele><time>2026-04-23T14:46:03.182Z</time></trkpt><trkpt lat="45.8177495" lon="11.0038262"><ele>160.0</ele><time>2026-04-23T14:46:04.182Z</time></trkpt><trkpt lat="45.817838" lon="11.0036274"><ele>160.0</ele><time>2026-04-23T14:46:05.182Z</time></trkpt><trkpt lat="45.8179277" lon="11.0034284"><ele>160.0</ele><time>2026-04-23T14:46:06.182Z</time></trkpt><trkpt lat="45.8180099" lon="11.0032322"><ele>160.0</ele><time>2026-04-23T14:46:07.182Z</time></trkpt><trkpt lat="45.8180875" lon="11.0030378"><ele>160.0</ele><time>2026-04-23T14:46:08.182Z</time></trkpt><trkpt lat="45.8181619" lon="11.00284"><ele>160.0</ele><time>2026-04-23T14:46:09.182Z</time></trkpt><trkpt lat="45.8182364" lon="11.0026338"><ele>159.0</ele><time>2026-04-23T14:46:10.182Z</time></trkpt><trkpt lat="45.818311" lon="11.0024262"><ele>158.0</ele><time>2026-04-23T14:46:11.182Z</time></trkpt><trkpt lat="45.8183807" lon="11.0022184"><ele>157.0</ele><time>2026-04-23T14:46:12.181Z</time></trkpt><trkpt lat="45.8184488" lon="11.0020135"><ele>156.66666666666669</ele><time>2026-04-23T14:46:13.182Z</time></trkpt><trkpt lat="45.8185166" lon="11.0018171"><ele>156.33333333333334</ele><time>2026-04-23T14:46:14.182Z</time></trkpt><trkpt lat="45.8185857" lon="11.0016231"><ele>156.0</ele><time>2026-04-23T14:46:15.182Z</time></trkpt><trkpt lat="45.8186515" lon="11.0014254"><ele>156.0</ele><time>2026-04-23T14:46:16.182Z</time></trkpt><trkpt lat="45.8187195" lon="11.0012299"><ele>156.0</ele><time>2026-04-23T14:46:17.182Z</time></trkpt><trkpt lat="45.81879" lon="11.0010319"><ele>156.0</ele><time>2026-04-23T14:46:18.181Z</time></trkpt><trkpt lat="45.8188649" lon="11.0008374"><ele>156.25</ele><time>2026-04-23T14:46:19.181Z</time></trkpt><trkpt lat="45.8189429" lon="11.0006491"><ele>156.5</ele><time>2026-04-23T14:46:20.183Z</time></trkpt><trkpt lat="45.8190177" lon="11.0004647"><ele>156.75</ele><time>2026-04-23T14:46:21.182Z</time></trkpt><trkpt lat="45.8190923" lon="11.0002813"><ele>157.0</ele><time>2026-04-23T14:46:22.182Z</time></trkpt><trkpt lat="45.8191683" lon="11.0001006"><ele>157.0</ele><time>2026-04-23T14:46:23.182Z</time></trkpt><trkpt lat="45.8192436" lon="10.9999245"><ele>157.0</ele><time>2026-04-23T14:46:24.182Z</time></trkpt><trkpt lat="45.8193195" lon="10.9997535"><ele>157.0</ele><time>2026-04-23T14:46:25.181Z</time></trkpt><trkpt lat="45.8194049" lon="10.999592"><ele>157.0</ele><time>2026-04-23T14:46:26.181Z</time></trkpt><trkpt lat="45.8195017" lon="10.9994476"><ele>157.25</ele><time>2026-04-23T14:46:27.182Z</time></trkpt><trkpt lat="45.8196126" lon="10.9993289"><ele>157.5</ele><time>2026-04-23T14:46:28.182Z</time></trkpt><trkpt lat="45.819734" lon="10.999237"><ele>157.75</ele><time>2026-04-23T14:46:29.182Z</time></trkpt><trkpt lat="45.8198634" lon="10.9991661"><ele>158.0</ele><time>2026-04-23T14:46:30.182Z</time></trkpt><trkpt lat="45.8199965" lon="10.9991043"><ele>158.0</ele><time>2026-04-23T14:46:31.182Z</time></trkpt><trkpt lat="45.8201287" lon="10.9990353"><ele>158.0</ele><time>2026-04-23T14:46:32.182Z</time></trkpt><trkpt lat="45.8202605" lon="10.9989512"><ele>158.0</ele><time>2026-04-23T14:46:33.181Z</time></trkpt><trkpt lat="45.8203958" lon="10.9988585"><ele>158.0</ele><time>2026-04-23T14:46:34.182Z</time></trkpt><trkpt lat="45.8205321" lon="10.9987608"><ele>157.66666666666666</ele><time>2026-04-23T14:46:35.182Z</time></trkpt><trkpt lat="45.8206703" lon="10.9986594"><ele>157.33333333333334</ele><time>2026-04-23T14:46:36.181Z</time></trkpt><trkpt lat="45.8208085" lon="10.9985587"><ele>157.0</ele><time>2026-04-23T14:46:37.182Z</time></trkpt><trkpt lat="45.8209432" lon="10.9984666"><ele>157.0</ele><time>2026-04-23T14:46:38.182Z</time></trkpt><trkpt lat="45.8210679" lon="10.9983783"><ele>157.0</ele><time>2026-04-23T14:46:39.182Z</time></trkpt><trkpt lat="45.8211893" lon="10.9982941"><ele>157.0</ele><time>2026-04-23T14:46:40.182Z</time></trkpt><trkpt lat="45.8213133" lon="10.9982221"><ele>157.0</ele><time>2026-04-23T14:46:41.181Z</time></trkpt><trkpt lat="45.8214334" lon="10.9981623"><ele>159.25</ele><time>2026-04-23T14:46:42.182Z</time></trkpt><trkpt lat="45.8215534" lon="10.9981303"><ele>161.5</ele><time>2026-04-23T14:46:43.182Z</time></trkpt><trkpt lat="45.8216746" lon="10.9981178"><ele>163.75</ele><time>2026-04-23T14:46:44.181Z</time></trkpt><trkpt lat="45.8217971" lon="10.9981202"><ele>166.0</ele><time>2026-04-23T14:46:45.182Z</time></trkpt><trkpt lat="45.8219213" lon="10.9981322"><ele>167.0</ele><time>2026-04-23T14:46:46.182Z</time></trkpt><trkpt lat="45.8220483" lon="10.9981429"><ele>168.0</ele><time>2026-04-23T14:46:47.181Z</time></trkpt><trkpt lat="45.8221799" lon="10.9981527"><ele>169.0</ele><time>2026-04-23T14:46:48.182Z</time></trkpt><trkpt lat="45.8223153" lon="10.9981666"><ele>170.0</ele><time>2026-04-23T14:46:49.181Z</time></trkpt><trkpt lat="45.8224512" lon="10.9981823"><ele>170.0</ele><time>2026-04-23T14:46:50.182Z</time></trkpt><trkpt lat="45.8225901" lon="10.9981999"><ele>170.0</ele><time>2026-04-23T14:46:51.182Z</time></trkpt><trkpt lat="45.8227317" lon="10.9982243"><ele>170.0</ele><time>2026-04-23T14:46:52.182Z</time></trkpt><trkpt lat="45.8228779" lon="10.9982566"><ele>170.0</ele><time>2026-04-23T14:46:53.181Z</time></trkpt><trkpt lat="45.8230278" lon="10.9983007"><ele>168.66666666666666</ele><time>2026-04-23T14:46:54.181Z</time></trkpt><trkpt lat="45.8231807" lon="10.9983456"><ele>167.33333333333334</ele><time>2026-04-23T14:46:55.182Z</time></trkpt><trkpt lat="45.8233302" lon="10.9983933"><ele>166.0</ele><time>2026-04-23T14:46:56.181Z</time></trkpt><trkpt lat="45.8234772" lon="10.9984491"><ele>167.25</ele><time>2026-04-23T14:46:57.181Z</time></trkpt><trkpt lat="45.8236176" lon="10.9985099"><ele>168.5</ele><time>2026-04-23T14:46:58.182Z</time></trkpt><trkpt lat="45.8237497" lon="10.9985693"><ele>169.75</ele><time>2026-04-23T14:46:59.181Z</time></trkpt><trkpt lat="45.8238758" lon="10.998623"><ele>171.0</ele><time>2026-04-23T14:47:00.181Z</time></trkpt><trkpt lat="45.8240032" lon="10.998668"><ele>171.0</ele><time>2026-04-23T14:47:01.181Z</time></trkpt><trkpt lat="45.8241296" lon="10.9987097"><ele>171.0</ele><time>2026-04-23T14:47:02.181Z</time></trkpt><trkpt lat="45.8242598" lon="10.9987452"><ele>171.0</ele><time>2026-04-23T14:47:03.181Z</time></trkpt><trkpt lat="45.8243916" lon="10.9987779"><ele>171.0</ele><time>2026-04-23T14:47:04.182Z</time></trkpt><trkpt lat="45.8245261" lon="10.9988092"><ele>170.75</ele><time>2026-04-23T14:47:05.181Z</time></trkpt><trkpt lat="45.8246613" lon="10.9988405"><ele>170.5</ele><time>2026-04-23T14:47:06.182Z</time></trkpt><trkpt lat="45.8247971" lon="10.9988745"><ele>170.25</ele><time>2026-04-23T14:47:07.182Z</time></trkpt><trkpt lat="45.8249348" lon="10.9989071"><ele>170.0</ele><time>2026-04-23T14:47:08.181Z</time></trkpt><trkpt lat="45.8250717" lon="10.9989454"><ele>167.75</ele><time>2026-04-23T14:47:09.182Z</time></trkpt><trkpt lat="45.8252057" lon="10.9989991"><ele>165.5</ele><time>2026-04-23T14:47:10.181Z</time></trkpt><trkpt lat="45.8253394" lon="10.9990795"><ele>163.25</ele><time>2026-04-23T14:47:11.181Z</time></trkpt><trkpt lat="45.825471" lon="10.9991768"><ele>161.0</ele><time>2026-04-23T14:47:12.181Z</time></trkpt><trkpt lat="45.8256005" lon="10.9992775"><ele>161.0</ele><time>2026-04-23T14:47:13.182Z</time></trkpt><trkpt lat="45.8257273" lon="10.9993742"><ele>161.0</ele><time>2026-04-23T14:47:14.182Z</time></trkpt><trkpt lat="45.8258512" lon="10.9994697"><ele>161.0</ele><time>2026-04-23T14:47:15.182Z</time></trkpt><trkpt lat="45.8259729" lon="10.9995572"><ele>161.0</ele><time>2026-04-23T14:47:16.182Z</time></trkpt><trkpt lat="45.8260971" lon="10.9996369"><ele>159.5</ele><time>2026-04-23T14:47:17.181Z</time></trkpt><trkpt lat="45.8262256" lon="10.999693"><ele>158.0</ele><time>2026-04-23T14:47:18.181Z</time></trkpt><trkpt lat="45.8263632" lon="10.9997278"><ele>156.5</ele><time>2026-04-23T14:47:19.181Z</time></trkpt><trkpt lat="45.8265091" lon="10.9997568"><ele>155.0</ele><time>2026-04-23T14:47:20.181Z</time></trkpt><trkpt lat="45.8266532" lon="10.9997754"><ele>155.0</ele><time>2026-04-23T14:47:21.181Z</time></trkpt><trkpt lat="45.8267932" lon="10.9997956"><ele>155.0</ele><time>2026-04-23T14:47:22.182Z</time></trkpt><trkpt lat="45.8269283" lon="10.9998131"><ele>155.0</ele><time>2026-04-23T14:47:23.181Z</time></trkpt><trkpt lat="45.8270656" lon="10.9998263"><ele>155.0</ele><time>2026-04-23T14:47:24.182Z</time></trkpt><trkpt lat="45.8272074" lon="10.9998268"><ele>155.75</ele><time>2026-04-23T14:47:25.181Z</time></trkpt><trkpt lat="45.8273461" lon="10.9998031"><ele>156.5</ele><time>2026-04-23T14:47:26.181Z</time></trkpt><trkpt lat="45.8274891" lon="10.9997648"><ele>157.25</ele><time>2026-04-23T14:47:27.182Z</time></trkpt><trkpt lat="45.8276374" lon="10.9997261"><ele>158.0</ele><time>2026-04-23T14:47:28.181Z</time></trkpt><trkpt lat="45.8277863" lon="10.9996878"><ele>158.0</ele><time>2026-04-23T14:47:29.182Z</time></trkpt><trkpt lat="45.8279385" lon="10.9996691"><ele>158.0</ele><time>2026-04-23T14:47:30.182Z</time></trkpt><trkpt lat="45.8280957" lon="10.9996773"><ele>158.0</ele><time>2026-04-23T14:47:31.182Z</time></trkpt><trkpt lat="45.8282498" lon="10.9996853"><ele>158.0</ele><time>2026-04-23T14:47:32.182Z</time></trkpt><trkpt lat="45.8283967" lon="10.9996817"><ele>158.0</ele><time>2026-04-23T14:47:33.182Z</time></trkpt><trkpt lat="45.8285555" lon="10.9996717"><ele>158.0</ele><time>2026-04-23T14:47:34.182Z</time></trkpt><trkpt lat="45.8287191" lon="10.9996468"><ele>157.33333333333331</ele><time>2026-04-23T14:47:35.182Z</time></trkpt><trkpt lat="45.8288836" lon="10.9996161"><ele>156.66666666666666</ele><time>2026-04-23T14:47:36.181Z</time></trkpt><trkpt lat="45.8290481" lon="10.9995829"><ele>156.0</ele><time>2026-04-23T14:47:37.181Z</time></trkpt><trkpt lat="45.8292068" lon="10.999552"><ele>156.33333333333334</ele><time>2026-04-23T14:47:38.182Z</time></trkpt><trkpt lat="45.8293639" lon="10.9995184"><ele>156.66666666666669</ele><time>2026-04-23T14:47:39.182Z</time></trkpt><trkpt lat="45.8295214" lon="10.9994816"><ele>157.0</ele><time>2026-04-23T14:47:40.182Z</time></trkpt><trkpt lat="45.8296765" lon="10.9994458"><ele>157.0</ele><time>2026-04-23T14:47:41.182Z</time></trkpt><trkpt lat="45.8298316" lon="10.9994159"><ele>157.0</ele><time>2026-04-23T14:47:42.183Z</time></trkpt><trkpt lat="45.8299879" lon="10.999384"><ele>157.0</ele><time>2026-04-23T14:47:43.181Z</time></trkpt><trkpt lat="45.8301444" lon="10.9993534"><ele>156.0</ele><time>2026-04-23T14:47:44.181Z</time></trkpt><trkpt lat="45.830307" lon="10.9993259"><ele>155.0</ele><time>2026-04-23T14:47:45.182Z</time></trkpt><trkpt lat="45.8304688" lon="10.9992952"><ele>154.0</ele><time>2026-04-23T14:47:46.182Z</time></trkpt><trkpt lat="45.8306287" lon="10.9992696"><ele>154.0</ele><time>2026-04-23T14:47:47.182Z</time></trkpt><trkpt lat="45.8307856" lon="10.9992434"><ele>154.0</ele><time>2026-04-23T14:47:48.182Z</time></trkpt><trkpt lat="45.8309415" lon="10.9992162"><ele>154.0</ele><time>2026-04-23T14:47:49.182Z</time></trkpt><trkpt lat="45.8310956" lon="10.9991883"><ele>161.0</ele><time>2026-04-23T14:47:50.182Z</time></trkpt><trkpt lat="45.8312468" lon="10.999165"><ele>168.0</ele><time>2026-04-23T14:47:51.181Z</time></trkpt><trkpt lat="45.8313925" lon="10.9991418"><ele>175.0</ele><time>2026-04-23T14:47:52.182Z</time></trkpt><trkpt lat="45.8315361" lon="10.9991175"><ele>182.0</ele><time>2026-04-23T14:47:53.182Z</time></trkpt><trkpt lat="45.8316744" lon="10.9990936"><ele>181.75</ele><time>2026-04-23T14:47:54.181Z</time></trkpt><trkpt lat="45.8318139" lon="10.9990679"><ele>181.5</ele><time>2026-04-23T14:47:55.181Z</time></trkpt><trkpt lat="45.8319563" lon="10.9990412"><ele>181.25</ele><time>2026-04-23T14:47:56.182Z</time></trkpt><trkpt lat="45.8321009" lon="10.9990083"><ele>181.0</ele><time>2026-04-23T14:47:57.181Z</time></trkpt><trkpt lat="45.8322482" lon="10.9989764"><ele>181.0</ele><time>2026-04-23T14:47:58.182Z</time></trkpt><trkpt lat="45.8323968" lon="10.9989441"><ele>181.0</ele><time>2026-04-23T14:47:59.182Z</time></trkpt><trkpt lat="45.8325443" lon="10.9988923"><ele>181.0</ele><time>2026-04-23T14:48:00.181Z</time></trkpt><trkpt lat="45.8326914" lon="10.9988253"><ele>180.33333333333334</ele><time>2026-04-23T14:48:01.182Z</time></trkpt><trkpt lat="45.8328428" lon="10.9987521"><ele>179.66666666666666</ele><time>2026-04-23T14:48:02.182Z</time></trkpt><trkpt lat="45.8329952" lon="10.9986804"><ele>179.0</ele><time>2026-04-23T14:48:03.182Z</time></trkpt><trkpt lat="45.8331456" lon="10.9986071"><ele>179.0</ele><time>2026-04-23T14:48:04.181Z</time></trkpt><trkpt lat="45.8332881" lon="10.9985348"><ele>179.0</ele><time>2026-04-23T14:48:05.18Z</time></trkpt><trkpt lat="45.8334267" lon="10.9984665"><ele>179.0</ele><time>2026-04-23T14:48:06.181Z</time></trkpt><trkpt lat="45.8335666" lon="10.9984042"><ele>179.0</ele><time>2026-04-23T14:48:07.18Z</time></trkpt><trkpt lat="45.8337125" lon="10.9983561"><ele>181.0</ele><time>2026-04-23T14:48:08.18Z</time></trkpt><trkpt lat="45.8338605" lon="10.9983101"><ele>183.0</ele><time>2026-04-23T14:48:09.181Z</time></trkpt><trkpt lat="45.8340091" lon="10.9982621"><ele>185.0</ele><time>2026-04-23T14:48:10.181Z</time></trkpt><trkpt lat="45.8341584" lon="10.9982148"><ele>183.33333333333331</ele><time>2026-04-23T14:48:11.182Z</time></trkpt><trkpt lat="45.8343068" lon="10.9981694"><ele>181.66666666666666</ele><time>2026-04-23T14:48:12.181Z</time></trkpt><trkpt lat="45.8344545" lon="10.9981215"><ele>180.0</ele><time>2026-04-23T14:48:13.18Z</time></trkpt><trkpt lat="45.8346" lon="10.9980713"><ele>180.0</ele><time>2026-04-23T14:48:14.181Z</time></trkpt><trkpt lat="45.8347462" lon="10.9980169"><ele>180.0</ele><time>2026-04-23T14:48:15.181Z</time></trkpt><trkpt lat="45.8348943" lon="10.9979679"><ele>180.0</ele><time>2026-04-23T14:48:16.181Z</time></trkpt><trkpt lat="45.8350457" lon="10.9979251"><ele>179.33333333333334</ele><time>2026-04-23T14:48:17.181Z</time></trkpt><trkpt lat="45.8351948" lon="10.997881"><ele>178.66666666666669</ele><time>2026-04-23T14:48:18.182Z</time></trkpt><trkpt lat="45.8353521" lon="10.9978532"><ele>178.0</ele><time>2026-04-23T14:48:19.181Z</time></trkpt><trkpt lat="45.8355165" lon="10.9978515"><ele>178.0</ele><time>2026-04-23T14:48:20.18Z</time></trkpt><trkpt lat="45.8356829" lon="10.9978698"><ele>178.0</ele><time>2026-04-23T14:48:21.18Z</time></trkpt><trkpt lat="45.8358486" lon="10.9978961"><ele>178.0</ele><time>2026-04-23T14:48:22.181Z</time></trkpt><trkpt lat="45.8360044" lon="10.9979188"><ele>177.25</ele><time>2026-04-23T14:48:23.181Z</time></trkpt><trkpt lat="45.8361515" lon="10.9979391"><ele>176.5</ele><time>2026-04-23T14:48:24.181Z</time></trkpt><trkpt lat="45.8362909" lon="10.9979595"><ele>175.75</ele><time>2026-04-23T14:48:25.181Z</time></trkpt><trkpt lat="45.8364294" lon="10.9979693"><ele>175.0</ele><time>2026-04-23T14:48:26.18Z</time></trkpt><trkpt lat="45.8365694" lon="10.9979549"><ele>175.0</ele><time>2026-04-23T14:48:27.18Z</time></trkpt><trkpt lat="45.8367148" lon="10.9979159"><ele>175.0</ele><time>2026-04-23T14:48:28.181Z</time></trkpt><trkpt lat="45.8368583" lon="10.9978805"><ele>175.0</ele><time>2026-04-23T14:48:29.181Z</time></trkpt><trkpt lat="45.8370027" lon="10.9978464"><ele>175.0</ele><time>2026-04-23T14:48:30.18Z</time></trkpt><trkpt lat="45.8371482" lon="10.9978064"><ele>175.0</ele><time>2026-04-23T14:48:31.18Z</time></trkpt><trkpt lat="45.8372893" lon="10.9977607"><ele>175.0</ele><time>2026-04-23T14:48:32.181Z</time></trkpt><trkpt lat="45.8374294" lon="10.9977"><ele>175.0</ele><time>2026-04-23T14:48:33.181Z</time></trkpt><trkpt lat="45.8375707" lon="10.9976263"><ele>175.0</ele><time>2026-04-23T14:48:34.18Z</time></trkpt><trkpt lat="45.8377156" lon="10.9975461"><ele>176.66666666666669</ele><time>2026-04-23T14:48:35.18Z</time></trkpt><trkpt lat="45.8378651" lon="10.9974655"><ele>178.33333333333334</ele><time>2026-04-23T14:48:36.181Z</time></trkpt><trkpt lat="45.8380163" lon="10.9973842"><ele>180.0</ele><time>2026-04-23T14:48:37.18Z</time></trkpt><trkpt lat="45.8381652" lon="10.9973017"><ele>180.0</ele><time>2026-04-23T14:48:38.18Z</time></trkpt><trkpt lat="45.8383129" lon="10.9972215"><ele>180.0</ele><time>2026-04-23T14:48:39.18Z</time></trkpt><trkpt lat="45.8384629" lon="10.9971438"><ele>180.0</ele><time>2026-04-23T14:48:40.18Z</time></trkpt><trkpt lat="45.8386145" lon="10.9970636"><ele>180.0</ele><time>2026-04-23T14:48:41.18Z</time></trkpt><trkpt lat="45.8387692" lon="10.9969813"><ele>180.0</ele><time>2026-04-23T14:48:42.18Z</time></trkpt><trkpt lat="45.8389251" lon="10.9968989"><ele>180.0</ele><time>2026-04-23T14:48:43.18Z</time></trkpt><trkpt lat="45.8390813" lon="10.9968165"><ele>180.0</ele><time>2026-04-23T14:48:44.181Z</time></trkpt><trkpt lat="45.8392356" lon="10.9967351"><ele>180.0</ele><time>2026-04-23T14:48:45.18Z</time></trkpt><trkpt lat="45.8393875" lon="10.9966533"><ele>180.0</ele><time>2026-04-23T14:48:46.181Z</time></trkpt><trkpt lat="45.8395372" lon="10.9965698"><ele>178.66666666666666</ele><time>2026-04-23T14:48:47.181Z</time></trkpt><trkpt lat="45.8396852" lon="10.9964898"><ele>177.33333333333331</ele><time>2026-04-23T14:48:48.18Z</time></trkpt><trkpt lat="45.8398325" lon="10.9964127"><ele>176.0</ele><time>2026-04-23T14:48:49.181Z</time></trkpt><trkpt lat="45.8399751" lon="10.9963346"><ele>176.0</ele><time>2026-04-23T14:48:50.181Z</time></trkpt><trkpt lat="45.8401221" lon="10.996259"><ele>176.0</ele><time>2026-04-23T14:48:51.181Z</time></trkpt><trkpt lat="45.8402703" lon="10.9961781"><ele>176.0</ele><time>2026-04-23T14:48:52.181Z</time></trkpt><trkpt lat="45.8404176" lon="10.9960889"><ele>177.0</ele><time>2026-04-23T14:48:53.181Z</time></trkpt><trkpt lat="45.8405649" lon="10.9959872"><ele>178.0</ele><time>2026-04-23T14:48:54.181Z</time></trkpt><trkpt lat="45.8407156" lon="10.9958749"><ele>179.0</ele><time>2026-04-23T14:48:55.181Z</time></trkpt><trkpt lat="45.84087" lon="10.9957621"><ele>178.0</ele><time>2026-04-23T14:48:56.181Z</time></trkpt><trkpt lat="45.8410188" lon="10.9956372"><ele>177.0</ele><time>2026-04-23T14:48:57.18Z</time></trkpt><trkpt lat="45.8411621" lon="10.9955096"><ele>176.0</ele><time>2026-04-23T14:48:58.18Z</time></trkpt><trkpt lat="45.8413011" lon="10.995381"><ele>176.0</ele><time>2026-04-23T14:48:59.181Z</time></trkpt><trkpt lat="45.8414311" lon="10.9952466"><ele>176.0</ele><time>2026-04-23T14:49:00.18Z</time></trkpt><trkpt lat="45.8415579" lon="10.9951113"><ele>176.0</ele><time>2026-04-23T14:49:01.181Z</time></trkpt><trkpt lat="45.8416758" lon="10.9949705"><ele>178.25</ele><time>2026-04-23T14:49:02.181Z</time></trkpt><trkpt lat="45.8417869" lon="10.9948395"><ele>180.5</ele><time>2026-04-23T14:49:03.181Z</time></trkpt><trkpt lat="45.8418897" lon="10.9947104"><ele>182.75</ele><time>2026-04-23T14:49:04.181Z</time></trkpt><trkpt lat="45.8419817" lon="10.9945829"><ele>185.0</ele><time>2026-04-23T14:49:05.181Z</time></trkpt><trkpt lat="45.8420682" lon="10.9944534"><ele>185.0</ele><time>2026-04-23T14:49:06.18Z</time></trkpt><trkpt lat="45.8421507" lon="10.9943258"><ele>185.0</ele><time>2026-04-23T14:49:07.181Z</time></trkpt><trkpt lat="45.8422335" lon="10.9941997"><ele>185.0</ele><time>2026-04-23T14:49:08.18Z</time></trkpt><trkpt lat="45.8423158" lon="10.9940711"><ele>185.0</ele><time>2026-04-23T14:49:09.18Z</time></trkpt><trkpt lat="45.8423999" lon="10.9939437"><ele>185.6</ele><time>2026-04-23T14:49:10.18Z</time></trkpt><trkpt lat="45.8424835" lon="10.9938215"><ele>186.2</ele><time>2026-04-23T14:49:11.18Z</time></trkpt><trkpt lat="45.842562" lon="10.9937057"><ele>186.8</ele><time>2026-04-23T14:49:12.181Z</time></trkpt><trkpt lat="45.8426336" lon="10.9935972"><ele>187.4</ele><time>2026-04-23T14:49:13.181Z</time></trkpt><trkpt lat="45.8426992" lon="10.9934915"><ele>188.0</ele><time>2026-04-23T14:49:14.18Z</time></trkpt><trkpt lat="45.842767" lon="10.9933843"><ele>188.4</ele><time>2026-04-23T14:49:15.181Z</time></trkpt><trkpt lat="45.8428409" lon="10.9932771"><ele>188.8</ele><time>2026-04-23T14:49:16.181Z</time></trkpt><trkpt lat="45.8429165" lon="10.9931778"><ele>189.2</ele><time>2026-04-23T14:49:17.181Z</time></trkpt><trkpt lat="45.8429995" lon="10.9931074"><ele>189.6</ele><time>2026-04-23T14:49:18.181Z</time></trkpt><trkpt lat="45.8430899" lon="10.99306"><ele>190.0</ele><time>2026-04-23T14:49:19.18Z</time></trkpt><trkpt lat="45.8431812" lon="10.9930155"><ele>190.0</ele><time>2026-04-23T14:49:20.181Z</time></trkpt><trkpt lat="45.8432548" lon="10.9929471"><ele>190.0</ele><time>2026-04-23T14:49:21.181Z</time></trkpt><trkpt lat="45.8433039" lon="10.9928467"><ele>190.0</ele><time>2026-04-23T14:49:22.18Z</time></trkpt><trkpt lat="45.843333" lon="10.9927279"><ele>190.0</ele><time>2026-04-23T14:49:23.18Z</time></trkpt><trkpt lat="45.8433559" lon="10.9925996"><ele>190.0</ele><time>2026-04-23T14:49:24.181Z</time></trkpt><trkpt lat="45.8434027" lon="10.9924738"><ele>190.0</ele><time>2026-04-23T14:49:25.181Z</time></trkpt><trkpt lat="45.843469" lon="10.992359"><ele>190.0</ele><time>2026-04-23T14:49:26.18Z</time></trkpt><trkpt lat="45.8435398" lon="10.9922451"><ele>190.0</ele><time>2026-04-23T14:49:27.181Z</time></trkpt><trkpt lat="45.8436093" lon="10.9921363"><ele>190.0</ele><time>2026-04-23T14:49:28.181Z</time></trkpt><trkpt lat="45.8436786" lon="10.9920284"><ele>190.0</ele><time>2026-04-23T14:49:29.181Z</time></trkpt><trkpt lat="45.8437526" lon="10.9919154"><ele>190.0</ele><time>2026-04-23T14:49:30.18Z</time></trkpt><trkpt lat="45.8438292" lon="10.9917959"><ele>190.0</ele><time>2026-04-23T14:49:31.18Z</time></trkpt><trkpt lat="45.8439109" lon="10.9916748"><ele>190.0</ele><time>2026-04-23T14:49:32.181Z</time></trkpt><trkpt lat="45.8439957" lon="10.991552"><ele>190.0</ele><time>2026-04-23T14:49:33.181Z</time></trkpt><trkpt lat="45.8440779" lon="10.9914285"><ele>190.5</ele><time>2026-04-23T14:49:34.181Z</time></trkpt><trkpt lat="45.8441574" lon="10.9913105"><ele>191.0</ele><time>2026-04-23T14:49:35.18Z</time></trkpt><trkpt lat="45.8442343" lon="10.9911972"><ele>191.5</ele><time>2026-04-23T14:49:36.181Z</time></trkpt><trkpt lat="45.8443115" lon="10.9910801"><ele>192.0</ele><time>2026-04-23T14:49:37.181Z</time></trkpt><trkpt lat="45.8443873" lon="10.9909602"><ele>192.0</ele><time>2026-04-23T14:49:38.18Z</time></trkpt><trkpt lat="45.8444569" lon="10.9908423"><ele>192.0</ele><time>2026-04-23T14:49:39.18Z</time></trkpt><trkpt lat="45.8445225" lon="10.9907234"><ele>192.0</ele><time>2026-04-23T14:49:40.18Z</time></trkpt><trkpt lat="45.844586" lon="10.9905979"><ele>192.0</ele><time>2026-04-23T14:49:41.18Z</time></trkpt><trkpt lat="45.8446467" lon="10.9904747"><ele>192.0</ele><time>2026-04-23T14:49:42.181Z</time></trkpt><trkpt lat="45.844702" lon="10.9903534"><ele>192.39999999999998</ele><time>2026-04-23T14:49:43.18Z</time></trkpt><trkpt lat="45.8447544" lon="10.9902328"><ele>192.79999999999998</ele><time>2026-04-23T14:49:44.181Z</time></trkpt><trkpt lat="45.8448085" lon="10.9901068"><ele>193.2</ele><time>2026-04-23T14:49:45.181Z</time></trkpt><trkpt lat="45.8448638" lon="10.9899735"><ele>193.6</ele><time>2026-04-23T14:49:46.181Z</time></trkpt><trkpt lat="45.8449223" lon="10.9898291"><ele>194.0</ele><time>2026-04-23T14:49:47.18Z</time></trkpt><trkpt lat="45.8449839" lon="10.989666"><ele>194.33333333333334</ele><time>2026-04-23T14:49:48.181Z</time></trkpt><trkpt lat="45.8450523" lon="10.9894878"><ele>194.66666666666669</ele><time>2026-04-23T14:49:49.18Z</time></trkpt><trkpt lat="45.8451265" lon="10.9892957"><ele>195.0</ele><time>2026-04-23T14:49:50.181Z</time></trkpt><trkpt lat="45.8452062" lon="10.9890948"><ele>195.33333333333331</ele><time>2026-04-23T14:49:51.18Z</time></trkpt><trkpt lat="45.8452839" lon="10.9888989"><ele>195.66666666666666</ele><time>2026-04-23T14:49:52.181Z</time></trkpt><trkpt lat="45.8453604" lon="10.9887009"><ele>196.0</ele><time>2026-04-23T14:49:53.181Z</time></trkpt><trkpt lat="45.8454391" lon="10.9885063"><ele>196.25</ele><time>2026-04-23T14:49:54.182Z</time></trkpt><trkpt lat="45.8455126" lon="10.9883325"><ele>196.5</ele><time>2026-04-23T14:49:55.181Z</time></trkpt><trkpt lat="45.8455785" lon="10.988177"><ele>196.75</ele><time>2026-04-23T14:49:56.18Z</time></trkpt><trkpt lat="45.8456349" lon="10.9880464"><ele>197.0</ele><time>2026-04-23T14:49:57.18Z</time></trkpt><trkpt lat="45.8456835" lon="10.9879414"><ele>197.00000000000003</ele><time>2026-04-23T14:49:58.18Z</time></trkpt><trkpt lat="45.8457293" lon="10.9878607"><ele>197.0</ele><time>2026-04-23T14:49:59.181Z</time></trkpt><trkpt lat="45.8457994" lon="10.9877564"><ele>197.0</ele><time>2026-04-23T14:50:01.181Z</time></trkpt><trkpt lat="45.8458369" lon="10.9876805"><ele>197.0</ele><time>2026-04-23T14:50:04.18Z</time></trkpt><trkpt lat="45.8457605" lon="10.9876964"><ele>197.00000000000003</ele><time>2026-04-23T14:51:26.18Z</time></trkpt><trkpt lat="45.8456766" lon="10.9878261"><ele>197.0</ele><time>2026-04-23T14:51:28.18Z</time></trkpt><trkpt lat="45.8456337" lon="10.9879333"><ele>197.0</ele><time>2026-04-23T14:51:29.181Z</time></trkpt><trkpt lat="45.845585" lon="10.9880562"><ele>197.0</ele><time>2026-04-23T14:51:30.18Z</time></trkpt><trkpt lat="45.8455324" lon="10.9881878"><ele>197.0</ele><time>2026-04-23T14:51:31.181Z</time></trkpt><trkpt lat="45.8454727" lon="10.9883315"><ele>197.0</ele><time>2026-04-23T14:51:32.18Z</time></trkpt><trkpt lat="45.8454143" lon="10.9884833"><ele>197.0</ele><time>2026-04-23T14:51:33.18Z</time></trkpt><trkpt lat="45.8453528" lon="10.9886388"><ele>196.75</ele><time>2026-04-23T14:51:34.181Z</time></trkpt><trkpt lat="45.8452886" lon="10.9887979"><ele>196.5</ele><time>2026-04-23T14:51:35.181Z</time></trkpt><trkpt lat="45.845228" lon="10.9889604"><ele>196.25</ele><time>2026-04-23T14:51:36.18Z</time></trkpt><trkpt lat="45.8451676" lon="10.9891077"><ele>196.0</ele><time>2026-04-23T14:51:37.181Z</time></trkpt><trkpt lat="45.8451127" lon="10.9892447"><ele>195.8</ele><time>2026-04-23T14:51:38.182Z</time></trkpt><trkpt lat="45.8450618" lon="10.9893563"><ele>195.60000000000002</ele><time>2026-04-23T14:51:39.18Z</time></trkpt><trkpt lat="45.8450116" lon="10.9894362"><ele>195.4</ele><time>2026-04-23T14:51:40.181Z</time></trkpt><trkpt lat="45.8449076" lon="10.9894821"><ele>195.2</ele><time>2026-04-23T14:51:42.182Z</time></trkpt><trkpt lat="45.8447939" lon="10.9894039"><ele>195.0</ele><time>2026-04-23T14:51:44.181Z</time></trkpt><trkpt lat="45.8447174" lon="10.9893366"><ele>195.0</ele><time>2026-04-23T14:51:45.18Z</time></trkpt><trkpt lat="45.8446323" lon="10.989259"><ele>195.0</ele><time>2026-04-23T14:51:46.181Z</time></trkpt><trkpt lat="45.8445325" lon="10.9891729"><ele>195.0</ele><time>2026-04-23T14:51:47.181Z</time></trkpt><trkpt lat="45.8444211" lon="10.9890711"><ele>195.0</ele><time>2026-04-23T14:51:48.18Z</time></trkpt><trkpt lat="45.8443048" lon="10.9889567"><ele>195.5</ele><time>2026-04-23T14:51:49.18Z</time></trkpt><trkpt lat="45.8441865" lon="10.9888295"><ele>196.0</ele><time>2026-04-23T14:51:50.182Z</time></trkpt><trkpt lat="45.8440825" lon="10.9886949"><ele>196.5</ele><time>2026-04-23T14:51:51.18Z</time></trkpt><trkpt lat="45.8439873" lon="10.9885552"><ele>197.0</ele><time>2026-04-23T14:51:52.18Z</time></trkpt><trkpt lat="45.8438967" lon="10.9884017"><ele>197.75</ele><time>2026-04-23T14:51:53.18Z</time></trkpt><trkpt lat="45.8438053" lon="10.9882416"><ele>198.5</ele><time>2026-04-23T14:51:54.181Z</time></trkpt><trkpt lat="45.8437198" lon="10.9880669"><ele>199.25</ele><time>2026-04-23T14:51:55.181Z</time></trkpt><trkpt lat="45.8436432" lon="10.9878808"><ele>200.0</ele><time>2026-04-23T14:51:56.181Z</time></trkpt><trkpt lat="45.8435729" lon="10.9876863"><ele>200.66666666666669</ele><time>2026-04-23T14:51:57.18Z</time></trkpt><trkpt lat="45.8435052" lon="10.9874881"><ele>201.33333333333331</ele><time>2026-04-23T14:51:58.181Z</time></trkpt><trkpt lat="45.8434419" lon="10.9872822"><ele>202.0</ele><time>2026-04-23T14:51:59.181Z</time></trkpt><trkpt lat="45.8433802" lon="10.9870775"><ele>202.33333333333331</ele><time>2026-04-23T14:52:00.181Z</time></trkpt><trkpt lat="45.8433117" lon="10.9868703"><ele>202.66666666666669</ele><time>2026-04-23T14:52:01.181Z</time></trkpt><trkpt lat="45.8432449" lon="10.9866662"><ele>203.0</ele><time>2026-04-23T14:52:02.18Z</time></trkpt><trkpt lat="45.8534147" lon="10.9571201"><ele>207.0</ele><time>2026-04-23T14:53:22.663Z</time></trkpt><trkpt lat="45.8507409" lon="10.9624294"><ele>207.0</ele><time>2026-04-23T14:53:31.181Z</time></trkpt><trkpt lat="45.8508588" lon="10.962207"><ele>207.0</ele><time>2026-04-23T14:53:32.181Z</time></trkpt><trkpt lat="45.8509792" lon="10.9619765"><ele>207.0</ele><time>2026-04-23T14:53:33.18Z</time></trkpt><trkpt lat="45.8511046" lon="10.9617464"><ele>204.33333333333331</ele><time>2026-04-23T14:53:34.182Z</time></trkpt><trkpt lat="45.8512324" lon="10.9615205"><ele>201.66666666666666</ele><time>2026-04-23T14:53:35.18Z</time></trkpt><trkpt lat="45.8513609" lon="10.961296"><ele>199.0</ele><time>2026-04-23T14:53:36.181Z</time></trkpt><trkpt lat="45.8514935" lon="10.9610747"><ele>199.0</ele><time>2026-04-23T14:53:37.181Z</time></trkpt><trkpt lat="45.8516292" lon="10.9608552"><ele>199.0</ele><time>2026-04-23T14:53:38.181Z</time></trkpt><trkpt lat="45.8517672" lon="10.9606436"><ele>199.0</ele><time>2026-04-23T14:53:39.181Z</time></trkpt><trkpt lat="45.8519083" lon="10.9604317"><ele>199.0</ele><time>2026-04-23T14:53:40.182Z</time></trkpt><trkpt lat="45.8520539" lon="10.9602246"><ele>199.0</ele><time>2026-04-23T14:53:41.181Z</time></trkpt><trkpt lat="45.8522032" lon="10.9600243"><ele>199.0</ele><time>2026-04-23T14:53:42.18Z</time></trkpt><trkpt lat="45.8523542" lon="10.9598281"><ele>199.33333333333331</ele><time>2026-04-23T14:53:43.181Z</time></trkpt><trkpt lat="45.8525061" lon="10.9596349"><ele>199.66666666666669</ele><time>2026-04-23T14:53:44.181Z</time></trkpt><trkpt lat="45.8526654" lon="10.9594471"><ele>200.0</ele><time>2026-04-23T14:53:45.181Z</time></trkpt><trkpt lat="45.8528313" lon="10.9592651"><ele>200.33333333333334</ele><time>2026-04-23T14:53:46.18Z</time></trkpt><trkpt lat="45.8530026" lon="10.959089"><ele>200.66666666666669</ele><time>2026-04-23T14:53:47.182Z</time></trkpt><trkpt lat="45.8531659" lon="10.9589235"><ele>201.0</ele><time>2026-04-23T14:53:48.181Z</time></trkpt><trkpt lat="45.8533198" lon="10.9587669"><ele>201.0</ele><time>2026-04-23T14:53:49.182Z</time></trkpt><trkpt lat="45.8534614" lon="10.9586135"><ele>201.0</ele><time>2026-04-23T14:53:50.182Z</time></trkpt><trkpt lat="45.8535943" lon="10.9584622"><ele>201.0</ele><time>2026-04-23T14:53:51.18Z</time></trkpt><trkpt lat="45.8537251" lon="10.9583062"><ele>201.0</ele><time>2026-04-23T14:53:52.182Z</time></trkpt><trkpt lat="45.8538463" lon="10.9581361"><ele>201.0</ele><time>2026-04-23T14:53:53.181Z</time></trkpt><trkpt lat="45.8539587" lon="10.9579473"><ele>201.0</ele><time>2026-04-23T14:53:54.18Z</time></trkpt><trkpt lat="45.8540639" lon="10.9577451"><ele>201.33333333333331</ele><time>2026-04-23T14:53:55.181Z</time></trkpt><trkpt lat="45.8541608" lon="10.9575286"><ele>201.66666666666666</ele><time>2026-04-23T14:53:56.181Z</time></trkpt><trkpt lat="45.8542482" lon="10.9573014"><ele>202.0</ele><time>2026-04-23T14:53:57.181Z</time></trkpt><trkpt lat="45.8543294" lon="10.9570578"><ele>204.66666666666666</ele><time>2026-04-23T14:53:58.181Z</time></trkpt><trkpt lat="45.8544036" lon="10.9567988"><ele>207.33333333333331</ele><time>2026-04-23T14:53:59.18Z</time></trkpt><trkpt lat="45.8544706" lon="10.9565408"><ele>210.0</ele><time>2026-04-23T14:54:00.181Z</time></trkpt><trkpt lat="45.8545307" lon="10.956298"><ele>210.0</ele><time>2026-04-23T14:54:01.18Z</time></trkpt><trkpt lat="45.8545825" lon="10.9560645"><ele>210.0</ele><time>2026-04-23T14:54:02.181Z</time></trkpt><trkpt lat="45.8546176" lon="10.9558286"><ele>210.0</ele><time>2026-04-23T14:54:03.181Z</time></trkpt><trkpt lat="45.8546366" lon="10.9555883"><ele>210.0</ele><time>2026-04-23T14:54:04.181Z</time></trkpt><trkpt lat="45.8546394" lon="10.9553434"><ele>210.0</ele><time>2026-04-23T14:54:05.182Z</time></trkpt><trkpt lat="45.8546197" lon="10.9550991"><ele>210.0</ele><time>2026-04-23T14:54:06.181Z</time></trkpt><trkpt lat="45.8545876" lon="10.9548526"><ele>211.0</ele><time>2026-04-23T14:54:07.182Z</time></trkpt><trkpt lat="45.854552" lon="10.954612"><ele>212.0</ele><time>2026-04-23T14:54:08.181Z</time></trkpt><trkpt lat="45.854517" lon="10.9543893"><ele>213.0</ele><time>2026-04-23T14:54:09.18Z</time></trkpt><trkpt lat="45.8544887" lon="10.9541811"><ele>213.5</ele><time>2026-04-23T14:54:10.181Z</time></trkpt><trkpt lat="45.8544595" lon="10.9539808"><ele>214.0</ele><time>2026-04-23T14:54:11.181Z</time></trkpt><trkpt lat="45.8544278" lon="10.9537807"><ele>214.5</ele><time>2026-04-23T14:54:12.18Z</time></trkpt><trkpt lat="45.8543973" lon="10.9535842"><ele>215.0</ele><time>2026-04-23T14:54:13.181Z</time></trkpt><trkpt lat="45.8543685" lon="10.95339"><ele>216.5</ele><time>2026-04-23T14:54:14.181Z</time></trkpt><trkpt lat="45.8543433" lon="10.9531991"><ele>218.0</ele><time>2026-04-23T14:54:15.18Z</time></trkpt><trkpt lat="45.8543224" lon="10.9530197"><ele>219.5</ele><time>2026-04-23T14:54:16.181Z</time></trkpt><trkpt lat="45.8543076" lon="10.9528427"><ele>221.0</ele><time>2026-04-23T14:54:17.18Z</time></trkpt><trkpt lat="45.8543009" lon="10.9526684"><ele>221.75</ele><time>2026-04-23T14:54:18.181Z</time></trkpt><trkpt lat="45.8543039" lon="10.9524905"><ele>222.5</ele><time>2026-04-23T14:54:19.181Z</time></trkpt><trkpt lat="45.8543153" lon="10.9523113"><ele>223.25</ele><time>2026-04-23T14:54:20.182Z</time></trkpt><trkpt lat="45.8543347" lon="10.9521257"><ele>224.0</ele><time>2026-04-23T14:54:21.18Z</time></trkpt><trkpt lat="45.8543578" lon="10.9519374"><ele>224.0</ele><time>2026-04-23T14:54:22.181Z</time></trkpt><trkpt lat="45.8543804" lon="10.9517484"><ele>224.0</ele><time>2026-04-23T14:54:23.18Z</time></trkpt><trkpt lat="45.8544022" lon="10.951559"><ele>224.0</ele><time>2026-04-23T14:54:24.18Z</time></trkpt><trkpt lat="45.854427" lon="10.9513741"><ele>224.0</ele><time>2026-04-23T14:54:25.181Z</time></trkpt><trkpt lat="45.8544494" lon="10.9511967"><ele>224.0</ele><time>2026-04-23T14:54:26.18Z</time></trkpt><trkpt lat="45.8544692" lon="10.9510273"><ele>223.99999999999997</ele><time>2026-04-23T14:54:27.181Z</time></trkpt><trkpt lat="45.8544889" lon="10.9508708"><ele>223.99999999999997</ele><time>2026-04-23T14:54:28.181Z</time></trkpt><trkpt lat="45.8545074" lon="10.9507267"><ele>224.0</ele><time>2026-04-23T14:54:29.181Z</time></trkpt><trkpt lat="45.8545235" lon="10.950591"><ele>224.0</ele><time>2026-04-23T14:54:30.181Z</time></trkpt><trkpt lat="45.8545387" lon="10.9504661"><ele>224.00000000000003</ele><time>2026-04-23T14:54:31.181Z</time></trkpt><trkpt lat="45.854553" lon="10.9503508"><ele>224.0</ele><time>2026-04-23T14:54:32.18Z</time></trkpt><trkpt lat="45.854566" lon="10.9502447"><ele>224.0</ele><time>2026-04-23T14:54:33.182Z</time></trkpt><trkpt lat="45.8545803" lon="10.9501486"><ele>224.0</ele><time>2026-04-23T14:54:34.181Z</time></trkpt><trkpt lat="45.8545911" lon="10.950055"><ele>224.00000000000003</ele><time>2026-04-23T14:54:35.182Z</time></trkpt><trkpt lat="45.8546089" lon="10.9498987"><ele>224.0</ele><time>2026-04-23T14:54:37.181Z</time></trkpt><trkpt lat="45.8546303" lon="10.9497474"><ele>225.66666666666669</ele><time>2026-04-23T14:54:39.18Z</time></trkpt><trkpt lat="45.8546475" lon="10.9495874"><ele>227.33333333333334</ele><time>2026-04-23T14:54:41.18Z</time></trkpt><trkpt lat="45.8546719" lon="10.9494181"><ele>229.0</ele><time>2026-04-23T14:54:43.181Z</time></trkpt><trkpt lat="45.8546825" lon="10.949326"><ele>230.66666666666669</ele><time>2026-04-23T14:54:44.181Z</time></trkpt><trkpt lat="45.8546937" lon="10.9492369"><ele>232.33333333333334</ele><time>2026-04-23T14:54:45.181Z</time></trkpt><trkpt lat="45.8547065" lon="10.9491438"><ele>234.0</ele><time>2026-04-23T14:54:46.181Z</time></trkpt><trkpt lat="45.8547196" lon="10.9490415"><ele>235.39999999999998</ele><time>2026-04-23T14:54:47.18Z</time></trkpt><trkpt lat="45.8547347" lon="10.9489227"><ele>236.79999999999998</ele><time>2026-04-23T14:54:48.18Z</time></trkpt><trkpt lat="45.8547504" lon="10.9487869"><ele>238.20000000000002</ele><time>2026-04-23T14:54:49.181Z</time></trkpt><trkpt lat="45.8547683" lon="10.9486421"><ele>239.60000000000002</ele><time>2026-04-23T14:54:50.182Z</time></trkpt><trkpt lat="45.8547899" lon="10.9484806"><ele>241.0</ele><time>2026-04-23T14:54:51.181Z</time></trkpt><trkpt lat="45.8548135" lon="10.9482992"><ele>241.25</ele><time>2026-04-23T14:54:52.18Z</time></trkpt><trkpt lat="45.8548364" lon="10.948102"><ele>241.5</ele><time>2026-04-23T14:54:53.181Z</time></trkpt><trkpt lat="45.8548601" lon="10.9478972"><ele>241.75</ele><time>2026-04-23T14:54:54.18Z</time></trkpt><trkpt lat="45.8548863" lon="10.9476837"><ele>242.0</ele><time>2026-04-23T14:54:55.181Z</time></trkpt><trkpt lat="45.8549134" lon="10.9474661"><ele>241.0</ele><time>2026-04-23T14:54:56.182Z</time></trkpt><trkpt lat="45.8549397" lon="10.9472597"><ele>240.0</ele><time>2026-04-23T14:54:57.181Z</time></trkpt><trkpt lat="45.854965" lon="10.9470552"><ele>239.0</ele><time>2026-04-23T14:54:58.182Z</time></trkpt><trkpt lat="45.8549922" lon="10.9468425"><ele>238.0</ele><time>2026-04-23T14:54:59.182Z</time></trkpt><trkpt lat="45.855018" lon="10.9466284"><ele>235.33333333333331</ele><time>2026-04-23T14:55:00.181Z</time></trkpt><trkpt lat="45.855046" lon="10.9464122"><ele>232.66666666666669</ele><time>2026-04-23T14:55:01.181Z</time></trkpt><trkpt lat="45.8550742" lon="10.9461898"><ele>230.0</ele><time>2026-04-23T14:55:02.182Z</time></trkpt><trkpt lat="45.8551031" lon="10.9459669"><ele>247.66666666666669</ele><time>2026-04-23T14:55:03.182Z</time></trkpt><trkpt lat="45.8551302" lon="10.945741"><ele>265.3333333333333</ele><time>2026-04-23T14:55:04.182Z</time></trkpt><trkpt lat="45.8551579" lon="10.9455141"><ele>283.0</ele><time>2026-04-23T14:55:05.181Z</time></trkpt><trkpt lat="45.855188" lon="10.9452861"><ele>283.0</ele><time>2026-04-23T14:55:06.182Z</time></trkpt><trkpt lat="45.8552171" lon="10.9450475"><ele>283.0</ele><time>2026-04-23T14:55:07.181Z</time></trkpt><trkpt lat="45.8552478" lon="10.944802"><ele>283.0</ele><time>2026-04-23T14:55:08.18Z</time></trkpt><trkpt lat="45.8552777" lon="10.9445478"><ele>278.3333333333333</ele><time>2026-04-23T14:55:09.181Z</time></trkpt><trkpt lat="45.8553096" lon="10.9442876"><ele>273.6666666666667</ele><time>2026-04-23T14:55:10.18Z</time></trkpt><trkpt lat="45.8553419" lon="10.9440319"><ele>269.0</ele><time>2026-04-23T14:55:11.18Z</time></trkpt><trkpt lat="45.8553722" lon="10.9437934"><ele>265.33333333333337</ele><time>2026-04-23T14:55:12.182Z</time></trkpt><trkpt lat="45.8554031" lon="10.9435664"><ele>261.6666666666667</ele><time>2026-04-23T14:55:13.181Z</time></trkpt><trkpt lat="45.8554315" lon="10.9433405"><ele>258.0</ele><time>2026-04-23T14:55:14.181Z</time></trkpt><trkpt lat="45.855458" lon="10.9431147"><ele>256.0</ele><time>2026-04-23T14:55:15.181Z</time></trkpt><trkpt lat="45.8554839" lon="10.9428922"><ele>254.0</ele><time>2026-04-23T14:55:16.18Z</time></trkpt><trkpt lat="45.8555074" lon="10.9426696"><ele>252.0</ele><time>2026-04-23T14:55:17.18Z</time></trkpt><trkpt lat="45.8555264" lon="10.9424509"><ele>251.0</ele><time>2026-04-23T14:55:18.181Z</time></trkpt><trkpt lat="45.8555284" lon="10.9422295"><ele>250.0</ele><time>2026-04-23T14:55:19.181Z</time></trkpt><trkpt lat="45.8555118" lon="10.9420013"><ele>249.0</ele><time>2026-04-23T14:55:20.18Z</time></trkpt><trkpt lat="45.8554831" lon="10.9417731"><ele>248.0</ele><time>2026-04-23T14:55:21.181Z</time></trkpt><trkpt lat="45.8554378" lon="10.9415404"><ele>247.0</ele><time>2026-04-23T14:55:22.18Z</time></trkpt><trkpt lat="45.8553812" lon="10.9413191"><ele>246.0</ele><time>2026-04-23T14:55:23.18Z</time></trkpt><trkpt lat="45.8553187" lon="10.9411058"><ele>246.0</ele><time>2026-04-23T14:55:24.181Z</time></trkpt><trkpt lat="45.8552598" lon="10.9408989"><ele>246.0</ele><time>2026-04-23T14:55:25.181Z</time></trkpt><trkpt lat="45.8552032" lon="10.9406966"><ele>246.0</ele><time>2026-04-23T14:55:26.181Z</time></trkpt><trkpt lat="45.8551454" lon="10.9404924"><ele>237.0</ele><time>2026-04-23T14:55:27.181Z</time></trkpt><trkpt lat="45.8550863" lon="10.9402945"><ele>228.0</ele><time>2026-04-23T14:55:28.181Z</time></trkpt><trkpt lat="45.8550293" lon="10.9400959"><ele>219.0</ele><time>2026-04-23T14:55:29.18Z</time></trkpt><trkpt lat="45.8549692" lon="10.9398984"><ele>219.0</ele><time>2026-04-23T14:55:30.181Z</time></trkpt><trkpt lat="45.854913" lon="10.9396998"><ele>219.0</ele><time>2026-04-23T14:55:31.18Z</time></trkpt><trkpt lat="45.8548588" lon="10.9395105"><ele>219.0</ele><time>2026-04-23T14:55:32.18Z</time></trkpt><trkpt lat="45.854804" lon="10.9393244"><ele>219.0</ele><time>2026-04-23T14:55:33.181Z</time></trkpt><trkpt lat="45.8547514" lon="10.9391423"><ele>218.75</ele><time>2026-04-23T14:55:34.18Z</time></trkpt><trkpt lat="45.8546988" lon="10.9389647"><ele>218.5</ele><time>2026-04-23T14:55:35.18Z</time></trkpt><trkpt lat="45.8546461" lon="10.9387828"><ele>218.25</ele><time>2026-04-23T14:55:36.181Z</time></trkpt><trkpt lat="45.8545933" lon="10.9386013"><ele>218.0</ele><time>2026-04-23T14:55:37.181Z</time></trkpt><trkpt lat="45.8545426" lon="10.9384273"><ele>218.25</ele><time>2026-04-23T14:55:38.18Z</time></trkpt><trkpt lat="45.8544927" lon="10.9382573"><ele>218.5</ele><time>2026-04-23T14:55:39.181Z</time></trkpt><trkpt lat="45.8544424" lon="10.9380897"><ele>218.75</ele><time>2026-04-23T14:55:40.181Z</time></trkpt><trkpt lat="45.8543928" lon="10.9379227"><ele>219.0</ele><time>2026-04-23T14:55:41.18Z</time></trkpt><trkpt lat="45.8543452" lon="10.9377515"><ele>219.0</ele><time>2026-04-23T14:55:42.181Z</time></trkpt><trkpt lat="45.8543012" lon="10.9375787"><ele>219.0</ele><time>2026-04-23T14:55:43.18Z</time></trkpt><trkpt lat="45.8542615" lon="10.9373974"><ele>219.0</ele><time>2026-04-23T14:55:44.181Z</time></trkpt><trkpt lat="45.8542268" lon="10.9372088"><ele>219.0</ele><time>2026-04-23T14:55:45.18Z</time></trkpt><trkpt lat="45.8541993" lon="10.9370115"><ele>218.75</ele><time>2026-04-23T14:55:46.18Z</time></trkpt><trkpt lat="45.8541834" lon="10.9368159"><ele>218.5</ele><time>2026-04-23T14:55:47.18Z</time></trkpt><trkpt lat="45.8541764" lon="10.93663"><ele>218.25</ele><time>2026-04-23T14:55:48.181Z</time></trkpt><trkpt lat="45.8541817" lon="10.9364541"><ele>218.0</ele><time>2026-04-23T14:55:49.18Z</time></trkpt><trkpt lat="45.8541968" lon="10.9362854"><ele>218.5</ele><time>2026-04-23T14:55:50.181Z</time></trkpt><trkpt lat="45.854219" lon="10.9361214"><ele>219.0</ele><time>2026-04-23T14:55:51.181Z</time></trkpt><trkpt lat="45.8542467" lon="10.9359536"><ele>219.5</ele><time>2026-04-23T14:55:52.181Z</time></trkpt><trkpt lat="45.8542806" lon="10.9357843"><ele>220.0</ele><time>2026-04-23T14:55:53.181Z</time></trkpt><trkpt lat="45.8543173" lon="10.9356285"><ele>220.6</ele><time>2026-04-23T14:55:54.18Z</time></trkpt><trkpt lat="45.8543482" lon="10.9354877"><ele>221.2</ele><time>2026-04-23T14:55:55.181Z</time></trkpt><trkpt lat="45.8543774" lon="10.9353537"><ele>221.8</ele><time>2026-04-23T14:55:56.18Z</time></trkpt><trkpt lat="45.8544068" lon="10.9352205"><ele>222.4</ele><time>2026-04-23T14:55:57.181Z</time></trkpt><trkpt lat="45.854437" lon="10.9350938"><ele>223.0</ele><time>2026-04-23T14:55:58.18Z</time></trkpt><trkpt lat="45.8544662" lon="10.9349643"><ele>224.0</ele><time>2026-04-23T14:55:59.18Z</time></trkpt><trkpt lat="45.8544981" lon="10.9348304"><ele>225.0</ele><time>2026-04-23T14:56:00.181Z</time></trkpt><trkpt lat="45.8545296" lon="10.9346884"><ele>226.0</ele><time>2026-04-23T14:56:01.181Z</time></trkpt><trkpt lat="45.8545582" lon="10.9345444"><ele>227.0</ele><time>2026-04-23T14:56:02.181Z</time></trkpt><trkpt lat="45.8545912" lon="10.9344034"><ele>228.0</ele><time>2026-04-23T14:56:03.18Z</time></trkpt><trkpt lat="45.8546243" lon="10.9342577"><ele>228.2</ele><time>2026-04-23T14:56:04.181Z</time></trkpt><trkpt lat="45.854655" lon="10.9341126"><ele>228.4</ele><time>2026-04-23T14:56:05.18Z</time></trkpt><trkpt lat="45.854686" lon="10.9339752"><ele>228.59999999999997</ele><time>2026-04-23T14:56:06.18Z</time></trkpt><trkpt lat="45.8547167" lon="10.9338345"><ele>228.79999999999998</ele><time>2026-04-23T14:56:07.182Z</time></trkpt><trkpt lat="45.8547477" lon="10.9336923"><ele>229.0</ele><time>2026-04-23T14:56:08.181Z</time></trkpt><trkpt lat="45.8547814" lon="10.9335426"><ele>228.75</ele><time>2026-04-23T14:56:09.18Z</time></trkpt><trkpt lat="45.8548186" lon="10.9333878"><ele>228.5</ele><time>2026-04-23T14:56:10.18Z</time></trkpt><trkpt lat="45.854858" lon="10.9332285"><ele>228.25</ele><time>2026-04-23T14:56:11.18Z</time></trkpt><trkpt lat="45.8548952" lon="10.9330725"><ele>228.0</ele><time>2026-04-23T14:56:12.181Z</time></trkpt><trkpt lat="45.8549288" lon="10.9329293"><ele>228.0</ele><time>2026-04-23T14:56:13.181Z</time></trkpt><trkpt lat="45.8549613" lon="10.9327985"><ele>228.0</ele><time>2026-04-23T14:56:14.181Z</time></trkpt><trkpt lat="45.8549883" lon="10.9326871"><ele>228.0</ele><time>2026-04-23T14:56:15.18Z</time></trkpt><trkpt lat="45.8550171" lon="10.9325619"><ele>228.0</ele><time>2026-04-23T14:56:17.181Z</time></trkpt><trkpt lat="45.8550427" lon="10.9324602"><ele>228.0</ele><time>2026-04-23T14:56:20.181Z</time></trkpt><trkpt lat="45.8550913" lon="10.9323262"><ele>229.0</ele><time>2026-04-23T14:56:22.18Z</time></trkpt><trkpt lat="45.8551317" lon="10.9322532"><ele>229.99999999999997</ele><time>2026-04-23T14:56:23.181Z</time></trkpt><trkpt lat="45.8551803" lon="10.9321873"><ele>231.0</ele><time>2026-04-23T14:56:24.18Z</time></trkpt><trkpt lat="45.8552332" lon="10.9321224"><ele>232.0</ele><time>2026-04-23T14:56:25.181Z</time></trkpt><trkpt lat="45.8552754" lon="10.9320421"><ele>232.99999999999997</ele><time>2026-04-23T14:56:26.18Z</time></trkpt><trkpt lat="45.8552996" lon="10.9319426"><ele>234.0</ele><time>2026-04-23T14:56:27.18Z</time></trkpt><trkpt lat="45.8552987" lon="10.9318329"><ele>235.0</ele><time>2026-04-23T14:56:28.181Z</time></trkpt><trkpt lat="45.8552793" lon="10.931728"><ele>234.16666666666666</ele><time>2026-04-23T14:56:29.181Z</time></trkpt><trkpt lat="45.8552598" lon="10.9316252"><ele>233.33333333333331</ele><time>2026-04-23T14:56:30.181Z</time></trkpt><trkpt lat="45.8552632" lon="10.9315213"><ele>232.5</ele><time>2026-04-23T14:56:31.18Z</time></trkpt><trkpt lat="45.855279" lon="10.9314074"><ele>231.66666666666669</ele><time>2026-04-23T14:56:32.181Z</time></trkpt><trkpt lat="45.8552993" lon="10.9312823"><ele>230.83333333333334</ele><time>2026-04-23T14:56:33.182Z</time></trkpt><trkpt lat="45.8553262" lon="10.9311519"><ele>230.0</ele><time>2026-04-23T14:56:34.182Z</time></trkpt><trkpt lat="45.8553584" lon="10.9310087"><ele>230.0</ele><time>2026-04-23T14:56:35.181Z</time></trkpt><trkpt lat="45.855394" lon="10.9308531"><ele>230.0</ele><time>2026-04-23T14:56:36.182Z</time></trkpt><trkpt lat="45.8554323" lon="10.9306854"><ele>230.0</ele><time>2026-04-23T14:56:37.18Z</time></trkpt><trkpt lat="45.8554717" lon="10.9305152"><ele>230.0</ele><time>2026-04-23T14:56:38.18Z</time></trkpt><trkpt lat="45.8555147" lon="10.9303326"><ele>230.0</ele><time>2026-04-23T14:56:39.18Z</time></trkpt><trkpt lat="45.8555548" lon="10.930157"><ele>230.0</ele><time>2026-04-23T14:56:40.181Z</time></trkpt><trkpt lat="45.8555933" lon="10.9299902"><ele>230.0</ele><time>2026-04-23T14:56:41.181Z</time></trkpt><trkpt lat="45.8556294" lon="10.9298302"><ele>230.0</ele><time>2026-04-23T14:56:42.181Z</time></trkpt><trkpt lat="45.8556678" lon="10.9296675"><ele>229.0</ele><time>2026-04-23T14:56:43.18Z</time></trkpt><trkpt lat="45.8557063" lon="10.9295006"><ele>228.0</ele><time>2026-04-23T14:56:44.181Z</time></trkpt><trkpt lat="45.8557457" lon="10.9293304"><ele>227.0</ele><time>2026-04-23T14:56:45.18Z</time></trkpt><trkpt lat="45.8557844" lon="10.9291547"><ele>226.0</ele><time>2026-04-23T14:56:46.181Z</time></trkpt><trkpt lat="45.8558218" lon="10.928983"><ele>226.0</ele><time>2026-04-23T14:56:47.18Z</time></trkpt><trkpt lat="45.8558587" lon="10.9288078"><ele>226.0</ele><time>2026-04-23T14:56:48.18Z</time></trkpt><trkpt lat="45.8558941" lon="10.9286299"><ele>226.0</ele><time>2026-04-23T14:56:49.181Z</time></trkpt><trkpt lat="45.8559307" lon="10.9284523"><ele>226.0</ele><time>2026-04-23T14:56:50.181Z</time></trkpt><trkpt lat="45.8559676" lon="10.9282726"><ele>227.5</ele><time>2026-04-23T14:56:51.18Z</time></trkpt><trkpt lat="45.8560059" lon="10.9280995"><ele>229.0</ele><time>2026-04-23T14:56:52.18Z</time></trkpt><trkpt lat="45.8560443" lon="10.9279219"><ele>230.5</ele><time>2026-04-23T14:56:53.18Z</time></trkpt><trkpt lat="45.8560886" lon="10.9277286"><ele>232.0</ele><time>2026-04-23T14:56:54.181Z</time></trkpt><trkpt lat="45.8561349" lon="10.9275187"><ele>232.0</ele><time>2026-04-23T14:56:55.18Z</time></trkpt><trkpt lat="45.8561848" lon="10.9272888"><ele>232.0</ele><time>2026-04-23T14:56:56.181Z</time></trkpt><trkpt lat="45.8562368" lon="10.9270396"><ele>232.0</ele><time>2026-04-23T14:56:57.18Z</time></trkpt><trkpt lat="45.8562923" lon="10.9267951"><ele>230.33333333333331</ele><time>2026-04-23T14:56:58.181Z</time></trkpt><trkpt lat="45.8563502" lon="10.9265484"><ele>228.66666666666669</ele><time>2026-04-23T14:56:59.181Z</time></trkpt><trkpt lat="45.8564114" lon="10.9262971"><ele>227.0</ele><time>2026-04-23T14:57:00.181Z</time></trkpt><trkpt lat="45.856474" lon="10.9260392"><ele>225.0</ele><time>2026-04-23T14:57:01.181Z</time></trkpt><trkpt lat="45.8565377" lon="10.925766"><ele>223.0</ele><time>2026-04-23T14:57:02.18Z</time></trkpt><trkpt lat="45.8566027" lon="10.9254844"><ele>221.0</ele><time>2026-04-23T14:57:03.18Z</time></trkpt><trkpt lat="45.8566634" lon="10.9252131"><ele>221.0</ele><time>2026-04-23T14:57:04.181Z</time></trkpt><trkpt lat="45.8567219" lon="10.9249556"><ele>221.0</ele><time>2026-04-23T14:57:05.18Z</time></trkpt><trkpt lat="45.856781" lon="10.9247022"><ele>221.0</ele><time>2026-04-23T14:57:06.181Z</time></trkpt><trkpt lat="45.8568406" lon="10.9244454"><ele>220.33333333333334</ele><time>2026-04-23T14:57:07.181Z</time></trkpt><trkpt lat="45.8569001" lon="10.9241834"><ele>219.66666666666669</ele><time>2026-04-23T14:57:08.18Z</time></trkpt><trkpt lat="45.8569609" lon="10.9239174"><ele>219.0</ele><time>2026-04-23T14:57:09.181Z</time></trkpt><trkpt lat="45.857022" lon="10.9236484"><ele>220.0</ele><time>2026-04-23T14:57:10.18Z</time></trkpt><trkpt lat="45.8570829" lon="10.923384"><ele>221.0</ele><time>2026-04-23T14:57:11.181Z</time></trkpt><trkpt lat="45.85714" lon="10.9231302"><ele>222.0</ele><time>2026-04-23T14:57:12.181Z</time></trkpt><trkpt lat="45.8571956" lon="10.9228855"><ele>222.0</ele><time>2026-04-23T14:57:13.181Z</time></trkpt><trkpt lat="45.8572489" lon="10.9226491"><ele>222.0</ele><time>2026-04-23T14:57:14.181Z</time></trkpt><trkpt lat="45.8572997" lon="10.9224174"><ele>222.0</ele><time>2026-04-23T14:57:15.181Z</time></trkpt><trkpt lat="45.857349" lon="10.922197"><ele>222.33333333333331</ele><time>2026-04-23T14:57:16.181Z</time></trkpt><trkpt lat="45.8573957" lon="10.9219886"><ele>222.66666666666666</ele><time>2026-04-23T14:57:17.18Z</time></trkpt><trkpt lat="45.8574419" lon="10.9217847"><ele>223.0</ele><time>2026-04-23T14:57:18.181Z</time></trkpt><trkpt lat="45.8574914" lon="10.9215843"><ele>223.33333333333331</ele><time>2026-04-23T14:57:19.18Z</time></trkpt><trkpt lat="45.8575495" lon="10.9213844"><ele>223.66666666666669</ele><time>2026-04-23T14:57:20.18Z</time></trkpt><trkpt lat="45.8576209" lon="10.9211921"><ele>224.0</ele><time>2026-04-23T14:57:21.181Z</time></trkpt><trkpt lat="45.8577064" lon="10.9210035"><ele>222.66666666666669</ele><time>2026-04-23T14:57:22.181Z</time></trkpt><trkpt lat="45.8578057" lon="10.9208224"><ele>221.33333333333331</ele><time>2026-04-23T14:57:23.18Z</time></trkpt><trkpt lat="45.8579212" lon="10.9206566"><ele>220.0</ele><time>2026-04-23T14:57:24.18Z</time></trkpt><trkpt lat="45.8580505" lon="10.9205089"><ele>220.0</ele><time>2026-04-23T14:57:25.181Z</time></trkpt><trkpt lat="45.8581928" lon="10.920375"><ele>220.0</ele><time>2026-04-23T14:57:26.18Z</time></trkpt><trkpt lat="45.8583451" lon="10.9202458"><ele>220.0</ele><time>2026-04-23T14:57:27.181Z</time></trkpt><trkpt lat="45.8585038" lon="10.9201093"><ele>222.0</ele><time>2026-04-23T14:57:28.181Z</time></trkpt><trkpt lat="45.8586646" lon="10.9199727"><ele>224.0</ele><time>2026-04-23T14:57:29.18Z</time></trkpt><trkpt lat="45.8588197" lon="10.9198395"><ele>226.0</ele><time>2026-04-23T14:57:30.181Z</time></trkpt><trkpt lat="45.8589729" lon="10.9197099"><ele>226.0</ele><time>2026-04-23T14:57:31.18Z</time></trkpt><trkpt lat="45.8591277" lon="10.9195816"><ele>226.0</ele><time>2026-04-23T14:57:32.181Z</time></trkpt><trkpt lat="45.8592822" lon="10.9194471"><ele>226.0</ele><time>2026-04-23T14:57:33.181Z</time></trkpt><trkpt lat="45.8594383" lon="10.9193156"><ele>226.0</ele><time>2026-04-23T14:57:34.18Z</time></trkpt><trkpt lat="45.8595915" lon="10.9191874"><ele>226.0</ele><time>2026-04-23T14:57:35.181Z</time></trkpt><trkpt lat="45.8597371" lon="10.9190628"><ele>226.0</ele><time>2026-04-23T14:57:36.181Z</time></trkpt><trkpt lat="45.8598812" lon="10.9189371"><ele>226.0</ele><time>2026-04-23T14:57:37.18Z</time></trkpt><trkpt lat="45.8600265" lon="10.9188115"><ele>226.0</ele><time>2026-04-23T14:57:38.181Z</time></trkpt><trkpt lat="45.8601738" lon="10.9186896"><ele>226.0</ele><time>2026-04-23T14:57:39.181Z</time></trkpt><trkpt lat="45.8603262" lon="10.9185665"><ele>226.66666666666666</ele><time>2026-04-23T14:57:40.18Z</time></trkpt><trkpt lat="45.8604794" lon="10.9184399"><ele>227.33333333333331</ele><time>2026-04-23T14:57:41.181Z</time></trkpt><trkpt lat="45.8606306" lon="10.9183136"><ele>228.0</ele><time>2026-04-23T14:57:42.18Z</time></trkpt><trkpt lat="45.8607777" lon="10.918187"><ele>228.0</ele><time>2026-04-23T14:57:43.181Z</time></trkpt><trkpt lat="45.8609226" lon="10.9180618"><ele>228.0</ele><time>2026-04-23T14:57:44.181Z</time></trkpt><trkpt lat="45.8610669" lon="10.9179366"><ele>228.0</ele><time>2026-04-23T14:57:45.181Z</time></trkpt><trkpt lat="45.8612112" lon="10.9178104"><ele>228.66666666666669</ele><time>2026-04-23T14:57:46.181Z</time></trkpt><trkpt lat="45.8613516" lon="10.9176942"><ele>229.33333333333334</ele><time>2026-04-23T14:57:47.182Z</time></trkpt><trkpt lat="45.8614927" lon="10.9175836"><ele>230.0</ele><time>2026-04-23T14:57:48.182Z</time></trkpt><trkpt lat="45.8616363" lon="10.9174848"><ele>225.66666666666669</ele><time>2026-04-23T14:57:49.181Z</time></trkpt><trkpt lat="45.861782" lon="10.9173915"><ele>221.33333333333331</ele><time>2026-04-23T14:57:50.181Z</time></trkpt><trkpt lat="45.8619343" lon="10.9173087"><ele>217.0</ele><time>2026-04-23T14:57:51.182Z</time></trkpt><trkpt lat="45.8620903" lon="10.9172336"><ele>217.0</ele><time>2026-04-23T14:57:52.182Z</time></trkpt><trkpt lat="45.8622494" lon="10.9171673"><ele>217.0</ele><time>2026-04-23T14:57:53.18Z</time></trkpt><trkpt lat="45.862412" lon="10.9171159"><ele>217.0</ele><time>2026-04-23T14:57:54.181Z</time></trkpt><trkpt lat="45.8625744" lon="10.9170654"><ele>216.66666666666666</ele><time>2026-04-23T14:57:55.181Z</time></trkpt><trkpt lat="45.8627334" lon="10.9170152"><ele>216.33333333333331</ele><time>2026-04-23T14:57:56.181Z</time></trkpt><trkpt lat="45.8628857" lon="10.916967"><ele>216.0</ele><time>2026-04-23T14:57:57.18Z</time></trkpt><trkpt lat="45.8630307" lon="10.9169216"><ele>216.0</ele><time>2026-04-23T14:57:58.181Z</time></trkpt><trkpt lat="45.8631731" lon="10.9168804"><ele>216.0</ele><time>2026-04-23T14:57:59.18Z</time></trkpt><trkpt lat="45.8633205" lon="10.9168367"><ele>216.0</ele><time>2026-04-23T14:58:00.181Z</time></trkpt><trkpt lat="45.8634678" lon="10.916794"><ele>216.0</ele><time>2026-04-23T14:58:01.18Z</time></trkpt><trkpt lat="45.8636105" lon="10.9167535"><ele>221.0</ele><time>2026-04-23T14:58:02.181Z</time></trkpt><trkpt lat="45.8637472" lon="10.916709"><ele>226.0</ele><time>2026-04-23T14:58:03.18Z</time></trkpt><trkpt lat="45.8638852" lon="10.9166623"><ele>231.0</ele><time>2026-04-23T14:58:04.181Z</time></trkpt><trkpt lat="45.8640252" lon="10.9166141"><ele>236.0</ele><time>2026-04-23T14:58:05.181Z</time></trkpt><trkpt lat="45.8641607" lon="10.9165468"><ele>235.75</ele><time>2026-04-23T14:58:06.181Z</time></trkpt><trkpt lat="45.8642955" lon="10.916463"><ele>235.5</ele><time>2026-04-23T14:58:07.181Z</time></trkpt><trkpt lat="45.8644261" lon="10.9163614"><ele>235.25</ele><time>2026-04-23T14:58:08.181Z</time></trkpt><trkpt lat="45.8645561" lon="10.9162515"><ele>235.0</ele><time>2026-04-23T14:58:09.18Z</time></trkpt><trkpt lat="45.8646781" lon="10.9161307"><ele>235.0</ele><time>2026-04-23T14:58:10.18Z</time></trkpt><trkpt lat="45.8647974" lon="10.9160088"><ele>235.0</ele><time>2026-04-23T14:58:11.18Z</time></trkpt><trkpt lat="45.8649152" lon="10.9158844"><ele>235.0</ele><time>2026-04-23T14:58:12.18Z</time></trkpt><trkpt lat="45.8650345" lon="10.9157633"><ele>235.0</ele><time>2026-04-23T14:58:13.18Z</time></trkpt><trkpt lat="45.8651526" lon="10.915636"><ele>230.0</ele><time>2026-04-23T14:58:14.18Z</time></trkpt><trkpt lat="45.8652734" lon="10.9155123"><ele>225.0</ele><time>2026-04-23T14:58:15.181Z</time></trkpt><trkpt lat="45.8653974" lon="10.9153866"><ele>220.0</ele><time>2026-04-23T14:58:16.181Z</time></trkpt><trkpt lat="45.8655222" lon="10.9152628"><ele>220.0</ele><time>2026-04-23T14:58:17.181Z</time></trkpt><trkpt lat="45.8656505" lon="10.9151477"><ele>220.0</ele><time>2026-04-23T14:58:18.18Z</time></trkpt><trkpt lat="45.8657864" lon="10.9150494"><ele>220.0</ele><time>2026-04-23T14:58:19.181Z</time></trkpt><trkpt lat="45.8659257" lon="10.9149667"><ele>222.0</ele><time>2026-04-23T14:58:20.181Z</time></trkpt><trkpt lat="45.8660668" lon="10.9148966"><ele>224.0</ele><time>2026-04-23T14:58:21.181Z</time></trkpt><trkpt lat="45.8662088" lon="10.914842"><ele>226.0</ele><time>2026-04-23T14:58:22.181Z</time></trkpt><trkpt lat="45.8663477" lon="10.9148056"><ele>228.0</ele><time>2026-04-23T14:58:23.18Z</time></trkpt><trkpt lat="45.866486" lon="10.914788"><ele>228.0</ele><time>2026-04-23T14:58:24.181Z</time></trkpt><trkpt lat="45.8666159" lon="10.9147759"><ele>228.0</ele><time>2026-04-23T14:58:25.181Z</time></trkpt><trkpt lat="45.8667392" lon="10.9147635"><ele>228.0</ele><time>2026-04-23T14:58:26.18Z</time></trkpt><trkpt lat="45.866857" lon="10.9147529"><ele>228.0</ele><time>2026-04-23T14:58:27.181Z</time></trkpt><trkpt lat="45.866968" lon="10.9147434"><ele>227.4</ele><time>2026-04-23T14:58:28.182Z</time></trkpt><trkpt lat="45.8670742" lon="10.9147336"><ele>226.8</ele><time>2026-04-23T14:58:29.18Z</time></trkpt><trkpt lat="45.8671732" lon="10.9147239"><ele>226.2</ele><time>2026-04-23T14:58:30.181Z</time></trkpt><trkpt lat="45.8672648" lon="10.9147166"><ele>225.6</ele><time>2026-04-23T14:58:31.181Z</time></trkpt><trkpt lat="45.8673523" lon="10.9147102"><ele>225.0</ele><time>2026-04-23T14:58:32.18Z</time></trkpt><trkpt lat="45.867435" lon="10.9147025"><ele>225.0</ele><time>2026-04-23T14:58:33.18Z</time></trkpt><trkpt lat="45.867525" lon="10.9146916"><ele>225.0</ele><time>2026-04-23T14:58:34.18Z</time></trkpt><trkpt lat="45.8676135" lon="10.9146747"><ele>225.0</ele><time>2026-04-23T14:58:35.18Z</time></trkpt><trkpt lat="45.8677051" lon="10.9146459"><ele>225.0</ele><time>2026-04-23T14:58:36.18Z</time></trkpt><trkpt lat="45.8677948" lon="10.9145918"><ele>225.0</ele><time>2026-04-23T14:58:37.181Z</time></trkpt><trkpt lat="45.8678799" lon="10.9145081"><ele>224.25</ele><time>2026-04-23T14:58:38.18Z</time></trkpt><trkpt lat="45.8679505" lon="10.9143948"><ele>223.5</ele><time>2026-04-23T14:58:39.181Z</time></trkpt><trkpt lat="45.8680058" lon="10.9142603"><ele>222.75</ele><time>2026-04-23T14:58:40.181Z</time></trkpt><trkpt lat="45.8680392" lon="10.914103"><ele>222.0</ele><time>2026-04-23T14:58:41.18Z</time></trkpt><trkpt lat="45.8680599" lon="10.9139277"><ele>222.0</ele><time>2026-04-23T14:58:42.182Z</time></trkpt><trkpt lat="45.8680809" lon="10.9137401"><ele>222.0</ele><time>2026-04-23T14:58:43.181Z</time></trkpt><trkpt lat="45.8681042" lon="10.9135464"><ele>222.0</ele><time>2026-04-23T14:58:44.181Z</time></trkpt><trkpt lat="45.8681321" lon="10.9133564"><ele>222.0</ele><time>2026-04-23T14:58:45.181Z</time></trkpt><trkpt lat="45.868166" lon="10.9131607"><ele>221.5</ele><time>2026-04-23T14:58:46.181Z</time></trkpt><trkpt lat="45.8682164" lon="10.9129686"><ele>221.0</ele><time>2026-04-23T14:58:47.182Z</time></trkpt><trkpt lat="45.8682902" lon="10.912787"><ele>220.5</ele><time>2026-04-23T14:58:48.181Z</time></trkpt><trkpt lat="45.8683729" lon="10.9126079"><ele>220.0</ele><time>2026-04-23T14:58:49.18Z</time></trkpt><trkpt lat="45.8684577" lon="10.9124291"><ele>220.0</ele><time>2026-04-23T14:58:50.18Z</time></trkpt><trkpt lat="45.868545" lon="10.9122515"><ele>220.0</ele><time>2026-04-23T14:58:51.181Z</time></trkpt><trkpt lat="45.8686273" lon="10.9120824"><ele>220.0</ele><time>2026-04-23T14:58:52.18Z</time></trkpt><trkpt lat="45.8687061" lon="10.9119193"><ele>220.0</ele><time>2026-04-23T14:58:53.182Z</time></trkpt><trkpt lat="45.8687812" lon="10.9117589"><ele>221.25</ele><time>2026-04-23T14:58:54.182Z</time></trkpt><trkpt lat="45.8688453" lon="10.9115937"><ele>222.5</ele><time>2026-04-23T14:58:55.18Z</time></trkpt><trkpt lat="45.8688891" lon="10.9114285"><ele>223.75</ele><time>2026-04-23T14:58:56.181Z</time></trkpt><trkpt lat="45.8689198" lon="10.9112609"><ele>225.0</ele><time>2026-04-23T14:58:57.18Z</time></trkpt><trkpt lat="45.8689362" lon="10.9110913"><ele>225.0</ele><time>2026-04-23T14:58:58.181Z</time></trkpt><trkpt lat="45.8689309" lon="10.9109196"><ele>225.0</ele><time>2026-04-23T14:58:59.181Z</time></trkpt><trkpt lat="45.8689089" lon="10.910753"><ele>225.0</ele><time>2026-04-23T14:59:00.18Z</time></trkpt><trkpt lat="45.8688738" lon="10.9105874"><ele>225.0</ele><time>2026-04-23T14:59:01.182Z</time></trkpt><trkpt lat="45.8688248" lon="10.9104236"><ele>225.5</ele><time>2026-04-23T14:59:02.18Z</time></trkpt><trkpt lat="45.8687722" lon="10.9102668"><ele>226.0</ele><time>2026-04-23T14:59:03.18Z</time></trkpt><trkpt lat="45.8687184" lon="10.9101092"><ele>226.5</ele><time>2026-04-23T14:59:04.18Z</time></trkpt><trkpt lat="45.8686643" lon="10.9099498"><ele>227.0</ele><time>2026-04-23T14:59:05.181Z</time></trkpt><trkpt lat="45.8686117" lon="10.9097876"><ele>227.0</ele><time>2026-04-23T14:59:06.181Z</time></trkpt><trkpt lat="45.8685546" lon="10.9096286"><ele>227.0</ele><time>2026-04-23T14:59:07.18Z</time></trkpt><trkpt lat="45.8684979" lon="10.9094694"><ele>227.0</ele><time>2026-04-23T14:59:08.182Z</time></trkpt><trkpt lat="45.8684426" lon="10.9093054"><ele>227.0</ele><time>2026-04-23T14:59:09.181Z</time></trkpt><trkpt lat="45.8683858" lon="10.9091335"><ele>230.75</ele><time>2026-04-23T14:59:10.18Z</time></trkpt><trkpt lat="45.8683415" lon="10.9089513"><ele>234.5</ele><time>2026-04-23T14:59:11.18Z</time></trkpt><trkpt lat="45.8683075" lon="10.9087593"><ele>238.25</ele><time>2026-04-23T14:59:12.18Z</time></trkpt><trkpt lat="45.8682793" lon="10.9085655"><ele>242.0</ele><time>2026-04-23T14:59:13.182Z</time></trkpt><trkpt lat="45.8682571" lon="10.9083758"><ele>242.0</ele><time>2026-04-23T14:59:14.181Z</time></trkpt><trkpt lat="45.8682337" lon="10.9081958"><ele>242.0</ele><time>2026-04-23T14:59:15.182Z</time></trkpt><trkpt lat="45.8682117" lon="10.9080255"><ele>242.0</ele><time>2026-04-23T14:59:16.18Z</time></trkpt><trkpt lat="45.8681956" lon="10.9078642"><ele>242.0</ele><time>2026-04-23T14:59:17.181Z</time></trkpt><trkpt lat="45.8681905" lon="10.9076966"><ele>243.0</ele><time>2026-04-23T14:59:18.181Z</time></trkpt><trkpt lat="45.8682039" lon="10.9075241"><ele>244.0</ele><time>2026-04-23T14:59:19.181Z</time></trkpt><trkpt lat="45.8682402" lon="10.9073643"><ele>245.0</ele><time>2026-04-23T14:59:20.18Z</time></trkpt><trkpt lat="45.8682959" lon="10.9072231"><ele>246.0</ele><time>2026-04-23T14:59:21.18Z</time></trkpt><trkpt lat="45.868375" lon="10.9071056"><ele>246.0</ele><time>2026-04-23T14:59:22.181Z</time></trkpt><trkpt lat="45.8684658" lon="10.9070152"><ele>246.00000000000003</ele><time>2026-04-23T14:59:23.181Z</time></trkpt><trkpt lat="45.8685631" lon="10.9069528"><ele>246.00000000000003</ele><time>2026-04-23T14:59:24.18Z</time></trkpt><trkpt lat="45.8686584" lon="10.9069231"><ele>246.0</ele><time>2026-04-23T14:59:25.18Z</time></trkpt><trkpt lat="45.8687417" lon="10.9069168"><ele>246.0</ele><time>2026-04-23T14:59:26.181Z</time></trkpt><trkpt lat="45.868814" lon="10.9069245"><ele>246.0</ele><time>2026-04-23T14:59:27.181Z</time></trkpt><trkpt lat="45.8689256" lon="10.9069715"><ele>246.0</ele><time>2026-04-23T14:59:29.18Z</time></trkpt><trkpt lat="45.8690228" lon="10.907046"><ele>246.0</ele><time>2026-04-23T14:59:31.18Z</time></trkpt><trkpt lat="45.8690792" lon="10.907098"><ele>246.0</ele><time>2026-04-23T14:59:32.181Z</time></trkpt><trkpt lat="45.8691411" lon="10.9071541"><ele>246.0</ele><time>2026-04-23T14:59:33.181Z</time></trkpt><trkpt lat="45.869204" lon="10.9072112"><ele>246.0</ele><time>2026-04-23T14:59:34.181Z</time></trkpt><trkpt lat="45.8692664" lon="10.9072745"><ele>245.66666666666666</ele><time>2026-04-23T14:59:35.182Z</time></trkpt><trkpt lat="45.8693328" lon="10.9073397"><ele>245.33333333333331</ele><time>2026-04-23T14:59:36.18Z</time></trkpt><trkpt lat="45.8694032" lon="10.9074099"><ele>245.0</ele><time>2026-04-23T14:59:37.181Z</time></trkpt><trkpt lat="45.86948" lon="10.9074789"><ele>244.66666666666666</ele><time>2026-04-23T14:59:38.181Z</time></trkpt><trkpt lat="45.869559" lon="10.9075423"><ele>244.33333333333331</ele><time>2026-04-23T14:59:39.181Z</time></trkpt><trkpt lat="45.8696462" lon="10.9076027"><ele>244.0</ele><time>2026-04-23T14:59:40.181Z</time></trkpt><trkpt lat="45.8697444" lon="10.9076551"><ele>244.0</ele><time>2026-04-23T14:59:41.181Z</time></trkpt><trkpt lat="45.8698485" lon="10.9076972"><ele>243.99999999999997</ele><time>2026-04-23T14:59:42.181Z</time></trkpt><trkpt lat="45.8699517" lon="10.9077255"><ele>243.99999999999997</ele><time>2026-04-23T14:59:43.181Z</time></trkpt><trkpt lat="45.8700432" lon="10.9077487"><ele>244.0</ele><time>2026-04-23T14:59:44.18Z</time></trkpt><trkpt lat="45.8701239" lon="10.9077668"><ele>244.0</ele><time>2026-04-23T14:59:45.182Z</time></trkpt><trkpt lat="45.8701993" lon="10.9077823"><ele>244.71428571428567</ele><time>2026-04-23T14:59:46.18Z</time></trkpt><trkpt lat="45.8702753" lon="10.9077994"><ele>245.42857142857142</ele><time>2026-04-23T14:59:47.181Z</time></trkpt><trkpt lat="45.8703463" lon="10.9078145"><ele>246.1428571428571</ele><time>2026-04-23T14:59:48.18Z</time></trkpt><trkpt lat="45.8704144" lon="10.9078293"><ele>246.85714285714283</ele><time>2026-04-23T14:59:49.182Z</time></trkpt><trkpt lat="45.8704831" lon="10.9078472"><ele>247.57142857142856</ele><time>2026-04-23T14:59:50.18Z</time></trkpt><trkpt lat="45.8705556" lon="10.9078622"><ele>248.28571428571428</ele><time>2026-04-23T14:59:51.181Z</time></trkpt><trkpt lat="45.8706382" lon="10.9078828"><ele>249.0</ele><time>2026-04-23T14:59:52.181Z</time></trkpt><trkpt lat="45.87073" lon="10.9079049"><ele>249.0</ele><time>2026-04-23T14:59:53.18Z</time></trkpt><trkpt lat="45.8708274" lon="10.9079235"><ele>248.99999999999997</ele><time>2026-04-23T14:59:54.181Z</time></trkpt><trkpt lat="45.8709285" lon="10.9079395"><ele>248.99999999999997</ele><time>2026-04-23T14:59:55.181Z</time></trkpt><trkpt lat="45.8710359" lon="10.9079537"><ele>249.0</ele><time>2026-04-23T14:59:56.181Z</time></trkpt><trkpt lat="45.8711483" lon="10.9079538"><ele>249.0</ele><time>2026-04-23T14:59:57.18Z</time></trkpt><trkpt lat="45.8712549" lon="10.9079436"><ele>249.6</ele><time>2026-04-23T14:59:58.18Z</time></trkpt><trkpt lat="45.871354" lon="10.9079209"><ele>250.2</ele><time>2026-04-23T14:59:59.181Z</time></trkpt><trkpt lat="45.8714486" lon="10.9078906"><ele>250.79999999999998</ele><time>2026-04-23T15:00:00.181Z</time></trkpt><trkpt lat="45.8715445" lon="10.9078579"><ele>251.39999999999998</ele><time>2026-04-23T15:00:01.181Z</time></trkpt><trkpt lat="45.8716404" lon="10.907829"><ele>252.0</ele><time>2026-04-23T15:00:02.181Z</time></trkpt><trkpt lat="45.8717412" lon="10.907793"><ele>252.39999999999998</ele><time>2026-04-23T15:00:03.18Z</time></trkpt><trkpt lat="45.8718446" lon="10.9077555"><ele>252.79999999999998</ele><time>2026-04-23T15:00:04.18Z</time></trkpt><trkpt lat="45.8719535" lon="10.9077156"><ele>253.2</ele><time>2026-04-23T15:00:05.18Z</time></trkpt><trkpt lat="45.8720606" lon="10.9076739"><ele>253.6</ele><time>2026-04-23T15:00:06.18Z</time></trkpt><trkpt lat="45.8721641" lon="10.9076343"><ele>254.0</ele><time>2026-04-23T15:00:07.181Z</time></trkpt><trkpt lat="45.8722654" lon="10.9075966"><ele>256.59999999999997</ele><time>2026-04-23T15:00:08.181Z</time></trkpt><trkpt lat="45.8723666" lon="10.9075596"><ele>259.2</ele><time>2026-04-23T15:00:09.18Z</time></trkpt><trkpt lat="45.872471" lon="10.9075218"><ele>261.79999999999995</ele><time>2026-04-23T15:00:10.182Z</time></trkpt><trkpt lat="45.8725794" lon="10.9074832"><ele>264.4</ele><time>2026-04-23T15:00:11.18Z</time></trkpt><trkpt lat="45.8726892" lon="10.9074442"><ele>267.0</ele><time>2026-04-23T15:00:12.181Z</time></trkpt><trkpt lat="45.8727968" lon="10.9074048"><ele>267.8</ele><time>2026-04-23T15:00:13.18Z</time></trkpt><trkpt lat="45.8728963" lon="10.907368"><ele>268.6</ele><time>2026-04-23T15:00:14.18Z</time></trkpt><trkpt lat="45.8729943" lon="10.9073343"><ele>269.40000000000003</ele><time>2026-04-23T15:00:15.181Z</time></trkpt><trkpt lat="45.8730922" lon="10.9072966"><ele>270.2</ele><time>2026-04-23T15:00:16.181Z</time></trkpt><trkpt lat="45.8731899" lon="10.9072586"><ele>271.0</ele><time>2026-04-23T15:00:17.181Z</time></trkpt><trkpt lat="45.8732839" lon="10.9072244"><ele>271.0</ele><time>2026-04-23T15:00:18.18Z</time></trkpt><trkpt lat="45.8733724" lon="10.9071848"><ele>271.0</ele><time>2026-04-23T15:00:19.181Z</time></trkpt><trkpt lat="45.8734574" lon="10.9071297"><ele>271.0</ele><time>2026-04-23T15:00:20.181Z</time></trkpt><trkpt lat="45.8735416" lon="10.9070602"><ele>271.0</ele><time>2026-04-23T15:00:21.18Z</time></trkpt><trkpt lat="45.8736244" lon="10.9069764"><ele>271.0</ele><time>2026-04-23T15:00:22.18Z</time></trkpt><trkpt lat="45.8737032" lon="10.906875"><ele>272.5</ele><time>2026-04-23T15:00:23.181Z</time></trkpt><trkpt lat="45.8737824" lon="10.9067579"><ele>274.0</ele><time>2026-04-23T15:00:24.18Z</time></trkpt><trkpt lat="45.8738655" lon="10.906628"><ele>275.5</ele><time>2026-04-23T15:00:25.18Z</time></trkpt><trkpt lat="45.87395" lon="10.9064913"><ele>277.0</ele><time>2026-04-23T15:00:26.18Z</time></trkpt><trkpt lat="45.8740325" lon="10.9063547"><ele>277.0</ele><time>2026-04-23T15:00:27.181Z</time></trkpt><trkpt lat="45.8741148" lon="10.9062122"><ele>277.0</ele><time>2026-04-23T15:00:28.182Z</time></trkpt><trkpt lat="45.8741984" lon="10.9060657"><ele>277.0</ele><time>2026-04-23T15:00:29.18Z</time></trkpt><trkpt lat="45.8742787" lon="10.9059219"><ele>277.0</ele><time>2026-04-23T15:00:30.18Z</time></trkpt><trkpt lat="45.8743644" lon="10.9057886"><ele>276.0</ele><time>2026-04-23T15:00:31.18Z</time></trkpt><trkpt lat="45.8744646" lon="10.9056748"><ele>275.0</ele><time>2026-04-23T15:00:32.181Z</time></trkpt><trkpt lat="45.8745738" lon="10.9055782"><ele>274.0</ele><time>2026-04-23T15:00:33.18Z</time></trkpt><trkpt lat="45.8746947" lon="10.9055108"><ele>273.0</ele><time>2026-04-23T15:00:34.181Z</time></trkpt><trkpt lat="45.8748198" lon="10.9054599"><ele>273.0</ele><time>2026-04-23T15:00:35.181Z</time></trkpt><trkpt lat="45.8749519" lon="10.905421"><ele>273.0</ele><time>2026-04-23T15:00:36.18Z</time></trkpt><trkpt lat="45.8750853" lon="10.9053867"><ele>273.0</ele><time>2026-04-23T15:00:37.18Z</time></trkpt><trkpt lat="45.8752224" lon="10.9053514"><ele>273.0</ele><time>2026-04-23T15:00:38.181Z</time></trkpt><trkpt lat="45.8753631" lon="10.905319"><ele>273.25</ele><time>2026-04-23T15:00:39.181Z</time></trkpt><trkpt lat="45.8755068" lon="10.9052796"><ele>273.5</ele><time>2026-04-23T15:00:40.18Z</time></trkpt><trkpt lat="45.8756533" lon="10.9052381"><ele>273.75</ele><time>2026-04-23T15:00:41.181Z</time></trkpt><trkpt lat="45.8757934" lon="10.9051889"><ele>274.0</ele><time>2026-04-23T15:00:42.181Z</time></trkpt><trkpt lat="45.8759237" lon="10.9051312"><ele>274.0</ele><time>2026-04-23T15:00:43.181Z</time></trkpt><trkpt lat="45.8760458" lon="10.9050596"><ele>274.0</ele><time>2026-04-23T15:00:44.181Z</time></trkpt><trkpt lat="45.8761633" lon="10.9049656"><ele>274.0</ele><time>2026-04-23T15:00:45.18Z</time></trkpt><trkpt lat="45.8762739" lon="10.9048595"><ele>274.0</ele><time>2026-04-23T15:00:46.18Z</time></trkpt><trkpt lat="45.8763749" lon="10.9047416"><ele>274.0</ele><time>2026-04-23T15:00:47.181Z</time></trkpt><trkpt lat="45.8764653" lon="10.9046043"><ele>274.0</ele><time>2026-04-23T15:00:48.181Z</time></trkpt><trkpt lat="45.8765476" lon="10.9044528"><ele>274.0</ele><time>2026-04-23T15:00:49.18Z</time></trkpt><trkpt lat="45.8766257" lon="10.9042922"><ele>274.0</ele><time>2026-04-23T15:00:50.182Z</time></trkpt><trkpt lat="45.8767053" lon="10.9041253"><ele>272.0</ele><time>2026-04-23T15:00:51.181Z</time></trkpt><trkpt lat="45.8767867" lon="10.9039487"><ele>270.0</ele><time>2026-04-23T15:00:52.181Z</time></trkpt><trkpt lat="45.8768701" lon="10.9037641"><ele>268.0</ele><time>2026-04-23T15:00:53.181Z</time></trkpt><trkpt lat="45.8769556" lon="10.9035772"><ele>264.3333333333333</ele><time>2026-04-23T15:00:54.18Z</time></trkpt><trkpt lat="45.8770405" lon="10.9033887"><ele>260.6666666666667</ele><time>2026-04-23T15:00:55.181Z</time></trkpt><trkpt lat="45.8771233" lon="10.9032031"><ele>257.0</ele><time>2026-04-23T15:00:56.181Z</time></trkpt><trkpt lat="45.8772056" lon="10.9030223"><ele>257.0</ele><time>2026-04-23T15:00:57.181Z</time></trkpt><trkpt lat="45.8772881" lon="10.9028438"><ele>257.0</ele><time>2026-04-23T15:00:58.18Z</time></trkpt><trkpt lat="45.8773698" lon="10.9026643"><ele>257.0</ele><time>2026-04-23T15:00:59.181Z</time></trkpt><trkpt lat="45.8774515" lon="10.9024822"><ele>257.0</ele><time>2026-04-23T15:01:00.181Z</time></trkpt><trkpt lat="45.8775322" lon="10.9023023"><ele>256.25</ele><time>2026-04-23T15:01:01.182Z</time></trkpt><trkpt lat="45.8776118" lon="10.9021307"><ele>255.5</ele><time>2026-04-23T15:01:02.181Z</time></trkpt><trkpt lat="45.8776836" lon="10.9019723"><ele>254.75</ele><time>2026-04-23T15:01:03.181Z</time></trkpt><trkpt lat="45.8777449" lon="10.9018153"><ele>254.0</ele><time>2026-04-23T15:01:04.18Z</time></trkpt><trkpt lat="45.8777968" lon="10.9016582"><ele>252.0</ele><time>2026-04-23T15:01:05.18Z</time></trkpt><trkpt lat="45.8778402" lon="10.9014982"><ele>250.0</ele><time>2026-04-23T15:01:06.18Z</time></trkpt><trkpt lat="45.8778758" lon="10.9013354"><ele>248.0</ele><time>2026-04-23T15:01:07.181Z</time></trkpt><trkpt lat="45.877906" lon="10.9011744"><ele>246.0</ele><time>2026-04-23T15:01:08.18Z</time></trkpt><trkpt lat="45.8779295" lon="10.9010066"><ele>244.25</ele><time>2026-04-23T15:01:09.181Z</time></trkpt><trkpt lat="45.8779459" lon="10.9008307"><ele>242.5</ele><time>2026-04-23T15:01:10.18Z</time></trkpt><trkpt lat="45.8779534" lon="10.9006461"><ele>240.75</ele><time>2026-04-23T15:01:11.181Z</time></trkpt><trkpt lat="45.8779586" lon="10.9004541"><ele>239.0</ele><time>2026-04-23T15:01:12.18Z</time></trkpt><trkpt lat="45.8779647" lon="10.9002672"><ele>239.0</ele><time>2026-04-23T15:01:13.181Z</time></trkpt><trkpt lat="45.8779693" lon="10.9000833"><ele>239.0</ele><time>2026-04-23T15:01:14.18Z</time></trkpt><trkpt lat="45.8779721" lon="10.8999053"><ele>239.0</ele><time>2026-04-23T15:01:15.181Z</time></trkpt><trkpt lat="45.8779758" lon="10.8997333"><ele>239.0</ele><time>2026-04-23T15:01:16.182Z</time></trkpt><trkpt lat="45.8779806" lon="10.8995745"><ele>237.39999999999998</ele><time>2026-04-23T15:01:17.181Z</time></trkpt><trkpt lat="45.8779837" lon="10.8994225"><ele>235.79999999999998</ele><time>2026-04-23T15:01:18.182Z</time></trkpt><trkpt lat="45.8779864" lon="10.899272"><ele>234.20000000000002</ele><time>2026-04-23T15:01:19.18Z</time></trkpt><trkpt lat="45.8779898" lon="10.8991289"><ele>232.60000000000002</ele><time>2026-04-23T15:01:20.181Z</time></trkpt><trkpt lat="45.8779919" lon="10.8989887"><ele>231.0</ele><time>2026-04-23T15:01:21.181Z</time></trkpt><trkpt lat="45.8779936" lon="10.8988507"><ele>230.5</ele><time>2026-04-23T15:01:22.182Z</time></trkpt><trkpt lat="45.8779973" lon="10.8987127"><ele>230.0</ele><time>2026-04-23T15:01:23.18Z</time></trkpt><trkpt lat="45.8779999" lon="10.8985821"><ele>229.5</ele><time>2026-04-23T15:01:24.181Z</time></trkpt><trkpt lat="45.8780025" lon="10.8984701"><ele>229.0</ele><time>2026-04-23T15:01:25.18Z</time></trkpt><trkpt lat="45.8780048" lon="10.8983677"><ele>228.5</ele><time>2026-04-23T15:01:26.181Z</time></trkpt><trkpt lat="45.8780078" lon="10.8982065"><ele>228.0</ele><time>2026-04-23T15:01:28.181Z</time></trkpt><trkpt lat="45.8780107" lon="10.8980683"><ele>227.8</ele><time>2026-04-23T15:01:30.18Z</time></trkpt><trkpt lat="45.878015" lon="10.897936"><ele>227.60000000000002</ele><time>2026-04-23T15:01:32.181Z</time></trkpt><trkpt lat="45.8780188" lon="10.8977892"><ele>227.39999999999998</ele><time>2026-04-23T15:01:34.182Z</time></trkpt><trkpt lat="45.8780264" lon="10.8976461"><ele>227.2</ele><time>2026-04-23T15:01:36.18Z</time></trkpt><trkpt lat="45.8780414" lon="10.8975014"><ele>227.0</ele><time>2026-04-23T15:01:38.181Z</time></trkpt><trkpt lat="45.8780928" lon="10.897324"><ele>226.85714285714286</ele><time>2026-04-23T15:01:40.18Z</time></trkpt><trkpt lat="45.8781236" lon="10.8972322"><ele>226.71428571428572</ele><time>2026-04-23T15:01:41.181Z</time></trkpt><trkpt lat="45.8781425" lon="10.8971376"><ele>226.57142857142858</ele><time>2026-04-23T15:01:42.18Z</time></trkpt><trkpt lat="45.8781317" lon="10.8970371"><ele>226.42857142857144</ele><time>2026-04-23T15:01:43.181Z</time></trkpt><trkpt lat="45.8781053" lon="10.8969442"><ele>226.28571428571428</ele><time>2026-04-23T15:01:44.18Z</time></trkpt><trkpt lat="45.8780801" lon="10.8968581"><ele>226.14285714285717</ele><time>2026-04-23T15:01:45.18Z</time></trkpt><trkpt lat="45.8780666" lon="10.8967652"><ele>226.0</ele><time>2026-04-23T15:01:46.181Z</time></trkpt><trkpt lat="45.8780581" lon="10.8966491"><ele>225.60000000000002</ele><time>2026-04-23T15:01:47.18Z</time></trkpt><trkpt lat="45.8780581" lon="10.8965261"><ele>225.20000000000002</ele><time>2026-04-23T15:01:48.18Z</time></trkpt><trkpt lat="45.8780595" lon="10.8964026"><ele>224.79999999999998</ele><time>2026-04-23T15:01:49.18Z</time></trkpt><trkpt lat="45.8780634" lon="10.8962699"><ele>224.39999999999998</ele><time>2026-04-23T15:01:50.18Z</time></trkpt><trkpt lat="45.8780674" lon="10.896134"><ele>224.0</ele><time>2026-04-23T15:01:51.18Z</time></trkpt><trkpt lat="45.8780705" lon="10.8960021"><ele>223.79999999999998</ele><time>2026-04-23T15:01:52.181Z</time></trkpt><trkpt lat="45.8780691" lon="10.8958756"><ele>223.59999999999997</ele><time>2026-04-23T15:01:53.18Z</time></trkpt><trkpt lat="45.8780685" lon="10.8957431"><ele>223.4</ele><time>2026-04-23T15:01:54.182Z</time></trkpt><trkpt lat="45.8780769" lon="10.8955948"><ele>223.2</ele><time>2026-04-23T15:01:55.181Z</time></trkpt><trkpt lat="45.8780838" lon="10.8954367"><ele>223.0</ele><time>2026-04-23T15:01:56.181Z</time></trkpt><trkpt lat="45.8780896" lon="10.8952759"><ele>223.0</ele><time>2026-04-23T15:01:57.182Z</time></trkpt><trkpt lat="45.8780956" lon="10.8951177"><ele>223.0</ele><time>2026-04-23T15:01:58.181Z</time></trkpt><trkpt lat="45.8780978" lon="10.8949628"><ele>223.0</ele><time>2026-04-23T15:01:59.181Z</time></trkpt><trkpt lat="45.8781009" lon="10.8948133"><ele>223.0</ele><time>2026-04-23T15:02:00.181Z</time></trkpt><trkpt lat="45.8781052" lon="10.8946652"><ele>223.0</ele><time>2026-04-23T15:02:01.181Z</time></trkpt><trkpt lat="45.8781098" lon="10.894515"><ele>223.0</ele><time>2026-04-23T15:02:02.181Z</time></trkpt><trkpt lat="45.878118" lon="10.8943649"><ele>223.0</ele><time>2026-04-23T15:02:03.18Z</time></trkpt><trkpt lat="45.8781265" lon="10.8942202"><ele>223.0</ele><time>2026-04-23T15:02:04.181Z</time></trkpt><trkpt lat="45.8781381" lon="10.8940834"><ele>223.0</ele><time>2026-04-23T15:02:05.181Z</time></trkpt><trkpt lat="45.8781523" lon="10.8939521"><ele>223.0</ele><time>2026-04-23T15:02:06.18Z</time></trkpt><trkpt lat="45.8781701" lon="10.8938183"><ele>223.0</ele><time>2026-04-23T15:02:07.181Z</time></trkpt><trkpt lat="45.8781878" lon="10.8936821"><ele>223.0</ele><time>2026-04-23T15:02:08.181Z</time></trkpt><trkpt lat="45.8782113" lon="10.893546"><ele>223.0</ele><time>2026-04-23T15:02:09.18Z</time></trkpt><trkpt lat="45.8782376" lon="10.8934077"><ele>223.0</ele><time>2026-04-23T15:02:10.18Z</time></trkpt><trkpt lat="45.8782648" lon="10.8932733"><ele>223.0</ele><time>2026-04-23T15:02:11.181Z</time></trkpt><trkpt lat="45.8782904" lon="10.8931413"><ele>223.0</ele><time>2026-04-23T15:02:12.181Z</time></trkpt><trkpt lat="45.8783162" lon="10.8930103"><ele>223.0</ele><time>2026-04-23T15:02:13.181Z</time></trkpt><trkpt lat="45.8783426" lon="10.8928778"><ele>223.0</ele><time>2026-04-23T15:02:14.18Z</time></trkpt><trkpt lat="45.878368" lon="10.8927441"><ele>223.0</ele><time>2026-04-23T15:02:15.181Z</time></trkpt><trkpt lat="45.8783913" lon="10.8926125"><ele>223.0</ele><time>2026-04-23T15:02:16.182Z</time></trkpt><trkpt lat="45.8784127" lon="10.8924797"><ele>223.2</ele><time>2026-04-23T15:02:17.181Z</time></trkpt><trkpt lat="45.8784294" lon="10.8923373"><ele>223.4</ele><time>2026-04-23T15:02:18.181Z</time></trkpt><trkpt lat="45.8784453" lon="10.8921956"><ele>223.59999999999997</ele><time>2026-04-23T15:02:19.18Z</time></trkpt><trkpt lat="45.878459" lon="10.8920502"><ele>223.79999999999998</ele><time>2026-04-23T15:02:20.181Z</time></trkpt><trkpt lat="45.8784693" lon="10.8919003"><ele>224.0</ele><time>2026-04-23T15:02:21.18Z</time></trkpt><trkpt lat="45.8784793" lon="10.891747"><ele>224.0</ele><time>2026-04-23T15:02:22.18Z</time></trkpt><trkpt lat="45.8784849" lon="10.891597"><ele>223.99999999999997</ele><time>2026-04-23T15:02:23.18Z</time></trkpt><trkpt lat="45.8784894" lon="10.8914525"><ele>223.99999999999997</ele><time>2026-04-23T15:02:24.181Z</time></trkpt><trkpt lat="45.8784914" lon="10.8913146"><ele>224.0</ele><time>2026-04-23T15:02:25.181Z</time></trkpt><trkpt lat="45.8784915" lon="10.8911799"><ele>224.0</ele><time>2026-04-23T15:02:26.18Z</time></trkpt><trkpt lat="45.878492" lon="10.8910417"><ele>224.00000000000003</ele><time>2026-04-23T15:02:27.18Z</time></trkpt><trkpt lat="45.8784908" lon="10.8909039"><ele>224.0</ele><time>2026-04-23T15:02:28.181Z</time></trkpt><trkpt lat="45.8784893" lon="10.8907737"><ele>224.0</ele><time>2026-04-23T15:02:29.181Z</time></trkpt><trkpt lat="45.8784871" lon="10.8906467"><ele>224.0</ele><time>2026-04-23T15:02:30.181Z</time></trkpt><trkpt lat="45.8784845" lon="10.8905228"><ele>224.00000000000003</ele><time>2026-04-23T15:02:31.18Z</time></trkpt><trkpt lat="45.8784805" lon="10.8904021"><ele>224.0</ele><time>2026-04-23T15:02:32.181Z</time></trkpt><trkpt lat="45.8784801" lon="10.8902974"><ele>224.0</ele><time>2026-04-23T15:02:33.181Z</time></trkpt><trkpt lat="45.8784802" lon="10.8901191"><ele>223.99999999999997</ele><time>2026-04-23T15:02:35.182Z</time></trkpt><trkpt lat="45.878503" lon="10.8899603"><ele>223.99999999999997</ele><time>2026-04-23T15:02:37.181Z</time></trkpt><trkpt lat="45.8785489" lon="10.889823"><ele>224.0</ele><time>2026-04-23T15:02:39.181Z</time></trkpt><trkpt lat="45.8785822" lon="10.8896933"><ele>224.0</ele><time>2026-04-23T15:02:41.181Z</time></trkpt><trkpt lat="45.8786046" lon="10.889571"><ele>222.0</ele><time>2026-04-23T15:02:43.18Z</time></trkpt><trkpt lat="45.878612" lon="10.8894684"><ele>222.0</ele><time>2026-04-23T15:02:46.18Z</time></trkpt><trkpt lat="45.8785846" lon="10.8893765"><ele>222.0</ele><time>2026-04-23T15:07:31.182Z</time></trkpt></trkseg></trk></gpx>